<
# Wetter Temperatur Luftdruck Luftfeuchtigkeit Sichtweite Windgeschwindigkeit Windrichtung Zeit
1 Clear 7 1004 70 10000 2.06 180 05:19 02.10.2022
2 Clear 8 1005 62 10000 2.52 55 00:57 02.10.2022
3 Clouds 7 1004 57 10000 2.06 90 00:37 02.10.2022
4 Clouds 6 1004 57 10000 3.6 80 23:24 01.10.2022
5 Clear 2 1003 70 10000 3.09 330 21:39 01.10.2022
6 Clear 1 1004 73 10000 2.49 55 18:54 01.10.2022
7 Clear 1 1004 75 10000 3.09 350 17:28 01.10.2022
8 Clear 0 1004 80 10000 2.57 10 14:50 01.10.2022
9 Clear 2 1004 76 10000 3.09 40 13:44 01.10.2022
10 Clear 1 1004 80 10000 3.09 20 12:34 01.10.2022
11 Clear 2 1005 75 10000 2.57 30 11:22 01.10.2022
12 Clear 2 1005 75 10000 4.12 360 10:47 01.10.2022
13 Clear 2 1005 76 10000 4.12 360 10:26 01.10.2022
14 Clear 2 1005 75 10000 4.12 10 09:21 01.10.2022
15 Clear 2 1006 75 10000 3.6 10 08:26 01.10.2022
16 Clear 8 1007 53 10000 3.6 90 03:42 01.10.2022
17 Clear 8 1008 49 10000 3.09 90 02:37 01.10.2022
18 Clear 6 1009 57 10000 3.09 20 23:21 30.09.2022
19 Clouds 3 1010 86 10000 2.66 36 21:58 30.09.2022
20 Clouds 0 1010 93 10000 2.63 30 20:53 30.09.2022
21 Clear 0 1010 80 10000 1.54 10 20:20 30.09.2022
22 Clear 0 1010 86 10000 1.54 40 18:28 30.09.2022
23 Clear 1 1011 84 10000 2.92 10 16:54 30.09.2022
24 Clear 0 1010 86 10000 2.57 20 14:24 30.09.2022
25 Clear 1 1009 86 10000 0 0 12:50 30.09.2022
26 Clouds -1 1011 94 10000 1.98 341 11:56 30.09.2022
27 Clouds 4 1009 76 10000 2.57 330 09:24 30.09.2022
28 Clouds 4 1010 85 10000 1.84 331 07:58 30.09.2022
29 Clouds 9 1005 66 10000 6.17 340 03:35 30.09.2022
30 Clouds 7 1004 70 10000 5.14 360 01:44 30.09.2022
31 Clouds 6 1001 81 10000 6.17 360 21:40 29.09.2022
32 Clouds 6 1001 82 10000 6.17 360 21:19 29.09.2022
33 Rain 4 1002 95 10000 4.04 355 19:56 29.09.2022
34 Rain 5 998 82 10000 5.14 340 18:30 29.09.2022
35 Rain 6 997 82 10000 4.12 360 16:29 29.09.2022
36 Rain 6 996 87 10000 4.12 360 15:37 29.09.2022
37 Rain 5 998 93 10000 5.35 360 14:59 29.09.2022
38 Rain 6 995 82 10000 8.23 30 12:39 29.09.2022
39 Rain 4 994 87 10000 10.29 30 08:47 29.09.2022
40 Rain 4 995 87 10000 6.69 20 04:46 29.09.2022
41 Rain 4 996 87 9656 7.72 40 02:36 29.09.2022
42 Rain 5 997 81 10000 5.14 50 23:26 28.09.2022
43 Clouds 5 998 75 10000 6.69 40 21:40 28.09.2022
44 Clouds 5 998 75 10000 6.69 40 21:22 28.09.2022
45 Clouds 5 1001 80 10000 5.42 53 19:57 28.09.2022
46 Clear 5 1000 76 10000 6.69 40 16:52 28.09.2022
47 Clear 5 1001 81 10000 5.66 40 14:19 28.09.2022
48 Clouds 6 1002 82 10000 3.6 50 11:49 28.09.2022
49 Clouds 4 1003 93 10000 3.09 40 09:49 28.09.2022
50 Clouds 7 1003 82 10000 2.06 40 07:52 28.09.2022
51 Rain 8 1003 76 10000 4.63 90 05:48 28.09.2022
52 Rain 8 1003 77 10000 5.66 90 01:47 28.09.2022
53 Rain 8 1003 77 10000 5.66 90 01:25 28.09.2022
54 Clouds 6 1003 76 10000 3.6 70 22:49 27.09.2022
55 Rain 4 1002 87 10000 0 0 21:20 27.09.2022
56 Clear 2 1002 93 10000 2.57 40 20:34 27.09.2022
57 Clouds 1 1002 100 10000 1.54 30 19:40 27.09.2022
58 Rain 4 1002 93 10000 0 0 17:47 27.09.2022
59 Rain 4 1002 93 10000 0 0 17:29 27.09.2022
60 Rain 5 1002 93 10000 0 0 15:18 27.09.2022
61 Rain 6 1002 81 10000 3.6 120 14:21 27.09.2022
62 Clouds 3 1001 87 10000 1.54 10 12:39 27.09.2022
63 Clouds 3 1001 87 10000 1.54 10 12:39 27.09.2022
64 Rain 3 1000 93 10000 2.57 360 10:45 27.09.2022
65 Rain 7 1000 70 10000 3.6 70 08:36 27.09.2022
66 Clouds 8 1000 77 10000 1.54 280 05:48 27.09.2022
67 Clouds 9 1000 66 10000 4.12 90 01:40 27.09.2022
68 Clouds 9 1000 66 10000 5.14 100 00:28 27.09.2022
69 Clear 8 1001 71 10000 4.12 80 23:24 26.09.2022
70 Clouds 6 1001 81 10000 3.6 20 21:44 26.09.2022
71 Clouds 5 1001 81 10000 4.63 40 20:26 26.09.2022
72 Clouds 5 1001 82 10000 3.09 20 19:21 26.09.2022
73 Clouds 6 1002 81 10000 3.6 50 17:27 26.09.2022
74 Clouds 6 1003 87 10000 3.09 60 15:44 26.09.2022
75 Rain 5 1004 87 10000 3.09 360 13:25 26.09.2022
76 Rain 6 1004 87 10000 3.09 350 11:28 26.09.2022
77 Clouds 7 1005 82 10000 3.6 70 10:36 26.09.2022
78 Clouds 7 1005 82 10000 3.6 70 10:18 26.09.2022
79 Clouds 6 1005 87 10000 2.06 40 09:52 26.09.2022
80 Clouds 6 1005 87 10000 2.06 40 09:22 26.09.2022
81 Clouds 9 1005 67 10000 3.6 40 05:50 26.09.2022
82 Clouds 10 1005 76 10000 2.57 140 02:41 26.09.2022
83 Clear 8 1005 76 10000 6.17 90 23:26 25.09.2022
84 Clouds 8 1005 71 10000 5.66 80 21:48 25.09.2022
85 Clouds 8 1005 71 10000 5.66 80 21:25 25.09.2022
86 Rain 7 1004 81 10000 4.12 60 20:37 25.09.2022
87 Rain 6 1004 81 10000 3.6 60 19:25 25.09.2022
88 Clouds 6 1004 82 10000 4.63 40 18:29 25.09.2022
89 Clouds 6 1004 82 10000 4.63 40 18:29 25.09.2022
90 Clouds 6 1004 81 10000 3.6 40 17:41 25.09.2022
91 Clouds 4 1004 87 10000 4.12 10 16:21 25.09.2022
92 Clouds 2 1005 96 10000 3.61 38 14:55 25.09.2022
93 Clouds 4 1003 93 10000 1.54 20 14:20 25.09.2022
94 Clouds 6 1003 82 10000 3.6 70 11:53 25.09.2022
95 Clouds 4 1003 93 10000 2.57 10 09:48 25.09.2022
96 Clouds 5 1002 87 10000 3.09 360 07:45 25.09.2022
97 Rain 8 1001 77 10000 2.57 40 05:29 25.09.2022
98 Rain 7 999 81 10000 5.14 30 23:37 24.09.2022
99 Rain 7 999 77 10000 5.14 40 22:34 24.09.2022
100 Rain 6 998 87 10000 3.6 350 20:36 24.09.2022
101 Clouds 6 997 87 10000 4.12 40 19:20 24.09.2022
102 Clouds 6 996 87 10000 2.57 10 16:58 24.09.2022
103 Clouds 6 996 87 10000 2.57 10 16:23 24.09.2022
104 Clouds 5 996 87 10000 2.57 360 15:19 24.09.2022
105 Clouds 5 995 87 10000 2.06 20 13:23 24.09.2022
106 Clouds 5 995 87 10000 3.09 20 12:40 24.09.2022
107 Rain 6 994 93 10000 1.54 350 10:18 24.09.2022
108 Rain 6 994 93 10000 1.54 10 09:22 24.09.2022
109 Rain 7 993 87 10000 0 0 08:42 24.09.2022
110 Rain 8 992 87 10000 3.6 80 04:58 24.09.2022
111 Rain 8 992 87 10000 3.09 110 04:31 24.09.2022
112 Clouds 8 990 81 10000 3.09 80 23:47 23.09.2022
113 Clouds 7 990 87 10000 3.09 40 21:44 23.09.2022
114 Clouds 7 990 87 10000 3.09 40 21:24 23.09.2022
115 Clouds 5 990 93 10000 2.57 40 20:54 23.09.2022
116 Clouds 5 990 93 10000 2.06 20 19:44 23.09.2022
117 Clouds 6 990 97 10000 3.03 49 17:55 23.09.2022
118 Clouds 6 988 93 10000 3.6 70 13:41 23.09.2022
119 Clouds 7 988 93 10000 1.54 80 10:25 23.09.2022
120 Rain 7 987 93 10000 2.06 80 08:45 23.09.2022
121 Rain 8 987 93 10000 4.12 150 03:37 23.09.2022
122 Clouds 8 986 93 10000 7.72 110 23:30 22.09.2022
123 Clouds 8 986 93 10000 7.2 110 22:28 22.09.2022
124 Rain 7 986 100 9656 6.69 110 21:36 22.09.2022
125 Rain 7 986 100 4828 6.17 110 20:31 22.09.2022
126 Clouds 7 986 93 10000 6.69 110 18:59 22.09.2022
127 Rain 7 987 93 10000 8.75 130 15:58 22.09.2022
128 Rain 7 988 93 4023 9.26 140 10:55 22.09.2022
129 Rain 7 988 87 10000 10.8 140 10:19 22.09.2022
130 Rain 7 990 82 10000 9.77 140 08:22 22.09.2022
131 Rain 7 991 82 10000 11.83 140 06:18 22.09.2022
132 Rain 7 995 82 10000 10.8 150 01:27 22.09.2022
133 Clouds 7 998 77 10000 10.8 140 22:29 21.09.2022
134 Clouds 7 999 77 10000 11.32 150 21:24 21.09.2022
135 Rain 7 1001 82 8047 6.69 150 19:22 21.09.2022
136 Rain 7 1003 82 10000 9.26 140 17:45 21.09.2022
137 Rain 6 1006 82 10000 5.14 170 15:47 21.09.2022
138 Clouds 4 1008 95 10000 4.38 171 13:56 21.09.2022
139 Rain 6 1010 82 10000 5.14 190 11:44 21.09.2022
140 Rain 6 1010 82 10000 5.14 190 11:21 21.09.2022
141 Clouds 6 1012 71 10000 3.6 230 09:44 21.09.2022
142 Clouds 6 1012 76 10000 6.17 230 08:50 21.09.2022
143 Clouds 7 1014 84 10000 1.85 231 04:57 21.09.2022
144 Clouds 8 1014 71 10000 6.17 250 02:40 21.09.2022
145 Clouds 8 1016 76 10000 5.03 272 01:58 21.09.2022
146 Clouds 8 1015 71 10000 3.6 280 00:20 21.09.2022
147 Clouds 6 1016 88 10000 1.63 333 21:55 20.09.2022
148 Clouds 3 1014 93 10000 3.09 290 20:34 20.09.2022
149 Clouds 3 1014 93 10000 2.57 300 19:18 20.09.2022
150 Clouds 3 1014 95 10000 2.72 306 15:57 20.09.2022
151 Clouds 4 1012 93 10000 3.6 290 14:29 20.09.2022
152 Clouds 3 1011 100 10000 2.06 290 12:41 20.09.2022
153 Rain 5 1009 87 10000 3.09 320 08:51 20.09.2022
154 Rain 5 1009 87 10000 3.09 320 08:24 20.09.2022
155 Clouds 7 1007 76 10000 6.17 260 04:40 20.09.2022
156 Clouds 7 1007 76 10000 5.66 270 02:37 20.09.2022
157 Clouds 6 1006 87 10000 3.6 300 22:50 19.09.2022
158 Clouds 6 1005 87 10000 3.6 300 21:38 19.09.2022
159 Rain 7 1005 87 10000 7.2 210 20:45 19.09.2022
160 Rain 7 1005 82 10000 7.2 220 19:27 19.09.2022
161 Clouds 7 1005 82 10000 6.17 230 17:37 19.09.2022
162 Clouds 7 1006 82 10000 8.23 220 13:56 19.09.2022
163 Clouds 7 1006 87 10000 7.2 210 12:48 19.09.2022
164 Clouds 7 1006 81 10000 7.72 220 10:31 19.09.2022
165 Clouds 8 1006 81 10000 8.23 210 08:51 19.09.2022
166 Clouds 8 1005 87 10000 9.26 200 05:42 19.09.2022
167 Rain 8 1005 91 10000 7.23 223 01:53 19.09.2022
168 Rain 8 1003 87 10000 11.32 220 23:22 18.09.2022
169 Rain 8 1002 87 10000 11.83 220 21:32 18.09.2022
170 Rain 8 1002 87 9656 12.35 220 20:23 18.09.2022
171 Clouds 8 1001 87 10000 11.83 220 17:53 18.09.2022
172 Clouds 8 1000 87 10000 13.38 220 17:19 18.09.2022
173 Clouds 8 999 87 10000 11.32 220 15:34 18.09.2022
174 Clouds 8 998 87 10000 13.89 230 13:47 18.09.2022
175 Clouds 8 997 87 10000 14.4 220 12:34 18.09.2022
176 Clouds 8 995 87 10000 13.89 220 10:45 18.09.2022
177 Rain 9 988 87 4828 18.01 210 03:40 18.09.2022
178 Rain 8 986 94 10000 16.54 212 01:24 18.09.2022
179 Rain 8 985 94 10000 16.19 210 00:21 18.09.2022
180 Rain 8 983 94 10000 16.91 207 21:39 17.09.2022
181 Rain 9 978 87 6437 15.43 190 19:42 17.09.2022
182 Rain 9 977 87 9656 14.92 190 18:57 17.09.2022
183 Rain 8 975 93 10000 16.33 192 15:58 17.09.2022
184 Rain 9 973 93 8047 14.4 170 13:56 17.09.2022
185 Rain 9 973 93 4828 15.95 160 10:57 17.09.2022
186 Rain 8 976 95 10000 19.05 153 08:55 17.09.2022
187 Rain 11 980 77 4828 15.43 140 06:24 17.09.2022
188 Rain 10 988 98 3142 11.95 144 23:59 16.09.2022
189 Rain 9 988 93 2816 12.86 110 22:52 16.09.2022
190 Rain 10 991 94 10000 13.83 113 20:59 16.09.2022
191 Clouds 10 993 87 10000 10.8 120 19:50 16.09.2022
192 Clouds 11 996 87 10000 7.72 110 16:38 16.09.2022
193 Clouds 10 997 93 10000 7.72 100 14:58 16.09.2022
194 Clouds 9 998 93 10000 6.17 80 13:43 16.09.2022
195 Clouds 8 1000 87 10000 4.12 60 10:50 16.09.2022
196 Clear 7 999 93 10000 2.06 40 08:19 16.09.2022
197 Clouds 9 999 87 10000 1.54 30 07:18 16.09.2022
198 Clouds 11 999 77 10000 2.57 110 06:34 16.09.2022
199 Rain 11 996 82 8047 2.06 120 02:38 16.09.2022
200 Clouds 10 993 87 10000 5.14 60 22:43 15.09.2022
201 Rain 8 991 93 6437 3.09 70 20:48 15.09.2022
202 Rain 8 991 93 8047 4.63 60 19:48 15.09.2022
203 Mist 8 991 93 4828 5.66 70 18:29 15.09.2022
204 Rain 8 991 93 6437 6.17 60 17:31 15.09.2022
205 Rain 8 991 93 9656 7.2 60 16:37 15.09.2022
206 Rain 8 993 93 10000 6.17 80 14:20 15.09.2022
207 Rain 8 994 93 10000 6.17 70 12:20 15.09.2022
208 Clouds 9 997 93 10000 4.63 80 09:52 15.09.2022
209 Clouds 10 998 87 10000 5.66 110 07:50 15.09.2022
210 Clouds 10 1000 93 10000 5.14 130 03:52 15.09.2022
211 Rain 10 1001 93 9656 3.6 170 23:44 14.09.2022
212 Clouds 10 1002 82 10000 2.57 90 21:30 14.09.2022
213 Clouds 9 1002 88 10000 1.54 60 19:34 14.09.2022
214 Clouds 9 1002 88 10000 0 0 18:32 14.09.2022
215 Clouds 8 1002 93 10000 0 0 16:44 14.09.2022
216 Clouds 8 1002 93 10000 0 0 15:34 14.09.2022
217 Clouds 10 1002 87 10000 1.54 30 13:36 14.09.2022
218 Clouds 10 1001 87 10000 0 0 10:52 14.09.2022
219 Clouds 11 1001 87 10000 1.54 100 09:41 14.09.2022
220 Clouds 11 1000 87 10000 2.06 140 06:52 14.09.2022
221 Clouds 11 1000 87 10000 2.06 140 06:34 14.09.2022
222 Clouds 11 1000 87 10000 2.06 140 06:34 14.09.2022
223 Clouds 11 1000 87 10000 2.06 140 06:34 14.09.2022
224 Clouds 12 1001 84 10000 4.91 105 03:55 14.09.2022
225 Clouds 12 1000 82 10000 4.63 100 01:43 14.09.2022
226 Clouds 12 1000 82 10000 4.63 100 01:21 14.09.2022
227 Clouds 12 1001 89 10000 6.44 86 23:55 13.09.2022
228 Rain 12 1000 82 10000 3.6 70 23:37 13.09.2022
229 Rain 12 1000 82 10000 3.6 70 23:19 13.09.2022
230 Clouds 11 1000 87 10000 3.6 80 22:44 13.09.2022
231 Clouds 11 999 87 10000 3.09 60 21:44 13.09.2022
232 Clouds 11 999 83 10000 3.09 40 19:32 13.09.2022
233 Clouds 10 999 87 10000 3.09 60 17:33 13.09.2022
234 Clouds 10 1000 94 10000 4.82 66 15:54 13.09.2022
235 Clouds 10 1000 95 10000 6.66 74 13:54 13.09.2022
236 Clouds 11 999 83 10000 4.12 50 12:30 13.09.2022
237 Clouds 11 999 87 10000 3.6 50 08:33 13.09.2022
238 Rain 11 999 87 10000 6.17 90 04:32 13.09.2022
239 Rain 11 999 93 10000 3.6 110 23:32 12.09.2022
240 Clouds 11 999 87 10000 4.63 90 22:49 12.09.2022
241 Clouds 10 999 93 10000 4.63 90 21:36 12.09.2022
242 Clouds 10 999 87 10000 3.6 80 20:25 12.09.2022
243 Clouds 10 999 87 10000 3.6 120 18:42 12.09.2022
244 Clouds 10 999 93 10000 4.63 110 16:23 12.09.2022
245 Clouds 11 999 87 10000 4.63 120 13:41 12.09.2022
246 Rain 11 998 87 10000 6.17 110 11:22 12.09.2022
247 Rain 11 998 93 6437 7.72 100 09:35 12.09.2022
248 Rain 11 998 93 9656 8.75 120 04:46 12.09.2022
249 Rain 11 998 93 6437 8.75 110 03:25 12.09.2022
250 Rain 9 999 93 2816 9.77 90 23:22 11.09.2022
251 Rain 8 1000 94 10000 9.86 77 21:57 11.09.2022
252 Mist 8 999 87 6437 9.26 80 20:46 11.09.2022
253 Rain 8 999 81 10000 8.75 70 19:51 11.09.2022
254 Rain 8 999 81 10000 8.75 70 19:22 11.09.2022
255 Rain 8 1000 77 10000 7.72 70 18:20 11.09.2022
256 Clouds 8 1001 76 10000 8.23 70 16:28 11.09.2022
257 Clouds 8 1002 76 10000 7.72 70 14:18 11.09.2022
258 Clouds 8 1003 67 10000 7.2 70 12:32 11.09.2022
259 Clouds 8 1005 72 10000 5.14 80 08:27 11.09.2022
260 Clouds 9 1005 71 10000 5.66 80 06:33 11.09.2022
261 Clouds 8 1006 71 10000 5.66 200 00:49 11.09.2022
262 Clouds 8 1006 76 10000 5.66 230 22:54 10.09.2022
263 Clouds 7 1006 89 10000 5.38 224 20:55 10.09.2022
264 Clouds 8 1004 82 10000 4.63 230 19:46 10.09.2022
265 Clouds 8 1004 82 10000 4.63 230 19:28 10.09.2022
266 Clouds 7 1004 82 10000 3.6 250 18:22 10.09.2022
267 Clouds 7 1003 81 10000 5.66 270 15:49 10.09.2022
268 Clouds 7 1003 81 10000 4.12 280 14:40 10.09.2022
269 Clouds 7 1002 81 10000 5.66 280 12:52 10.09.2022
270 Clouds 7 1000 81 10000 5.66 280 10:46 10.09.2022
271 Clouds 7 1000 81 10000 6.17 280 09:28 10.09.2022
272 Clouds 8 1000 77 10000 6.69 270 08:27 10.09.2022
273 Clouds 9 999 81 10000 6.17 280 06:41 10.09.2022
274 Clouds 11 997 71 10000 5.66 290 00:19 10.09.2022
275 Clouds 11 998 71 10000 6.69 280 23:31 09.09.2022
276 Clouds 10 997 76 10000 2.06 350 21:50 09.09.2022
277 Clouds 9 997 81 10000 3.09 10 20:41 09.09.2022
278 Clouds 9 997 81 10000 3.09 300 19:24 09.09.2022
279 Clouds 9 997 81 10000 3.6 350 18:46 09.09.2022
280 Clouds 9 997 81 10000 1.54 340 16:23 09.09.2022
281 Clouds 9 998 81 10000 4.63 300 13:48 09.09.2022
282 Clouds 10 999 85 10000 5.08 359 11:58 09.09.2022
283 Clouds 11 999 71 10000 4.63 340 09:22 09.09.2022
284 Clouds 13 1001 55 10000 9.26 360 04:29 09.09.2022
285 Clouds 13 1002 67 10000 8.1 18 02:53 09.09.2022
286 Clear 11 1006 62 10000 8.23 30 21:52 08.09.2022
287 Clouds 10 1007 66 10000 5.66 20 20:51 08.09.2022
288 Clouds 10 1007 66 10000 5.66 20 20:31 08.09.2022
289 Clear 9 1008 72 10000 5.14 20 19:44 08.09.2022
290 Clouds 9 1009 72 10000 6.17 30 17:44 08.09.2022
291 Clouds 9 1010 71 10000 3.09 40 16:19 08.09.2022
292 Clouds 9 1011 76 10000 5.66 30 14:37 08.09.2022
293 Clouds 9 1012 77 10000 4.63 30 13:23 08.09.2022
294 Clouds 8 1013 82 10000 3.09 30 11:37 08.09.2022
295 Clear 6 1013 87 10000 2.06 360 10:23 08.09.2022
296 Clear 11 1013 72 10000 2.06 70 07:49 08.09.2022
297 Clear 11 1013 71 10000 4.12 120 06:41 08.09.2022
298 Clouds 11 1012 76 10000 3.09 150 02:36 08.09.2022
299 Clouds 11 1012 76 10000 3.09 150 02:18 08.09.2022
300 Clouds 11 1012 76 10000 4.63 150 00:27 08.09.2022
301 Clouds 10 1011 81 10000 5.14 110 22:36 07.09.2022
302 Clouds 9 1011 87 10000 3.6 90 21:41 07.09.2022
303 Clouds 8 1010 87 10000 3.09 80 20:38 07.09.2022
304 Clouds 7 1009 93 10000 3.09 70 19:30 07.09.2022
305 Clouds 7 1009 93 10000 2.57 50 17:27 07.09.2022
306 Clouds 7 1008 87 10000 2.57 50 12:49 07.09.2022
307 Clouds 7 1008 93 10000 2.57 60 10:46 07.09.2022
308 Clouds 8 1007 87 10000 2.06 100 08:36 07.09.2022
309 Rain 9 1006 87 10000 2.57 90 06:51 07.09.2022
310 Clouds 10 1007 87 10000 3.09 180 01:50 07.09.2022
311 Rain 10 1007 82 10000 5.66 150 22:44 06.09.2022
312 Rain 9 1006 88 10000 1.54 100 21:39 06.09.2022
313 Rain 9 1006 93 6437 0 0 20:21 06.09.2022
314 Rain 9 1006 88 10000 2.57 80 18:45 06.09.2022
315 Rain 9 1007 93 10000 2.57 130 17:56 06.09.2022
316 Rain 9 1007 93 10000 2.06 80 17:20 06.09.2022
317 Clouds 9 1007 93 10000 2.06 100 16:37 06.09.2022
318 Clouds 10 1007 88 10000 3.6 160 14:55 06.09.2022
319 Clouds 10 1007 87 10000 5.66 150 13:45 06.09.2022
320 Clouds 10 1007 87 10000 5.66 150 13:21 06.09.2022
321 Clouds 10 1007 87 10000 4.12 150 11:54 06.09.2022
322 Clouds 10 1007 87 10000 4.12 170 10:41 06.09.2022
323 Rain 10 1007 87 10000 3.6 170 08:41 06.09.2022
324 Clouds 10 1007 87 10000 4.63 170 07:37 06.09.2022
325 Clouds 10 1007 82 10000 4.12 170 02:34 06.09.2022
326 Rain 9 1007 93 10000 3.09 130 23:22 05.09.2022
327 Rain 9 1007 93 3219 3.6 170 21:52 05.09.2022
328 Clouds 9 1007 88 10000 3.6 150 20:32 05.09.2022
329 Clouds 9 1007 88 10000 3.6 160 19:19 05.09.2022
330 Clouds 8 1007 93 10000 4.12 180 18:44 05.09.2022
331 Clouds 8 1007 93 10000 4.12 180 18:21 05.09.2022
332 Clouds 9 1007 87 10000 3.09 140 16:35 05.09.2022
333 Rain 9 1008 87 10000 3.6 150 15:46 05.09.2022
334 Clouds 9 1008 82 10000 2.57 160 13:25 05.09.2022
335 Clouds 9 1008 82 10000 3.09 150 12:26 05.09.2022
336 Clouds 9 1009 82 10000 3.6 160 09:44 05.09.2022
337 Clouds 10 1009 81 10000 3.09 180 06:40 05.09.2022
338 Clouds 12 1010 79 10000 2.96 156 01:56 05.09.2022
339 Clouds 10 1008 81 10000 2.57 130 22:59 04.09.2022
340 Clouds 10 1008 81 10000 2.57 130 22:27 04.09.2022
341 Clear 7 1007 87 10000 1.54 10 20:44 04.09.2022
342 Clear 4 1007 93 10000 1.54 10 19:29 04.09.2022
343 Clouds 7 1007 83 10000 2.36 30 17:55 04.09.2022
344 Clouds 6 1005 87 10000 1.54 20 16:42 04.09.2022
345 Clouds 8 1004 87 10000 3.6 270 14:29 04.09.2022
346 Clouds 8 1004 87 10000 2.06 270 13:28 04.09.2022
347 Clouds 8 1004 87 10000 2.06 270 13:28 04.09.2022
348 Clouds 7 1004 92 10000 1.96 295 11:54 04.09.2022
349 Clouds 8 1003 87 10000 3.6 280 10:28 04.09.2022
350 Clouds 9 1001 76 10000 5.14 280 07:29 04.09.2022
351 Clear 9 1001 81 10000 8.23 250 04:44 04.09.2022
352 Clear 10 1000 81 10000 8.23 260 00:47 04.09.2022
353 Clouds 9 1000 81 10000 4.12 300 22:21 03.09.2022
354 Clear 8 1000 77 10000 2.57 280 21:23 03.09.2022
355 Clear 5 999 87 10000 3.6 310 19:39 03.09.2022
356 Clear 3 999 93 10000 2.57 320 17:26 03.09.2022
357 Clear 4 999 93 10000 0 0 16:27 03.09.2022
358 Clear 6 998 87 10000 0 0 14:45 03.09.2022
359 Clouds 6 1000 91 10000 2.45 356 13:58 03.09.2022
360 Clear 9 999 82 10000 1.54 270 12:24 03.09.2022
361 Clouds 10 998 77 10000 0 0 10:41 03.09.2022
362 Clouds 11 997 77 10000 5.14 360 08:28 03.09.2022
363 Clouds 12 999 84 10000 3.48 9 06:58 03.09.2022
364 Rain 13 996 88 10000 0 0 04:33 03.09.2022
365 Clouds 12 996 93 10000 3.6 230 00:29 03.09.2022
366 Clouds 12 997 96 10000 1.4 5 22:57 02.09.2022
367 Rain 10 996 93 8047 0 0 20:59 02.09.2022
368 Rain 10 996 93 4828 0 0 20:28 02.09.2022
369 Clouds 9 995 93 10000 0 0 19:22 02.09.2022
370 Rain 9 995 93 10000 0 0 18:28 02.09.2022
371 Clouds 8 996 99 10000 1.39 331 17:53 02.09.2022
372 Clouds 9 995 93 10000 0 0 16:48 02.09.2022
373 Clouds 9 995 100 10000 0 0 15:21 02.09.2022
374 Clouds 9 994 93 10000 0 0 12:39 02.09.2022
375 Clouds 10 994 93 10000 0 0 10:22 02.09.2022
376 Clouds 11 993 93 10000 0 0 09:40 02.09.2022
377 Clouds 12 993 87 10000 2.57 260 07:32 02.09.2022
378 Clouds 12 993 83 10000 2.57 270 06:38 02.09.2022
379 Rain 15 993 82 10000 1.68 200 02:55 02.09.2022
380 Rain 10 991 93 10000 0 0 22:35 01.09.2022
381 Rain 10 991 93 2012 0 0 21:44 01.09.2022
382 Rain 10 991 93 10000 0 0 21:25 01.09.2022
383 Rain 10 991 93 2012 0 0 20:44 01.09.2022
384 Mist 10 990 93 8047 0 0 18:54 01.09.2022
385 Mist 10 990 93 9656 2.57 170 17:33 01.09.2022
386 Clouds 10 990 93 10000 4.12 70 15:59 01.09.2022
387 Clouds 10 990 93 10000 2.06 80 14:33 01.09.2022
388 Clouds 10 990 93 10000 2.57 70 12:58 01.09.2022
389 Clouds 10 990 93 10000 2.57 60 11:53 01.09.2022
390 Clouds 10 990 93 10000 2.06 70 11:32 01.09.2022
391 Clouds 10 990 93 10000 2.06 90 10:38 01.09.2022
392 Clouds 10 990 93 10000 1.54 110 08:30 01.09.2022
393 Clouds 10 989 93 10000 2.57 170 06:22 01.09.2022
394 Mist 11 989 93 4828 4.63 130 01:32 01.09.2022
395 Mist 11 989 93 4828 4.63 130 01:32 01.09.2022
396 Rain 11 989 93 4828 4.63 130 01:32 01.09.2022
397 Rain 11 989 93 4828 4.63 130 01:32 01.09.2022
398 Rain 10 989 93 8047 4.12 120 23:29 31.08.2022
399 Clouds 9 989 93 10000 3.6 130 21:32 31.08.2022
400 Clouds 9 989 93 10000 3.09 150 19:50 31.08.2022
401 Clouds 9 989 93 10000 3.09 160 18:18 31.08.2022
402 Mist 10 990 93 6437 3.09 120 15:56 31.08.2022
403 Rain 10 990 93 9656 2.57 140 14:32 31.08.2022
404 Rain 10 991 93 4828 3.6 150 12:22 31.08.2022
405 Rain 11 991 93 4023 5.66 130 11:22 31.08.2022
406 Rain 11 992 93 3219 8.23 110 08:37 31.08.2022
407 Rain 10 994 93 4023 6.17 110 04:47 31.08.2022
408 Rain 9 995 93 3219 9.26 150 23:20 30.08.2022
409 Rain 9 996 93 4023 9.77 140 21:41 30.08.2022
410 Rain 9 996 93 4023 9.26 140 20:57 30.08.2022
411 Rain 10 997 87 10000 8.75 140 18:23 30.08.2022
412 Rain 9 1000 93 10000 5.66 140 15:23 30.08.2022
413 Rain 9 1001 93 10000 5.14 130 13:24 30.08.2022
414 Rain 9 1003 87 10000 3.6 130 11:21 30.08.2022
415 Clouds 9 1003 87 10000 2.06 110 10:49 30.08.2022
416 Clouds 9 1005 81 10000 3.09 150 07:42 30.08.2022
417 Clouds 9 1007 81 10000 2.57 190 02:32 30.08.2022
418 Clouds 7 1008 81 10000 2.57 130 23:20 29.08.2022
419 Clouds 7 1008 76 10000 1.54 140 22:24 29.08.2022
420 Clouds 6 1008 82 10000 1.54 110 21:25 29.08.2022
421 Clear 2 1009 87 10000 2.06 20 19:52 29.08.2022
422 Clear 1 1009 93 10000 0 0 17:52 29.08.2022
423 Clear 1 1009 93 10000 0 0 17:24 29.08.2022
424 Clear 1 1009 86 10000 2.06 40 16:40 29.08.2022
425 Clear 2 1010 87 10000 0 0 14:45 29.08.2022
426 Clear 3 1011 82 10000 2.19 314 12:53 29.08.2022
427 Clear 5 1011 81 10000 5.66 280 11:19 29.08.2022
428 Clear 6 1011 76 10000 7.2 290 09:48 29.08.2022
429 Clear 8 1010 67 10000 4.12 300 08:29 29.08.2022
430 Clouds 11 1011 68 10000 4.82 356 04:57 29.08.2022
431 Clear 11 1010 62 10000 5.66 230 00:20 29.08.2022
432 Clear 9 1009 71 10000 1.54 180 22:41 28.08.2022
433 Clear 9 1009 66 10000 1.54 160 21:44 28.08.2022
434 Clouds 9 1011 79 10000 3.78 355 20:55 28.08.2022
435 Clear 7 1009 77 10000 0 0 19:26 28.08.2022
436 Clear 6 1009 76 10000 2.57 350 18:20 28.08.2022
437 Clouds 4 1010 92 10000 3.74 358 16:58 28.08.2022
438 Clear 7 1008 77 10000 6.69 350 16:27 28.08.2022
439 Clouds 8 1008 77 10000 4.63 340 14:41 28.08.2022
440 Clouds 10 1007 77 10000 5.66 360 12:32 28.08.2022
441 Clouds 11 1006 77 10000 3.6 10 10:43 28.08.2022
442 Clouds 11 1006 77 10000 3.6 10 10:43 28.08.2022
443 Clouds 11 1006 76 10000 2.57 320 09:49 28.08.2022
444 Clouds 12 1005 72 10000 4.63 340 08:37 28.08.2022
445 Clouds 14 1005 73 10000 3.6 340 07:43 28.08.2022
446 Clouds 13 1004 82 10000 4.12 230 02:48 28.08.2022
447 Clouds 12 1003 82 10000 2.57 230 00:27 28.08.2022
448 Clouds 12 1002 77 10000 0 0 22:36 27.08.2022
449 Clouds 11 1002 88 10000 0 0 21:31 27.08.2022
450 Clouds 9 1001 93 10000 0 0 19:49 27.08.2022
451 Rain 8 1000 93 10000 3.09 340 17:43 27.08.2022
452 Clouds 7 1001 99 10000 1.71 34 15:53 27.08.2022
453 Clouds 9 1000 93 10000 1.54 30 15:24 27.08.2022
454 Clouds 9 999 93 10000 1.54 30 12:28 27.08.2022
455 Clouds 9 999 93 10000 1.54 60 11:31 27.08.2022
456 Clouds 10 998 93 10000 1.54 170 09:48 27.08.2022
457 Clouds 10 997 87 10000 2.06 160 07:54 27.08.2022
458 Mist 10 995 93 3219 3.6 180 02:52 27.08.2022
459 Rain 11 995 99 10000 1.46 159 23:57 26.08.2022
460 Rain 10 994 93 3219 3.6 160 22:40 26.08.2022
461 Rain 10 994 93 2816 3.6 160 21:19 26.08.2022
462 Mist 9 993 100 8047 4.12 180 19:23 26.08.2022
463 Rain 10 993 93 4023 4.63 190 16:50 26.08.2022
464 Rain 10 993 93 4828 3.09 200 15:31 26.08.2022
465 Rain 10 993 93 4023 3.6 200 14:34 26.08.2022
466 Rain 10 993 93 6437 5.14 210 12:51 26.08.2022
467 Rain 10 992 93 4828 4.63 200 11:33 26.08.2022
468 Rain 10 992 93 6437 5.14 190 10:46 26.08.2022
469 Rain 10 992 93 2414 6.69 190 07:28 26.08.2022
470 Rain 11 991 87 4023 7.2 170 02:30 26.08.2022
471 Rain 10 992 93 4023 8.23 170 23:41 25.08.2022
472 Rain 11 993 93 4023 9.26 160 21:36 25.08.2022
473 Rain 11 993 93 3219 9.77 150 20:30 25.08.2022
474 Rain 11 995 93 3219 9.77 150 18:55 25.08.2022
475 Rain 11 996 87 4828 9.77 140 17:50 25.08.2022
476 Rain 11 996 87 4023 8.23 130 17:31 25.08.2022
477 Rain 11 999 87 10000 9.77 150 15:43 25.08.2022
478 Rain 11 999 87 10000 9.77 150 15:25 25.08.2022
479 Rain 12 1001 94 10000 5.66 170 11:55 25.08.2022
480 Rain 12 1003 94 6437 6.17 120 10:48 25.08.2022
481 Clouds 12 1004 87 10000 3.6 130 08:54 25.08.2022
482 Mist 10 1006 93 4828 4.12 130 05:39 25.08.2022
483 Clouds 9 1008 76 10000 4.63 160 01:42 25.08.2022
484 Clouds 9 1008 72 10000 3.09 150 23:26 24.08.2022
485 Clouds 9 1008 76 10000 2.57 160 22:23 24.08.2022
486 Clouds 8 1009 81 10000 0 0 21:36 24.08.2022
487 Clouds 7 1009 81 10000 2.06 350 20:52 24.08.2022
488 Clouds 7 1009 87 10000 2.06 60 19:19 24.08.2022
489 Clouds 6 1009 82 10000 0 0 16:47 24.08.2022
490 Clouds 4 1009 87 10000 1.54 360 15:52 24.08.2022
491 Clouds 4 1008 87 10000 2.57 300 13:40 24.08.2022
492 Clouds 5 1008 87 10000 3.6 310 11:38 24.08.2022
493 Clear 7 1008 81 10000 5.14 260 09:39 24.08.2022
494 Clear 9 1007 78 10000 2.38 252 07:59 24.08.2022
495 Clear 13 1006 49 10000 3.91 231 02:57 24.08.2022
496 Clouds 9 1005 81 10000 3.09 240 23:34 23.08.2022
497 Clouds 8 1005 93 10000 0 0 22:32 23.08.2022
498 Mist 7 1004 93 3219 0 0 21:34 23.08.2022
499 Fog 7 1004 93 805 2.06 270 20:30 23.08.2022
500 Mist 7 1004 93 4828 0 0 18:49 23.08.2022
501 Mist 7 1004 93 3219 0 0 17:50 23.08.2022
502 Clouds 6 1004 100 10000 0 0 17:18 23.08.2022
503 Clouds 7 1005 93 10000 1.54 120 15:39 23.08.2022
504 Clouds 7 1005 93 10000 0 0 13:36 23.08.2022
505 Clouds 7 1006 93 10000 0 0 11:33 23.08.2022
506 Clouds 9 1006 81 10000 2.06 290 10:51 23.08.2022
507 Clouds 9 1006 81 10000 2.06 290 10:26 23.08.2022
508 Clear 10 1007 79 10000 1.19 245 08:53 23.08.2022
509 Clear 12 1006 76 10000 3.09 290 08:21 23.08.2022
510 Clear 13 1006 71 10000 4.63 270 07:38 23.08.2022
511 Clear 14 1007 72 10000 4.63 260 06:29 23.08.2022
512 Clear 15 1007 63 10000 4.12 250 05:38 23.08.2022
513 Clear 13 1009 71 10000 5.14 240 00:52 23.08.2022
514 Clear 13 1009 71 10000 5.14 240 00:24 23.08.2022
515 Clear 12 1010 71 10000 2.57 230 22:52 22.08.2022
516 Clear 12 1010 76 10000 1.54 180 21:51 22.08.2022
517 Clear 10 1010 81 10000 0 0 19:49 22.08.2022
518 Clear 10 1010 82 10000 0 0 19:21 22.08.2022
519 Clear 8 1011 86 10000 2.65 12 17:55 22.08.2022
520 Clear 9 1011 81 10000 1.54 50 15:40 22.08.2022
521 Clear 10 1011 76 10000 1.54 340 14:32 22.08.2022
522 Clouds 13 1011 68 10000 0 0 11:19 22.08.2022
523 Clear 17 1011 56 10000 3.6 40 08:22 22.08.2022
524 Clouds 18 1010 48 10000 3.6 60 04:34 22.08.2022
525 Clear 18 1011 58 10000 1.15 157 00:53 22.08.2022
526 Clouds 18 1011 52 10000 2.57 20 00:34 22.08.2022
527 Clear 16 1011 63 10000 1.18 20 22:54 21.08.2022
528 Clear 16 1010 55 10000 4.63 350 21:36 21.08.2022
529 Clear 15 1011 68 10000 2.5 18 20:57 21.08.2022
530 Clear 12 1010 67 10000 5.14 340 19:28 21.08.2022
531 Clear 10 1010 71 10000 4.12 340 18:21 21.08.2022
532 Clear 9 1009 76 10000 4.63 340 16:21 21.08.2022
533 Clear 10 1009 76 10000 4.63 360 15:43 21.08.2022
534 Clear 10 1009 76 10000 4.12 350 14:35 21.08.2022
535 Clear 10 1009 76 10000 5.14 350 13:43 21.08.2022
536 Clear 11 1009 71 10000 4.12 340 12:37 21.08.2022
537 Clouds 12 1009 77 10000 3.34 20 09:56 21.08.2022
538 Clouds 14 1009 70 10000 2.23 29 08:56 21.08.2022
539 Clear 17 1008 52 10000 6.17 30 08:38 21.08.2022
540 Clear 18 1007 49 10000 7.72 30 07:28 21.08.2022
541 Clear 19 1007 43 10000 6.17 60 04:26 21.08.2022
542 Clouds 18 1008 60 10000 5.61 51 00:53 21.08.2022
543 Clouds 16 1008 67 10000 5.9 38 22:59 20.08.2022
544 Clear 16 1007 56 10000 7.72 20 21:45 20.08.2022
545 Clear 13 1008 67 10000 8.23 20 20:48 20.08.2022
546 Clear 11 1008 71 10000 6.69 10 19:42 20.08.2022
547 Clear 11 1008 72 10000 5.14 10 18:43 20.08.2022
548 Clear 11 1008 72 10000 5.14 10 18:25 20.08.2022
549 Clear 9 1007 81 10000 4.63 360 17:19 20.08.2022
550 Clear 10 1008 76 10000 5.14 350 15:51 20.08.2022
551 Clear 11 1008 72 10000 3.09 360 13:39 20.08.2022
552 Clouds 10 1009 81 10000 4.66 21 11:53 20.08.2022
553 Clear 12 1008 67 10000 3.09 20 10:39 20.08.2022
554 Clear 13 1008 67 10000 3.6 10 09:18 20.08.2022
555 Clouds 16 1009 52 10000 4.63 40 06:40 20.08.2022
556 Clouds 16 1009 51 10000 5.14 40 04:40 20.08.2022
557 Clouds 13 1011 72 10000 5.55 74 00:53 20.08.2022
558 Clouds 12 1012 63 10000 4.63 60 23:21 19.08.2022
559 Clouds 11 1012 71 10000 3.6 80 22:36 19.08.2022
560 Clouds 9 1012 81 10000 4.63 40 20:41 19.08.2022
561 Clouds 7 1012 98 10000 3.21 56 18:53 19.08.2022
562 Mist 7 1012 100 8047 0 0 15:55 19.08.2022
563 Mist 7 1012 100 8047 0 0 15:55 19.08.2022
564 Haze 9 1012 82 9656 3.6 160 13:41 19.08.2022
565 Rain 8 1012 87 10000 3.09 80 11:40 19.08.2022
566 Rain 8 1011 93 10000 1.54 100 10:31 19.08.2022
567 Clouds 9 1010 87 10000 3.09 140 07:39 19.08.2022
568 Clouds 9 1009 87 10000 4.12 190 03:19 19.08.2022
569 Clouds 10 1007 81 10000 4.63 140 00:36 19.08.2022
570 Clouds 10 1009 91 10000 1.49 149 23:56 18.08.2022
571 Rain 9 1006 93 10000 3.6 90 22:54 18.08.2022
572 Rain 9 1006 93 10000 3.6 90 22:22 18.08.2022
573 Rain 8 1005 93 10000 4.12 90 21:45 18.08.2022
574 Rain 8 1005 93 10000 3.6 90 20:42 18.08.2022
575 Rain 9 1004 82 10000 3.09 80 19:32 18.08.2022
576 Clouds 8 1004 82 10000 0 0 18:34 18.08.2022
577 Clouds 8 1003 87 10000 0 0 17:32 18.08.2022
578 Clouds 8 1003 87 10000 1.54 20 15:50 18.08.2022
579 Clouds 8 1002 87 10000 2.57 340 14:21 18.08.2022
580 Clouds 8 1002 81 10000 1.54 350 13:42 18.08.2022
581 Clouds 8 1001 87 10000 1.54 360 12:27 18.08.2022
582 Clouds 10 1000 77 10000 0 0 10:51 18.08.2022
583 Clouds 10 1000 76 10000 2.57 340 09:42 18.08.2022
584 Clouds 12 998 59 10000 2.57 350 07:26 18.08.2022
585 Clouds 12 998 59 10000 4.12 340 05:33 18.08.2022
586 Clouds 11 997 58 10000 5.66 350 00:45 18.08.2022
587 Clouds 9 998 66 10000 5.66 350 22:28 17.08.2022
588 Clouds 8 999 71 10000 4.12 330 20:21 17.08.2022
589 Clouds 8 999 71 10000 4.12 330 20:21 17.08.2022
590 Clouds 8 999 67 10000 6.17 350 19:34 17.08.2022
591 Clouds 7 999 70 10000 6.69 330 18:32 17.08.2022
592 Clouds 7 1000 70 10000 4.12 340 16:50 17.08.2022
593 Clouds 7 1000 70 10000 3.09 320 15:31 17.08.2022
594 Clouds 7 1001 70 10000 3.6 290 14:29 17.08.2022
595 Clouds 5 1002 75 10000 2.57 250 12:21 17.08.2022
596 Clear 5 1003 75 10000 2.57 350 10:25 17.08.2022
597 Clear 5 1003 75 10000 2.57 350 10:25 17.08.2022
598 Clear 9 1003 62 10000 7.2 10 08:25 17.08.2022
599 Clouds 11 1004 51 10000 7.72 10 05:22 17.08.2022
600 Clear 10 1006 54 10000 6.17 20 00:46 17.08.2022
601 Clouds 9 1007 65 10000 5.3 20 22:53 16.08.2022
602 Clouds 7 1008 76 10000 4.92 6 20:59 16.08.2022
603 Clouds 6 1009 78 10000 3.94 355 19:55 16.08.2022
604 Clear 4 1008 81 10000 4.12 320 19:22 16.08.2022
605 Clouds 3 1009 90 10000 3.33 350 17:55 16.08.2022
606 Clear 3 1009 81 10000 3.6 350 16:46 16.08.2022
607 Clear 3 1009 81 10000 3.6 360 15:44 16.08.2022
608 Clouds 2 1009 90 10000 3.77 351 14:54 16.08.2022
609 Clear 4 1009 81 10000 3.09 340 14:36 16.08.2022
610 Clear 4 1009 81 10000 0 0 11:40 16.08.2022
611 Clear 6 1009 76 10000 5.66 360 10:20 16.08.2022
612 Clouds 9 1009 62 10000 6.17 10 08:49 16.08.2022
613 Clouds 9 1009 62 10000 6.17 10 08:20 16.08.2022
614 Clouds 8 1010 80 10000 0.68 260 05:55 16.08.2022
615 Clouds 7 1011 70 10000 3.6 220 23:37 15.08.2022
616 Clouds 7 1011 65 10000 1.54 250 22:21 15.08.2022
617 Clouds 6 1011 70 10000 0 0 21:48 15.08.2022
618 Clouds 5 1011 76 10000 1.54 330 20:31 15.08.2022
619 Clouds 3 1011 81 10000 1.54 20 19:18 15.08.2022
620 Clouds 3 1012 82 10000 2.02 328 17:59 15.08.2022
621 Clear 4 1011 81 10000 2.57 250 16:24 15.08.2022
622 Clouds 3 1011 81 10000 2.06 10 15:26 15.08.2022
623 Clear 4 1011 81 10000 2.57 310 13:27 15.08.2022
624 Clear 6 1010 71 10000 2.06 0 10:37 15.08.2022
625 Clouds 6 1010 77 10000 2.97 330 08:55 15.08.2022
626 Clear 12 1008 55 10000 8.75 360 06:51 15.08.2022
627 Clear 13 1007 51 10000 7.2 350 04:32 15.08.2022
628 Clear 10 1006 62 10000 12.35 10 23:49 14.08.2022
629 Clouds 9 1006 61 10000 6.17 350 22:28 14.08.2022
630 Clouds 8 1005 71 10000 7.72 350 21:25 14.08.2022
631 Clouds 8 1005 72 10000 6.17 340 19:46 14.08.2022
632 Clouds 8 1004 67 10000 9.77 340 18:42 14.08.2022
633 Clouds 7 1005 71 10000 4.63 340 17:44 14.08.2022
634 Clouds 7 1004 76 10000 5.14 330 16:32 14.08.2022
635 Clouds 7 1004 76 10000 6.17 340 15:48 14.08.2022
636 Clouds 7 1004 77 10000 6.17 330 14:19 14.08.2022
637 Clouds 7 1004 77 10000 4.63 330 13:49 14.08.2022
638 Clouds 7 1005 77 10000 4.63 340 12:55 14.08.2022
639 Clear 6 1005 76 10000 2.06 340 11:31 14.08.2022
640 Clear 7 1005 71 10000 5.14 350 10:26 14.08.2022
641 Clouds 8 1004 76 10000 5.66 360 08:45 14.08.2022
642 Rain 8 1004 76 10000 6.17 10 06:20 14.08.2022
643 Rain 9 1004 81 10000 6.69 360 02:46 14.08.2022
644 Clouds 11 1004 76 10000 5.66 350 23:36 13.08.2022
645 Clouds 10 1004 87 10000 3.6 360 22:28 13.08.2022
646 Rain 10 1005 99 10000 3.63 16 20:58 13.08.2022
647 Rain 9 1005 100 10000 2.57 350 20:19 13.08.2022
648 Rain 10 1005 93 10000 1.54 50 19:20 13.08.2022
649 Mist 10 1005 93 3219 1.54 70 17:36 13.08.2022
650 Mist 10 1005 93 4828 0 0 15:23 13.08.2022
651 Clouds 10 1005 93 10000 0 0 14:24 13.08.2022
652 Rain 10 1005 93 10000 0 0 13:38 13.08.2022
653 Rain 10 1006 93 10000 0 0 11:51 13.08.2022
654 Mist 10 1006 100 4828 2.57 250 09:50 13.08.2022
655 Mist 11 1006 93 1609 2.06 270 07:51 13.08.2022
656 Clouds 11 1007 87 10000 3.6 200 02:56 13.08.2022
657 Clouds 11 1008 87 10000 4.12 220 23:46 12.08.2022
658 Clouds 9 1008 93 10000 3.09 230 21:40 12.08.2022
659 Clouds 9 1008 93 10000 3.09 230 20:40 12.08.2022
660 Clouds 9 1008 93 10000 3.6 220 19:36 12.08.2022
661 Clouds 9 1009 93 10000 3.6 220 18:37 12.08.2022
662 Clouds 9 1009 93 10000 2.06 250 16:28 12.08.2022
663 Clouds 9 1009 93 10000 0 0 15:31 12.08.2022
664 Clouds 9 1010 93 10000 2.06 300 14:27 12.08.2022
665 Clouds 10 1010 87 10000 3.09 260 12:51 12.08.2022
666 Clouds 9 1011 93 10000 2.57 220 09:51 12.08.2022
667 Clouds 10 1011 87 10000 3.6 160 07:47 12.08.2022
668 Clouds 10 1012 87 10000 4.12 140 06:31 12.08.2022
669 Clouds 11 1013 82 10000 3.6 160 02:22 12.08.2022
670 Clouds 11 1014 82 10000 4.63 180 00:23 12.08.2022
671 Clouds 11 1014 82 10000 3.09 170 23:34 11.08.2022
672 Clouds 11 1014 82 10000 3.6 170 22:24 11.08.2022
673 Clouds 11 1014 83 10000 3.6 190 21:39 11.08.2022
674 Clouds 10 1014 87 10000 2.06 190 20:32 11.08.2022
675 Clouds 10 1014 97 10000 2.12 166 19:57 11.08.2022
676 Clouds 10 1014 87 10000 3.6 190 19:32 11.08.2022
677 Clouds 10 1014 88 10000 4.63 210 17:48 11.08.2022
678 Clouds 10 1014 87 10000 3.09 150 16:34 11.08.2022
679 Clouds 10 1014 87 10000 3.6 190 15:21 11.08.2022
680 Clouds 11 1015 83 10000 2.57 200 12:44 11.08.2022
681 Clouds 10 1015 93 10000 3.09 210 10:18 11.08.2022
682 Clouds 11 1014 82 10000 3.6 170 07:19 11.08.2022
683 Clouds 11 1015 82 10000 3.6 200 03:46 11.08.2022
684 Clouds 10 1014 87 10000 4.63 210 00:37 11.08.2022
685 Rain 9 1014 93 4828 5.66 220 22:32 10.08.2022
686 Rain 9 1014 93 8047 6.17 210 21:25 10.08.2022
687 Clouds 9 1014 93 10000 3.04 226 20:55 10.08.2022
688 Clouds 9 1014 87 10000 4.63 210 19:27 10.08.2022
689 Clouds 9 1014 87 10000 6.17 210 18:22 10.08.2022
690 Clouds 9 1014 87 10000 3.6 240 16:36 10.08.2022
691 Clouds 9 1015 81 10000 4.63 210 13:36 10.08.2022
692 Clouds 9 1015 82 10000 3.6 240 12:41 10.08.2022
693 Clouds 9 1015 81 10000 3.6 250 09:25 10.08.2022
694 Clouds 10 1015 76 10000 4.63 260 08:33 10.08.2022
695 Clouds 10 1015 81 10000 5.66 250 07:19 10.08.2022
696 Clear 11 1016 71 10000 6.69 260 03:28 10.08.2022
697 Clouds 10 1017 71 10000 5.14 310 23:34 09.08.2022
698 Clouds 10 1017 80 10000 3.46 276 22:56 09.08.2022
699 Clouds 8 1016 76 10000 7.2 300 21:36 09.08.2022
700 Clouds 7 1016 76 10000 7.2 300 20:36 09.08.2022
701 Clouds 7 1016 70 10000 6.69 310 18:45 09.08.2022
702 Clouds 7 1015 66 10000 5.14 320 17:31 09.08.2022
703 Clouds 7 1015 65 10000 5.66 290 16:41 09.08.2022
704 Clouds 6 1016 72 10000 3.04 338 15:58 09.08.2022
705 Clouds 8 1014 71 10000 1.54 330 13:51 09.08.2022
706 Clouds 8 1012 86 10000 3.31 308 09:56 09.08.2022
707 Clouds 12 1009 72 10000 6.69 350 08:51 09.08.2022
708 Clouds 11 1010 80 10000 2.54 312 07:54 09.08.2022
709 Clouds 12 1005 76 10000 5.14 300 04:28 09.08.2022
710 Rain 7 1003 87 9656 6.17 260 23:46 08.08.2022
711 Rain 7 1003 82 10000 6.69 250 22:56 08.08.2022
712 Rain 6 1003 82 10000 6.69 260 22:35 08.08.2022
713 Rain 4 1003 93 10000 5.66 290 21:27 08.08.2022
714 Rain 4 1002 87 10000 6.69 290 19:51 08.08.2022
715 Clouds 3 1004 94 8652 7.85 271 18:58 08.08.2022
716 Rain 3 1002 93 10000 8.75 280 17:34 08.08.2022
717 Rain 4 1000 87 10000 10.29 280 15:45 08.08.2022
718 Rain 4 999 87 10000 10.8 280 14:33 08.08.2022
719 Clouds 6 998 93 10000 7.72 280 12:29 08.08.2022
720 Clouds 8 997 87 10000 6.69 280 10:19 08.08.2022
721 Rain 9 998 91 10000 3.72 226 06:54 08.08.2022
722 Clouds 10 996 81 10000 3.09 250 03:34 08.08.2022
723 Rain 9 996 87 4828 6.17 110 22:44 07.08.2022
724 Rain 8 997 93 8047 8.23 110 21:40 07.08.2022
725 Rain 9 998 82 10000 6.69 130 20:42 07.08.2022
726 Rain 9 998 82 10000 6.69 130 20:18 07.08.2022
727 Clouds 9 999 77 10000 7.72 140 19:41 07.08.2022
728 Rain 9 1000 82 10000 8.23 150 18:40 07.08.2022
729 Rain 8 1002 87 10000 6.17 160 17:18 07.08.2022
730 Rain 8 1002 87 10000 7.72 160 16:38 07.08.2022
731 Rain 9 1004 82 10000 6.17 160 15:25 07.08.2022
732 Rain 9 1006 87 10000 4.63 200 13:44 07.08.2022
733 Clouds 9 1007 87 10000 5.14 230 12:18 07.08.2022
734 Rain 9 1008 93 10000 7.2 200 10:37 07.08.2022
735 Clouds 9 1009 93 10000 3.6 190 08:26 07.08.2022
736 Clear 10 1011 66 10000 4.63 210 04:26 07.08.2022
737 Clear 11 1011 66 10000 7.72 250 01:50 07.08.2022
738 Clear 9 1011 57 10000 2.57 280 22:28 06.08.2022
739 Clouds 8 1011 61 10000 2.06 310 21:43 06.08.2022
740 Clear 6 1010 75 10000 3.09 320 19:42 06.08.2022
741 Clouds 5 1009 81 10000 3.6 300 18:33 06.08.2022
742 Clouds 5 1009 81 10000 5.14 280 17:39 06.08.2022
743 Clouds 6 1009 76 10000 5.66 300 15:21 06.08.2022
744 Clear 5 1008 75 10000 6.17 310 13:50 06.08.2022
745 Clear 6 1007 75 10000 7.72 300 12:21 06.08.2022
746 Clouds 8 1005 67 10000 6.17 310 10:37 06.08.2022
747 Clouds 9 1004 67 10000 7.2 300 09:21 06.08.2022
748 Rain 8 1002 87 10000 4.32 348 03:55 06.08.2022
749 Clouds 12 999 76 10000 5.14 300 00:27 06.08.2022
750 Clouds 12 998 82 10000 2.57 320 22:34 05.08.2022
751 Clouds 11 998 87 10000 0 0 20:30 05.08.2022
752 Clouds 10 998 93 10000 0 0 18:53 05.08.2022
753 Clouds 10 998 93 10000 0 0 18:35 05.08.2022
754 Clouds 10 998 93 10000 2.06 20 16:52 05.08.2022
755 Clouds 10 998 93 10000 2.57 330 15:24 05.08.2022
756 Clouds 10 998 93 10000 2.06 360 14:34 05.08.2022
757 Clouds 11 999 87 10000 2.57 70 13:26 05.08.2022
758 Clouds 11 999 87 10000 1.54 50 12:59 05.08.2022
759 Rain 11 1000 87 10000 2.06 40 11:20 05.08.2022
760 Clouds 12 1000 83 10000 3.09 160 08:46 05.08.2022
761 Mist 12 1000 87 4828 2.57 150 07:34 05.08.2022
762 Clouds 12 1003 82 10000 4.12 140 02:33 05.08.2022
763 Clouds 11 1003 82 10000 0 0 22:43 04.08.2022
764 Clouds 11 1003 82 10000 2.06 270 21:28 04.08.2022
765 Clouds 11 1003 82 10000 4.12 230 20:57 04.08.2022
766 Clouds 11 1003 82 10000 4.12 230 20:35 04.08.2022
767 Rain 11 1004 96 10000 3.29 203 18:58 04.08.2022
768 Rain 11 1003 100 6437 7.2 230 18:33 04.08.2022
769 Clouds 14 1004 82 10000 5.66 80 15:51 04.08.2022
770 Clouds 14 1006 73 10000 5.14 70 13:26 04.08.2022
771 Clouds 14 1008 82 10000 4.12 70 11:39 04.08.2022
772 Clouds 14 1008 82 10000 3.09 80 10:21 04.08.2022
773 Clouds 16 1011 72 10000 3.6 80 07:45 04.08.2022
774 Clouds 13 1014 88 10000 4.12 130 02:50 04.08.2022
775 Clouds 12 1016 87 10000 3.09 130 00:43 04.08.2022
776 Clouds 12 1016 87 10000 2.06 110 23:40 03.08.2022
777 Mist 10 1017 93 4828 3.6 120 21:31 03.08.2022
778 Mist 9 1017 100 2816 3.6 130 20:21 03.08.2022
779 Mist 9 1017 93 2414 2.06 90 19:24 03.08.2022
780 Mist 9 1018 100 2012 2.06 210 16:50 03.08.2022
781 Mist 9 1018 100 2414 0 0 16:22 03.08.2022
782 Clouds 9 1018 93 10000 0 0 13:53 03.08.2022
783 Clear 10 1018 89 10000 2.86 246 10:57 03.08.2022
784 Clear 15 1017 63 10000 6.69 270 07:32 03.08.2022
785 Clear 16 1017 63 10000 8.23 260 04:22 03.08.2022
786 Clear 17 1017 63 10000 8.23 260 03:24 03.08.2022
787 Clouds 21 1016 60 10000 7.02 274 00:54 03.08.2022
788 Clear 19 1015 53 10000 5.66 280 22:49 02.08.2022
789 Clear 19 1014 56 10000 5.14 290 21:52 02.08.2022
790 Clear 15 1014 77 10000 2.06 290 20:37 02.08.2022
791 Clear 12 1013 82 10000 0 0 18:39 02.08.2022
792 Clouds 12 1012 94 10000 1.54 10 15:36 02.08.2022
793 Clouds 15 1011 88 10000 0 0 11:32 02.08.2022
794 Clouds 16 1011 77 10000 1.54 240 09:18 02.08.2022
795 Clouds 17 1010 77 10000 1.54 210 07:52 02.08.2022
796 Clouds 17 1010 72 10000 2.57 270 06:43 02.08.2022
797 Clouds 18 1010 76 10000 3.46 267 04:54 02.08.2022
798 Clouds 20 1009 50 10000 2.06 0 23:38 01.08.2022
799 Clouds 19 1008 52 10000 3.09 40 22:24 01.08.2022
800 Clouds 19 1008 53 10000 3.6 40 20:52 01.08.2022
801 Clouds 17 1008 59 10000 3.09 10 19:25 01.08.2022
802 Clouds 14 1008 77 10000 3.09 330 18:31 01.08.2022
803 Clouds 14 1008 81 10000 1.83 342 16:53 01.08.2022
804 Clouds 14 1008 73 10000 0 0 15:52 01.08.2022
805 Clouds 14 1008 72 10000 0 0 15:30 01.08.2022
806 Clouds 13 1008 77 10000 1.54 250 14:43 01.08.2022
807 Clouds 11 1010 92 10000 1.17 75 11:59 01.08.2022
808 Clouds 14 1010 73 10000 3.09 70 09:43 01.08.2022
809 Clouds 14 1011 72 10000 3.6 100 08:30 01.08.2022
810 Clouds 15 1012 77 10000 3.96 125 04:56 01.08.2022
811 Clouds 14 1013 77 10000 4.63 130 03:49 01.08.2022
812 Clouds 13 1013 88 10000 4.12 130 00:36 01.08.2022
813 Clouds 14 1013 68 10000 4.12 110 22:40 31.07.2022
814 Clouds 14 1013 68 10000 3.6 110 21:33 31.07.2022
815 Clouds 12 1014 83 10000 2.25 75 19:56 31.07.2022
816 Clear 9 1013 81 10000 1.54 350 18:35 31.07.2022
817 Clear 7 1013 87 10000 1.54 330 15:45 31.07.2022
818 Clear 8 1013 81 10000 1.54 20 13:51 31.07.2022
819 Clear 10 1013 81 10000 0 0 12:28 31.07.2022
820 Clouds 11 1013 73 10000 1 272 09:55 31.07.2022
821 Clear 15 1012 58 10000 2.06 260 08:18 31.07.2022
822 Clear 16 1013 51 10000 4.63 250 03:28 31.07.2022
823 Clouds 17 1013 51 10000 1.19 250 23:53 30.07.2022
824 Clouds 14 1013 54 10000 3.6 190 22:19 30.07.2022
825 Clouds 14 1013 54 10000 3.6 190 22:19 30.07.2022
826 Clouds 15 1013 48 10000 2.57 360 21:49 30.07.2022
827 Clouds 13 1013 66 10000 2.3 16 20:58 30.07.2022
828 Clouds 13 1013 66 10000 2.3 16 20:58 30.07.2022
829 Clouds 12 1013 71 10000 2.55 22 19:59 30.07.2022
830 Clouds 11 1014 72 10000 2.93 21 18:57 30.07.2022
831 Clear 11 1013 63 10000 4.12 350 17:45 30.07.2022
832 Clouds 10 1014 79 10000 3.59 14 15:54 30.07.2022
833 Clear 11 1013 63 10000 3.09 350 15:24 30.07.2022
834 Clear 12 1014 67 10000 0 0 13:20 30.07.2022
835 Clear 12 1013 67 10000 4.12 340 12:20 30.07.2022
836 Clear 13 1014 67 10000 3.09 330 10:35 30.07.2022
837 Clouds 12 1014 75 10000 4.15 6 09:57 30.07.2022
838 Clouds 15 1015 68 10000 3.6 24 07:55 30.07.2022
839 Clear 16 1014 52 10000 4.63 50 07:55 30.07.2022
840 Clear 16 1015 52 10000 6.17 50 04:20 30.07.2022
841 Clear 17 1016 43 10000 4.63 30 02:28 30.07.2022
842 Clouds 13 1018 67 10000 3.16 42 22:54 29.07.2022
843 Clouds 13 1018 55 10000 3.09 40 21:28 29.07.2022
844 Clouds 12 1018 55 10000 2.57 60 20:50 29.07.2022
845 Clouds 11 1018 58 10000 3.6 40 18:27 29.07.2022
846 Clear 10 1019 66 10000 0 0 16:32 29.07.2022
847 Clear 11 1020 66 10000 5.14 50 13:46 29.07.2022
848 Clear 13 1020 67 10000 5.66 40 11:33 29.07.2022
849 Clouds 14 1020 82 10000 0 0 08:51 29.07.2022
850 Clouds 14 1020 82 10000 0 0 08:20 29.07.2022
851 Clouds 12 1023 82 10000 4.63 250 02:52 29.07.2022
852 Clear 12 1024 76 10000 3.6 200 23:20 28.07.2022
853 Clear 11 1024 76 10000 2.06 170 21:30 28.07.2022
854 Clear 11 1024 76 10000 0 0 20:45 28.07.2022
855 Clouds 8 1024 94 10000 1.83 44 19:58 28.07.2022
856 Clear 9 1024 87 10000 0 0 19:26 28.07.2022
857 Clear 4 1024 93 10000 1.54 360 17:45 28.07.2022
858 Clear 4 1024 93 10000 1.54 360 17:19 28.07.2022
859 Clear 3 1024 100 10000 0 0 16:39 28.07.2022
860 Clear 5 1024 93 10000 1.54 340 13:47 28.07.2022
861 Clear 8 1024 93 10000 4.12 280 11:43 28.07.2022
862 Clouds 12 1023 86 10000 4.92 261 06:59 28.07.2022
863 Clouds 11 1024 82 10000 5.66 240 05:37 28.07.2022
864 Clouds 11 1024 82 10000 5.66 240 05:18 28.07.2022
865 Clouds 9 1023 93 10000 2.57 230 23:19 27.07.2022
866 Clouds 9 1022 81 10000 0 0 21:29 27.07.2022
867 Clouds 8 1022 87 10000 0 0 19:46 27.07.2022
868 Clouds 7 1022 93 10000 0 0 18:49 27.07.2022
869 Clouds 7 1021 93 10000 1.54 300 16:31 27.07.2022
870 Clouds 8 1021 87 10000 3.09 250 15:41 27.07.2022
871 Clouds 9 1021 82 10000 5.14 230 14:41 27.07.2022
872 Clouds 9 1021 82 10000 4.12 240 13:29 27.07.2022
873 Clouds 9 1019 81 10000 6.69 240 09:28 27.07.2022
874 Clouds 9 1018 71 10000 5.66 230 07:40 27.07.2022
875 Clouds 9 1018 71 10000 5.66 230 07:40 27.07.2022
876 Clouds 9 1017 71 10000 7.72 260 03:57 27.07.2022
877 Clouds 7 1013 76 10000 10.8 250 22:49 26.07.2022
878 Clouds 7 1012 76 10000 9.77 260 21:36 26.07.2022
879 Clouds 7 1011 81 10000 9.26 270 20:49 26.07.2022
880 Clouds 6 1010 81 10000 9.77 270 19:20 26.07.2022
881 Clouds 6 1008 82 10000 10.8 260 18:39 26.07.2022
882 Clouds 7 1007 82 10000 11.32 270 17:46 26.07.2022
883 Clouds 7 1005 82 10000 10.8 270 15:43 26.07.2022
884 Rain 7 1004 82 10000 8.23 270 14:38 26.07.2022
885 Clouds 7 1000 82 10000 8.23 280 11:47 26.07.2022
886 Clouds 7 997 87 10000 8.23 290 09:44 26.07.2022
887 Clouds 8 995 87 10000 10.29 300 08:18 26.07.2022
888 Mist 12 987 94 8047 5.66 160 01:52 26.07.2022
889 Clouds 12 986 94 10000 4.63 160 23:44 25.07.2022
890 Rain 12 986 94 3219 3.6 100 22:39 25.07.2022
891 Rain 12 986 83 10000 6.69 40 21:43 25.07.2022
892 Rain 11 987 87 8047 8.23 30 20:43 25.07.2022
893 Mist 11 987 87 8047 8.23 30 20:23 25.07.2022
894 Rain 11 988 87 4828 5.66 20 19:24 25.07.2022
895 Rain 11 991 87 8047 8.75 20 17:37 25.07.2022
896 Rain 11 991 83 10000 7.2 30 16:40 25.07.2022
897 Rain 11 997 83 10000 6.17 30 13:22 25.07.2022
898 Clouds 12 1000 72 10000 3.09 20 10:48 25.07.2022
899 Clear 13 1002 55 10000 4.12 260 07:32 25.07.2022
900 Clouds 10 1007 81 10000 2.57 240 00:38 25.07.2022
901 Clouds 10 1007 81 10000 3.09 230 23:45 24.07.2022
902 Clouds 10 1007 81 10000 1.54 220 22:44 24.07.2022
903 Clouds 9 1007 87 10000 0 0 21:41 24.07.2022
904 Rain 10 1008 90 10000 2.44 103 20:58 24.07.2022
905 Clouds 9 1008 87 10000 0 0 20:37 24.07.2022
906 Clouds 8 1008 87 10000 1.54 360 19:20 24.07.2022
907 Clouds 8 1008 93 10000 0 0 17:56 24.07.2022
908 Clouds 7 1009 98 10000 3.1 52 15:54 24.07.2022
909 Clouds 8 1009 93 10000 1.54 330 14:47 24.07.2022
910 Clouds 8 1009 93 10000 1.54 300 13:47 24.07.2022
911 Clouds 8 1009 93 10000 0 0 12:28 24.07.2022
912 Clouds 9 1009 87 10000 1.54 230 11:30 24.07.2022
913 Clouds 9 1008 87 10000 2.06 210 09:48 24.07.2022
914 Clouds 10 1008 81 10000 4.63 160 07:57 24.07.2022
915 Clouds 10 1008 81 10000 4.63 160 07:31 24.07.2022
916 Mist 9 1008 87 9656 6.69 140 02:57 24.07.2022
917 Rain 9 1007 82 10000 5.14 130 23:25 23.07.2022
918 Rain 9 1007 87 10000 5.66 150 20:47 23.07.2022
919 Rain 8 1006 93 4828 5.14 120 19:29 23.07.2022
920 Rain 8 1006 87 10000 2.57 100 18:36 23.07.2022
921 Rain 8 1006 87 10000 4.12 130 17:27 23.07.2022
922 Rain 8 1006 87 10000 5.66 150 16:24 23.07.2022
923 Rain 8 1006 87 10000 5.14 140 15:22 23.07.2022
924 Rain 8 1006 87 10000 4.12 140 14:55 23.07.2022
925 Rain 8 1006 87 10000 5.66 150 14:23 23.07.2022
926 Rain 6 1006 97 10000 2.17 105 11:56 23.07.2022
927 Rain 8 1005 87 10000 5.14 150 10:44 23.07.2022
928 Rain 8 1005 87 10000 3.6 120 09:44 23.07.2022
929 Rain 8 1004 87 10000 4.63 130 07:37 23.07.2022
930 Clouds 9 1003 81 10000 6.17 140 03:38 23.07.2022
931 Clouds 8 1002 93 10000 6.17 160 00:39 23.07.2022
932 Rain 8 1000 93 10000 4.63 170 21:38 22.07.2022
933 Clouds 9 999 87 10000 5.14 180 20:33 22.07.2022
934 Rain 8 999 98 10000 5.36 192 18:56 22.07.2022
935 Rain 9 997 87 9656 3.6 220 17:40 22.07.2022
936 Rain 8 997 93 8047 3.09 80 16:31 22.07.2022
937 Clouds 8 997 93 10000 2.06 50 13:50 22.07.2022
938 Rain 9 996 93 10000 3.6 160 10:40 22.07.2022
939 Clouds 10 995 81 10000 4.63 220 09:25 22.07.2022
940 Clouds 10 995 81 10000 4.63 240 08:26 22.07.2022
941 Clouds 10 993 81 10000 6.17 40 04:26 22.07.2022
942 Rain 8 993 81 10000 6.17 110 23:45 21.07.2022
943 Clouds 8 992 87 10000 6.17 120 22:20 21.07.2022
944 Clouds 8 991 87 10000 3.09 110 20:36 21.07.2022
945 Clouds 8 990 93 10000 2.06 160 18:52 21.07.2022
946 Clouds 8 990 93 10000 1.54 90 17:29 21.07.2022
947 Clouds 8 990 87 10000 0 0 16:53 21.07.2022
948 Clouds 7 989 93 10000 0 0 14:52 21.07.2022
949 Clouds 7 989 93 10000 0 0 14:22 21.07.2022
950 Clouds 8 989 87 10000 2.57 300 12:27 21.07.2022
951 Rain 9 990 87 10000 3.09 320 10:39 21.07.2022
952 Rain 8 990 92 10000 3.61 347 08:54 21.07.2022
953 Clouds 9 990 81 10000 4.63 350 08:35 21.07.2022
954 Rain 9 990 81 10000 6.17 360 07:23 21.07.2022
955 Rain 9 992 87 6437 5.66 40 03:48 21.07.2022
956 Rain 8 994 93 6437 7.2 100 23:22 20.07.2022
957 Mist 8 995 87 8047 7.2 140 22:20 20.07.2022
958 Rain 9 996 87 9656 7.72 130 20:49 20.07.2022
959 Rain 9 996 93 8047 8.23 130 19:47 20.07.2022
960 Mist 9 996 93 8047 8.23 130 19:19 20.07.2022
961 Rain 9 997 93 8047 7.72 140 18:33 20.07.2022
962 Rain 8 997 87 8047 5.66 70 17:42 20.07.2022
963 Clouds 7 999 87 10000 6.17 80 15:43 20.07.2022
964 Rain 6 999 94 6911 4.17 51 14:54 20.07.2022
965 Clouds 7 1001 87 10000 4.63 60 13:44 20.07.2022
966 Rain 6 1002 87 10000 4.12 50 11:32 20.07.2022
967 Clouds 8 1003 71 10000 2.57 120 07:39 20.07.2022
968 Clouds 8 1004 66 10000 5.66 230 02:44 20.07.2022
969 Clouds 7 1003 76 10000 6.17 260 00:44 20.07.2022
970 Clouds 7 1002 70 10000 7.2 270 22:41 19.07.2022
971 Clouds 7 1002 70 10000 7.2 270 22:21 19.07.2022
972 Clouds 7 1002 81 10000 7.84 271 20:54 19.07.2022
973 Clouds 6 1001 81 10000 8.23 280 20:18 19.07.2022
974 Clouds 4 1000 87 10000 9.26 280 18:43 19.07.2022
975 Clouds 5 1000 91 10000 9.68 280 17:56 19.07.2022
976 Clear 4 998 81 10000 8.75 270 16:25 19.07.2022
977 Clouds 4 997 93 10000 9.59 283 14:20 19.07.2022
978 Rain 4 992 87 10000 3.6 320 11:35 19.07.2022
979 Rain 5 992 82 10000 4.63 260 10:31 19.07.2022
980 Rain 6 992 87 9656 7.2 260 08:48 19.07.2022
981 Rain 6 992 87 3219 11.83 210 08:22 19.07.2022
982 Rain 6 993 82 4828 12.35 220 07:18 19.07.2022
983 Rain 6 994 87 4828 11.83 210 05:26 19.07.2022
984 Rain 7 995 76 9656 14.4 200 04:41 19.07.2022
985 Rain 6 998 76 10000 10.29 200 00:31 19.07.2022
986 Rain 5 998 87 10000 10.8 220 23:21 18.07.2022
987 Rain 4 998 93 10000 10.8 220 22:56 18.07.2022
988 Rain 7 999 83 10000 12.33 226 21:53 18.07.2022
989 Rain 7 999 76 8047 13.38 230 20:50 18.07.2022
990 Rain 6 999 75 10000 8.75 250 19:24 18.07.2022
991 Clouds 6 999 75 10000 8.23 240 17:22 18.07.2022
992 Clouds 6 1000 66 10000 9.26 250 15:46 18.07.2022
993 Clouds 4 1000 71 10000 8.23 260 14:24 18.07.2022
994 Clouds 3 999 75 10000 5.66 290 12:38 18.07.2022
995 Clouds 4 997 75 10000 8.75 290 11:29 18.07.2022
996 Clouds 7 992 76 10000 14.4 270 08:51 18.07.2022
997 Clouds 8 991 86 10000 10.61 273 06:58 18.07.2022
998 Clouds 12 994 71 10000 5.14 190 00:36 18.07.2022
999 Clouds 12 995 66 10000 3.6 220 22:37 17.07.2022
1000 Clouds 12 995 58 10000 4.12 230 21:49 17.07.2022
1001 Clouds 12 995 58 10000 4.12 230 21:18 17.07.2022
1002 Clear 12 995 66 10000 3.6 260 20:37 17.07.2022
1003 Clear 11 995 59 10000 2.57 270 19:29 17.07.2022
1004 Clear 7 995 76 10000 0 0 18:30 17.07.2022
1005 Clear 6 996 81 10000 2.57 310 17:38 17.07.2022
1006 Clear 4 996 81 10000 0 0 16:51 17.07.2022
1007 Clear 4 996 81 10000 0 0 16:51 17.07.2022
1008 Clear 4 996 81 10000 0 0 16:26 17.07.2022
1009 Clear 5 996 81 10000 0 0 14:44 17.07.2022
1010 Clear 8 996 71 10000 4.63 280 13:31 17.07.2022
1011 Clear 10 996 62 10000 3.6 280 11:35 17.07.2022
1012 Clear 15 997 48 10000 4.12 290 09:24 17.07.2022
1013 Clear 15 999 55 10000 4.63 260 03:44 17.07.2022
1014 Clear 14 999 58 10000 4.12 230 02:32 17.07.2022
1015 Clear 13 1000 62 10000 3.6 220 23:20 16.07.2022
1016 Clear 13 1001 62 10000 3.6 210 21:32 16.07.2022
1017 Clear 12 1001 63 10000 0 0 19:40 16.07.2022
1018 Clear 9 1002 71 10000 0 0 18:32 16.07.2022
1019 Clear 9 1002 71 10000 0 0 18:32 16.07.2022
1020 Clear 5 1003 90 10000 2.75 28 16:53 16.07.2022
1021 Clear 4 1004 91 10000 3.53 18 13:56 16.07.2022
1022 Clouds 9 1004 80 10000 4 16 10:55 16.07.2022
1023 Clear 14 1003 59 10000 3.6 90 09:33 16.07.2022
1024 Clear 17 1003 46 10000 5.66 340 08:44 16.07.2022
1025 Clear 17 1003 46 10000 5.66 340 08:23 16.07.2022
1026 Clear 17 1003 55 10000 5.14 240 04:21 16.07.2022
1027 Clear 17 1004 51 10000 4.12 220 03:22 16.07.2022
1028 Clear 16 1004 51 10000 5.66 240 23:34 15.07.2022
1029 Clear 16 1005 45 10000 4.12 330 22:41 15.07.2022
1030 Clouds 14 1005 52 10000 4.63 10 21:29 15.07.2022
1031 Clouds 14 1005 54 10000 4.63 10 20:30 15.07.2022
1032 Rain 11 1005 76 10000 3.6 340 18:42 15.07.2022
1033 Rain 12 1005 63 10000 6.69 10 17:44 15.07.2022
1034 Rain 12 1006 67 10000 4.78 10 14:54 15.07.2022
1035 Clouds 14 1006 62 10000 4.12 360 13:18 15.07.2022
1036 Clouds 16 1006 60 10000 5.14 30 11:45 15.07.2022
1037 Clouds 16 1007 63 10000 6.69 30 10:27 15.07.2022
1038 Clouds 14 1007 76 10000 4.63 230 06:30 15.07.2022
1039 Clear 14 1010 72 10000 6.69 240 01:32 15.07.2022
1040 Clear 13 1010 76 10000 3.09 250 00:37 15.07.2022
1041 Clouds 11 1011 86 10000 3.6 260 22:53 14.07.2022
1042 Clouds 12 1011 82 10000 3.6 270 21:54 14.07.2022
1043 Clouds 11 1011 87 10000 3.09 270 21:30 14.07.2022
1044 Clouds 10 1011 93 10000 1.54 260 20:45 14.07.2022
1045 Clouds 10 1011 93 10000 1.54 260 20:26 14.07.2022
1046 Fog 10 1010 93 805 0 0 19:45 14.07.2022
1047 Clouds 7 1010 93 10000 0 0 16:23 14.07.2022
1048 Clouds 10 1010 79 10000 0.81 277 15:54 14.07.2022
1049 Clouds 6 1010 93 10000 2.06 360 14:43 14.07.2022
1050 Mist 8 1010 93 6437 0 0 13:32 14.07.2022
1051 Clear 11 1010 87 10000 1.54 320 12:18 14.07.2022
1052 Clear 11 1009 87 10000 2.57 250 11:25 14.07.2022
1053 Clear 12 1009 82 10000 2.06 240 10:39 14.07.2022
1054 Clear 13 1008 71 10000 4.12 270 08:21 14.07.2022
1055 Clear 14 1008 71 10000 5.66 260 03:29 14.07.2022
1056 Clouds 19 1009 60 10000 4.26 238 00:54 14.07.2022
1057 Clouds 14 1008 72 10000 4.12 230 23:38 13.07.2022
1058 Clouds 15 1008 67 10000 3.6 210 22:26 13.07.2022
1059 Clouds 15 1008 63 10000 0 0 21:30 13.07.2022
1060 Clouds 12 1007 76 10000 2.06 270 20:38 13.07.2022
1061 Clouds 10 1008 89 10000 1.67 331 17:59 13.07.2022
1062 Clouds 11 1007 82 10000 1.54 30 17:20 13.07.2022
1063 Clouds 10 1007 89 10000 2.12 327 15:59 13.07.2022
1064 Clear 12 1007 76 10000 2.57 270 13:50 13.07.2022
1065 Clear 12 1006 76 10000 3.6 290 11:24 13.07.2022
1066 Clear 12 1006 71 10000 5.66 280 10:40 13.07.2022
1067 Clear 13 1006 71 10000 6.17 290 09:28 13.07.2022
1068 Clear 15 1006 63 10000 5.66 280 08:21 13.07.2022
1069 Clear 14 1006 71 10000 7.72 260 04:36 13.07.2022
1070 Clear 13 1008 76 10000 3.09 210 00:47 13.07.2022
1071 Clear 13 1008 76 10000 3.6 190 22:46 12.07.2022
1072 Clear 13 1008 76 10000 3.09 210 21:46 12.07.2022
1073 Clear 15 1008 77 10000 1.91 2 20:53 12.07.2022
1074 Clouds 13 1008 84 10000 2.48 22 19:54 12.07.2022
1075 Clear 11 1008 82 10000 0 0 18:43 12.07.2022
1076 Clear 10 1008 87 10000 2.06 350 16:36 12.07.2022
1077 Clouds 11 1008 87 10000 3.09 350 14:32 12.07.2022
1078 Clouds 11 1008 87 10000 3.09 350 14:32 12.07.2022
1079 Rain 12 1008 87 10000 2.57 350 13:43 12.07.2022
1080 Rain 12 1009 87 10000 2.57 360 11:54 12.07.2022
1081 Clouds 13 1009 77 10000 2.57 320 10:27 12.07.2022
1082 Clouds 14 1010 84 10000 2.08 322 08:58 12.07.2022
1083 Clouds 17 1009 64 10000 2.57 300 07:48 12.07.2022
1084 Clouds 17 1010 63 10000 4.12 300 05:47 12.07.2022
1085 Clouds 17 1010 63 10000 4.12 300 05:29 12.07.2022
1086 Clouds 13 1012 88 10000 2.06 190 01:32 12.07.2022
1087 Clouds 14 1012 88 10000 2.57 150 22:48 11.07.2022
1088 Clouds 13 1012 88 10000 0 0 21:34 11.07.2022
1089 Clouds 14 1012 82 10000 2.57 140 20:33 11.07.2022
1090 Clouds 13 1013 88 10000 1.54 90 19:28 11.07.2022
1091 Clouds 14 1013 82 10000 0 0 18:30 11.07.2022
1092 Clouds 13 1013 82 10000 1.54 360 16:34 11.07.2022
1093 Clouds 14 1013 82 10000 1.54 300 15:33 11.07.2022
1094 Clear 14 1013 82 10000 0 0 13:37 11.07.2022
1095 Clear 15 1014 77 10000 3.09 310 11:33 11.07.2022
1096 Clear 16 1014 67 10000 3.6 290 10:18 11.07.2022
1097 Clear 17 1014 63 10000 4.12 290 09:40 11.07.2022
1098 Clear 18 1014 63 10000 4.12 280 08:33 11.07.2022
1099 Clouds 21 1014 63 10000 5.29 266 02:59 11.07.2022
1100 Clear 16 1014 67 10000 5.66 250 00:20 11.07.2022
1101 Clouds 20 1014 62 10000 2.95 284 22:55 10.07.2022
1102 Clear 18 1014 59 10000 3.6 240 21:39 10.07.2022
1103 Clear 16 1014 63 10000 4.12 270 20:41 10.07.2022
1104 Clear 14 1014 72 10000 2.57 290 19:48 10.07.2022
1105 Clear 13 1014 76 10000 1.54 330 18:43 10.07.2022
1106 Clear 12 1014 76 10000 3.6 290 17:36 10.07.2022
1107 Clear 12 1014 76 10000 3.09 300 16:45 10.07.2022
1108 Clear 12 1013 76 10000 4.12 270 15:25 10.07.2022
1109 Clear 12 1013 76 10000 3.6 290 14:21 10.07.2022
1110 Clear 13 1013 76 10000 5.14 270 12:27 10.07.2022
1111 Clouds 16 1012 63 10000 3.3 282 09:58 10.07.2022
1112 Clear 16 1012 63 10000 5.14 270 08:45 10.07.2022
1113 Clear 17 1012 59 10000 7.72 260 07:30 10.07.2022
1114 Clear 17 1011 59 10000 9.77 260 01:33 10.07.2022
1115 Clear 17 1011 63 10000 5.66 250 22:43 09.07.2022
1116 Clear 17 1011 63 10000 5.66 250 22:24 09.07.2022
1117 Clear 17 1010 67 10000 1.54 290 20:46 09.07.2022
1118 Clear 12 1010 82 10000 0 0 18:38 09.07.2022
1119 Clear 11 1010 82 10000 0 0 17:45 09.07.2022
1120 Clear 9 1010 87 10000 1.54 50 16:44 09.07.2022
1121 Clear 9 1009 87 10000 0 0 15:41 09.07.2022
1122 Clear 10 1009 81 10000 1.54 340 14:36 09.07.2022
1123 Clear 12 1009 76 10000 2.06 270 13:50 09.07.2022
1124 Clear 13 1009 76 10000 2.57 280 12:47 09.07.2022
1125 Clear 14 1008 77 10000 1.54 240 11:31 09.07.2022
1126 Clear 17 1008 63 10000 3.09 280 10:22 09.07.2022
1127 Clear 22 1009 59 10000 3.46 282 07:53 09.07.2022
1128 Clear 17 1008 71 10000 7.2 260 05:24 09.07.2022
1129 Clear 17 1008 71 10000 5.66 260 02:34 09.07.2022
1130 Clouds 19 1009 74 10000 1.94 255 22:59 08.07.2022
1131 Clouds 18 1009 72 10000 1.56 254 21:59 08.07.2022
1132 Clouds 13 1008 88 10000 3.09 230 20:42 08.07.2022
1133 Clouds 13 1008 88 10000 3.09 230 20:23 08.07.2022
1134 Clouds 11 1007 93 10000 2.06 280 18:29 08.07.2022
1135 Clouds 11 1007 93 10000 2.06 280 18:29 08.07.2022
1136 Clouds 9 1007 100 10000 1.54 330 17:21 08.07.2022
1137 Clouds 9 1007 100 10000 1.54 330 17:21 08.07.2022
1138 Fog 9 1007 93 402 0 0 14:54 08.07.2022
1139 Fog 11 1006 93 402 1.54 350 13:45 08.07.2022
1140 Fog 12 1006 94 805 1.54 280 12:28 08.07.2022
1141 Fog 12 1005 94 805 3.09 240 10:37 08.07.2022
1142 Clouds 12 1005 94 10000 3.09 270 08:44 08.07.2022
1143 Clouds 13 1004 94 10000 3.09 260 06:50 08.07.2022
1144 Clouds 15 1004 91 10000 1.89 209 02:53 08.07.2022
1145 Rain 12 1003 94 10000 2.06 210 23:41 07.07.2022
1146 Mist 13 1003 94 3219 2.06 200 22:38 07.07.2022
1147 Clouds 14 1002 94 10000 0 0 20:40 07.07.2022
1148 Rain 13 1002 94 10000 1.54 100 18:37 07.07.2022
1149 Clouds 13 1002 94 10000 2.06 80 17:19 07.07.2022
1150 Clouds 13 1002 94 10000 3.6 70 15:18 07.07.2022
1151 Clouds 13 1002 94 10000 2.57 80 13:25 07.07.2022
1152 Clouds 13 1002 94 10000 2.57 70 12:39 07.07.2022
1153 Clouds 13 1002 94 10000 2.57 70 12:19 07.07.2022
1154 Rain 14 1002 94 10000 3.09 70 11:30 07.07.2022
1155 Rain 14 1002 94 10000 2.57 90 10:43 07.07.2022
1156 Rain 14 1002 94 10000 2.57 90 10:25 07.07.2022
1157 Clouds 17 1002 68 10000 2.57 110 07:40 07.07.2022
1158 Rain 17 1004 63 10000 1.54 190 04:18 07.07.2022
1159 Clouds 16 1006 73 10000 3.78 84 23:37 06.07.2022
1160 Clouds 16 1007 75 10000 4.55 98 23:19 06.07.2022
1161 Clouds 15 1007 75 10000 4.55 98 22:56 06.07.2022
1162 Clouds 15 1007 72 10000 4.12 100 22:38 06.07.2022
1163 Rain 14 1007 82 10000 4.12 70 21:30 06.07.2022
1164 Clouds 13 1008 88 10000 4.12 80 19:38 06.07.2022
1165 Clouds 12 1008 87 10000 4.63 80 18:29 06.07.2022
1166 Clouds 11 1009 87 10000 4.63 70 16:19 06.07.2022
1167 Rain 11 1010 93 10000 3.09 80 14:55 06.07.2022
1168 Clouds 12 1011 82 10000 3.6 90 12:42 06.07.2022
1169 Clouds 12 1011 82 10000 3.6 100 11:49 06.07.2022
1170 Clouds 12 1011 82 10000 3.6 90 10:18 06.07.2022
1171 Clouds 12 1012 76 10000 3.6 120 07:47 06.07.2022
1172 Clouds 12 1012 76 10000 3.6 120 07:23 06.07.2022
1173 Clouds 12 1013 76 10000 4.12 150 05:28 06.07.2022
1174 Clouds 11 1015 87 10000 3.6 230 22:48 05.07.2022
1175 Clouds 11 1015 91 10000 3.3 188 21:53 05.07.2022
1176 Mist 11 1014 87 9656 4.12 210 20:41 05.07.2022
1177 Clouds 11 1015 87 10000 3.6 210 19:43 05.07.2022
1178 Clouds 11 1015 88 10000 3.6 210 19:22 05.07.2022
1179 Rain 11 1014 87 10000 3.6 220 17:48 05.07.2022
1180 Rain 9 1015 100 4023 2.57 100 16:55 05.07.2022
1181 Mist 9 1015 93 2816 3.09 70 15:31 05.07.2022
1182 Mist 9 1015 100 4023 3.6 80 14:31 05.07.2022
1183 Clouds 9 1015 87 10000 2.57 80 12:47 05.07.2022
1184 Clouds 10 1015 81 10000 2.57 70 11:49 05.07.2022
1185 Clouds 10 1015 81 10000 1.54 120 10:40 05.07.2022
1186 Clouds 10 1015 81 10000 0 0 09:23 05.07.2022
1187 Clouds 10 1015 76 10000 2.06 270 07:47 05.07.2022
1188 Clouds 9 1015 87 10000 3.09 240 04:51 05.07.2022
1189 Clouds 9 1015 87 10000 3.09 240 04:24 05.07.2022
1190 Clouds 10 1014 87 10000 4.12 250 00:26 05.07.2022
1191 Rain 10 1014 87 10000 4.12 250 23:31 04.07.2022
1192 Rain 10 1014 93 4828 5.66 250 22:27 04.07.2022
1193 Rain 10 1014 93 10000 6.69 240 21:41 04.07.2022
1194 Clouds 13 1014 97 10000 2.65 221 20:53 04.07.2022
1195 Clouds 11 1013 93 10000 4.63 260 20:33 04.07.2022
1196 Mist 11 1013 100 6437 4.12 270 19:54 04.07.2022
1197 Mist 11 1013 100 6437 4.12 270 19:35 04.07.2022
1198 Clouds 11 1014 98 10000 1.51 209 17:58 04.07.2022
1199 Clouds 11 1014 97 10000 1.44 219 15:58 04.07.2022
1200 Rain 13 1013 94 10000 0 0 15:33 04.07.2022
1201 Clouds 13 1013 94 10000 0 0 13:29 04.07.2022
1202 Clouds 13 1013 94 10000 1.54 360 12:21 04.07.2022
1203 Clouds 15 1014 88 10000 0 0 10:34 04.07.2022
1204 Clouds 15 1014 88 10000 1.54 210 09:52 04.07.2022
1205 Clouds 16 1014 82 10000 2.06 220 07:37 04.07.2022
1206 Clouds 16 1015 82 10000 2.57 190 04:48 04.07.2022
1207 Clear 15 1014 87 10000 2.57 160 00:39 04.07.2022
1208 Clouds 18 1015 78 10000 3.12 166 22:59 03.07.2022
1209 Clouds 17 1015 80 10000 2.91 109 20:58 03.07.2022
1210 Clouds 16 1014 77 10000 4.63 90 20:31 03.07.2022
1211 Clouds 15 1014 78 10000 2.57 90 19:27 03.07.2022
1212 Clouds 14 1014 83 10000 3.09 70 18:43 03.07.2022
1213 Clouds 13 1014 94 10000 1.54 10 17:43 03.07.2022
1214 Clouds 12 1014 94 10000 0 0 15:51 03.07.2022
1215 Clouds 10 1015 98 10000 1.26 54 14:59 03.07.2022
1216 Clouds 12 1014 94 10000 1.54 40 14:18 03.07.2022
1217 Clear 12 1015 94 10000 2.06 60 13:48 03.07.2022
1218 Clear 12 1014 94 10000 2.06 40 12:33 03.07.2022
1219 Clear 13 1014 94 10000 0 0 11:28 03.07.2022
1220 Clouds 14 1014 88 10000 1.54 80 10:38 03.07.2022
1221 Clouds 13 1014 88 10000 1.54 90 09:31 03.07.2022
1222 Clouds 14 1014 82 10000 3.09 150 07:35 03.07.2022
1223 Clouds 14 1014 82 10000 1.54 190 03:46 03.07.2022
1224 Mist 13 1014 100 9656 2.57 160 00:21 03.07.2022
1225 Clouds 13 1014 94 10000 3.09 150 22:33 02.07.2022
1226 Clouds 14 1013 94 10000 3.6 130 20:58 02.07.2022
1227 Clouds 13 1013 100 10000 5.14 130 19:52 02.07.2022
1228 Clouds 13 1013 94 10000 4.63 120 19:20 02.07.2022
1229 Clouds 13 1013 94 10000 4.12 120 17:41 02.07.2022
1230 Rain 12 1013 98 3749 2.52 109 16:53 02.07.2022
1231 Mist 12 1012 100 8047 3.6 130 14:40 02.07.2022
1232 Rain 13 1012 94 6437 4.63 120 12:21 02.07.2022
1233 Mist 13 1011 94 8047 5.66 120 11:26 02.07.2022
1234 Clouds 13 1011 94 10000 5.66 120 10:39 02.07.2022
1235 Clouds 13 1011 94 10000 6.17 120 09:25 02.07.2022
1236 Clouds 13 1010 94 10000 6.69 120 08:20 02.07.2022
1237 Clouds 13 1010 100 10000 5.66 120 07:48 02.07.2022
1238 Smoke 14 1009 88 3219 7.72 120 02:50 02.07.2022
1239 Rain 13 1010 88 10000 6.89 120 23:59 01.07.2022
1240 Smoke 15 1008 77 805 7.72 120 22:58 01.07.2022
1241 Smoke 15 1008 77 805 7.2 120 21:49 01.07.2022
1242 Smoke 15 1008 77 805 7.2 120 21:29 01.07.2022
1243 Smoke 15 1008 77 805 7.72 120 20:43 01.07.2022
1244 Smoke 14 1008 88 402 5.66 110 19:47 01.07.2022
1245 Smoke 15 1007 77 805 5.66 100 17:53 01.07.2022
1246 Haze 15 1007 77 805 6.69 90 16:24 01.07.2022
1247 Clouds 15 1009 78 10000 3.29 73 13:55 01.07.2022
1248 Clouds 16 1008 73 10000 5.76 92 12:55 01.07.2022
1249 Clear 19 1008 63 10000 3.09 60 10:45 01.07.2022
1250 Clear 19 1008 63 10000 3.09 60 10:18 01.07.2022
1251 Clear 17 1011 67 10000 2.06 160 05:27 01.07.2022
1252 Clear 22 1013 43 10000 7.72 100 01:27 01.07.2022
1253 Clouds 19 1014 52 10000 7.2 110 23:26 30.06.2022
1254 Clouds 17 1015 55 10000 7.2 90 22:44 30.06.2022
1255 Clouds 17 1015 55 10000 7.2 90 22:26 30.06.2022
1256 Clouds 16 1015 59 10000 7.2 80 21:48 30.06.2022
1257 Clouds 15 1016 58 10000 6.17 80 20:31 30.06.2022
1258 Clouds 15 1016 67 10000 5.15 84 19:55 30.06.2022
1259 Clouds 14 1016 59 10000 5.66 80 19:32 30.06.2022
1260 Clouds 12 1017 67 10000 4.63 80 18:43 30.06.2022
1261 Clouds 11 1017 71 10000 4.12 90 17:49 30.06.2022
1262 Clouds 10 1017 71 10000 2.88 54 16:55 30.06.2022
1263 Clouds 8 1018 87 10000 2.06 120 15:50 30.06.2022
1264 Clouds 7 1018 93 10000 2.57 20 13:50 30.06.2022
1265 Clouds 7 1018 93 10000 2.57 20 13:18 30.06.2022
1266 Clouds 8 1019 93 10000 3.6 360 12:32 30.06.2022
1267 Clear 11 1019 82 10000 1.54 290 10:19 30.06.2022
1268 Clear 11 1019 82 10000 2.06 230 09:40 30.06.2022
1269 Clear 12 1019 76 10000 2.57 220 08:22 30.06.2022
1270 Clear 12 1019 76 10000 3.09 240 07:40 30.06.2022
1271 Clouds 11 1020 87 10000 4.63 220 03:35 30.06.2022
1272 Clouds 11 1020 82 10000 3.09 230 23:38 29.06.2022
1273 Haze 10 1020 81 9656 3.09 220 22:41 29.06.2022
1274 Clouds 13 1020 74 10000 2.78 232 21:59 29.06.2022
1275 Clouds 9 1020 87 10000 2.57 210 20:35 29.06.2022
1276 Clouds 11 1020 88 10000 1.54 244 19:56 29.06.2022
1277 Clouds 8 1020 98 10000 1.22 288 17:55 29.06.2022
1278 Clouds 8 1020 93 10000 2.06 300 17:32 29.06.2022
1279 Mist 8 1020 100 3219 2.06 320 15:44 29.06.2022
1280 Mist 8 1020 100 1207 2.06 340 13:45 29.06.2022
1281 Clouds 9 1020 93 10000 1.54 270 12:38 29.06.2022
1282 Clouds 11 1019 87 10000 3.6 240 09:50 29.06.2022
1283 Clouds 11 1019 87 10000 3.6 240 09:26 29.06.2022
1284 Clouds 11 1020 87 10000 3.6 230 06:29 29.06.2022
1285 Clouds 12 1020 76 10000 1.54 200 04:42 29.06.2022
1286 Clouds 15 1021 75 10000 3.62 206 00:53 29.06.2022
1287 Clouds 11 1021 82 10000 3.09 150 00:34 29.06.2022
1288 Clouds 10 1021 87 10000 3.6 160 22:52 28.06.2022
1289 Clouds 12 1021 83 10000 3.01 209 21:59 28.06.2022
1290 Clouds 10 1021 81 10000 2.06 160 21:40 28.06.2022
1291 Clouds 10 1021 81 10000 2.06 160 21:22 28.06.2022
1292 Clouds 9 1021 87 10000 0 0 19:54 28.06.2022
1293 Clouds 9 1021 87 10000 0 0 19:30 28.06.2022
1294 Clouds 8 1021 93 10000 0 0 18:40 28.06.2022
1295 Clouds 8 1021 93 10000 1.54 90 17:25 28.06.2022
1296 Clouds 7 1021 98 10000 1.35 186 15:55 28.06.2022
1297 Clouds 7 1021 100 10000 1.54 100 14:52 28.06.2022
1298 Clouds 7 1021 100 10000 1.54 100 14:19 28.06.2022
1299 Clouds 7 1021 100 10000 0 0 13:45 28.06.2022
1300 Clouds 7 1021 93 10000 1.54 200 12:35 28.06.2022
1301 Clouds 8 1020 93 10000 2.57 210 10:40 28.06.2022
1302 Clouds 8 1020 93 10000 3.09 200 08:56 28.06.2022
1303 Clouds 8 1020 93 10000 2.57 220 08:37 28.06.2022
1304 Clouds 8 1020 93 10000 4.12 210 07:20 28.06.2022
1305 Clouds 9 1019 93 10000 3.6 150 03:55 28.06.2022
1306 Mist 8 1019 100 4828 2.57 170 23:53 27.06.2022
1307 Rain 8 1019 93 2816 3.09 170 23:27 27.06.2022
1308 Clouds 8 1018 93 10000 4.12 160 22:25 27.06.2022
1309 Clouds 7 1018 100 10000 3.6 170 21:29 27.06.2022
1310 Clouds 7 1017 100 10000 2.57 190 20:34 27.06.2022
1311 Fog 7 1017 100 805 4.12 210 18:52 27.06.2022
1312 Clouds 8 1016 100 10000 4.12 180 17:44 27.06.2022
1313 Mist 8 1016 100 8047 4.12 160 15:50 27.06.2022
1314 Clouds 9 1015 93 10000 4.63 160 14:25 27.06.2022
1315 Clouds 9 1015 100 10000 4.63 150 12:58 27.06.2022
1316 Rain 9 1015 100 4023 4.63 140 11:40 27.06.2022
1317 Rain 10 1014 93 4828 4.63 130 09:53 27.06.2022
1318 Mist 10 1014 93 4828 4.12 140 08:43 27.06.2022
1319 Rain 11 1014 87 3219 4.12 130 07:52 27.06.2022
1320 Clouds 11 1014 93 10000 5.14 120 06:28 27.06.2022
1321 Rain 11 1014 87 3219 5.66 130 01:26 27.06.2022
1322 Rain 11 1014 93 2012 6.17 120 23:27 26.06.2022
1323 Rain 11 1013 93 2816 6.17 120 21:40 26.06.2022
1324 Rain 11 1013 93 4828 6.17 120 20:33 26.06.2022
1325 Rain 11 1013 100 3219 5.66 120 18:38 26.06.2022
1326 Rain 11 1013 100 3219 5.66 120 18:20 26.06.2022
1327 Rain 11 1013 87 9656 5.14 130 15:37 26.06.2022
1328 Clouds 11 1014 82 10000 4.12 90 14:23 26.06.2022
1329 Clouds 13 1014 63 10000 5.66 110 13:26 26.06.2022
1330 Clouds 13 1014 62 10000 6.17 70 12:37 26.06.2022
1331 Clouds 10 1015 88 10000 2.98 99 10:53 26.06.2022
1332 Clouds 12 1015 76 10000 4.63 80 10:22 26.06.2022
1333 Clear 13 1016 76 10000 3.6 90 08:36 26.06.2022
1334 Clouds 12 1017 82 10000 3.09 90 06:50 26.06.2022
1335 Rain 9 1018 93 2816 4.63 170 00:38 26.06.2022
1336 Rain 9 1018 93 2816 4.63 170 00:19 26.06.2022
1337 Rain 9 1018 93 4828 5.14 160 23:31 25.06.2022
1338 Rain 9 1018 100 2414 6.17 160 22:48 25.06.2022
1339 Rain 9 1018 100 2414 6.17 160 22:25 25.06.2022
1340 Rain 9 1018 100 3219 5.66 140 21:22 25.06.2022
1341 Rain 9 1018 93 2816 4.12 140 20:54 25.06.2022
1342 Rain 9 1018 93 3219 5.14 150 20:25 25.06.2022
1343 Mist 9 1018 100 4828 4.63 130 18:26 25.06.2022
1344 Rain 9 1018 93 8047 4.12 120 17:27 25.06.2022
1345 Rain 9 1018 93 2414 2.57 140 16:29 25.06.2022
1346 Clouds 10 1019 87 10000 2.57 140 14:43 25.06.2022
1347 Clouds 11 1018 82 10000 3.09 100 12:51 25.06.2022
1348 Clouds 11 1019 82 10000 3.6 110 12:32 25.06.2022
1349 Clouds 13 1019 62 10000 4.63 110 09:35 25.06.2022
1350 Clouds 13 1019 65 10000 4.19 93 08:55 25.06.2022
1351 Clouds 14 1019 54 10000 4.12 90 08:20 25.06.2022
1352 Clear 12 1021 66 10000 5.66 80 06:36 25.06.2022
1353 Clouds 9 1025 71 10000 5.14 140 01:31 25.06.2022
1354 Clouds 10 1025 80 10000 4.12 162 23:58 24.06.2022
1355 Clouds 7 1026 81 10000 3.09 130 22:29 24.06.2022
1356 Clouds 7 1026 81 10000 0 0 21:28 24.06.2022
1357 Clouds 6 1026 87 10000 0 0 20:24 24.06.2022
1358 Clouds 6 1026 81 10000 3.09 180 19:39 24.06.2022
1359 Clouds 6 1026 81 10000 2.57 180 19:18 24.06.2022
1360 Clouds 6 1026 81 10000 2.57 160 18:44 24.06.2022
1361 Clouds 6 1026 82 10000 2.57 160 18:24 24.06.2022
1362 Clouds 6 1026 82 10000 4.63 190 16:47 24.06.2022
1363 Clouds 6 1027 87 10000 4.63 200 14:50 24.06.2022
1364 Clouds 6 1027 87 10000 4.63 200 14:23 24.06.2022
1365 Clouds 6 1027 87 10000 4.63 210 13:41 24.06.2022
1366 Clouds 6 1027 87 10000 6.69 210 11:41 24.06.2022
1367 Rain 6 1027 87 6437 7.2 210 10:39 24.06.2022
1368 Clouds 7 1027 81 10000 6.17 200 09:42 24.06.2022
1369 Clouds 7 1027 81 10000 6.17 200 09:42 24.06.2022
1370 Clouds 6 1027 92 10000 4.24 211 08:54 24.06.2022
1371 Clouds 7 1027 81 10000 5.14 200 08:19 24.06.2022
1372 Clouds 7 1028 87 10000 5.66 220 06:44 24.06.2022
1373 Clouds 7 1028 87 10000 5.66 220 06:25 24.06.2022
1374 Clouds 7 1028 87 10000 5.66 210 04:50 24.06.2022
1375 Clouds 7 1028 87 10000 6.17 220 23:43 23.06.2022
1376 Clouds 7 1028 87 10000 4.63 220 22:43 23.06.2022
1377 Clouds 7 1028 93 10000 4.63 220 21:22 23.06.2022
1378 Clouds 7 1027 93 10000 3.6 220 20:37 23.06.2022
1379 Mist 6 1027 100 4828 3.6 190 19:54 23.06.2022
1380 Mist 6 1027 100 3219 4.12 200 18:38 23.06.2022
1381 Mist 6 1027 93 3219 2.57 220 17:34 23.06.2022
1382 Rain 6 1027 87 10000 4.63 220 16:29 23.06.2022
1383 Clouds 5 1027 93 10000 4.63 220 15:26 23.06.2022
1384 Clouds 6 1027 93 10000 5.66 220 14:34 23.06.2022
1385 Clouds 7 1027 87 10000 6.17 230 11:42 23.06.2022
1386 Clouds 7 1026 93 10000 7.72 220 10:41 23.06.2022
1387 Clouds 7 1026 93 10000 6.69 210 09:19 23.06.2022
1388 Clouds 7 1025 93 10000 6.17 210 04:48 23.06.2022
1389 Rain 7 1024 93 4828 6.17 210 00:27 23.06.2022
1390 Rain 7 1024 93 4828 6.17 200 23:52 22.06.2022
1391 Rain 7 1024 93 4828 6.17 200 23:18 22.06.2022
1392 Rain 7 1023 93 2414 6.17 200 21:36 22.06.2022
1393 Clouds 6 1023 93 10000 4.63 200 20:51 22.06.2022
1394 Clouds 6 1023 93 10000 4.63 200 20:18 22.06.2022
1395 Clouds 6 1023 87 10000 6.17 220 19:27 22.06.2022
1396 Mist 6 1022 93 4023 6.69 220 17:33 22.06.2022
1397 Clouds 6 1022 93 10000 7.2 220 16:41 22.06.2022
1398 Clouds 6 1022 100 10000 8.75 220 15:29 22.06.2022
1399 Rain 7 1021 93 8047 8.75 210 14:47 22.06.2022
1400 Rain 7 1021 93 4828 9.77 210 13:47 22.06.2022
1401 Mist 7 1021 93 4828 9.77 210 13:24 22.06.2022
1402 Rain 6 1022 97 1086 6.56 209 11:54 22.06.2022
1403 Mist 7 1021 93 6437 10.29 210 10:58 22.06.2022
1404 Mist 7 1021 93 6437 8.75 200 10:36 22.06.2022
1405 Rain 7 1021 93 4828 7.72 200 09:18 22.06.2022
1406 Clouds 7 1021 96 3745 7.1 211 06:55 22.06.2022
1407 Mist 7 1022 93 3219 6.69 170 01:59 22.06.2022
1408 Rain 7 1022 93 4023 7.2 180 00:56 22.06.2022
1409 Rain 8 1022 87 10000 5.66 170 22:49 21.06.2022
1410 Rain 7 1022 87 10000 4.63 180 20:47 21.06.2022
1411 Rain 7 1022 87 10000 4.63 190 19:20 21.06.2022
1412 Clouds 7 1022 90 10000 4.32 210 17:54 21.06.2022
1413 Clouds 7 1022 81 10000 5.66 230 16:38 21.06.2022
1414 Clouds 8 1021 87 10000 5.66 230 11:57 21.06.2022
1415 Clouds 8 1021 87 10000 3.6 250 10:38 21.06.2022
1416 Clouds 9 1020 81 10000 3.09 230 09:24 21.06.2022
1417 Clouds 9 1019 81 10000 4.63 260 07:44 21.06.2022
1418 Clear 10 1019 75 10000 5.14 250 04:43 21.06.2022
1419 Clear 12 1019 66 10000 4.63 250 00:23 21.06.2022
1420 Clear 12 1018 70 10000 5.66 230 22:21 20.06.2022
1421 Clear 12 1018 70 10000 5.66 230 22:21 20.06.2022
1422 Clear 12 1018 66 10000 4.12 230 21:37 20.06.2022
1423 Clear 11 1018 70 10000 4.12 250 20:29 20.06.2022
1424 Clear 11 1017 71 10000 3.09 270 19:36 20.06.2022
1425 Clear 9 1017 81 10000 4.12 260 18:26 20.06.2022
1426 Clear 7 1016 76 10000 0 0 17:49 20.06.2022
1427 Clear 6 1016 87 10000 0 0 16:36 20.06.2022
1428 Clear 7 1016 93 10000 3.6 270 15:30 20.06.2022
1429 Clear 8 1015 81 10000 2.57 280 12:32 20.06.2022
1430 Clear 9 1014 81 10000 5.14 260 10:22 20.06.2022
1431 Clouds 16 1014 55 10000 4.63 273 08:56 20.06.2022
1432 Clear 12 1013 65 10000 7.72 260 07:52 20.06.2022
1433 Clear 14 1012 57 10000 7.72 260 05:21 20.06.2022
1434 Clear 16 1011 50 10000 8.23 260 01:33 20.06.2022
1435 Clear 16 1011 54 10000 8.75 260 00:19 20.06.2022
1436 Clear 16 1010 50 10000 5.66 230 22:43 19.06.2022
1437 Clear 14 1010 58 10000 4.63 270 21:48 19.06.2022
1438 Clear 14 1010 58 10000 4.63 270 21:29 19.06.2022
1439 Clear 12 1010 58 10000 2.57 230 20:30 19.06.2022
1440 Clouds 12 1009 58 10000 1.54 280 19:47 19.06.2022
1441 Clear 9 1009 71 10000 0 0 18:43 19.06.2022
1442 Clear 7 1009 76 10000 0 0 17:48 19.06.2022
1443 Clear 7 1009 76 10000 0 0 17:22 19.06.2022
1444 Clear 7 1008 70 10000 0 0 16:34 19.06.2022
1445 Clear 7 1008 70 10000 0 0 15:41 19.06.2022
1446 Clouds 12 1009 58 10000 1.74 357 14:56 19.06.2022
1447 Clear 8 1008 66 10000 2.06 310 14:19 19.06.2022
1448 Clouds 13 1008 58 10000 2.26 332 12:56 19.06.2022
1449 Clouds 15 1008 53 10000 2.21 303 10:55 19.06.2022
1450 Clouds 17 1006 36 10000 3.6 280 09:46 19.06.2022
1451 Clouds 19 1006 34 10000 5.66 300 08:47 19.06.2022
1452 Clouds 18 1008 44 10000 2.77 247 07:59 19.06.2022
1453 Clouds 16 1006 55 10000 6.17 270 05:36 19.06.2022
1454 Clear 16 1007 59 10000 6.69 260 01:29 19.06.2022
1455 Clear 16 1006 59 10000 5.66 260 00:24 19.06.2022
1456 Clear 16 1006 59 10000 5.14 240 23:36 18.06.2022
1457 Clear 16 1006 55 10000 4.63 250 22:39 18.06.2022
1458 Clouds 18 1007 58 10000 0.77 126 20:57 18.06.2022
1459 Clear 14 1006 67 10000 2.57 240 20:38 18.06.2022
1460 Clear 13 1006 71 10000 0 0 19:38 18.06.2022
1461 Clouds 11 1006 71 10000 0 0 18:45 18.06.2022
1462 Clear 9 1006 81 10000 0 0 17:35 18.06.2022
1463 Clouds 11 1007 66 10000 1.22 334 16:56 18.06.2022
1464 Clear 9 1006 76 10000 0 0 15:33 18.06.2022
1465 Clear 8 1006 76 10000 2.06 10 14:45 18.06.2022
1466 Clear 9 1006 76 10000 2.06 350 13:23 18.06.2022
1467 Clouds 13 1005 62 10000 1.54 60 11:45 18.06.2022
1468 Clouds 13 1005 68 10000 2.06 120 10:47 18.06.2022
1469 Clouds 14 1005 62 10000 2.06 110 09:27 18.06.2022
1470 Clouds 13 1005 67 10000 2.06 120 08:30 18.06.2022
1471 Clouds 13 1005 67 10000 2.06 120 08:30 18.06.2022
1472 Clouds 16 1005 59 10000 2.57 220 06:49 18.06.2022
1473 Clouds 19 1005 42 10000 3.6 250 03:45 18.06.2022
1474 Clouds 17 1006 45 10000 2.57 200 01:26 18.06.2022
1475 Clouds 17 1006 45 10000 2.57 200 01:26 18.06.2022
1476 Clouds 17 1006 45 10000 2.57 200 01:26 18.06.2022
1477 Clouds 19 1007 35 10000 3.09 40 00:48 18.06.2022
1478 Clouds 18 1007 47 10000 3.24 111 23:58 17.06.2022
1479 Clouds 18 1007 39 10000 3.6 30 23:24 17.06.2022
1480 Clouds 16 1007 48 10000 4.12 30 21:18 17.06.2022
1481 Clouds 16 1007 51 10000 4.63 340 20:24 17.06.2022
1482 Clouds 14 1008 52 10000 4.12 330 18:49 17.06.2022
1483 Clouds 13 1008 54 10000 4.12 340 17:44 17.06.2022
1484 Clouds 13 1008 55 10000 3.09 340 16:43 17.06.2022
1485 Clouds 13 1008 55 10000 3.09 340 16:43 17.06.2022
1486 Clouds 12 1009 59 10000 4.12 340 15:49 17.06.2022
1487 Clouds 12 1009 59 10000 4.12 340 15:22 17.06.2022
1488 Clouds 12 1009 67 10000 3.6 330 14:20 17.06.2022
1489 Clouds 12 1009 67 10000 3.6 330 14:20 17.06.2022
1490 Clouds 12 1010 67 10000 3.09 350 13:46 17.06.2022
1491 Clouds 12 1010 67 10000 3.09 350 13:24 17.06.2022
1492 Clouds 10 1011 78 10000 1.39 319 11:58 17.06.2022
1493 Clouds 13 1011 67 10000 2.57 20 11:36 17.06.2022
1494 Clear 14 1011 63 10000 1.54 350 10:52 17.06.2022
1495 Clear 14 1012 62 10000 2.57 260 08:30 17.06.2022
1496 Clear 13 1012 67 10000 3.09 240 07:48 17.06.2022
1497 Clouds 13 1012 62 10000 3.09 250 06:22 17.06.2022
1498 Clear 10 1015 75 10000 2.57 150 03:19 17.06.2022
1499 Clear 11 1016 66 10000 3.09 190 00:42 17.06.2022
1500 Clear 9 1017 71 10000 2.06 160 22:45 16.06.2022
1501 Clear 9 1017 71 10000 2.06 160 22:26 16.06.2022
1502 Clear 9 1018 66 10000 1.54 70 21:19 16.06.2022
1503 Clouds 7 1019 76 10000 3.09 40 20:50 16.06.2022
1504 Clear 9 1018 67 10000 1.7 88 19:58 16.06.2022
1505 Clouds 6 1019 81 10000 2.57 130 18:44 16.06.2022
1506 Clouds 6 1020 81 10000 2.57 80 17:44 16.06.2022
1507 Clouds 6 1020 81 10000 2.57 80 17:20 16.06.2022
1508 Clouds 6 1020 81 10000 2.06 80 15:44 16.06.2022
1509 Clouds 6 1020 81 10000 2.06 80 15:20 16.06.2022
1510 Clouds 6 1021 81 10000 0 0 13:49 16.06.2022
1511 Clouds 6 1021 81 10000 2.06 200 12:47 16.06.2022
1512 Clouds 6 1021 81 10000 2.06 200 12:20 16.06.2022
1513 Clouds 6 1022 76 10000 3.6 210 11:21 16.06.2022
1514 Clouds 6 1022 76 10000 2.57 190 10:35 16.06.2022
1515 Clouds 6 1022 87 10000 3.6 200 09:39 16.06.2022
1516 Clouds 6 1022 87 10000 3.09 180 08:50 16.06.2022
1517 Clouds 6 1022 87 10000 3.09 200 07:38 16.06.2022
1518 Clouds 7 1023 81 10000 4.12 180 05:48 16.06.2022
1519 Clouds 7 1023 81 10000 4.63 170 03:44 16.06.2022
1520 Clouds 7 1023 81 10000 5.66 180 01:52 16.06.2022
1521 Clouds 7 1023 81 10000 5.66 180 01:52 16.06.2022
1522 Clouds 7 1023 81 10000 5.14 180 01:22 16.06.2022
1523 Rain 8 1024 84 10000 4.63 189 23:58 15.06.2022
1524 Clouds 6 1023 87 10000 5.66 170 22:53 15.06.2022
1525 Clouds 6 1023 87 10000 5.66 170 21:34 15.06.2022
1526 Clouds 6 1023 87 10000 6.69 160 20:58 15.06.2022
1527 Clouds 7 1023 81 10000 5.66 170 20:36 15.06.2022
1528 Clouds 6 1022 87 10000 4.63 170 19:52 15.06.2022
1529 Clouds 6 1022 87 10000 6.17 180 18:37 15.06.2022
1530 Clouds 6 1022 87 10000 6.17 180 17:46 15.06.2022
1531 Clouds 6 1022 93 10000 7.2 180 16:23 15.06.2022
1532 Clouds 6 1022 93 10000 5.26 186 14:57 15.06.2022
1533 Clouds 7 1021 81 10000 7.2 180 13:29 15.06.2022
1534 Clouds 7 1021 81 10000 7.72 170 12:47 15.06.2022
1535 Clouds 7 1021 81 10000 6.17 160 11:25 15.06.2022
1536 Clouds 7 1020 81 10000 4.63 160 10:22 15.06.2022
1537 Rain 6 1020 84 10000 4.87 163 08:59 15.06.2022
1538 Clouds 7 1019 76 10000 5.14 170 07:36 15.06.2022
1539 Clear 8 1019 71 10000 5.66 130 05:36 15.06.2022
1540 Clouds 7 1018 81 10000 5.14 180 02:54 15.06.2022
1541 Clouds 8 1017 81 10000 6.69 170 01:36 15.06.2022
1542 Rain 7 1016 93 10000 7.72 160 00:36 15.06.2022
1543 Clouds 7 1016 87 10000 7.72 160 23:38 14.06.2022
1544 Clouds 7 1015 81 10000 6.69 150 22:47 14.06.2022
1545 Clouds 7 1014 81 10000 7.72 150 21:43 14.06.2022
1546 Clouds 7 1014 81 10000 7.72 150 21:20 14.06.2022
1547 Clouds 7 1014 81 10000 7.2 150 20:40 14.06.2022
1548 Clouds 6 1014 87 10000 6.69 140 19:58 14.06.2022
1549 Rain 4 1013 87 10000 3.6 80 18:40 14.06.2022
1550 Rain 3 1014 87 10000 3.09 80 17:19 14.06.2022
1551 Clouds 3 1014 87 10000 3.6 90 16:42 14.06.2022
1552 Clouds 3 1013 87 10000 3.6 120 15:43 14.06.2022
1553 Clouds 2 1014 92 10000 3.41 158 14:56 14.06.2022
1554 Clouds 3 1013 87 10000 4.12 160 14:18 14.06.2022
1555 Clouds 3 1012 87 10000 5.14 180 13:28 14.06.2022
1556 Clouds 4 1011 87 10000 4.12 200 12:19 14.06.2022
1557 Clouds 4 1010 82 10000 3.09 150 10:55 14.06.2022
1558 Clouds 4 1010 81 10000 3.09 150 10:29 14.06.2022
1559 Clouds 4 1009 81 10000 4.12 170 09:26 14.06.2022
1560 Clouds 4 1008 87 10000 6.17 190 08:40 14.06.2022
1561 Clouds 5 1007 87 10000 6.69 190 06:53 14.06.2022
1562 Clouds 7 1004 70 10000 6.17 250 04:23 14.06.2022
1563 Clouds 7 1002 66 10000 5.66 120 01:38 14.06.2022
1564 Clouds 7 1002 66 10000 5.14 140 00:27 14.06.2022
1565 Clouds 6 1004 86 10000 4.63 159 22:59 13.06.2022
1566 Clouds 7 1002 71 10000 2.06 130 22:23 13.06.2022
1567 Haze 6 1002 76 9656 2.57 170 21:41 13.06.2022
1568 Clouds 3 1004 94 10000 4.11 122 19:59 13.06.2022
1569 Rain 4 1002 87 9656 3.09 360 19:25 13.06.2022
1570 Clouds 4 1004 95 10000 4.54 95 17:57 13.06.2022
1571 Rain 6 1003 71 9656 3.6 160 17:27 13.06.2022
1572 Clouds 6 1003 76 10000 2.57 20 16:31 13.06.2022
1573 Clouds 7 1003 71 10000 0 0 14:52 13.06.2022
1574 Clouds 7 1003 71 10000 0 0 14:32 13.06.2022
1575 Clouds 6 1003 76 10000 0 0 13:39 13.06.2022
1576 Clouds 6 1003 76 10000 1.54 290 12:23 13.06.2022
1577 Clouds 5 1004 86 10000 2.17 97 10:58 13.06.2022
1578 Clouds 7 1003 76 10000 4.63 190 10:26 13.06.2022
1579 Rain 8 1003 76 10000 3.6 210 09:22 13.06.2022
1580 Rain 10 1003 61 10000 3.21 350 06:55 13.06.2022
1581 Clouds 9 1003 49 10000 4.63 210 05:36 13.06.2022
1582 Clouds 9 1004 53 10000 3.6 230 02:47 13.06.2022
1583 Clouds 9 1004 57 10000 4.63 220 01:36 13.06.2022
1584 Clouds 9 1004 43 10000 4.12 80 23:52 12.06.2022
1585 Clouds 9 1004 43 10000 4.63 60 22:50 12.06.2022
1586 Clouds 9 1004 43 10000 4.63 60 22:22 12.06.2022
1587 Clouds 8 1006 54 10000 1.2 23 20:58 12.06.2022
1588 Clouds 8 1004 49 10000 4.63 40 20:27 12.06.2022
1589 Clouds 6 1004 56 10000 2.57 350 19:30 12.06.2022
1590 Clouds 4 1004 65 10000 4.12 340 17:51 12.06.2022
1591 Clouds 4 1004 65 10000 3.6 340 16:24 12.06.2022
1592 Clouds 2 1006 79 10000 2.53 345 14:57 12.06.2022
1593 Clouds 4 1005 65 10000 3.09 340 14:21 12.06.2022
1594 Clouds 3 1005 70 10000 3.09 340 13:51 12.06.2022
1595 Clouds 3 1005 70 10000 4.12 350 12:37 12.06.2022
1596 Clouds 4 1005 65 10000 4.63 360 11:37 12.06.2022
1597 Clear 5 1005 60 10000 6.69 360 10:22 12.06.2022
1598 Clouds 6 1006 64 10000 5.14 5 08:55 12.06.2022
1599 Clouds 8 1005 50 10000 7.72 350 08:36 12.06.2022
1600 Clouds 9 1005 46 10000 8.23 340 07:32 12.06.2022
1601 Clouds 11 1004 40 10000 2.57 0 04:45 12.06.2022
1602 Clouds 11 1005 43 10000 9.26 240 02:53 12.06.2022
1603 Clouds 9 1005 43 10000 3.09 0 01:39 12.06.2022
1604 Clouds 11 1006 44 10000 2.16 357 00:58 12.06.2022
1605 Clouds 10 1005 40 10000 4.12 220 00:20 12.06.2022
1606 Clouds 10 1005 40 10000 4.12 220 00:20 12.06.2022
1607 Clear 9 1005 46 10000 5.14 230 23:44 11.06.2022
1608 Clear 9 1005 40 10000 0 0 22:38 11.06.2022
1609 Clear 8 1006 46 10000 4.12 340 21:52 11.06.2022
1610 Clear 7 1006 49 10000 3.6 20 20:37 11.06.2022
1611 Clear 6 1005 52 10000 2.57 30 19:46 11.06.2022
1612 Clear 6 1005 52 10000 2.57 30 19:46 11.06.2022
1613 Clear 6 1005 52 10000 2.57 30 19:25 11.06.2022
1614 Clear 4 1006 65 10000 3.6 330 18:33 11.06.2022
1615 Clear 3 1006 70 10000 4.12 10 17:51 11.06.2022
1616 Clear 3 1006 70 10000 4.12 10 17:27 11.06.2022
1617 Clouds 2 1007 78 10000 3.3 347 16:55 11.06.2022
1618 Clear 2 1006 75 10000 3.09 340 16:27 11.06.2022
1619 Clear 3 1006 71 10000 3.6 320 15:31 11.06.2022
1620 Clouds 1 1007 83 10000 2.78 339 13:53 11.06.2022
1621 Clear 4 1006 66 10000 4.63 360 12:51 11.06.2022
1622 Clear 7 1005 54 10000 9.77 360 10:48 11.06.2022
1623 Clear 9 1005 50 10000 7.2 360 09:51 11.06.2022
1624 Clear 9 1005 49 10000 7.2 360 09:19 11.06.2022
1625 Clear 12 1005 37 10000 7.2 360 07:41 11.06.2022
1626 Clear 13 1005 35 10000 8.23 350 06:30 11.06.2022
1627 Clear 15 1005 31 10000 8.23 350 04:30 11.06.2022
1628 Clear 16 1006 27 10000 5.14 20 01:53 11.06.2022
1629 Clear 16 1006 27 10000 5.14 20 01:33 11.06.2022
1630 Clear 15 1006 29 10000 7.72 50 23:49 10.06.2022
1631 Clear 14 1006 30 10000 5.66 70 22:32 10.06.2022
1632 Clear 14 1006 31 10000 3.6 60 21:52 10.06.2022
1633 Clear 14 1006 30 10000 3.09 350 20:41 10.06.2022
1634 Clear 14 1006 30 10000 3.09 350 20:22 10.06.2022
1635 Clear 13 1006 38 10000 2.06 20 19:20 10.06.2022
1636 Clear 13 1007 46 10000 4.89 10 18:56 10.06.2022
1637 Clear 12 1006 47 10000 5.14 350 18:18 10.06.2022
1638 Clear 10 1006 53 10000 4.12 20 17:35 10.06.2022
1639 Clear 9 1006 57 10000 4.12 330 16:51 10.06.2022
1640 Clear 10 1007 46 10000 5.14 360 15:45 10.06.2022
1641 Clear 11 1007 48 10000 3.36 346 14:57 10.06.2022
1642 Clear 11 1007 46 10000 4.63 360 13:36 10.06.2022
1643 Clear 12 1008 43 10000 5.14 10 12:24 10.06.2022
1644 Clear 13 1008 39 10000 4.63 10 11:30 10.06.2022
1645 Clear 16 1007 36 10000 3.09 30 10:36 10.06.2022
1646 Clear 18 1007 32 10000 5.14 10 09:37 10.06.2022
1647 Clouds 18 1008 38 10000 4.35 30 07:58 10.06.2022
1648 Clear 18 1008 39 10000 4.12 270 06:50 10.06.2022
1649 Clear 18 1008 39 10000 4.12 270 06:31 10.06.2022
1650 Clear 18 1008 39 10000 4.63 250 05:35 10.06.2022
1651 Clouds 21 1010 41 10000 2.68 206 02:54 10.06.2022
1652 Clear 16 1010 41 10000 3.09 210 01:37 10.06.2022
1653 Clouds 20 1011 39 10000 1.73 103 23:58 09.06.2022
1654 Clear 17 1010 36 10000 3.6 230 22:47 09.06.2022
1655 Clear 17 1010 42 10000 3.09 230 21:46 09.06.2022
1656 Clear 17 1010 42 10000 3.09 230 21:28 09.06.2022
1657 Clear 18 1010 32 10000 3.6 340 20:40 09.06.2022
1658 Clear 17 1010 32 10000 4.12 350 19:51 09.06.2022
1659 Clear 15 1010 39 10000 3.09 340 18:41 09.06.2022
1660 Clear 13 1011 45 10000 5.66 350 17:55 09.06.2022
1661 Clear 13 1011 42 10000 4.12 350 16:37 09.06.2022
1662 Clear 12 1011 47 10000 6.17 350 15:40 09.06.2022
1663 Clear 12 1011 48 10000 5.66 350 14:33 09.06.2022
1664 Clear 12 1011 51 10000 5.66 350 13:44 09.06.2022
1665 Clear 12 1011 50 10000 5.66 350 13:20 09.06.2022
1666 Clear 14 1012 47 10000 5.66 350 11:43 09.06.2022
1667 Clear 17 1011 40 10000 6.69 20 10:36 09.06.2022
1668 Clear 18 1011 37 10000 7.72 40 09:40 09.06.2022
1669 Clear 18 1011 37 10000 7.72 40 09:21 09.06.2022
1670 Clear 16 1012 51 10000 2.06 240 07:29 09.06.2022
1671 Clear 15 1013 47 10000 3.09 230 04:47 09.06.2022
1672 Clear 13 1014 66 10000 2.57 240 00:36 09.06.2022
1673 Clear 12 1014 65 10000 2.57 220 23:24 08.06.2022
1674 Clear 12 1014 61 10000 2.06 210 22:45 08.06.2022
1675 Clear 12 1014 61 10000 2.06 210 22:25 08.06.2022
1676 Clear 12 1014 65 10000 2.06 230 21:45 08.06.2022
1677 Clear 12 1015 65 10000 1.54 190 20:33 08.06.2022
1678 Clear 11 1015 70 10000 1.54 160 19:46 08.06.2022
1679 Clear 11 1015 71 10000 1.54 140 18:49 08.06.2022
1680 Clear 10 1015 76 10000 0 0 17:48 08.06.2022
1681 Clear 7 1015 81 10000 2.06 30 16:18 08.06.2022
1682 Clear 11 1015 71 10000 0 0 14:49 08.06.2022
1683 Clear 13 1016 55 10000 3.27 8 12:55 08.06.2022
1684 Clear 13 1016 55 10000 3.27 8 12:55 08.06.2022
1685 Clear 14 1015 58 10000 3.6 360 11:44 08.06.2022
1686 Clear 14 1015 58 10000 3.6 360 11:19 08.06.2022
1687 Clear 21 1015 41 10000 3.64 29 09:45 08.06.2022
1688 Clear 21 1015 40 10000 2.25 28 09:18 08.06.2022
1689 Clear 17 1015 51 10000 7.72 260 07:30 08.06.2022
1690 Clear 20 1016 40 10000 6.17 260 04:51 08.06.2022
1691 Clear 21 1016 32 10000 4.63 250 02:19 08.06.2022
1692 Clear 19 1016 39 10000 4.63 260 23:41 07.06.2022
1693 Clear 19 1016 39 10000 4.63 260 23:22 07.06.2022
1694 Clear 19 1016 37 10000 4.63 250 22:38 07.06.2022
1695 Clear 19 1016 42 10000 3.09 230 21:45 07.06.2022
1696 Clear 19 1016 42 10000 3.09 230 21:24 07.06.2022
1697 Clear 21 1015 32 10000 0 0 20:43 07.06.2022
1698 Clouds 20 1016 46 10000 1.74 24 19:59 07.06.2022
1699 Clear 16 1015 48 10000 3.09 330 18:51 07.06.2022
1700 Clouds 11 1016 72 10000 2.47 22 17:54 07.06.2022
1701 Clear 13 1015 54 10000 0 0 16:54 07.06.2022
1702 Clear 13 1015 54 10000 0 0 16:32 07.06.2022
1703 Clear 12 1014 54 10000 3.6 350 15:40 07.06.2022
1704 Clear 12 1014 54 10000 3.6 350 15:22 07.06.2022
1705 Clear 12 1014 58 10000 0 0 14:45 07.06.2022
1706 Clear 13 1014 54 10000 1.54 0 13:46 07.06.2022
1707 Clear 13 1014 54 10000 1.54 0 13:27 07.06.2022
1708 Clear 13 1014 54 10000 3.09 360 12:22 07.06.2022
1709 Clouds 15 1014 63 10000 3.7 30 10:57 07.06.2022
1710 Clear 21 1013 41 10000 4.63 20 09:46 07.06.2022
1711 Clear 21 1013 43 10000 3.09 300 08:31 07.06.2022
1712 Clear 20 1012 40 10000 4.63 280 07:21 07.06.2022
1713 Clear 20 1012 40 10000 5.66 260 05:47 07.06.2022
1714 Clear 20 1012 32 10000 5.66 250 02:28 07.06.2022
1715 Clear 20 1012 32 10000 3.6 240 00:20 07.06.2022
1716 Clear 19 1012 34 10000 4.12 240 23:32 06.06.2022
1717 Clear 19 1012 37 10000 3.09 240 22:37 06.06.2022
1718 Clear 17 1012 48 10000 2.57 230 21:36 06.06.2022
1719 Clouds 18 1012 46 10000 3.26 25 19:53 06.06.2022
1720 Clouds 18 1011 42 10000 0 0 19:19 06.06.2022
1721 Clouds 14 1011 51 10000 1.54 340 18:34 06.06.2022
1722 Clouds 14 1010 52 10000 0 0 17:36 06.06.2022
1723 Clouds 13 1010 51 10000 2.57 360 16:33 06.06.2022
1724 Clouds 14 1010 48 10000 5.14 350 15:39 06.06.2022
1725 Clouds 13 1009 51 10000 4.63 350 14:39 06.06.2022
1726 Clouds 12 1009 55 10000 5.14 340 13:27 06.06.2022
1727 Clear 14 1009 47 10000 5.66 340 12:38 06.06.2022
1728 Clear 14 1009 47 10000 5.66 340 12:19 06.06.2022
1729 Clear 14 1009 51 10000 6.17 350 11:42 06.06.2022
1730 Clear 18 1008 42 10000 4.63 360 09:41 06.06.2022
1731 Clear 21 1007 33 10000 5.66 360 08:35 06.06.2022
1732 Clear 22 1007 29 10000 4.63 50 07:37 06.06.2022
1733 Clear 19 1007 32 10000 6.17 270 05:29 06.06.2022
1734 Clear 19 1008 34 10000 6.69 270 03:47 06.06.2022
1735 Clear 17 1008 36 10000 6.69 260 01:29 06.06.2022
1736 Clear 17 1008 36 10000 5.66 250 00:43 06.06.2022
1737 Clear 17 1008 34 10000 5.66 250 23:50 05.06.2022
1738 Clouds 19 1009 41 10000 3.32 14 22:53 05.06.2022
1739 Clear 17 1008 34 10000 4.12 360 21:33 05.06.2022
1740 Clear 16 1008 36 10000 2.57 0 20:23 05.06.2022
1741 Clear 13 1008 42 10000 2.06 30 18:42 05.06.2022
1742 Clear 12 1009 52 10000 4.32 14 17:57 05.06.2022
1743 Clear 11 1008 43 10000 4.12 340 17:36 05.06.2022
1744 Clear 11 1008 43 10000 4.12 340 17:18 05.06.2022
1745 Clear 11 1008 43 10000 5.14 350 16:45 05.06.2022
1746 Clear 9 1008 57 10000 4.63 350 14:46 05.06.2022
1747 Clouds 10 1009 61 10000 4.22 5 13:55 05.06.2022
1748 Clouds 13 1009 53 10000 3.82 18 11:56 05.06.2022
1749 Clear 14 1008 47 10000 5.66 360 10:45 05.06.2022
1750 Clear 14 1008 47 10000 5.66 360 10:23 05.06.2022
1751 Clear 18 1008 36 10000 6.17 30 09:21 05.06.2022
1752 Clear 20 1007 31 10000 6.17 350 08:22 05.06.2022
1753 Clear 19 1008 34 10000 2.57 190 05:24 05.06.2022
1754 Clear 18 1008 34 10000 3.6 200 04:36 05.06.2022
1755 Clear 17 1008 36 10000 4.63 240 02:19 05.06.2022
1756 Clear 15 1009 46 10000 4.12 220 01:23 05.06.2022
1757 Clear 15 1009 46 10000 4.12 220 01:23 05.06.2022
1758 Clear 16 1009 39 10000 4.12 210 22:48 04.06.2022
1759 Clear 15 1010 44 10000 3.09 180 21:24 04.06.2022
1760 Clear 13 1010 50 10000 3.09 290 19:26 04.06.2022
1761 Clear 7 1010 76 10000 4.12 310 16:48 04.06.2022
1762 Clear 7 1010 76 10000 4.12 310 16:20 04.06.2022
1763 Clear 7 1011 76 10000 5.14 310 15:35 04.06.2022
1764 Clouds 10 1011 54 10000 3.11 343 13:59 04.06.2022
1765 Clear 9 1011 61 10000 3.09 310 11:38 04.06.2022
1766 Clear 12 1011 54 10000 3.6 300 10:52 04.06.2022
1767 Clear 13 1011 50 10000 4.63 300 09:47 04.06.2022
1768 Clouds 15 1011 48 10000 3.83 302 08:59 04.06.2022
1769 Clear 14 1011 41 10000 7.72 300 08:37 04.06.2022
1770 Clear 17 1011 36 10000 8.75 290 06:25 04.06.2022
1771 Clear 13 1012 50 10000 9.77 260 03:52 04.06.2022
1772 Clear 13 1013 50 10000 8.23 260 00:22 04.06.2022
1773 Clouds 18 1014 38 10000 3.17 277 22:56 03.06.2022
1774 Clouds 16 1014 44 10000 2.61 274 21:53 03.06.2022
1775 Clear 9 1014 65 10000 3.6 220 20:40 03.06.2022
1776 Clear 8 1014 71 10000 0 0 19:37 03.06.2022
1777 Clouds 9 1014 63 10000 1.35 334 16:58 03.06.2022
1778 Clouds 8 1015 63 10000 1.39 326 15:55 03.06.2022
1779 Clear 3 1015 93 10000 1.54 30 14:25 03.06.2022
1780 Clear 6 1016 81 10000 0 0 12:21 03.06.2022
1781 Clouds 7 1017 81 10000 2.46 255 09:57 03.06.2022
1782 Clear 6 1016 81 10000 2.57 230 09:29 03.06.2022
1783 Clear 6 1017 81 10000 3.6 210 07:47 03.06.2022
1784 Clear 15 1018 47 10000 3.06 246 06:59 03.06.2022
1785 Clear 6 1018 80 10000 4.12 240 06:28 03.06.2022
1786 Haze 5 1020 80 4828 4.63 250 03:39 03.06.2022
1787 Mist 3 1021 86 3219 4.12 240 23:52 02.06.2022
1788 Clouds 3 1021 92 10000 3.09 210 22:23 02.06.2022
1789 Clear 6 1021 85 10000 2.43 237 20:56 02.06.2022
1790 Mist 2 1021 93 4828 0 0 19:57 02.06.2022
1791 Mist 1 1022 100 2012 2.06 290 19:38 02.06.2022
1792 Mist 1 1022 93 4828 3.09 280 18:51 02.06.2022
1793 Fog 1 1023 100 402 2.06 320 16:30 02.06.2022
1794 Fog 1 1023 93 402 2.57 290 15:47 02.06.2022
1795 Mist 2 1023 100 4828 2.57 270 13:31 02.06.2022
1796 Mist 2 1023 100 4828 3.6 260 12:49 02.06.2022
1797 Clouds 2 1023 100 10000 3.6 260 10:45 02.06.2022
1798 Clouds 3 1023 93 10000 5.14 250 09:30 02.06.2022
1799 Clouds 3 1023 92 10000 5.66 260 08:45 02.06.2022
1800 Clouds 4 1023 87 10000 5.14 250 08:23 02.06.2022
1801 Clouds 4 1024 86 10000 5.14 260 06:21 02.06.2022
1802 Clouds 5 1025 86 10000 6.17 250 03:50 02.06.2022
1803 Mist 5 1025 86 8047 6.69 250 01:33 02.06.2022
1804 Clouds 6 1024 80 10000 8.75 250 23:22 01.06.2022
1805 Clear 7 1024 75 10000 8.23 250 22:18 01.06.2022
1806 Clear 10 1023 66 10000 2.06 280 21:24 01.06.2022
1807 Clear 7 1023 75 10000 5.66 260 20:39 01.06.2022
1808 Clear 8 1023 67 10000 5.14 280 19:52 01.06.2022
1809 Clouds 6 1023 76 10000 4.12 270 18:41 01.06.2022
1810 Clouds 6 1023 83 10000 2.62 262 16:58 01.06.2022
1811 Clouds 4 1022 90 10000 8.75 250 15:45 01.06.2022
1812 Clouds 5 1022 93 10000 3.6 280 14:50 01.06.2022
1813 Clouds 6 1021 76 10000 2.57 260 13:26 01.06.2022
1814 Clouds 9 1021 86 10000 1.54 340 11:23 01.06.2022
1815 Clouds 9 1020 72 10000 3.09 300 09:30 01.06.2022
1816 Clouds 6 1020 68 10000 6.69 280 08:19 01.06.2022
1817 Clouds 7 1021 69 10000 5.66 260 07:20 01.06.2022
1818 Rain 17 1020 56 10000 2.43 249 04:53 01.06.2022
1819 Clouds 12 1020 62 10000 3.09 230 23:50 31.05.2022
1820 Clear 13 1020 58 10000 2.06 250 22:43 31.05.2022
1821 Clear 13 1020 58 10000 2.06 250 22:24 31.05.2022
1822 Clear 11 1020 65 10000 1.54 280 21:44 31.05.2022
1823 Clear 9 1020 70 10000 2.06 250 20:44 31.05.2022
1824 Clear 9 1020 70 10000 2.06 250 20:44 31.05.2022
1825 Clear 9 1020 71 10000 0 0 19:46 31.05.2022
1826 Clear 11 1019 66 10000 0 0 18:32 31.05.2022
1827 Clear 9 1020 66 10000 0 0 17:38 31.05.2022
1828 Clouds 8 1020 66 10000 2.57 350 16:21 31.05.2022
1829 Clear 7 1020 76 10000 1.54 350 15:37 31.05.2022
1830 Clouds 6 1020 75 10000 0 0 13:22 31.05.2022
1831 Clear 6 1020 87 10000 2.06 340 12:19 31.05.2022
1832 Clear 9 1020 81 10000 1.54 310 10:34 31.05.2022
1833 Clouds 10 1020 76 10000 1.54 170 08:26 31.05.2022
1834 Clouds 10 1019 75 10000 1.54 150 06:38 31.05.2022
1835 Clouds 10 1019 71 10000 4.63 140 04:34 31.05.2022
1836 Clear 12 1019 54 10000 7.72 130 23:46 30.05.2022
1837 Clear 12 1019 54 10000 7.72 130 23:24 30.05.2022
1838 Clear 16 1018 41 10000 7.2 120 22:42 30.05.2022
1839 Clear 16 1018 39 10000 4.12 70 21:40 30.05.2022
1840 Clear 16 1018 39 10000 4.12 70 21:21 30.05.2022
1841 Clear 12 1018 54 10000 7.2 30 19:45 30.05.2022
1842 Clear 11 1018 58 10000 4.63 20 18:21 30.05.2022
1843 Clear 9 1019 66 10000 4.63 360 17:23 30.05.2022
1844 Clear 8 1019 66 10000 3.6 360 16:30 30.05.2022
1845 Clear 8 1019 66 10000 3.6 350 13:38 30.05.2022
1846 Clear 8 1019 71 10000 2.06 360 11:40 30.05.2022
1847 Clouds 10 1019 69 10000 1.41 356 09:58 30.05.2022
1848 Clear 8 1019 76 10000 3.09 280 08:52 30.05.2022
1849 Clear 5 1019 86 10000 2.57 230 06:27 30.05.2022
1850 Mist 4 1020 86 4828 3.09 220 04:52 30.05.2022
1851 Clouds 4 1020 92 10000 2.57 210 01:23 30.05.2022
1852 Mist 3 1020 92 4828 2.57 200 22:49 29.05.2022
1853 Mist 3 1020 92 4828 2.57 200 22:28 29.05.2022
1854 Clouds 4 1020 86 10000 3.09 230 20:29 29.05.2022
1855 Clear 4 1020 87 10000 1.54 240 19:29 29.05.2022
1856 Clear 2 1019 93 10000 2.06 300 18:34 29.05.2022
1857 Clouds 1 1019 86 10000 0 0 16:40 29.05.2022
1858 Clear 1 1019 93 10000 0 0 15:47 29.05.2022
1859 Clear 6 1019 83 10000 2.17 24 14:55 29.05.2022
1860 Clear 2 1019 93 10000 0 0 13:18 29.05.2022
1861 Clear 4 1018 93 10000 1.54 90 11:20 29.05.2022
1862 Clear 6 1018 81 10000 3.09 130 10:34 29.05.2022
1863 Clear 10 1017 63 10000 1.54 330 08:31 29.05.2022
1864 Clouds 3 1018 87 10000 3.6 240 04:59 29.05.2022
1865 Mist 2 1018 93 9656 4.63 230 04:39 29.05.2022
1866 Clouds 3 1018 86 10000 4.63 240 01:52 29.05.2022
1867 Clouds 2 1018 86 10000 3.6 230 23:48 28.05.2022
1868 Clouds 2 1018 87 10000 3.6 230 23:20 28.05.2022
1869 Clouds 2 1018 87 10000 3.09 240 22:19 28.05.2022
1870 Clouds 1 1018 93 10000 3.6 240 21:19 28.05.2022
1871 Clouds 1 1018 93 10000 1.54 270 19:21 28.05.2022
1872 Clouds 1 1018 93 10000 2.06 260 18:40 28.05.2022
1873 Clouds 2 1018 93 10000 3.09 280 17:33 28.05.2022
1874 Clouds 2 1018 93 10000 2.57 280 16:22 28.05.2022
1875 Clouds 2 1018 93 10000 3.09 290 15:38 28.05.2022
1876 Clouds 3 1018 87 10000 2.06 270 13:42 28.05.2022
1877 Clouds 3 1018 87 10000 3.6 270 12:43 28.05.2022
1878 Clouds 3 1018 87 10000 3.09 260 11:50 28.05.2022
1879 Clouds 3 1018 87 10000 4.63 240 10:43 28.05.2022
1880 Clouds 3 1018 93 10000 5.14 240 09:56 28.05.2022
1881 Clouds 4 1018 87 10000 5.14 240 08:39 28.05.2022
1882 Clouds 4 1019 87 10000 5.66 250 07:23 28.05.2022
1883 Clouds 4 1019 87 10000 6.17 250 05:24 28.05.2022
1884 Clouds 4 1020 87 10000 5.66 260 02:33 28.05.2022
1885 Clouds 4 1020 87 10000 3.09 230 00:18 28.05.2022
1886 Clouds 3 1020 87 10000 3.6 240 22:50 27.05.2022
1887 Clouds 3 1020 87 10000 5.14 230 21:37 27.05.2022
1888 Clouds 3 1019 87 10000 5.66 240 20:48 27.05.2022
1889 Clouds 3 1019 87 10000 6.17 270 20:21 27.05.2022
1890 Clouds 3 1019 87 10000 5.66 260 19:41 27.05.2022
1891 Clouds 3 1019 87 10000 5.66 260 19:21 27.05.2022
1892 Clouds 3 1019 93 10000 4.63 260 17:26 27.05.2022
1893 Clouds 2 1019 93 10000 1.54 290 16:36 27.05.2022
1894 Clouds 2 1019 93 10000 2.06 300 15:20 27.05.2022
1895 Clouds 2 1019 93 10000 3.09 290 13:41 27.05.2022
1896 Clouds 2 1019 93 10000 4.63 290 12:35 27.05.2022
1897 Clouds 2 1019 93 10000 5.14 270 11:33 27.05.2022
1898 Clouds 2 1019 93 10000 5.66 280 10:52 27.05.2022
1899 Clouds 2 1019 93 10000 6.69 270 10:22 27.05.2022
1900 Clouds 3 1018 87 10000 6.69 260 09:31 27.05.2022
1901 Clouds 3 1018 87 10000 6.69 250 07:41 27.05.2022
1902 Clouds 3 1018 87 10000 5.14 250 05:27 27.05.2022
1903 Mist 3 1018 87 10000 4.12 240 01:47 27.05.2022
1904 Clouds 5 1018 77 9361 4.48 242 23:55 26.05.2022
1905 Mist 2 1018 93 6437 3.09 250 22:29 26.05.2022
1906 Mist 2 1017 93 4828 3.6 220 21:33 26.05.2022
1907 Mist 2 1017 93 3219 4.12 250 19:51 26.05.2022
1908 Mist 2 1017 93 2414 3.09 270 19:18 26.05.2022
1909 Mist 2 1016 93 2012 4.12 270 17:36 26.05.2022
1910 Mist 2 1016 93 2012 4.12 270 17:36 26.05.2022
1911 Mist 2 1016 93 2012 4.12 270 16:35 26.05.2022
1912 Mist 2 1016 93 1207 2.57 250 15:41 26.05.2022
1913 Fog 2 1016 93 805 0 0 14:21 26.05.2022
1914 Fog 2 1016 100 402 2.57 270 12:35 26.05.2022
1915 Mist 3 1016 93 1207 4.12 270 11:21 26.05.2022
1916 Fog 3 1015 99 805 3.6 280 09:40 26.05.2022
1917 Clouds 5 1014 86 10000 5.66 250 08:57 26.05.2022
1918 Clear 7 1014 76 10000 6.17 250 07:38 26.05.2022
1919 Clear 8 1014 66 10000 4.63 260 03:35 26.05.2022
1920 Clear 8 1014 71 10000 6.69 230 00:21 26.05.2022
1921 Clear 8 1013 71 10000 6.17 220 23:22 25.05.2022
1922 Clear 7 1013 65 10000 5.66 250 21:47 25.05.2022
1923 Clear 7 1013 65 10000 5.66 250 21:28 25.05.2022
1924 Clouds 9 1013 67 10000 2.36 253 19:59 25.05.2022
1925 Clear 6 1012 75 10000 4.63 250 19:19 25.05.2022
1926 Clear 3 1012 75 10000 2.06 300 17:33 25.05.2022
1927 Clear 3 1012 81 10000 0 0 16:36 25.05.2022
1928 Clouds 7 1012 51 10000 2.36 266 15:53 25.05.2022
1929 Clear 3 1012 87 10000 1.54 290 14:51 25.05.2022
1930 Clear 3 1012 87 10000 1.54 290 14:32 25.05.2022
1931 Clear 3 1011 87 10000 1.54 310 13:35 25.05.2022
1932 Clear 3 1011 81 10000 1.54 300 12:36 25.05.2022
1933 Clear 8 1011 76 10000 2.57 270 10:43 25.05.2022
1934 Clouds 9 1011 51 10000 2.62 262 09:53 25.05.2022
1935 Clouds 12 1011 39 10000 2.9 263 08:22 25.05.2022
1936 Clouds 14 1011 37 10000 3.1 256 06:53 25.05.2022
1937 Clear 11 1011 53 10000 3.6 220 03:20 25.05.2022
1938 Clouds 16 1012 41 10000 3.72 227 23:55 24.05.2022
1939 Clear 12 1012 47 10000 3.09 230 23:23 24.05.2022
1940 Clear 11 1012 50 10000 3.09 210 22:19 24.05.2022
1941 Clear 11 1012 53 10000 2.57 190 21:39 24.05.2022
1942 Clear 11 1012 53 10000 2.57 190 21:20 24.05.2022
1943 Clear 11 1011 46 10000 1.54 330 19:45 24.05.2022
1944 Clear 7 1011 61 10000 2.06 340 18:50 24.05.2022
1945 Clear 6 1012 61 10000 0 0 16:41 24.05.2022
1946 Clear 6 1012 61 10000 0 0 16:19 24.05.2022
1947 Clear 6 1012 65 10000 5.14 320 14:50 24.05.2022
1948 Clear 7 1012 65 10000 2.06 310 13:52 24.05.2022
1949 Clear 9 1012 54 10000 3.29 11 12:49 24.05.2022
1950 Clear 12 1011 51 10000 3.09 260 10:46 24.05.2022
1951 Clear 14 1011 44 10000 4.63 350 09:43 24.05.2022
1952 Clear 16 1011 40 10000 5.14 10 08:49 24.05.2022
1953 Clear 16 1012 44 10000 4.99 30 06:56 24.05.2022
1954 Clear 17 1012 38 10000 3.89 44 03:56 24.05.2022
1955 Clouds 16 1012 42 10000 2.86 42 01:53 24.05.2022
1956 Clear 11 1012 53 10000 3.6 180 01:32 24.05.2022
1957 Clouds 13 1012 47 10000 2.37 30 22:55 23.05.2022
1958 Clouds 13 1012 49 10000 2.17 34 21:55 23.05.2022
1959 Clear 9 1012 61 10000 2.06 210 21:29 23.05.2022
1960 Clear 9 1012 60 10000 0 0 20:29 23.05.2022
1961 Clouds 9 1012 66 10000 0 0 19:32 23.05.2022
1962 Clouds 11 1013 46 10000 1.77 26 18:58 23.05.2022
1963 Clear 7 1013 70 10000 1.54 60 18:30 23.05.2022
1964 Clear 6 1013 75 10000 0 0 17:20 23.05.2022
1965 Clear 4 1013 81 10000 0 0 15:23 23.05.2022
1966 Clear 6 1013 75 10000 1.54 260 13:21 23.05.2022
1967 Clear 11 1014 50 10000 0 0 11:31 23.05.2022
1968 Clear 14 1013 47 10000 1.54 350 09:51 23.05.2022
1969 Clear 14 1013 47 10000 1.54 350 09:30 23.05.2022
1970 Clear 16 1013 39 10000 2.57 300 08:31 23.05.2022
1971 Clear 15 1014 33 10000 5.14 260 06:46 23.05.2022
1972 Clear 11 1014 58 10000 4.12 220 05:39 23.05.2022
1973 Clear 13 1014 43 10000 5.66 250 02:34 23.05.2022
1974 Clear 20 1014 22 10000 4.12 40 01:39 23.05.2022
1975 Clear 21 1014 19 10000 5.66 40 00:23 23.05.2022
1976 Clear 19 1014 21 10000 8.23 40 22:42 22.05.2022
1977 Clouds 16 1015 38 10000 3.68 53 21:55 22.05.2022
1978 Clear 18 1014 20 10000 7.2 20 21:36 22.05.2022
1979 Clear 17 1014 23 10000 7.2 20 20:32 22.05.2022
1980 Clouds 15 1015 34 10000 3.29 25 19:57 22.05.2022
1981 Clear 14 1014 29 10000 7.72 40 18:56 22.05.2022
1982 Clear 14 1014 29 10000 7.72 40 18:25 22.05.2022
1983 Clear 13 1014 29 10000 8.23 30 17:37 22.05.2022
1984 Clear 12 1014 29 10000 7.2 30 16:39 22.05.2022
1985 Clear 13 1015 34 10000 6.17 30 14:53 22.05.2022
1986 Clouds 9 1016 49 10000 3.86 22 13:56 22.05.2022
1987 Clear 11 1015 50 10000 3.6 350 12:52 22.05.2022
1988 Clouds 10 1016 57 10000 3.87 17 11:52 22.05.2022
1989 Clear 12 1015 50 10000 4.63 320 10:24 22.05.2022
1990 Clear 15 1016 47 10000 3.6 360 09:19 22.05.2022
1991 Clear 16 1016 39 10000 3.09 280 07:22 22.05.2022
1992 Clear 13 1017 47 10000 2.57 230 06:27 22.05.2022
1993 Clear 17 1018 34 10000 5.14 50 02:50 22.05.2022
1994 Clear 11 1019 50 10000 6.17 130 00:44 22.05.2022
1995 Clouds 15 1019 46 10000 3.75 90 23:56 21.05.2022
1996 Clear 13 1019 41 10000 4.12 130 23:22 21.05.2022
1997 Clear 11 1019 50 10000 8.23 120 21:55 21.05.2022
1998 Clear 11 1019 50 10000 8.23 120 21:27 21.05.2022
1999 Clear 16 1019 34 10000 7.72 90 20:29 21.05.2022
2000 Clear 16 1019 32 10000 5.14 70 19:43 21.05.2022
2001 Clouds 15 1019 33 10000 5.14 60 18:31 21.05.2022
2002 Clouds 11 1020 53 10000 2.4 137 16:57 21.05.2022
2003 Clouds 14 1019 41 10000 6.17 60 14:38 21.05.2022
2004 Clouds 13 1020 49 10000 4.3 27 13:55 21.05.2022
2005 Clouds 14 1020 42 10000 3.6 70 13:19 21.05.2022
2006 Clouds 12 1021 50 10000 3.6 40 12:38 21.05.2022
2007 Clear 13 1021 47 10000 5.14 40 11:20 21.05.2022
2008 Clouds 12 1022 57 10000 3.21 34 09:57 21.05.2022
2009 Clouds 13 1022 52 10000 2.98 60 08:59 21.05.2022
2010 Clear 18 1022 37 10000 3.6 40 08:37 21.05.2022
2011 Clouds 17 1024 42 10000 4.16 100 05:52 21.05.2022
2012 Clear 18 1025 34 10000 8.23 90 01:41 21.05.2022
2013 Clear 18 1026 37 10000 8.75 90 23:32 20.05.2022
2014 Clear 17 1026 39 10000 6.69 90 22:29 20.05.2022
2015 Clouds 16 1026 49 10000 6.67 98 21:56 20.05.2022
2016 Clear 17 1026 37 10000 6.69 80 21:19 20.05.2022
2017 Clear 16 1027 39 10000 6.69 80 20:45 20.05.2022
2018 Clear 15 1027 39 10000 6.69 70 19:45 20.05.2022
2019 Clear 14 1027 41 10000 5.66 70 18:49 20.05.2022
2020 Clear 13 1027 41 10000 4.63 70 17:48 20.05.2022
2021 Clear 13 1027 45 10000 5.14 60 16:23 20.05.2022
2022 Clouds 6 1027 73 10000 3.16 42 15:53 20.05.2022
2023 Clear 9 1028 57 10000 3.6 20 14:32 20.05.2022
2024 Clouds 9 1028 56 10000 2.8 39 13:59 20.05.2022
2025 Clear 8 1028 66 10000 1.54 10 11:51 20.05.2022
2026 Clear 9 1028 71 10000 1.54 310 10:34 20.05.2022
2027 Clear 10 1029 66 10000 0 0 09:23 20.05.2022
2028 Clear 7 1029 70 10000 1.54 210 07:43 20.05.2022
2029 Clear 7 1029 70 10000 0 0 06:40 20.05.2022
2030 Clear 4 1030 86 10000 2.57 200 05:39 20.05.2022
2031 Mist 2 1031 92 9656 3.09 170 01:29 20.05.2022
2032 Mist 0 1030 100 9656 2.57 200 23:31 19.05.2022
2033 Mist -1 1030 100 9656 3.09 160 22:35 19.05.2022
2034 Mist -1 1030 100 3219 2.06 0 21:50 19.05.2022
2035 Mist -1 1030 100 3219 3.09 160 21:23 19.05.2022
2036 Mist -1 1030 100 2414 3.09 160 20:43 19.05.2022
2037 Clouds -1 1030 93 10000 2.06 180 19:54 19.05.2022
2038 Clouds 4 1029 78 10000 1.38 215 18:59 19.05.2022
2039 Clouds -3 1029 100 10000 2.06 350 17:36 19.05.2022
2040 Fog -2 1028 93 402 2.06 340 15:43 19.05.2022
2041 Fog -2 1028 100 805 0 0 14:39 19.05.2022
2042 Mist -2 1028 100 1207 0 0 14:19 19.05.2022
2043 Fog -1 1027 100 805 1.54 310 11:53 19.05.2022
2044 Fog -1 1026 100 402 0 0 10:30 19.05.2022
2045 Fog 0 1025 93 805 3.6 240 08:33 19.05.2022
2046 Clouds 5 1024 79 10000 3.69 262 06:57 19.05.2022
2047 Mist 1 1023 86 8047 3.6 240 03:26 19.05.2022
2048 Clouds 3 1023 81 10000 4.55 253 00:56 19.05.2022
2049 Clouds 0 1022 86 10000 3.6 230 23:21 18.05.2022
2050 Clouds 0 1022 86 10000 3.93 254 22:41 18.05.2022
2051 Mist -1 1021 93 8047 3.09 230 21:42 18.05.2022
2052 Mist -1 1021 93 8047 3.09 230 21:20 18.05.2022
2053 Mist -1 1021 93 3219 3.09 230 20:19 18.05.2022
2054 Clouds -1 1020 86 10000 4.12 240 18:47 18.05.2022
2055 Clouds -1 1020 92 10000 4.12 240 17:42 18.05.2022
2056 Clouds -1 1020 92 10000 4.12 240 17:23 18.05.2022
2057 Clear -2 1020 80 10000 1.54 350 16:52 18.05.2022
2058 Clear -2 1020 85 10000 1.54 350 15:43 18.05.2022
2059 Clear -2 1020 86 10000 1.54 350 15:20 18.05.2022
2060 Clouds -3 1021 79 10000 1.86 275 13:59 18.05.2022
2061 Clouds -2 1021 76 10000 1.91 266 12:53 18.05.2022
2062 Clear 1 1020 75 10000 2.06 300 11:48 18.05.2022
2063 Clear 1 1020 75 10000 2.06 300 11:29 18.05.2022
2064 Clear 1 1019 70 10000 2.57 280 10:36 18.05.2022
2065 Clouds 5 1020 61 10000 1.92 249 07:59 18.05.2022
2066 Clouds 6 1019 57 10000 2.38 238 06:54 18.05.2022
2067 Clear 2 1019 79 10000 4.12 220 03:34 18.05.2022
2068 Clear 2 1019 74 10000 3.6 190 00:42 18.05.2022
2069 Clear 2 1019 68 10000 3.6 210 23:21 17.05.2022
2070 Clear 1 1019 64 10000 2.57 160 21:21 17.05.2022
2071 Clear 1 1019 55 10000 2.06 170 20:38 17.05.2022
2072 Clear 0 1019 59 10000 0 0 19:30 17.05.2022
2073 Clear -2 1018 69 10000 0 0 18:46 17.05.2022
2074 Clear -4 1019 74 10000 1.54 350 17:34 17.05.2022
2075 Clouds -5 1019 83 10000 1.54 25 16:55 17.05.2022
2076 Clear -2 1018 70 10000 1.54 90 15:49 17.05.2022
2077 Clouds -5 1019 78 10000 2.21 7 14:55 17.05.2022
2078 Clear -2 1018 60 10000 2.57 320 14:28 17.05.2022
2079 Clear -1 1018 64 10000 1.54 0 12:37 17.05.2022
2080 Clear 2 1018 69 10000 2.57 70 10:39 17.05.2022
2081 Clear 4 1018 65 10000 1.54 50 08:51 17.05.2022
2082 Clear 3 1018 74 10000 2.06 130 07:46 17.05.2022
2083 Clear 4 1018 69 10000 2.06 0 06:21 17.05.2022
2084 Clear 4 1018 56 10000 4.63 230 01:23 17.05.2022
2085 Clouds 4 1019 56 10000 6.17 360 23:43 16.05.2022
2086 Clear 3 1019 60 10000 6.17 10 22:33 16.05.2022
2087 Clouds 3 1019 60 10000 8.23 10 21:18 16.05.2022
2088 Clouds 2 1019 69 10000 7.2 360 20:37 16.05.2022
2089 Clouds 2 1019 69 10000 3.6 10 18:46 16.05.2022
2090 Clear 1 1019 75 10000 3.09 310 17:18 16.05.2022
2091 Clear 1 1019 75 10000 3.09 310 17:18 16.05.2022
2092 Clear 2 1019 75 10000 3.09 10 15:29 16.05.2022
2093 Clear 2 1019 76 10000 5.14 360 13:45 16.05.2022
2094 Clear 3 1019 71 10000 4.12 340 12:37 16.05.2022
2095 Clear 3 1019 71 10000 4.63 340 10:36 16.05.2022
2096 Clear 8 1017 57 10000 5.14 350 07:48 16.05.2022
2097 Clear 8 1017 53 10000 3.09 360 05:46 16.05.2022
2098 Clouds 4 1016 75 10000 2.06 140 00:49 16.05.2022
2099 Clouds 3 1015 75 10000 4.12 70 22:44 15.05.2022
2100 Clouds 3 1016 84 7793 2.48 345 21:59 15.05.2022
2101 Clouds 2 1014 80 10000 4.12 50 21:36 15.05.2022
2102 Clouds 1 1014 93 10000 4.63 50 20:43 15.05.2022
2103 Rain 1 1013 93 9656 4.63 50 18:39 15.05.2022
2104 Snow 0 1013 97 38 3.8 74 16:54 15.05.2022
2105 Snow 1 1011 93 4023 5.14 80 14:34 15.05.2022
2106 Snow 0 1011 100 3219 5.14 90 13:46 15.05.2022
2107 Snow 0 1013 100 1207 4.63 110 11:59 15.05.2022
2108 Snow 0 1013 100 1207 4.63 120 10:49 15.05.2022
2109 Snow 0 1015 93 805 5.66 120 09:51 15.05.2022
2110 Clouds 1 1017 86 10000 6.17 120 07:23 15.05.2022
2111 Clouds 1 1018 86 10000 5.66 120 06:55 15.05.2022
2112 Clouds 2 1024 69 10000 4.12 140 02:55 15.05.2022
2113 Clouds 2 1025 69 10000 5.66 140 00:26 15.05.2022
2114 Clear 2 1026 69 10000 4.12 150 23:37 14.05.2022
2115 Clear 1 1027 75 10000 2.57 140 21:51 14.05.2022
2116 Clear 1 1027 75 10000 2.57 140 21:26 14.05.2022
2117 Clear 0 1028 74 10000 2.06 140 20:27 14.05.2022
2118 Clear 0 1028 74 10000 0 0 19:20 14.05.2022
2119 Clouds -2 1028 80 10000 1.49 214 18:58 14.05.2022
2120 Clear -3 1028 80 10000 0 0 17:47 14.05.2022
2121 Clouds -1 1029 69 10000 1.39 277 15:58 14.05.2022
2122 Clear -3 1029 80 10000 0 0 14:39 14.05.2022
2123 Clear -3 1029 80 10000 0 0 14:18 14.05.2022
2124 Clear -2 1029 86 10000 3.09 300 11:46 14.05.2022
2125 Clear 0 1029 80 10000 3.6 280 10:44 14.05.2022
2126 Clear 0 1029 80 10000 3.6 280 10:18 14.05.2022
2127 Clear 2 1029 64 10000 3.6 290 09:25 14.05.2022
2128 Clear 4 1028 52 10000 3.09 280 07:34 14.05.2022
2129 Clear 4 1028 48 10000 3.09 320 04:43 14.05.2022
2130 Clear 3 1027 48 10000 4.12 330 00:43 14.05.2022
2131 Clear 2 1027 48 10000 2.57 360 23:28 13.05.2022
2132 Clear 2 1027 58 10000 3.65 308 22:55 13.05.2022
2133 Clear 1 1027 51 10000 3.09 0 22:21 13.05.2022
2134 Clear 0 1027 64 10000 2.57 325 20:59 13.05.2022
2135 Clear -1 1026 59 10000 3.09 330 20:38 13.05.2022
2136 Clear -1 1026 59 10000 3.09 330 20:20 13.05.2022
2137 Clear -2 1026 64 10000 3.6 40 19:18 13.05.2022
2138 Clear -3 1025 69 10000 0 0 17:47 13.05.2022
2139 Clear -3 1025 69 10000 0 0 17:23 13.05.2022
2140 Clear -4 1024 74 10000 3.6 330 15:47 13.05.2022
2141 Clear -3 1023 68 10000 4.12 280 14:39 13.05.2022
2142 Clear -3 1024 76 10000 4.75 307 12:54 13.05.2022
2143 Clear -3 1023 75 10000 5.01 309 11:56 13.05.2022
2144 Clear -1 1020 69 10000 10.29 310 10:19 13.05.2022
2145 Clouds -1 1020 74 10000 4.63 320 09:29 13.05.2022
2146 Clear 2 1018 69 10000 9.26 310 07:52 13.05.2022
2147 Clear 2 1018 69 10000 9.26 310 07:26 13.05.2022
2148 Clouds 2 1017 75 10000 9.26 310 05:31 13.05.2022
2149 Clouds 3 1014 75 10000 11.32 310 01:21 13.05.2022
2150 Clouds 3 1013 81 10000 9.77 320 23:24 12.05.2022
2151 Clouds 3 1013 81 10000 9.77 320 22:34 12.05.2022
2152 Clouds 1 1012 86 10000 6.69 270 21:26 12.05.2022
2153 Snow -1 1012 100 4828 5.14 270 19:51 12.05.2022
2154 Snow -1 1012 100 1609 6.17 260 18:29 12.05.2022
2155 Mist -1 1012 100 3219 5.66 260 16:45 12.05.2022
2156 Clouds 0 1013 93 10000 5.66 260 15:22 12.05.2022
2157 Clouds 0 1014 93 10000 2.06 250 13:52 12.05.2022
2158 Clouds 1 1015 86 10000 0 0 12:29 12.05.2022
2159 Clouds 1 1015 86 10000 5.14 260 10:34 12.05.2022
2160 Clouds 2 1015 87 10000 3.25 262 08:56 12.05.2022
2161 Clouds 2 1015 87 10000 5.14 260 08:35 12.05.2022
2162 Clouds 2 1015 87 10000 8.23 270 07:25 12.05.2022
2163 Clear 3 1014 87 10000 7.2 250 04:45 12.05.2022
2164 Clouds 5 1014 81 10000 7.72 300 01:37 12.05.2022
2165 Rain 3 1013 87 10000 7.72 280 23:36 11.05.2022
2166 Clouds 1 1012 93 10000 7.2 270 22:21 11.05.2022
2167 Mist 0 1012 93 4828 5.14 250 21:26 11.05.2022
2168 Mist 0 1012 93 4828 5.14 250 21:26 11.05.2022
2169 Mist 0 1012 93 2012 4.12 260 20:20 11.05.2022
2170 Mist 0 1013 93 4023 0 0 17:43 11.05.2022
2171 Snow 0 1014 100 10000 0 0 16:39 11.05.2022
2172 Mist 0 1015 100 4828 0 0 14:48 11.05.2022
2173 Snow 0 1015 100 4828 0 0 14:25 11.05.2022
2174 Mist 0 1016 93 4828 1.54 140 13:25 11.05.2022
2175 Mist -1 1017 100 4828 2.06 230 11:48 11.05.2022
2176 Mist 0 1018 93 4023 4.12 230 09:30 11.05.2022
2177 Mist 0 1018 93 6437 3.6 240 06:59 11.05.2022
2178 Snow -1 1019 100 1207 5.14 210 02:27 11.05.2022
2179 Snow -1 1022 93 2414 4.63 90 22:58 10.05.2022
2180 Snow -1 1022 93 2414 4.63 90 22:30 10.05.2022
2181 Mist -2 1023 100 6437 3.6 100 21:41 10.05.2022
2182 Mist -2 1023 93 8047 3.09 140 20:47 10.05.2022
2183 Snow -3 1024 93 2816 2.57 150 18:58 10.05.2022
2184 Clouds -3 1024 93 10000 1.54 340 17:42 10.05.2022
2185 Clouds -3 1024 93 10000 0 0 16:38 10.05.2022
2186 Clear -4 1024 86 10000 2.06 280 13:37 10.05.2022
2187 Clouds -7 1024 93 10000 2.08 355 11:54 10.05.2022
2188 Clear -2 1023 80 10000 3.09 270 11:34 10.05.2022
2189 Clouds -6 1024 91 10000 1.98 331 10:57 10.05.2022
2190 Clear -1 1023 80 10000 4.63 290 09:52 10.05.2022
2191 Clouds 0 1023 74 10000 8.23 300 08:22 10.05.2022
2192 Clear 1 1022 75 10000 7.2 280 06:21 10.05.2022
2193 Clouds 1 1021 75 10000 10.8 290 02:23 10.05.2022
2194 Clouds 1 1020 74 10000 5.55 301 23:55 09.05.2022
2195 Clouds -2 1019 74 10000 7.2 300 22:41 09.05.2022
2196 Clouds -2 1018 74 10000 7.2 310 21:42 09.05.2022
2197 Clouds -2 1017 74 10000 5.14 310 20:21 09.05.2022
2198 Clouds -2 1015 86 10000 7.72 300 18:29 09.05.2022
2199 Clouds -2 1014 86 10000 8.75 300 17:27 09.05.2022
2200 Clouds -2 1013 86 10000 4.12 290 16:21 09.05.2022
2201 Clouds -2 1013 86 10000 5.14 290 15:47 09.05.2022
2202 Clouds -2 1011 86 10000 6.17 290 14:41 09.05.2022
2203 Clouds -2 1011 93 10000 8.75 290 13:59 09.05.2022
2204 Clouds -2 1011 93 10000 8.75 290 13:32 09.05.2022
2205 Clouds -1 1008 93 10000 8.75 300 11:53 09.05.2022
2206 Clouds -1 1007 93 10000 8.23 300 10:50 09.05.2022
2207 Clouds 0 1007 86 10000 7.72 290 10:26 09.05.2022
2208 Mist 0 1004 93 4828 10.29 280 07:57 09.05.2022
2209 Clouds 1 1002 91 10000 8.91 282 05:59 09.05.2022
2210 Snow 0 1001 93 4023 9.77 220 01:59 09.05.2022
2211 Snow 0 1001 93 4828 8.75 210 23:29 08.05.2022
2212 Snow 0 1002 93 6437 10.8 210 22:32 08.05.2022
2213 Snow 0 1002 93 2414 8.75 200 21:24 08.05.2022
2214 Snow 1 1003 93 1609 8.75 180 20:25 08.05.2022
2215 Snow 1 1005 93 4023 8.75 180 19:33 08.05.2022
2216 Snow 0 1006 100 1207 8.23 180 18:40 08.05.2022
2217 Snow 0 1008 93 2012 7.72 180 17:40 08.05.2022
2218 Snow 0 1009 93 2012 7.72 190 16:22 08.05.2022
2219 Snow 0 1011 93 2414 6.69 190 15:22 08.05.2022
2220 Snow 0 1012 93 1609 8.23 210 13:44 08.05.2022
2221 Snow 0 1013 93 6437 6.69 210 11:50 08.05.2022
2222 Snow 0 1013 93 2012 6.69 210 10:26 08.05.2022
2223 Snow 0 1013 93 2816 6.17 210 09:53 08.05.2022
2224 Snow 0 1013 96 203 4.47 215 07:57 08.05.2022
2225 Mist 0 1013 93 4828 5.66 200 06:18 08.05.2022
2226 Snow 0 1014 93 1609 7.72 210 03:22 08.05.2022
2227 Snow 0 1014 93 4828 7.72 220 01:19 08.05.2022
2228 Snow 0 1013 94 1262 6.71 226 23:57 07.05.2022
2229 Snow 0 1013 93 4828 8.23 210 23:32 07.05.2022
2230 Snow 0 1013 93 2816 7.72 210 22:42 07.05.2022
2231 Snow 0 1013 93 2012 6.69 210 21:56 07.05.2022
2232 Snow 0 1013 93 2012 6.69 210 21:21 07.05.2022
2233 Clouds 0 1013 86 10000 9.26 210 20:25 07.05.2022
2234 Clouds 0 1013 86 10000 7.2 200 18:49 07.05.2022
2235 Clouds -1 1013 86 10000 5.14 210 16:34 07.05.2022
2236 Clouds -3 1013 89 1632 5.61 241 14:53 07.05.2022
2237 Clouds -3 1014 86 10000 4.63 290 11:23 07.05.2022
2238 Clouds -3 1013 80 10000 5.66 260 09:44 07.05.2022
2239 Clear -3 1012 80 10000 6.69 270 08:30 07.05.2022
2240 Clear -3 1012 80 10000 8.75 260 07:20 07.05.2022
2241 Clear -2 1012 74 10000 10.29 260 06:42 07.05.2022
2242 Clouds 2 1011 78 10000 7.66 263 03:57 07.05.2022
2243 Clouds -1 1010 86 10000 3.6 220 23:51 06.05.2022
2244 Clouds -2 1010 92 10000 0 0 22:40 06.05.2022
2245 Mist -2 1010 92 3219 1.54 150 21:53 06.05.2022
2246 Mist -2 1010 92 3219 1.54 150 21:29 06.05.2022
2247 Mist -2 1009 93 1207 1.54 240 19:47 06.05.2022
2248 Mist -2 1009 93 1207 1.54 240 19:24 06.05.2022
2249 Clouds -3 1009 86 10000 1.54 300 18:30 06.05.2022
2250 Clear -4 1008 86 10000 2.06 300 17:34 06.05.2022
2251 Clouds -4 1008 86 10000 0 0 15:51 06.05.2022
2252 Clouds -4 1008 86 10000 0 0 15:28 06.05.2022
2253 Clear -2 1007 93 10000 0 0 13:49 06.05.2022
2254 Clear -1 1007 86 10000 1.54 100 12:50 06.05.2022
2255 Clouds -4 1008 91 10000 1.09 61 11:58 06.05.2022
2256 Clear 0 1007 80 10000 0 0 10:41 06.05.2022
2257 Clear 1 1006 80 10000 0 0 09:47 06.05.2022
2258 Clear 1 1006 80 10000 0 0 09:18 06.05.2022
2259 Clear 1 1006 80 10000 2.57 230 07:49 06.05.2022
2260 Clear 2 1006 69 10000 3.6 240 06:26 06.05.2022
2261 Clouds 4 1006 75 10000 3.63 223 02:58 06.05.2022
2262 Clouds 4 1006 75 10000 3.54 223 01:58 06.05.2022
2263 Clear 1 1005 80 10000 2.57 230 22:50 05.05.2022
2264 Clear 1 1005 80 10000 0 0 21:49 05.05.2022
2265 Clear -1 1005 85 10000 2.06 210 20:36 05.05.2022
2266 Clouds 0 1005 82 10000 1.53 35 18:54 05.05.2022
2267 Clear -3 1004 93 10000 1.54 360 16:42 05.05.2022
2268 Clear -2 1003 86 10000 0 0 15:30 05.05.2022
2269 Clear -1 1003 86 10000 0 0 13:30 05.05.2022
2270 Clear -1 1003 86 10000 0 0 12:56 05.05.2022
2271 Clear 0 1002 86 10000 0 0 11:22 05.05.2022
2272 Clear 3 1002 71 10000 0 0 09:40 05.05.2022
2273 Clear 3 1001 70 10000 1.54 220 08:34 05.05.2022
2274 Clear 2 1001 75 10000 3.09 210 06:24 05.05.2022
2275 Clear 1 1001 75 10000 3.6 220 02:25 05.05.2022
2276 Clear 0 1001 79 10000 3.6 230 01:40 05.05.2022
2277 Clouds -1 1001 85 10000 4.12 240 00:43 05.05.2022
2278 Snow 0 1001 80 10000 3.09 260 22:57 04.05.2022
2279 Clouds 1 1001 75 10000 2.06 290 21:59 04.05.2022
2280 Clouds -1 1001 86 10000 1.54 250 21:34 04.05.2022
2281 Snow -3 1001 93 1207 1.54 250 20:52 04.05.2022
2282 Snow -3 1001 93 2816 0 0 20:18 04.05.2022
2283 Snow -2 1001 80 1609 0 0 19:35 04.05.2022
2284 Snow -3 1000 80 1207 0 0 18:42 04.05.2022
2285 Clouds -3 1000 74 10000 0 0 18:18 04.05.2022
2286 Clear -4 1000 75 10000 0 0 16:36 04.05.2022
2287 Clear -4 1000 75 10000 1.54 350 15:32 04.05.2022
2288 Clear -4 1000 75 10000 1.54 20 14:38 04.05.2022
2289 Clear -4 1000 75 10000 1.54 20 14:19 04.05.2022
2290 Clear -4 1000 80 10000 0 0 12:36 04.05.2022
2291 Clear -3 999 74 10000 0 0 11:28 04.05.2022
2292 Clouds -4 1000 79 10000 2.41 17 09:57 04.05.2022
2293 Clear 0 999 60 10000 1.54 90 09:20 04.05.2022
2294 Clear 0 998 55 10000 2.57 160 07:33 04.05.2022
2295 Clear -1 998 55 10000 3.6 190 04:34 04.05.2022
2296 Clear -1 998 55 10000 4.12 220 02:33 04.05.2022
2297 Clear -2 999 45 10000 2.4 351 22:59 03.05.2022
2298 Clear -3 997 50 10000 0 0 21:50 03.05.2022
2299 Clear -3 997 50 10000 0 0 21:23 03.05.2022
2300 Clear -4 997 50 10000 2.06 350 20:39 03.05.2022
2301 Clear -4 997 51 10000 2.06 340 19:21 03.05.2022
2302 Clear -7 997 68 10000 0 0 18:42 03.05.2022
2303 Clear -8 997 68 10000 0 0 17:21 03.05.2022
2304 Clear -8 997 73 10000 2.06 360 15:51 03.05.2022
2305 Clear -7 997 69 10000 3.09 350 14:23 03.05.2022
2306 Clear -6 997 63 10000 4.63 320 12:35 03.05.2022
2307 Clear -6 997 63 10000 4.12 20 11:35 03.05.2022
2308 Clear -4 997 55 10000 3.6 360 10:26 03.05.2022
2309 Clear -3 997 59 10000 4.12 350 08:19 03.05.2022
2310 Clear 0 996 51 10000 9.26 360 06:45 03.05.2022
2311 Clear 2 996 44 10000 8.75 350 01:59 03.05.2022
2312 Clear 2 995 49 10000 7.72 20 23:19 02.05.2022
2313 Clear 1 995 52 10000 6.17 10 22:28 02.05.2022
2314 Clear 1 995 45 10000 5.66 340 21:37 02.05.2022
2315 Clear -1 995 52 10000 6.69 360 19:26 02.05.2022
2316 Clear -2 995 59 10000 6.69 350 18:26 02.05.2022
2317 Clear -3 994 63 10000 7.72 360 17:39 02.05.2022
2318 Clear -2 995 60 10000 7.72 350 16:42 02.05.2022
2319 Clouds -4 997 75 10000 4.75 4 15:41 02.05.2022
2320 Clouds -1 995 64 10000 6.69 360 14:45 02.05.2022
2321 Clouds -1 995 64 10000 5.14 360 13:42 02.05.2022
2322 Clouds 2 995 55 10000 8.75 360 11:41 02.05.2022
2323 Clouds 3 995 60 10000 8.75 350 09:42 02.05.2022
2324 Clouds 3 995 60 10000 10.8 10 08:20 02.05.2022
2325 Clear 1 998 60 10000 5.71 7 06:53 02.05.2022
2326 Clear 6 999 57 10000 10.29 350 00:46 02.05.2022
2327 Clear 6 999 57 10000 10.29 350 00:21 02.05.2022
2328 Clouds 3 1001 72 10000 5.78 15 22:54 01.05.2022
2329 Clear 4 1000 65 10000 10.29 340 21:42 01.05.2022
2330 Clear 4 1000 65 10000 8.75 360 20:36 01.05.2022
2331 Clear 3 1001 70 10000 8.75 340 19:22 01.05.2022
2332 Clear 3 1001 66 10000 9.26 350 18:52 01.05.2022
2333 Clear 3 1001 70 10000 7.72 360 17:49 01.05.2022
2334 Clear 3 1002 70 10000 10.29 340 16:37 01.05.2022
2335 Clear 4 1002 66 10000 8.75 20 15:51 01.05.2022
2336 Clouds 5 1002 61 10000 11.32 20 14:45 01.05.2022
2337 Clear 5 1003 61 10000 10.29 10 12:40 01.05.2022
2338 Clear 6 1004 62 10000 6.69 20 10:22 01.05.2022
2339 Clear 7 1004 58 10000 4.63 350 08:50 01.05.2022
2340 Clear 9 1004 54 10000 6.69 20 06:50 01.05.2022
2341 Clouds 10 1007 56 10000 4.36 40 01:56 01.05.2022
2342 Clear 9 1006 43 10000 2.57 70 22:51 30.04.2022
2343 Clouds 8 1006 50 10000 4.12 50 21:33 30.04.2022
2344 Clouds 7 1006 54 10000 5.14 40 20:19 30.04.2022
2345 Clouds 6 1006 53 10000 3.6 60 19:25 30.04.2022
2346 Clouds 5 1006 61 10000 5.66 70 17:31 30.04.2022
2347 Clouds 4 1009 74 10000 4.12 41 15:53 30.04.2022
2348 Clouds 6 1006 57 10000 5.14 60 15:18 30.04.2022
2349 Clouds 2 1008 79 10000 3.82 48 13:59 30.04.2022
2350 Clouds 3 1009 75 10000 5.06 45 11:58 30.04.2022
2351 Clouds 6 1007 57 10000 4.63 50 11:31 30.04.2022
2352 Clouds 6 1007 57 10000 4.63 50 10:23 30.04.2022
2353 Clear 6 1008 62 10000 5.14 70 07:47 30.04.2022
2354 Clear 6 1008 61 10000 7.72 90 04:25 30.04.2022
2355 Clouds 5 1011 76 10000 6.99 99 23:57 29.04.2022
2356 Clouds 5 1011 77 10000 8.04 100 22:56 29.04.2022
2357 Clouds 4 1011 77 10000 8.48 101 21:56 29.04.2022
2358 Clear 4 1010 70 10000 7.2 90 21:26 29.04.2022
2359 Clouds 4 1010 70 10000 6.69 70 20:24 29.04.2022
2360 Clouds 4 1011 70 10000 6.17 70 19:28 29.04.2022
2361 Clouds 4 1011 71 10000 5.14 70 17:35 29.04.2022
2362 Clouds 5 1011 71 10000 4.63 70 16:42 29.04.2022
2363 Clouds 3 1012 81 10000 3.09 50 14:37 29.04.2022
2364 Clouds 4 1012 75 10000 4.63 50 13:42 29.04.2022
2365 Clouds 3 1012 81 10000 2.06 360 12:38 29.04.2022
2366 Clouds 2 1012 93 10000 2.06 30 10:44 29.04.2022
2367 Mist 2 1012 93 9656 2.57 80 07:57 29.04.2022
2368 Rain 2 1012 93 9656 2.57 80 07:26 29.04.2022
2369 Clouds 4 1011 75 10000 5.14 100 06:32 29.04.2022
2370 Rain 3 1011 87 10000 7.72 90 02:23 29.04.2022
2371 Clouds 3 1013 84 92 5.12 77 23:58 28.04.2022
2372 Clouds 3 1011 75 10000 7.72 100 23:26 28.04.2022
2373 Clouds 4 1011 75 10000 7.72 70 22:33 28.04.2022
2374 Clouds 4 1011 75 10000 5.14 70 21:43 28.04.2022
2375 Clouds 2 1011 93 10000 4.63 70 20:48 28.04.2022
2376 Snow 2 1012 90 54 4.68 72 19:55 28.04.2022
2377 Clouds 2 1011 87 10000 5.14 70 19:24 28.04.2022
2378 Rain 2 1012 87 10000 5.66 70 18:52 28.04.2022
2379 Snow 1 1012 92 3280 5.55 66 17:54 28.04.2022
2380 Clouds 3 1012 76 10000 7.2 70 16:52 28.04.2022
2381 Clouds 3 1012 75 10000 7.2 70 16:20 28.04.2022
2382 Clouds 2 1012 80 10000 5.66 60 15:49 28.04.2022
2383 Clouds 2 1012 80 10000 5.66 60 15:49 28.04.2022
2384 Snow 2 1013 87 211 3.32 31 14:58 28.04.2022
2385 Clouds 2 1013 80 10000 4.12 70 13:37 28.04.2022
2386 Rain 2 1014 76 10000 6.17 40 12:30 28.04.2022
2387 Snow 1 1014 75 4828 3.6 40 11:37 28.04.2022
2388 Clouds 1 1014 75 10000 4.63 50 10:26 28.04.2022
2389 Clear 2 1014 70 10000 5.66 40 09:50 28.04.2022
2390 Clouds 3 1015 70 10000 4.12 40 07:42 28.04.2022
2391 Clouds 4 1015 66 10000 4.63 40 06:51 28.04.2022
2392 Clouds 2 1016 77 10000 0.52 72 05:53 28.04.2022
2393 Clouds 2 1016 80 10000 2.57 220 04:43 28.04.2022
2394 Clouds 2 1017 75 10000 2.57 230 02:41 28.04.2022
2395 Clear 2 1018 69 10000 3.6 140 23:32 27.04.2022
2396 Clear 1 1019 74 10000 4.12 100 22:20 27.04.2022
2397 Clear 0 1019 85 10000 0 0 21:43 27.04.2022
2398 Clear -1 1019 86 10000 0 0 20:45 27.04.2022
2399 Clear 0 1020 81 10000 1.53 70 19:57 27.04.2022
2400 Mist -3 1019 93 6437 0 0 19:36 27.04.2022
2401 Clear -3 1019 93 10000 0 0 18:41 27.04.2022
2402 Clear -3 1019 93 10000 0 0 18:20 27.04.2022
2403 Clear -3 1020 93 10000 0 0 16:18 27.04.2022
2404 Clear -3 1021 93 10000 0 0 13:21 27.04.2022
2405 Clear -3 1022 93 10000 0 0 11:26 27.04.2022
2406 Clear -1 1022 86 10000 0 0 10:50 27.04.2022
2407 Clear 0 1022 86 10000 2.06 260 08:28 27.04.2022
2408 Clear 1 1022 80 10000 3.6 250 06:42 27.04.2022
2409 Clear 2 1023 80 10000 2.57 240 02:35 27.04.2022
2410 Clear 2 1023 80 10000 3.09 240 01:24 27.04.2022
2411 Clear 1 1023 79 10000 3.09 210 00:34 27.04.2022
2412 Clear 0 1023 85 10000 2.06 220 23:24 26.04.2022
2413 Clear 0 1023 85 10000 0 0 22:51 26.04.2022
2414 Clear 0 1023 85 10000 0 0 22:31 26.04.2022
2415 Clear -2 1022 92 10000 0 0 21:25 26.04.2022
2416 Clear -2 1022 92 10000 0 0 20:39 26.04.2022
2417 Clear -2 1022 86 10000 0 0 19:45 26.04.2022
2418 Clear -2 1022 86 10000 0 0 19:26 26.04.2022
2419 Clear -4 1022 100 10000 2.06 270 18:39 26.04.2022
2420 Clear -4 1022 93 10000 2.57 280 17:42 26.04.2022
2421 Clear -3 1022 95 10000 1.57 321 15:59 26.04.2022
2422 Clouds -2 1022 95 10000 1.26 301 13:55 26.04.2022
2423 Clear -2 1022 100 10000 1.54 320 13:28 26.04.2022
2424 Clear -1 1021 93 10000 2.57 320 11:29 26.04.2022
2425 Clear -1 1021 93 10000 3.09 300 10:30 26.04.2022
2426 Clouds 1 1020 80 10000 4.12 260 08:38 26.04.2022
2427 Clouds 1 1020 80 10000 4.12 240 05:29 26.04.2022
2428 Clouds 1 1020 80 10000 3.09 240 04:23 26.04.2022
2429 Clouds 1 1020 75 10000 1.54 160 00:52 26.04.2022
2430 Clouds -1 1020 86 10000 1.54 130 23:51 25.04.2022
2431 Clouds -1 1019 93 10000 0 0 22:18 25.04.2022
2432 Clouds -1 1019 93 10000 2.06 100 21:33 25.04.2022
2433 Mist -1 1019 93 4828 2.06 120 19:58 25.04.2022
2434 Clouds -1 1019 93 10000 3.09 140 18:52 25.04.2022
2435 Clouds -1 1018 93 10000 2.57 140 17:40 25.04.2022
2436 Clouds -1 1018 93 10000 2.57 140 17:40 25.04.2022
2437 Clouds -1 1018 93 10000 2.06 120 16:50 25.04.2022
2438 Mist -1 1018 93 4828 1.54 150 15:23 25.04.2022
2439 Mist -1 1018 93 2414 2.06 190 14:34 25.04.2022
2440 Clouds -1 1018 100 10000 2.06 160 13:21 25.04.2022
2441 Fog 0 1017 93 805 1.54 150 10:44 25.04.2022
2442 Clouds 0 1016 93 10000 2.06 160 09:42 25.04.2022
2443 Clouds 1 1016 92 4495 1.32 143 07:56 25.04.2022
2444 Clouds 1 1015 89 7312 1.51 144 05:55 25.04.2022
2445 Clouds 4 1012 87 10000 2.57 60 01:30 25.04.2022
2446 Clouds 4 1012 86 3354 2.13 83 23:57 24.04.2022
2447 Clouds 3 1011 93 10000 2.57 40 23:28 24.04.2022
2448 Rain 2 1010 93 10000 3.09 110 22:39 24.04.2022
2449 Clouds 3 1011 89 474 1.92 64 21:56 24.04.2022
2450 Rain 2 1010 93 10000 2.06 110 21:22 24.04.2022
2451 Rain 2 1010 93 10000 2.06 110 21:22 24.04.2022
2452 Clouds 3 1009 87 10000 1.54 70 20:46 24.04.2022
2453 Clouds 3 1009 87 10000 1.54 70 20:21 24.04.2022
2454 Clouds 2 1008 93 10000 0 0 18:44 24.04.2022
2455 Snow 1 1009 92 106 1.64 48 17:54 24.04.2022
2456 Rain 2 1008 93 10000 0 0 17:21 24.04.2022
2457 Snow 1 1009 92 122 1.94 40 16:55 24.04.2022
2458 Rain 3 1008 87 10000 2.57 80 16:29 24.04.2022
2459 Rain 3 1008 87 10000 3.09 70 15:43 24.04.2022
2460 Rain 2 1008 80 10000 0 0 14:36 24.04.2022
2461 Rain 2 1008 80 10000 0 0 13:27 24.04.2022
2462 Rain 2 1008 80 10000 0 0 13:27 24.04.2022
2463 Clouds 1 1009 90 10000 0.64 118 12:56 24.04.2022
2464 Clouds 3 1007 75 10000 0 0 11:50 24.04.2022
2465 Clouds 3 1007 75 10000 3.6 320 10:48 24.04.2022
2466 Clouds 4 1007 70 10000 4.12 350 09:47 24.04.2022
2467 Clouds 5 1007 66 10000 3.6 350 08:18 24.04.2022
2468 Clouds 6 1006 57 10000 0 0 05:45 24.04.2022
2469 Clouds 6 1006 61 10000 3.6 320 02:48 24.04.2022
2470 Clouds 6 1006 56 10000 3.6 340 00:45 24.04.2022
2471 Clouds 4 1006 65 10000 4.12 330 23:52 23.04.2022
2472 Clouds 4 1006 65 10000 4.12 330 23:25 23.04.2022
2473 Clouds 4 1006 70 10000 2.57 330 22:39 23.04.2022
2474 Clouds 4 1006 65 10000 0 0 21:41 23.04.2022
2475 Clouds 4 1006 65 10000 0 0 21:22 23.04.2022
2476 Clouds 2 1007 76 10000 1.41 48 19:56 23.04.2022
2477 Clouds 1 1005 75 10000 0 0 19:20 23.04.2022
2478 Clouds 1 1006 81 10000 1.52 33 18:54 23.04.2022
2479 Clouds 1 1005 75 10000 0 0 18:32 23.04.2022
2480 Clouds 2 1004 70 10000 3.6 350 17:46 23.04.2022
2481 Clouds 2 1004 70 10000 3.09 360 16:45 23.04.2022
2482 Clouds 1 1004 75 10000 3.09 360 15:51 23.04.2022
2483 Clouds 1 1004 75 10000 0 0 13:31 23.04.2022
2484 Clouds 2 1003 75 10000 0 0 11:29 23.04.2022
2485 Clear 3 1003 66 10000 0 0 09:41 23.04.2022
2486 Clear 3 1002 70 10000 2.06 350 08:18 23.04.2022
2487 Clouds 4 1002 69 10000 1.12 91 03:57 23.04.2022
2488 Clear 5 1001 53 10000 3.6 110 02:36 23.04.2022
2489 Clear 6 1000 45 10000 3.6 60 23:34 22.04.2022
2490 Clear 5 1000 46 10000 5.14 30 22:43 22.04.2022
2491 Clear 4 1001 54 10000 1.9 51 21:56 22.04.2022
2492 Clear 4 1001 54 10000 1.9 51 21:56 22.04.2022
2493 Clear 4 1001 54 10000 1.9 51 21:56 22.04.2022
2494 Clear 4 1001 54 10000 1.9 51 21:56 22.04.2022
2495 Clear 3 1000 56 10000 6.69 340 21:38 22.04.2022
2496 Clear 2 999 60 10000 5.14 340 20:30 22.04.2022
2497 Clear 1 999 60 10000 6.69 350 19:25 22.04.2022
2498 Clear -2 1001 76 10000 2.8 30 18:56 22.04.2022
2499 Clear 1 999 55 10000 5.66 350 18:24 22.04.2022
2500 Clear -1 999 64 10000 5.14 330 16:54 22.04.2022
2501 Clear -3 1001 80 10000 3.27 20 15:58 22.04.2022
2502 Clear -1 999 69 10000 5.14 330 15:24 22.04.2022
2503 Clear 1 1000 60 10000 4.12 30 14:38 22.04.2022
2504 Clear 2 1000 55 10000 6.17 30 13:41 22.04.2022
2505 Clear 2 1000 55 10000 5.14 30 12:36 22.04.2022
2506 Clear 1 1000 69 10000 3.6 30 11:23 22.04.2022
2507 Clear -3 1002 71 10000 2.92 30 10:56 22.04.2022
2508 Clear 2 1000 64 10000 5.66 40 10:32 22.04.2022
2509 Clear -2 1002 71 10000 3.08 26 09:54 22.04.2022
2510 Clear -2 1002 73 10000 3.14 25 08:56 22.04.2022
2511 Clear 3 1000 65 10000 4.12 30 08:36 22.04.2022
2512 Clear 5 1001 52 10000 5.14 20 06:38 22.04.2022
2513 Clear 6 1004 54 10000 2.78 55 00:56 22.04.2022
2514 Clear 4 1003 52 10000 4.12 40 23:31 21.04.2022
2515 Clear 4 1004 52 10000 4.12 50 22:43 21.04.2022
2516 Clear 3 1004 56 10000 3.6 40 21:36 21.04.2022
2517 Clear 1 1004 60 10000 4.12 330 20:30 21.04.2022
2518 Clear -1 1005 64 10000 4.12 360 18:49 21.04.2022
2519 Clear -1 1005 65 10000 4.12 360 18:26 21.04.2022
2520 Clear -1 1005 60 10000 4.12 10 17:19 21.04.2022
2521 Clear -2 1006 65 10000 2.57 360 15:24 21.04.2022
2522 Clear -2 1007 69 10000 2.57 360 14:52 21.04.2022
2523 Clear -2 1007 69 10000 2.57 360 14:18 21.04.2022
2524 Clear -3 1007 74 10000 2.06 20 13:21 21.04.2022
2525 Clear -2 1007 70 10000 2.06 360 12:22 21.04.2022
2526 Clear -1 1008 74 10000 0 0 09:33 21.04.2022
2527 Clear 1 1008 61 10000 3.09 90 08:38 21.04.2022
2528 Clear 2 1009 55 10000 2.57 80 06:36 21.04.2022
2529 Clear 2 1009 64 10000 2.57 110 03:39 21.04.2022
2530 Clear 2 1009 64 10000 2.57 110 03:20 21.04.2022
2531 Clear 2 1010 69 10000 3.6 140 02:44 21.04.2022
2532 Clear 3 1010 48 10000 2.57 70 00:34 21.04.2022
2533 Clear 2 1010 51 10000 2.06 110 23:25 20.04.2022
2534 Clear 2 1011 62 10000 1.76 82 22:59 20.04.2022
2535 Clear 2 1011 62 10000 1.76 82 22:59 20.04.2022
2536 Clear 3 1010 48 10000 2.06 80 22:34 20.04.2022
2537 Clear 1 1010 64 10000 0 0 21:43 20.04.2022
2538 Clear -2 1010 74 10000 0 0 20:44 20.04.2022
2539 Clear -2 1010 74 10000 0 0 20:44 20.04.2022
2540 Clear -2 1010 74 10000 0 0 20:44 20.04.2022
2541 Clear -2 1010 74 10000 0 0 20:21 20.04.2022
2542 Clear -3 1009 74 10000 0 0 19:44 20.04.2022
2543 Clear -5 1009 80 10000 0 0 18:46 20.04.2022
2544 Clear -5 1009 80 10000 0 0 17:49 20.04.2022
2545 Clear -4 1009 74 10000 1.54 30 16:39 20.04.2022
2546 Clear -4 1009 74 10000 0 0 15:26 20.04.2022
2547 Clear -3 1009 80 10000 0 0 12:22 20.04.2022
2548 Clear -2 1009 69 10000 0 0 11:42 20.04.2022
2549 Clear -1 1009 65 10000 2.06 10 10:43 20.04.2022
2550 Clear -1 1008 69 10000 2.57 360 09:28 20.04.2022
2551 Clear 1 1008 75 10000 1.54 10 08:29 20.04.2022
2552 Clear 2 1008 69 10000 1.54 290 07:53 20.04.2022
2553 Clear 2 1008 64 10000 2.57 290 06:18 20.04.2022
2554 Clear 4 1007 38 10000 2.06 120 01:37 20.04.2022
2555 Clear 3 1007 52 10000 2.57 350 00:21 20.04.2022
2556 Clear 3 1007 49 10000 1.61 347 22:59 19.04.2022
2557 Clear 3 1007 49 10000 1.61 347 22:59 19.04.2022
2558 Clear 2 1006 51 10000 4.63 360 22:23 19.04.2022
2559 Clear 2 1007 51 10000 1.74 4 21:53 19.04.2022
2560 Clear 1 1006 53 10000 2.13 14 20:59 19.04.2022
2561 Clear 0 1006 55 10000 4.63 340 20:37 19.04.2022
2562 Clear -1 1005 55 10000 6.17 350 19:32 19.04.2022
2563 Clear -3 1005 63 10000 5.66 350 18:30 19.04.2022
2564 Clear -2 1005 59 10000 4.12 340 16:50 19.04.2022
2565 Clear -2 1005 60 10000 4.12 340 16:25 19.04.2022
2566 Clear -7 1006 84 10000 2.8 22 15:59 19.04.2022
2567 Clear -2 1005 64 10000 4.63 340 14:46 19.04.2022
2568 Clear -6 1006 86 10000 2.9 24 12:53 19.04.2022
2569 Clear -1 1005 69 10000 4.63 40 12:34 19.04.2022
2570 Clear 0 1005 64 10000 4.63 40 11:35 19.04.2022
2571 Clear 1 1005 69 10000 4.12 50 09:51 19.04.2022
2572 Clear 2 1005 69 10000 5.14 50 07:49 19.04.2022
2573 Clouds 3 1007 65 10000 5.14 70 04:26 19.04.2022
2574 Clouds 2 1008 75 10000 7.2 90 02:39 19.04.2022
2575 Clouds 2 1009 69 10000 6.69 90 00:23 19.04.2022
2576 Clouds 1 1010 78 10000 6.82 88 22:54 18.04.2022
2577 Clouds 1 1010 69 10000 6.69 80 21:28 18.04.2022
2578 Clouds 1 1011 69 10000 8.75 70 20:40 18.04.2022
2579 Clouds 1 1011 69 10000 8.75 70 20:22 18.04.2022
2580 Clouds 1 1011 65 10000 8.23 80 19:40 18.04.2022
2581 Clouds 1 1011 61 10000 8.23 70 18:49 18.04.2022
2582 Clouds 0 1012 64 10000 6.69 70 17:49 18.04.2022
2583 Clouds 0 1012 64 10000 6.69 70 17:49 18.04.2022
2584 Clouds 0 1012 64 10000 6.69 70 17:49 18.04.2022
2585 Clouds 0 1012 65 10000 6.69 70 17:20 18.04.2022
2586 Clouds 0 1012 65 10000 6.69 70 16:40 18.04.2022
2587 Clouds 0 1013 60 10000 5.66 70 15:41 18.04.2022
2588 Clouds 1 1013 61 10000 7.72 70 14:27 18.04.2022
2589 Clouds 1 1013 64 10000 8.23 70 13:25 18.04.2022
2590 Clouds 1 1013 69 10000 7.72 80 12:27 18.04.2022
2591 Clouds 0 1014 76 10000 6.32 72 10:59 18.04.2022
2592 Clouds 1 1014 69 10000 6.69 70 10:18 18.04.2022
2593 Clouds 0 1014 74 10000 6.17 80 09:30 18.04.2022
2594 Clouds 1 1014 75 10000 6.69 80 07:29 18.04.2022
2595 Clouds 0 1016 83 2719 6.59 92 03:57 18.04.2022
2596 Snow -1 1016 86 10000 8.23 100 23:41 17.04.2022
2597 Snow -1 1016 86 4828 8.75 100 22:39 17.04.2022
2598 Snow -2 1016 93 1609 8.75 100 21:39 17.04.2022
2599 Snow -2 1016 93 1207 8.75 100 21:19 17.04.2022
2600 Snow -2 1016 93 3219 8.23 100 20:25 17.04.2022
2601 Snow -1 1016 80 10000 7.72 100 19:21 17.04.2022
2602 Snow -1 1016 80 6437 7.2 80 17:38 17.04.2022
2603 Clouds 0 1017 69 10000 8.75 80 15:37 17.04.2022
2604 Snow 0 1017 77 8498 7.64 81 14:53 17.04.2022
2605 Clouds 0 1017 74 10000 8.23 90 13:44 17.04.2022
2606 Clouds 0 1018 78 10000 8.02 91 12:56 17.04.2022
2607 Clouds 0 1017 74 10000 7.72 80 11:24 17.04.2022
2608 Clouds 0 1017 74 10000 7.2 90 10:38 17.04.2022
2609 Clouds 0 1017 74 10000 7.2 90 10:19 17.04.2022
2610 Clouds 0 1017 74 10000 7.72 90 09:23 17.04.2022
2611 Clouds 1 1016 69 10000 7.72 90 08:41 17.04.2022
2612 Clouds 1 1016 69 10000 7.72 90 06:52 17.04.2022
2613 Clear 1 1016 75 10000 8.23 90 03:20 17.04.2022
2614 Clouds 1 1015 69 10000 9.26 90 00:53 17.04.2022
2615 Clouds 0 1015 74 10000 9.77 90 23:48 16.04.2022
2616 Clouds 0 1014 80 10000 7.72 80 21:55 16.04.2022
2617 Clouds -1 1014 86 10000 8.75 80 21:23 16.04.2022
2618 Snow -1 1013 86 10000 9.26 80 19:33 16.04.2022
2619 Clouds -1 1014 87 10000 8.06 87 18:54 16.04.2022
2620 Clouds -1 1012 80 10000 8.23 70 17:38 16.04.2022
2621 Clouds 0 1012 74 10000 8.75 80 16:31 16.04.2022
2622 Clouds 0 1011 74 10000 8.75 80 15:26 16.04.2022
2623 Clouds 0 1011 80 10000 8.75 70 14:47 16.04.2022
2624 Clouds 0 1011 82 7317 7.42 80 13:55 16.04.2022
2625 Clouds 1 1011 75 10000 8.75 70 13:25 16.04.2022
2626 Clouds 1 1011 84 1142 8.15 83 11:58 16.04.2022
2627 Clouds 1 1009 75 10000 8.75 90 10:37 16.04.2022
2628 Clouds 1 1008 80 10000 8.23 80 09:39 16.04.2022
2629 Clouds 1 1008 80 10000 9.26 80 08:54 16.04.2022
2630 Clouds 1 1007 75 10000 10.8 90 07:31 16.04.2022
2631 Snow 1 1007 80 10000 9.77 80 06:22 16.04.2022
2632 Clouds 1 1007 80 10000 10.14 97 01:53 16.04.2022
2633 Clouds 1 1006 80 10000 9.77 80 00:19 16.04.2022
2634 Snow 1 1005 75 4828 10.29 80 22:52 15.04.2022
2635 Snow 1 1005 75 4828 10.29 80 22:31 15.04.2022
2636 Snow 2 1005 69 10000 9.77 80 21:35 15.04.2022
2637 Clouds 2 1005 76 10000 11.42 92 20:55 15.04.2022
2638 Clouds 2 1004 69 10000 11.83 100 19:52 15.04.2022
2639 Clouds 2 1004 69 10000 11.83 100 19:33 15.04.2022
2640 Clouds 2 1003 69 10000 10.29 80 18:45 15.04.2022
2641 Clouds 2 1003 69 10000 10.29 80 18:23 15.04.2022
2642 Clouds 3 1004 65 10000 9.26 80 17:29 15.04.2022
2643 Clouds 3 1003 65 10000 11.32 70 16:26 15.04.2022
2644 Clouds 3 1005 73 10000 11.95 91 15:54 15.04.2022
2645 Clouds 3 1004 65 10000 11.83 80 14:22 15.04.2022
2646 Clouds 4 1004 60 10000 12.35 70 13:23 15.04.2022
2647 Clear 4 1004 61 10000 10.29 70 12:40 15.04.2022
2648 Clouds 3 1006 74 10000 10.79 82 11:54 15.04.2022
2649 Clouds 4 1006 61 10000 8.23 70 10:49 15.04.2022
2650 Clouds 4 1006 60 10000 8.23 70 10:21 15.04.2022
2651 Clouds 4 1007 60 10000 8.23 70 09:24 15.04.2022
2652 Clouds 3 1008 74 10000 8.72 79 08:57 15.04.2022
2653 Clouds 3 1010 81 10000 8.12 90 06:55 15.04.2022
2654 Clouds 3 1011 77 10000 8.22 87 05:56 15.04.2022
2655 Clouds 3 1015 75 10000 7.2 70 01:33 15.04.2022
2656 Clouds 3 1017 75 10000 4.63 60 23:30 14.04.2022
2657 Rain 3 1017 75 10000 3.6 70 22:46 14.04.2022
2658 Rain 3 1017 75 10000 3.6 70 22:27 14.04.2022
2659 Rain 3 1017 75 10000 3.6 70 22:27 14.04.2022
2660 Rain 3 1017 75 10000 3.6 70 21:54 14.04.2022
2661 Rain 1 1019 86 10000 5.66 80 20:35 14.04.2022
2662 Rain 1 1019 93 10000 4.63 80 19:22 14.04.2022
2663 Snow 1 1020 94 92 4.61 77 17:58 14.04.2022
2664 Mist 1 1020 93 9656 4.12 80 17:27 14.04.2022
2665 Rain 1 1020 93 9656 5.66 80 16:33 14.04.2022
2666 Clouds 1 1021 93 10000 5.66 80 14:23 14.04.2022
2667 Rain 1 1021 100 8047 5.14 110 13:31 14.04.2022
2668 Mist 1 1021 100 6437 5.14 100 12:42 14.04.2022
2669 Mist 1 1021 100 6437 5.14 100 12:22 14.04.2022
2670 Rain 1 1021 93 9656 5.66 110 11:21 14.04.2022
2671 Rain 1 1021 86 10000 5.14 100 10:36 14.04.2022
2672 Snow 1 1021 91 38 5.27 92 09:54 14.04.2022
2673 Rain 2 1021 76 10000 6.69 80 08:39 14.04.2022
2674 Clouds 2 1021 75 10000 5.14 80 06:50 14.04.2022
2675 Clouds 2 1022 69 10000 6.17 110 02:45 14.04.2022
2676 Clouds 3 1023 60 10000 5.66 90 22:52 13.04.2022
2677 Clear 3 1023 60 10000 5.14 80 21:44 13.04.2022
2678 Clear 2 1022 60 10000 5.66 70 20:53 13.04.2022
2679 Clear 2 1022 60 10000 5.66 70 20:22 13.04.2022
2680 Clear 1 1023 64 10000 3.09 60 19:23 13.04.2022
2681 Clouds -9 1023 88 10000 2.96 44 17:55 13.04.2022
2682 Clouds -9 1024 88 10000 2.48 46 17:23 13.04.2022
2683 Clear 1 1023 64 10000 4.12 80 16:33 13.04.2022
2684 Clear 2 1023 60 10000 5.14 70 15:32 13.04.2022
2685 Clear 3 1024 56 10000 5.14 80 14:50 13.04.2022
2686 Clear 3 1024 56 10000 5.14 80 14:18 13.04.2022
2687 Clear 3 1024 60 10000 4.12 70 13:19 13.04.2022
2688 Clouds 3 1024 65 10000 4.63 60 12:20 13.04.2022
2689 Clouds 4 1024 60 10000 4.63 70 10:47 13.04.2022
2690 Clouds -3 1025 91 10000 2.79 49 08:58 13.04.2022
2691 Clouds 2 1025 75 10000 5.14 30 08:33 13.04.2022
2692 Clouds 3 1025 70 10000 4.12 40 06:51 13.04.2022
2693 Clouds 3 1025 70 10000 4.12 40 06:25 13.04.2022
2694 Clouds 3 1025 75 103 1.87 39 04:55 13.04.2022
2695 Clouds 2 1027 75 10000 4.63 30 00:20 13.04.2022
2696 Clouds 2 1027 69 10000 3.6 50 23:21 12.04.2022
2697 Rain 2 1027 74 228 2.19 53 21:57 12.04.2022
2698 Clouds 1 1027 75 10000 1.54 120 20:51 12.04.2022
2699 Clouds 1 1027 75 10000 1.54 120 20:33 12.04.2022
2700 Clouds 0 1027 74 10000 2.06 30 19:48 12.04.2022
2701 Clouds 0 1027 74 10000 2.06 30 19:29 12.04.2022
2702 Clouds -3 1027 89 10000 2.1 58 17:59 12.04.2022
2703 Clouds -4 1027 88 10000 2.16 53 16:58 12.04.2022
2704 Clouds 1 1027 69 10000 3.6 50 16:19 12.04.2022
2705 Clouds 1 1027 69 10000 2.57 40 15:26 12.04.2022
2706 Clouds 1 1027 69 10000 0 0 14:21 12.04.2022
2707 Clouds 0 1027 74 10000 3.09 20 13:28 12.04.2022
2708 Clouds 0 1028 74 10000 2.06 20 12:44 12.04.2022
2709 Clouds 0 1028 74 10000 2.57 40 11:42 12.04.2022
2710 Clouds 1 1028 69 10000 3.09 40 10:30 12.04.2022
2711 Clouds -5 1028 87 10000 2.62 56 08:54 12.04.2022
2712 Clouds -5 1028 87 10000 2.62 56 08:54 12.04.2022
2713 Clouds 0 1028 69 10000 4.63 90 07:51 12.04.2022
2714 Clear 1 1029 69 10000 3.09 80 05:49 12.04.2022
2715 Clear 1 1029 69 10000 4.63 80 04:46 12.04.2022
2716 Clear -1 1032 69 10000 7.72 80 23:49 11.04.2022
2717 Clear -1 1032 69 10000 8.23 70 22:44 11.04.2022
2718 Clear -1 1033 69 10000 7.2 70 21:37 11.04.2022
2719 Clouds -2 1032 78 10000 3.19 66 20:54 11.04.2022
2720 Clear -2 1033 69 10000 6.69 70 20:28 11.04.2022
2721 Clear -2 1034 69 10000 7.2 70 19:36 11.04.2022
2722 Clear -2 1034 69 10000 7.2 70 19:18 11.04.2022
2723 Clear -2 1034 69 10000 7.72 70 18:40 11.04.2022
2724 Clouds -8 1033 89 10000 3.03 47 17:56 11.04.2022
2725 Clouds -8 1034 91 10000 2.98 48 16:54 11.04.2022
2726 Clear -2 1036 69 10000 7.2 70 15:24 11.04.2022
2727 Clear -3 1037 75 10000 4.12 70 13:51 11.04.2022
2728 Clear -3 1038 75 10000 4.63 60 12:43 11.04.2022
2729 Clear -3 1038 75 10000 4.63 60 12:22 11.04.2022
2730 Clouds -10 1038 91 10000 2.8 55 10:56 11.04.2022
2731 Clouds -10 1038 92 10000 2.76 53 09:58 11.04.2022
2732 Clear -3 1039 80 10000 3.6 70 08:24 11.04.2022
2733 Clear -1 1040 86 10000 2.57 100 05:26 11.04.2022
2734 Clouds 0 1041 80 10000 0 0 00:49 11.04.2022
2735 Clouds -1 1040 86 10000 1.54 360 22:33 10.04.2022
2736 Clouds -1 1040 85 10000 0.57 228 21:54 10.04.2022
2737 Clouds -1 1039 86 10000 2.06 260 21:26 10.04.2022
2738 Clouds -2 1039 93 10000 2.06 310 20:21 10.04.2022
2739 Clouds -2 1039 93 10000 6.17 220 19:37 10.04.2022
2740 Clouds -2 1038 86 10000 3.09 280 18:50 10.04.2022
2741 Clouds -2 1038 86 10000 3.09 280 18:27 10.04.2022
2742 Clouds -2 1038 86 10000 3.09 230 17:46 10.04.2022
2743 Clouds -7 1038 100 114 1.16 261 16:59 10.04.2022
2744 Clouds -2 1037 93 10000 4.12 210 15:41 10.04.2022
2745 Clouds -2 1037 93 10000 5.14 220 14:42 10.04.2022
2746 Clouds -2 1037 93 10000 5.14 220 14:42 10.04.2022
2747 Clouds -2 1037 93 10000 6.17 210 13:44 10.04.2022
2748 Clouds -1 1036 86 10000 6.17 220 12:32 10.04.2022
2749 Clouds -1 1035 86 10000 7.2 220 11:44 10.04.2022
2750 Clouds -1 1035 86 10000 7.2 220 11:18 10.04.2022
2751 Clouds -1 1035 86 10000 7.72 220 10:34 10.04.2022
2752 Mist -1 1034 86 9656 7.72 220 09:41 10.04.2022
2753 Mist -1 1034 93 6437 6.69 220 08:28 10.04.2022
2754 Clouds -1 1033 93 2706 5.53 223 07:57 10.04.2022
2755 Snow 0 1032 94 1781 5.72 222 06:59 10.04.2022
2756 Snow -1 1031 93 3219 3.6 240 03:40 10.04.2022
2757 Snow -1 1030 93 2012 0 0 02:19 10.04.2022
2758 Snow -2 1029 90 95 0.16 208 23:53 09.04.2022
2759 Mist -4 1028 86 1609 4.63 110 22:56 09.04.2022
2760 Mist -4 1028 86 1609 4.63 110 22:33 09.04.2022
2761 Mist -4 1028 86 1609 4.12 120 21:19 09.04.2022
2762 Snow -5 1028 93 1609 3.6 100 20:30 09.04.2022
2763 Snow -5 1028 93 1609 4.12 120 19:57 09.04.2022
2764 Snow -5 1028 93 1609 4.12 120 19:39 09.04.2022
2765 Snow -6 1027 93 4828 3.09 140 18:23 09.04.2022
2766 Clouds -5 1027 93 10000 3.09 170 17:49 09.04.2022
2767 Snow -7 1027 92 93 1.85 124 16:56 09.04.2022
2768 Clouds -6 1027 100 10000 3.09 180 16:38 09.04.2022
2769 Clouds -5 1026 93 10000 3.09 180 15:49 09.04.2022
2770 Clouds -5 1026 93 10000 3.09 180 15:49 09.04.2022
2771 Clouds -5 1026 93 10000 3.09 180 15:49 09.04.2022
2772 Clouds -5 1026 93 10000 4.12 170 15:25 09.04.2022
2773 Clouds -6 1026 93 10000 4.63 170 14:25 09.04.2022
2774 Clouds -6 1026 93 10000 5.66 170 13:26 09.04.2022
2775 Snow -6 1025 86 8047 6.17 160 12:54 09.04.2022
2776 Snow -6 1025 86 3219 3.6 140 11:45 09.04.2022
2777 Mist -6 1025 86 2414 5.14 170 10:51 09.04.2022
2778 Snow -8 1025 86 1609 3.6 100 10:18 09.04.2022
2779 Snow -9 1025 86 1609 3.09 70 09:22 09.04.2022
2780 Snow -10 1025 85 2012 2.06 80 08:18 09.04.2022
2781 Snow -9 1024 86 4828 4.63 180 04:37 09.04.2022
2782 Snow -11 1024 85 3219 5.14 210 00:34 09.04.2022
2783 Snow -12 1024 85 1609 6.69 210 23:23 08.04.2022
2784 Snow -13 1023 78 3219 4.12 240 21:49 08.04.2022
2785 Snow -14 1022 78 9656 5.14 230 20:43 08.04.2022
2786 Snow -14 1021 78 3219 5.14 230 19:47 08.04.2022
2787 Snow -16 1021 85 3219 0 0 18:46 08.04.2022
2788 Snow -16 1021 85 3219 0 0 18:20 08.04.2022
2789 Snow -17 1020 85 3219 2.57 360 17:28 08.04.2022
2790 Snow -17 1020 85 9656 3.09 350 16:55 08.04.2022
2791 Snow -17 1020 78 10000 3.6 350 16:27 08.04.2022
2792 Mist -17 1019 85 4828 3.09 350 15:36 08.04.2022
2793 Snow -17 1019 78 3219 4.12 80 14:52 08.04.2022
2794 Snow -17 1019 78 3219 4.12 80 14:19 08.04.2022
2795 Snow -18 1019 85 3219 2.57 60 13:31 08.04.2022
2796 Snow -18 1019 78 1609 5.14 80 12:49 08.04.2022
2797 Snow -19 1019 78 2012 2.57 60 11:35 08.04.2022
2798 Snow -19 1019 71 2816 2.57 90 09:59 08.04.2022
2799 Haze -19 1019 71 9656 2.57 110 09:19 08.04.2022
2800 Clouds -19 1018 71 10000 2.57 340 07:44 08.04.2022
2801 Clouds -19 1018 71 10000 3.09 320 06:45 08.04.2022
2802 Clear -19 1016 55 10000 6.69 300 02:55 08.04.2022
2803 Clear -20 1016 59 10000 7.72 300 00:30 08.04.2022
2804 Clear -21 1016 65 10000 7.2 290 23:47 07.04.2022
2805 Clouds -18 1017 59 10000 4.16 296 22:55 07.04.2022
2806 Clear -21 1015 59 10000 6.17 290 22:36 07.04.2022
2807 Clear -21 1015 59 10000 6.17 290 22:18 07.04.2022
2808 Clear -22 1015 64 10000 5.66 290 21:30 07.04.2022
2809 Clear -23 1015 64 10000 5.14 270 20:46 07.04.2022
2810 Clear -23 1015 64 10000 5.14 270 20:20 07.04.2022
2811 Clear -23 1014 64 10000 4.63 300 17:43 07.04.2022
2812 Clear -23 1014 64 10000 4.63 300 17:22 07.04.2022
2813 Clear -24 1014 70 10000 6.69 300 16:34 07.04.2022
2814 Clear -24 1013 70 10000 4.63 280 15:52 07.04.2022
2815 Clouds -23 1014 78 9859 2.27 312 13:59 07.04.2022
2816 Clear -23 1013 70 10000 5.14 290 13:24 07.04.2022
2817 Clouds -23 1014 79 10000 2.04 330 11:54 07.04.2022
2818 Clouds -23 1013 79 10000 2.08 332 10:55 07.04.2022
2819 Clear -21 1012 71 10000 6.69 290 09:28 07.04.2022
2820 Clouds -18 1011 65 10000 5.66 280 07:38 07.04.2022
2821 Clouds -15 1010 66 10000 5.14 280 05:32 07.04.2022
2822 Mist -14 1009 72 9656 2.06 330 02:37 07.04.2022
2823 Clouds -15 1009 72 10000 3.09 330 00:44 07.04.2022
2824 Clouds -15 1009 72 10000 3.09 350 23:36 06.04.2022
2825 Clouds -16 1009 72 10000 4.12 340 22:45 06.04.2022
2826 Clouds -16 1009 72 10000 4.12 340 22:20 06.04.2022
2827 Clouds -18 1009 78 10000 4.12 330 20:50 06.04.2022
2828 Clouds -18 1009 78 10000 4.12 330 20:26 06.04.2022
2829 Snow -18 1008 78 6437 1.54 350 19:48 06.04.2022
2830 Clouds -18 1008 78 10000 0 0 18:48 06.04.2022
2831 Clouds -17 1008 78 10000 3.6 30 17:38 06.04.2022
2832 Clouds -17 1008 78 10000 3.6 30 17:20 06.04.2022
2833 Clouds -18 1008 71 10000 3.6 350 16:34 06.04.2022
2834 Clouds -18 1008 78 10000 3.6 340 15:45 06.04.2022
2835 Clear -23 1010 93 10000 2.53 359 13:53 06.04.2022
2836 Clouds -18 1007 78 10000 1.54 290 12:37 06.04.2022
2837 Clouds -17 1007 71 10000 0 0 11:44 06.04.2022
2838 Clouds -16 1006 72 10000 2.57 0 10:37 06.04.2022
2839 Clouds -16 1006 72 10000 2.57 0 10:18 06.04.2022
2840 Clear -16 1006 66 10000 5.14 350 09:25 06.04.2022
2841 Clear -15 1005 72 10000 4.63 340 08:25 06.04.2022
2842 Clouds -12 1004 67 10000 2.57 70 06:45 06.04.2022
2843 Clear -11 1003 52 10000 0 0 01:44 06.04.2022
2844 Clear -12 1002 56 10000 0 0 23:50 05.04.2022
2845 Clear -17 1004 78 10000 2.62 360 21:59 05.04.2022
2846 Clear -13 1001 56 10000 6.69 10 21:18 05.04.2022
2847 Clouds -15 1000 61 10000 12.35 360 20:24 05.04.2022
2848 Clouds -21 1003 89 10000 3.1 0 18:53 05.04.2022
2849 Clear -14 1001 61 10000 2.06 0 17:30 05.04.2022
2850 Clear -14 1000 61 10000 5.14 340 16:44 05.04.2022
2851 Clear -14 1000 66 10000 7.2 360 15:52 05.04.2022
2852 Clear -14 1000 66 10000 7.2 360 15:31 05.04.2022
2853 Clouds -17 1001 73 10000 3.73 1 13:59 05.04.2022
2854 Clear -14 999 66 10000 5.14 320 12:41 05.04.2022
2855 Clear -14 999 72 10000 5.66 350 11:43 05.04.2022
2856 Clear -14 999 72 10000 5.66 350 11:25 05.04.2022
2857 Clear -12 998 52 10000 3.6 310 09:41 05.04.2022
2858 Clear -11 998 44 10000 2.06 340 08:51 05.04.2022
2859 Clear -9 997 48 10000 5.14 10 05:28 05.04.2022
2860 Clear -8 995 49 10000 5.14 350 23:51 04.04.2022
2861 Clear -8 995 45 10000 6.17 30 22:41 04.04.2022
2862 Clear -11 994 52 10000 10.29 20 21:52 04.04.2022
2863 Clear -11 994 52 10000 10.29 20 21:21 04.04.2022
2864 Clear -11 994 52 10000 8.75 10 20:48 04.04.2022
2865 Clear -11 993 52 10000 9.26 30 19:39 04.04.2022
2866 Clouds -18 994 82 10000 3.81 9 18:59 04.04.2022
2867 Clouds -18 994 83 10000 3.99 12 17:54 04.04.2022
2868 Clear -11 992 52 10000 6.69 30 16:36 04.04.2022
2869 Clear -11 992 52 10000 6.17 20 15:34 04.04.2022
2870 Clouds -18 993 84 10000 3.68 15 14:58 04.04.2022
2871 Clear -13 992 61 10000 6.17 350 14:40 04.04.2022
2872 Clear -12 992 56 10000 6.17 10 13:22 04.04.2022
2873 Clear -12 992 56 10000 4.63 360 11:49 04.04.2022
2874 Clear -12 992 56 10000 4.63 360 11:28 04.04.2022
2875 Clear -9 991 48 10000 5.66 30 08:29 04.04.2022
2876 Clear -7 990 50 10000 5.14 50 03:52 04.04.2022
2877 Clear -8 990 49 10000 5.14 10 00:26 04.04.2022
2878 Clear -9 990 48 10000 1.54 0 22:36 03.04.2022
2879 Clear -11 990 52 10000 1.54 320 21:44 03.04.2022
2880 Clouds -12 990 56 10000 2.16 28 20:53 03.04.2022
2881 Clear -14 990 61 10000 3.6 360 19:45 03.04.2022
2882 Clear -13 990 56 10000 1.54 320 18:31 03.04.2022
2883 Clear -13 991 56 10000 3.6 310 17:47 03.04.2022
2884 Clouds -17 991 83 10000 2.68 22 16:57 03.04.2022
2885 Clear -12 991 52 10000 3.6 10 16:39 03.04.2022
2886 Clear -12 992 56 10000 3.09 310 14:39 03.04.2022
2887 Clear -9 992 45 10000 3.6 30 13:51 03.04.2022
2888 Clear -10 992 48 10000 3.6 10 12:41 03.04.2022
2889 Clear -17 994 80 10000 3.04 25 10:58 03.04.2022
2890 Clear -10 993 57 10000 3.6 80 09:38 03.04.2022
2891 Clear -9 993 53 10000 5.14 70 08:33 03.04.2022
2892 Clear -6 995 50 10000 5.14 60 04:42 03.04.2022
2893 Clear -8 997 60 10000 1.49 58 01:54 03.04.2022
2894 Clear -7 996 46 10000 5.66 50 23:21 02.04.2022
2895 Clear -7 997 42 10000 3.6 40 22:18 02.04.2022
2896 Clear -8 997 41 10000 1.54 0 21:46 02.04.2022
2897 Clear -8 997 42 10000 1.54 0 21:18 02.04.2022
2898 Clear -11 998 52 10000 2.61 33 19:54 02.04.2022
2899 Clear -11 997 57 10000 5.66 40 18:23 02.04.2022
2900 Clear -16 998 73 10000 2.65 32 17:53 02.04.2022
2901 Clear -10 998 52 10000 3.6 30 16:29 02.04.2022
2902 Clear -9 998 48 10000 3.6 40 15:22 02.04.2022
2903 Clear -8 999 49 10000 3.6 30 14:51 02.04.2022
2904 Clear -9 998 57 10000 3.6 40 13:51 02.04.2022
2905 Clear -9 998 57 10000 3.6 40 13:19 02.04.2022
2906 Clear -8 998 49 10000 7.72 60 11:39 02.04.2022
2907 Clear -8 998 57 10000 0 0 09:31 02.04.2022
2908 Clear -12 999 84 10000 2.7 40 06:56 02.04.2022
2909 Clear -3 999 60 10000 2.43 42 03:55 02.04.2022
2910 Clear -4 999 63 10000 3.6 90 00:25 02.04.2022
2911 Clear -3 1000 63 10000 1.54 160 23:45 01.04.2022
2912 Clouds -4 1001 71 10000 1.92 49 21:55 01.04.2022
2913 Clouds -8 1001 86 10000 2.04 48 20:54 01.04.2022
2914 Clear -4 1001 63 10000 4.63 80 20:31 01.04.2022
2915 Clouds -5 1001 74 10000 4.12 110 19:39 01.04.2022
2916 Clouds -12 1002 86 10000 2.36 38 18:54 01.04.2022
2917 Clouds -4 1001 74 10000 3.6 150 18:23 01.04.2022
2918 Clear -2 1002 74 10000 3.09 40 17:35 01.04.2022
2919 Clouds -1 1002 69 10000 2.06 30 15:44 01.04.2022
2920 Clouds -2 1002 86 10000 3.09 100 14:39 01.04.2022
2921 Clouds -1 1003 80 10000 3.09 90 13:36 01.04.2022
2922 Clouds -1 1003 80 10000 6.17 40 12:33 01.04.2022
2923 Clouds 0 1003 74 10000 3.09 20 11:45 01.04.2022
2924 Clouds -1 1003 80 10000 3.6 10 10:34 01.04.2022
2925 Clouds -1 1003 74 10000 3.6 30 09:30 01.04.2022
2926 Clouds -1 1004 74 10000 4.12 50 07:19 01.04.2022
2927 Clouds -1 1005 80 10000 3.59 61 04:56 01.04.2022
2928 Clouds -2 1004 74 10000 7.2 80 04:37 01.04.2022
2929 Snow -3 1004 80 10000 8.23 90 02:19 01.04.2022
2930 Snow -4 1004 80 1609 10.8 100 00:46 01.04.2022
2931 Clouds -3 1003 63 10000 8.75 90 22:20 31.03.2022
2932 Clouds -3 1003 54 10000 7.72 90 21:37 31.03.2022
2933 Clouds -3 1002 54 10000 7.72 70 20:43 31.03.2022
2934 Clouds -3 1002 54 10000 7.72 70 20:25 31.03.2022
2935 Clouds -4 1003 62 10000 7.3 75 18:57 31.03.2022
2936 Clear -6 1003 61 10000 5.72 72 17:55 31.03.2022
2937 Clear -2 1002 50 10000 6.69 60 16:45 31.03.2022
2938 Clear -1 1002 51 10000 8.23 70 15:50 31.03.2022
2939 Clear -1 1002 52 10000 8.23 70 15:21 31.03.2022
2940 Clear -1 1003 55 10000 7.2 70 14:44 31.03.2022
2941 Clear -1 1003 59 10000 7.2 50 13:27 31.03.2022
2942 Clear -1 1003 64 10000 8.75 50 11:29 31.03.2022
2943 Clear -1 1004 69 10000 7.2 50 10:19 31.03.2022
2944 Clear 1 1003 69 10000 9.26 60 08:52 31.03.2022
2945 Clear 2 1004 65 10000 8.23 60 07:25 31.03.2022
2946 Clear 1 1005 75 10000 7.72 80 01:27 31.03.2022
2947 Clear 0 1005 74 10000 9.26 80 23:23 30.03.2022
2948 Clouds -1 1004 74 10000 8.23 80 21:50 30.03.2022
2949 Clouds -1 1004 74 10000 8.23 80 21:27 30.03.2022
2950 Clouds -1 1004 69 10000 8.75 80 20:22 30.03.2022
2951 Clouds 0 1003 69 10000 9.26 70 19:38 30.03.2022
2952 Clouds -1 1003 69 10000 8.75 70 18:40 30.03.2022
2953 Clouds -1 1003 69 10000 9.26 70 17:49 30.03.2022
2954 Snow -4 1004 95 341 5.44 64 16:58 30.03.2022
2955 Clouds -1 1003 74 10000 8.75 70 16:38 30.03.2022
2956 Snow -1 1003 80 4828 8.23 70 15:38 30.03.2022
2957 Mist -3 1003 80 4828 5.66 40 13:57 30.03.2022
2958 Snow -4 1003 86 4023 5.66 40 13:18 30.03.2022
2959 Clouds -4 1003 80 10000 3.6 40 11:40 30.03.2022
2960 Clouds -4 1003 74 10000 2.57 340 10:37 30.03.2022
2961 Clouds -4 1003 74 10000 3.6 360 09:27 30.03.2022
2962 Clouds -5 1003 74 10000 5.14 40 07:41 30.03.2022
2963 Clouds -4 1003 69 10000 5.14 40 05:41 30.03.2022
2964 Clouds -7 1004 80 10000 2.72 30 04:54 30.03.2022
2965 Clear -6 1003 79 10000 2.57 160 00:42 30.03.2022
2966 Clouds -7 1003 73 10000 3.6 340 22:35 29.03.2022
2967 Clouds -8 1003 73 10000 0 0 21:46 29.03.2022
2968 Clouds -11 1004 83 10000 2.24 24 20:54 29.03.2022
2969 Clouds -9 1003 73 10000 0 0 20:24 29.03.2022
2970 Clouds -10 1003 83 10000 2.49 21 18:57 29.03.2022
2971 Clear -9 1003 73 10000 4.63 350 18:36 29.03.2022
2972 Clear -9 1003 73 10000 4.63 330 17:37 29.03.2022
2973 Clouds -14 1003 88 10000 2.63 15 16:58 29.03.2022
2974 Clouds -14 1003 88 10000 2.76 18 15:58 29.03.2022
2975 Clouds -15 1003 88 10000 2.74 13 14:53 29.03.2022
2976 Clear -8 1002 73 10000 4.12 340 14:22 29.03.2022
2977 Clouds -14 1003 86 10000 3.05 15 12:55 29.03.2022
2978 Clear -8 1003 73 10000 3.09 350 11:45 29.03.2022
2979 Clouds -14 1003 86 10000 3.17 4 10:58 29.03.2022
2980 Clear -8 1002 73 10000 4.12 340 09:49 29.03.2022
2981 Clear -6 1002 68 10000 2.57 340 08:20 29.03.2022
2982 Clear -4 1002 74 10000 6.17 40 05:35 29.03.2022
2983 Clear -2 1003 69 10000 8.23 10 00:50 29.03.2022
2984 Clear -2 1003 69 10000 5.66 10 23:24 28.03.2022
2985 Clouds -7 1003 83 10000 3.43 355 22:54 28.03.2022
2986 Clouds -3 1003 68 10000 5.66 10 22:26 28.03.2022
2987 Clouds -9 1004 87 10000 3.77 358 20:59 28.03.2022
2988 Clear -5 1003 74 10000 5.66 350 20:23 28.03.2022
2989 Clear -4 1003 68 10000 7.72 20 19:46 28.03.2022
2990 Clear -4 1003 68 10000 7.72 20 19:27 28.03.2022
2991 Clear -6 1003 79 10000 7.2 10 18:40 28.03.2022
2992 Clear -5 1003 74 10000 5.14 10 17:39 28.03.2022
2993 Clear -5 1003 74 10000 6.17 10 16:33 28.03.2022
2994 Clear -4 1003 68 10000 7.2 30 14:48 28.03.2022
2995 Clear -4 1003 68 10000 7.2 30 14:21 28.03.2022
2996 Clear -5 1004 74 10000 4.63 20 12:41 28.03.2022
2997 Clear -5 1004 68 10000 5.14 20 11:32 28.03.2022
2998 Clear -6 1004 68 10000 5.14 350 09:43 28.03.2022
2999 Clear -6 1004 68 10000 5.14 350 09:19 28.03.2022
3000 Clear -3 1005 64 10000 5.14 40 08:22 28.03.2022
3001 Clear -3 1005 68 10000 0 0 07:35 28.03.2022
3002 Clear -1 1005 64 10000 0 0 04:18 28.03.2022
3003 Clouds -4 1007 68 10000 2.06 10 23:32 27.03.2022
3004 Clouds -5 1007 68 10000 0 0 22:24 27.03.2022
3005 Clear -7 1007 78 10000 0 0 21:42 27.03.2022
3006 Clouds -5 1008 68 10000 2.89 22 20:57 27.03.2022
3007 Clouds -7 1007 79 10000 2.06 10 19:49 27.03.2022
3008 Clouds -7 1007 79 10000 2.06 10 19:24 27.03.2022
3009 Clouds -6 1007 79 10000 0 0 18:28 27.03.2022
3010 Clouds -6 1007 68 10000 0 0 17:39 27.03.2022
3011 Clouds -6 1008 73 10000 2.57 10 16:31 27.03.2022
3012 Clouds -6 1008 68 10000 2.06 360 15:25 27.03.2022
3013 Clouds -11 1009 87 10000 2.73 23 13:56 27.03.2022
3014 Clouds -4 1008 58 10000 3.09 360 12:31 27.03.2022
3015 Clouds -5 1009 63 10000 2.57 20 11:20 27.03.2022
3016 Clouds -10 1010 87 10000 2.93 21 08:53 27.03.2022
3017 Clouds -4 1010 74 10000 3.09 320 05:54 27.03.2022
3018 Clouds -5 1012 74 10000 2.06 310 00:48 27.03.2022
3019 Clear -7 1012 73 10000 0 0 23:42 26.03.2022
3020 Clear -11 1012 85 10000 0 0 22:36 26.03.2022
3021 Clear -12 1013 85 10000 0 0 21:34 26.03.2022
3022 Clouds -9 1013 78 10000 0.91 48 20:57 26.03.2022
3023 Clouds -13 1012 78 10000 1.54 0 19:21 26.03.2022
3024 Clouds -16 1013 87 10000 1.72 19 17:54 26.03.2022
3025 Clear -16 1012 85 10000 2.06 320 17:33 26.03.2022
3026 Clear -14 1012 85 10000 0 0 16:27 26.03.2022
3027 Fog -12 1012 92 402 1.54 350 14:57 26.03.2022
3028 Fog -12 1012 92 402 1.54 350 13:53 26.03.2022
3029 Mist -13 1012 85 2816 0 0 12:51 26.03.2022
3030 Clouds -13 1012 85 10000 0 0 11:41 26.03.2022
3031 Clear -13 1011 92 10000 2.06 320 10:22 26.03.2022
3032 Clear -10 1010 85 10000 0 0 08:34 26.03.2022
3033 Clouds -8 1010 84 10000 1.35 303 05:54 26.03.2022
3034 Clear -6 1008 86 10000 3.6 250 04:23 26.03.2022
3035 Clear -5 1006 74 10000 3.6 90 00:22 26.03.2022
3036 Clear -6 1005 73 10000 3.09 90 21:41 25.03.2022
3037 Clouds -8 1005 79 10000 0 0 20:46 25.03.2022
3038 Clouds -11 1004 85 10000 0 0 19:36 25.03.2022
3039 Clouds -10 1005 79 10000 0 0 18:47 25.03.2022
3040 Clouds -11 1005 85 10000 0 0 17:47 25.03.2022
3041 Clouds -11 1005 85 10000 0 0 17:26 25.03.2022
3042 Clouds -9 1005 79 10000 0 0 16:18 25.03.2022
3043 Clouds -7 1005 73 10000 4.63 340 14:23 25.03.2022
3044 Clouds -8 1006 73 10000 2.06 300 12:48 25.03.2022
3045 Clouds -9 1008 76 10000 2.79 358 09:57 25.03.2022
3046 Clear -9 1007 73 10000 4.12 360 09:27 25.03.2022
3047 Clouds -10 1009 75 10000 2.76 11 07:53 25.03.2022
3048 Clear -8 1008 67 10000 2.57 30 07:27 25.03.2022
3049 Clear -5 1008 63 10000 3.09 40 05:35 25.03.2022
3050 Clouds -7 1008 63 10000 6.69 80 00:42 25.03.2022
3051 Clouds -8 1008 57 10000 5.66 70 22:39 24.03.2022
3052 Clouds -9 1008 57 10000 4.12 60 21:42 24.03.2022
3053 Clouds -13 1007 66 10000 3.09 30 19:51 24.03.2022
3054 Clouds -13 1007 66 10000 3.09 30 19:33 24.03.2022
3055 Clouds -13 1007 66 10000 2.57 20 17:46 24.03.2022
3056 Clouds -17 1008 75 10000 2.07 41 16:54 24.03.2022
3057 Clear -13 1007 66 10000 3.6 360 15:21 24.03.2022
3058 Clear -12 1007 61 10000 3.6 350 14:43 24.03.2022
3059 Clear -12 1007 62 10000 3.6 350 14:18 24.03.2022
3060 Clear -12 1007 67 10000 3.09 360 12:47 24.03.2022
3061 Clear -11 1007 62 10000 5.14 50 11:33 24.03.2022
3062 Clear -9 1007 54 10000 6.17 50 09:51 24.03.2022
3063 Clear -9 1007 58 10000 6.17 50 08:40 24.03.2022
3064 Clear -8 1007 53 10000 5.14 50 06:48 24.03.2022
3065 Clear -5 1006 42 10000 7.72 60 02:18 24.03.2022
3066 Clear -6 1008 42 10000 8.23 360 23:18 23.03.2022
3067 Clear -8 1008 49 10000 7.2 40 21:27 23.03.2022
3068 Clear -10 1010 53 10000 3.42 26 20:59 23.03.2022
3069 Clear -12 1009 48 10000 4.63 30 19:45 23.03.2022
3070 Clear -8 1008 35 10000 4.63 50 18:36 23.03.2022
3071 Clear -7 1008 32 10000 9.26 30 17:36 23.03.2022
3072 Clear -8 1008 35 10000 8.75 20 16:21 23.03.2022
3073 Clear -11 1009 44 10000 2.06 260 14:51 23.03.2022
3074 Clear -11 1009 44 10000 2.06 260 14:24 23.03.2022
3075 Clear -12 1009 48 10000 4.12 300 12:45 23.03.2022
3076 Clear -13 1010 56 10000 2.57 10 09:42 23.03.2022
3077 Clear -10 1010 62 10000 2.57 300 06:41 23.03.2022
3078 Clear -8 1011 53 10000 0 0 04:41 23.03.2022
3079 Clear -9 1013 53 10000 2.06 110 00:29 23.03.2022
3080 Clear -13 1014 66 10000 0 0 22:46 22.03.2022
3081 Clear -14 1014 61 10000 0 0 21:30 22.03.2022
3082 Clear -16 1015 66 10000 0 0 20:40 22.03.2022
3083 Clear -16 1015 66 10000 0 0 19:41 22.03.2022
3084 Clear -16 1015 66 10000 0 0 19:18 22.03.2022
3085 Clear -18 1015 71 10000 0 0 18:31 22.03.2022
3086 Clear -19 1016 71 10000 1.54 60 17:29 22.03.2022
3087 Clear -19 1016 71 10000 0 0 16:21 22.03.2022
3088 Clear -18 1017 71 10000 0 0 15:22 22.03.2022
3089 Clear -19 1018 78 10000 0 0 14:46 22.03.2022
3090 Clear -19 1018 78 10000 0 0 14:27 22.03.2022
3091 Clear -18 1019 78 10000 0 0 13:27 22.03.2022
3092 Clear -18 1020 78 10000 0 0 11:52 22.03.2022
3093 Clear -17 1021 91 10000 1.54 290 10:40 22.03.2022
3094 Clouds -16 1021 85 10000 0 0 08:29 22.03.2022
3095 Clear -10 1022 73 10000 0 0 05:25 22.03.2022
3096 Clear -8 1023 67 10000 0 0 03:47 22.03.2022
3097 Clear -11 1024 67 10000 2.57 320 00:22 22.03.2022
3098 Clouds -12 1024 78 10000 0 0 22:29 21.03.2022
3099 Clouds -18 1024 70 10000 0.69 28 20:57 21.03.2022
3100 Clear -17 1024 78 10000 0 0 20:38 21.03.2022
3101 Clear -20 1024 75 10000 1.28 39 19:58 21.03.2022
3102 Clear -19 1024 84 10000 1.54 360 19:33 21.03.2022
3103 Clear -21 1024 84 10000 0 0 18:22 21.03.2022
3104 Clear -20 1024 84 10000 0 0 17:19 21.03.2022
3105 Clear -20 1024 84 10000 0 0 16:44 21.03.2022
3106 Clear -23 1024 79 10000 1.8 15 15:55 21.03.2022
3107 Clear -19 1024 71 10000 0 0 15:19 21.03.2022
3108 Clear -18 1024 78 10000 0 0 14:25 21.03.2022
3109 Clear -18 1024 85 10000 1.54 10 12:40 21.03.2022
3110 Clear -18 1025 78 10000 0 0 11:52 21.03.2022
3111 Clear -17 1024 71 10000 0 0 10:40 21.03.2022
3112 Clear -20 1024 80 10000 2.32 19 08:55 21.03.2022
3113 Clear -18 1024 78 10000 1.97 4 06:54 21.03.2022
3114 Clear -11 1023 67 10000 1.54 160 02:53 21.03.2022
3115 Clear -9 1023 57 10000 0 0 00:35 21.03.2022
3116 Clear -15 1023 72 10000 0 0 22:54 20.03.2022
3117 Clear -16 1023 67 10000 0.72 272 21:56 20.03.2022
3118 Clear -17 1022 66 10000 0 0 21:29 20.03.2022
3119 Clear -19 1022 71 10000 2.06 280 20:43 20.03.2022
3120 Clear -19 1022 73 10000 1.59 34 19:59 20.03.2022
3121 Clear -21 1021 77 10000 1.54 340 19:34 20.03.2022
3122 Clear -21 1021 77 10000 1.54 10 18:34 20.03.2022
3123 Clear -21 1020 77 10000 1.54 360 17:35 20.03.2022
3124 Clear -24 1021 91 10000 1.79 8 16:57 20.03.2022
3125 Clear -21 1020 77 10000 0 0 15:42 20.03.2022
3126 Clear -20 1020 71 10000 1.54 350 14:35 20.03.2022
3127 Clear -18 1020 71 10000 0 0 12:42 20.03.2022
3128 Clear -19 1019 71 10000 3.09 30 11:32 20.03.2022
3129 Clear -17 1019 71 10000 0 0 09:30 20.03.2022
3130 Clear -16 1018 78 10000 0 0 07:47 20.03.2022
3131 Clear -12 1018 61 10000 2.06 90 05:48 20.03.2022
3132 Clear -16 1019 85 10000 2.19 324 01:56 20.03.2022
3133 Clear -12 1018 56 10000 5.14 360 00:47 20.03.2022
3134 Clear -12 1018 52 10000 6.69 330 23:19 19.03.2022
3135 Clouds -14 1019 56 10000 8.75 360 21:32 19.03.2022
3136 Clear -21 1019 88 10000 2.71 328 20:58 19.03.2022
3137 Clouds -25 1019 92 10000 3.13 329 18:59 19.03.2022
3138 Clear -17 1019 66 10000 0 0 18:24 19.03.2022
3139 Clear -17 1018 60 10000 9.26 340 17:40 19.03.2022
3140 Clear -17 1018 60 10000 7.2 350 16:24 19.03.2022
3141 Clear -17 1019 60 10000 4.12 280 15:19 19.03.2022
3142 Clear -17 1019 60 10000 4.63 300 13:35 19.03.2022
3143 Clear -17 1019 60 10000 5.14 320 12:41 19.03.2022
3144 Clear -26 1020 93 10000 3.01 329 11:54 19.03.2022
3145 Clear -17 1018 66 10000 7.72 350 11:25 19.03.2022
3146 Clear -27 1019 99 10000 3.14 328 08:23 19.03.2022
3147 Clear -21 1018 91 10000 2.82 318 03:53 19.03.2022
3148 Clear -14 1016 66 10000 11.83 360 02:30 19.03.2022
3149 Clear -15 1016 61 10000 12.86 360 23:46 18.03.2022
3150 Clear -16 1016 60 10000 11.32 350 22:29 18.03.2022
3151 Clouds -21 1017 86 10000 3.09 330 21:55 18.03.2022
3152 Clouds -24 1017 90 10000 3.16 338 19:57 18.03.2022
3153 Clear -17 1014 55 10000 11.83 350 19:22 18.03.2022
3154 Clear -17 1014 55 10000 5.66 20 18:27 18.03.2022
3155 Clouds -17 1013 60 10000 4.63 10 16:52 18.03.2022
3156 Clouds -17 1012 55 10000 10.29 360 15:43 18.03.2022
3157 Clouds -17 1012 60 10000 1.54 140 14:25 18.03.2022
3158 Clouds -17 1012 60 10000 4.63 350 12:39 18.03.2022
3159 Clouds -17 1011 55 10000 4.12 320 11:28 18.03.2022
3160 Clear -17 1009 66 10000 2.57 0 09:41 18.03.2022
3161 Clear -17 1008 60 10000 5.14 340 08:45 18.03.2022
3162 Clear -15 1007 61 10000 3.09 140 06:42 18.03.2022
3163 Clear -12 1006 52 10000 9.26 360 04:38 18.03.2022
3164 Clear -18 1007 82 10000 3.78 358 00:54 18.03.2022
3165 Clear -13 1005 61 10000 6.69 340 23:52 17.03.2022
3166 Clear -13 1005 61 10000 6.69 340 23:52 17.03.2022
3167 Clear -13 1005 61 10000 6.69 340 23:52 17.03.2022
3168 Clear -13 1004 61 10000 3.6 350 22:43 17.03.2022
3169 Clear -13 1004 61 10000 3.6 350 22:18 17.03.2022
3170 Clear -13 1004 61 10000 3.6 360 21:27 17.03.2022
3171 Clear -15 1004 61 10000 4.12 350 20:52 17.03.2022
3172 Clear -15 1004 61 10000 4.12 350 20:18 17.03.2022
3173 Clear -16 1004 67 10000 0 0 19:37 17.03.2022
3174 Clear -17 1003 66 10000 3.6 360 18:51 17.03.2022
3175 Clear -17 1003 66 10000 3.6 300 17:27 17.03.2022
3176 Clear -22 1005 92 10000 2.97 358 15:57 17.03.2022
3177 Clear -18 1003 71 10000 0 0 15:36 17.03.2022
3178 Clear -21 1005 91 10000 3.3 357 14:55 17.03.2022
3179 Clear -13 1004 61 10000 0 0 13:22 17.03.2022
3180 Clear -14 1004 61 10000 4.63 340 12:38 17.03.2022
3181 Clear -16 1004 66 10000 1.54 350 11:30 17.03.2022
3182 Clear -13 1004 52 10000 0 0 10:34 17.03.2022
3183 Clear -15 1004 61 10000 2.57 320 08:42 17.03.2022
3184 Clear -20 1006 91 10000 3.56 353 07:57 17.03.2022
3185 Clear -11 1005 57 10000 3.09 350 05:48 17.03.2022
3186 Clear -9 1005 48 10000 7.2 360 03:45 17.03.2022
3187 Clear -12 1006 56 10000 4.63 330 00:21 17.03.2022
3188 Clear -13 1007 61 10000 2.06 100 22:52 16.03.2022
3189 Clear -13 1007 61 10000 2.06 100 22:33 16.03.2022
3190 Clear -15 1007 61 10000 3.09 310 21:52 16.03.2022
3191 Clear -16 1007 60 10000 1.54 0 20:32 16.03.2022
3192 Clear -18 1007 65 10000 1.54 0 19:22 16.03.2022
3193 Clear -19 1007 65 10000 3.09 230 18:40 16.03.2022
3194 Clear -18 1008 65 10000 2.06 290 17:44 16.03.2022
3195 Clear -18 1008 65 10000 2.06 290 17:26 16.03.2022
3196 Clear -24 1009 94 10000 2.9 0 15:56 16.03.2022
3197 Clear -19 1009 71 10000 1.54 120 14:35 16.03.2022
3198 Clear -18 1009 65 10000 2.57 20 13:34 16.03.2022
3199 Clouds -23 1010 93 10000 3.07 358 11:59 16.03.2022
3200 Clear -17 1009 66 10000 0 0 11:22 16.03.2022
3201 Clear -16 1009 60 10000 3.09 350 10:28 16.03.2022
3202 Clouds -23 1010 92 10000 3.31 359 09:55 16.03.2022
3203 Clear -14 1009 56 10000 6.17 350 06:47 16.03.2022
3204 Clear -14 1009 61 10000 5.66 360 02:29 16.03.2022
3205 Clouds -20 1011 87 10000 3.5 337 22:54 15.03.2022
3206 Clear -14 1009 61 10000 2.57 50 22:33 15.03.2022
3207 Clear -14 1009 61 10000 2.57 50 22:33 15.03.2022
3208 Clear -16 1009 66 10000 7.72 360 20:42 15.03.2022
3209 Clear -16 1010 66 10000 4.12 300 19:34 15.03.2022
3210 Clear -16 1010 60 10000 8.75 330 17:41 15.03.2022
3211 Clear -17 1011 66 10000 4.12 320 16:34 15.03.2022
3212 Clear -16 1011 66 10000 5.14 330 15:26 15.03.2022
3213 Clouds -16 1012 60 10000 6.17 350 14:47 15.03.2022
3214 Clear -24 1012 91 10000 4.53 357 13:55 15.03.2022
3215 Clouds -18 1012 60 10000 3.09 320 13:20 15.03.2022
3216 Clouds -17 1011 60 10000 8.23 10 11:32 15.03.2022
3217 Clear -18 1012 60 10000 0 0 10:21 15.03.2022
3218 Clear -17 1011 60 10000 10.8 20 08:50 15.03.2022
3219 Clear -23 1011 90 10000 3.98 348 07:53 15.03.2022
3220 Clear -16 1011 60 10000 3.98 348 07:35 15.03.2022
3221 Clear -14 1010 56 10000 10.8 360 05:45 15.03.2022
3222 Clear -7 1009 49 10000 1.54 120 00:25 15.03.2022
3223 Clear -9 1009 53 10000 3.6 110 23:26 14.03.2022
3224 Clear -8 1009 49 10000 2.57 100 22:37 14.03.2022
3225 Clear -7 1009 32 10000 2.06 0 21:49 14.03.2022
3226 Clear -16 1009 79 10000 3.44 2 20:55 14.03.2022
3227 Clear -13 1008 52 10000 1.54 0 20:23 14.03.2022
3228 Clear -13 1008 56 10000 0 0 19:22 14.03.2022
3229 Clear -19 1009 84 10000 2.72 13 17:55 14.03.2022
3230 Clear -16 1008 72 10000 2.57 30 17:25 14.03.2022
3231 Clear -13 1009 61 10000 0 0 16:27 14.03.2022
3232 Clear -9 1009 45 10000 3.09 20 14:42 14.03.2022
3233 Clear -15 1010 72 10000 2.93 9 12:55 14.03.2022
3234 Clear -15 1011 71 10000 3.47 15 10:57 14.03.2022
3235 Clear -15 1011 69 10000 3.7 15 09:56 14.03.2022
3236 Clear -6 1011 30 10000 4.63 360 09:23 14.03.2022
3237 Clear -15 1012 68 10000 3.85 17 08:57 14.03.2022
3238 Clear -5 1012 28 10000 7.72 50 08:20 14.03.2022
3239 Clear -3 1013 28 10000 8.75 20 05:51 14.03.2022
3240 Clear -10 1013 69 10000 3.99 11 02:57 14.03.2022
3241 Clear -4 1015 33 10000 7.72 350 01:33 14.03.2022
3242 Clear -6 1016 42 10000 5.14 340 23:29 13.03.2022
3243 Clear -7 1017 38 10000 6.17 40 21:41 13.03.2022
3244 Clear -7 1017 38 10000 6.17 40 21:19 13.03.2022
3245 Clear -6 1016 25 10000 6.69 70 20:46 13.03.2022
3246 Clear -6 1016 25 10000 6.69 70 20:21 13.03.2022
3247 Clear -7 1016 30 10000 5.66 60 19:41 13.03.2022
3248 Clear -7 1016 30 10000 5.66 60 19:20 13.03.2022
3249 Clear -7 1017 32 10000 6.17 50 18:41 13.03.2022
3250 Clear -8 1017 38 10000 6.69 10 17:52 13.03.2022
3251 Clear -8 1017 38 10000 6.69 10 17:33 13.03.2022
3252 Clear -6 1018 25 10000 3.09 50 16:44 13.03.2022
3253 Clear -6 1018 25 10000 3.09 50 16:20 13.03.2022
3254 Snow -5 1017 25 10000 12.86 50 15:34 13.03.2022
3255 Clear -5 1018 23 10000 8.23 20 13:53 13.03.2022
3256 Clear -5 1018 23 10000 8.23 20 13:27 13.03.2022
3257 Clear -5 1018 23 10000 8.75 10 12:20 13.03.2022
3258 Clear -7 1018 32 10000 4.63 350 11:36 13.03.2022
3259 Clear -7 1018 38 10000 5.14 350 10:48 13.03.2022
3260 Clear -7 1018 38 10000 5.14 350 10:25 13.03.2022
3261 Clear -7 1017 38 10000 6.69 40 09:41 13.03.2022
3262 Clear -7 1017 38 10000 2.06 0 08:48 13.03.2022
3263 Clear -13 1017 60 10000 4.49 35 07:57 13.03.2022
3264 Clear -13 1017 66 10000 4.43 27 05:59 13.03.2022
3265 Clear -3 1017 33 10000 4.63 360 03:33 13.03.2022
3266 Clear -4 1017 42 10000 11.32 360 00:48 13.03.2022
3267 Clear -4 1017 31 10000 10.8 20 22:47 12.03.2022
3268 Clear -10 1015 61 10000 4.24 41 20:59 12.03.2022
3269 Clear -12 1015 64 10000 4.08 39 19:57 12.03.2022
3270 Clear -5 1016 33 10000 7.2 20 19:39 12.03.2022
3271 Clear -6 1015 38 10000 8.75 330 18:31 12.03.2022
3272 Clear -5 1015 36 10000 3.6 350 17:43 12.03.2022
3273 Clear -3 1014 31 10000 3.6 10 16:25 12.03.2022
3274 Clear -4 1014 36 10000 6.17 360 15:24 12.03.2022
3275 Clear -13 1013 73 10000 4.22 25 14:52 12.03.2022
3276 Clear -13 1013 73 10000 4.15 28 13:53 12.03.2022
3277 Clear -13 1013 73 10000 4.15 28 13:53 12.03.2022
3278 Clear -4 1012 42 10000 8.75 40 12:25 12.03.2022
3279 Clear -4 1012 39 10000 3.6 90 11:51 12.03.2022
3280 Clear -4 1012 39 10000 3.6 90 11:19 12.03.2022
3281 Clear -12 1012 71 10000 3.95 24 09:58 12.03.2022
3282 Clear -5 1011 50 10000 7.2 360 09:38 12.03.2022
3283 Clear -4 1010 46 10000 6.69 30 07:51 12.03.2022
3284 Clear -2 1010 34 10000 11.32 20 05:20 12.03.2022
3285 Clear -1 1011 31 10000 8.23 320 00:24 12.03.2022
3286 Clear -3 1011 46 10000 4.63 320 23:28 11.03.2022
3287 Clear -2 1011 31 10000 5.66 360 21:47 11.03.2022
3288 Clear -9 1011 64 10000 4.86 16 20:57 11.03.2022
3289 Clear -3 1010 31 10000 7.2 340 20:37 11.03.2022
3290 Clear -5 1010 39 10000 5.14 280 19:53 11.03.2022
3291 Clear -5 1010 39 10000 5.14 280 19:27 11.03.2022
3292 Clear -5 1011 39 10000 4.63 350 17:37 11.03.2022
3293 Clear -5 1011 39 10000 4.63 350 17:18 11.03.2022
3294 Clear -12 1010 63 10000 4.51 25 15:57 11.03.2022
3295 Clear -4 1011 46 10000 10.29 50 14:22 11.03.2022
3296 Clear -4 1011 50 10000 9.26 40 13:21 11.03.2022
3297 Clear -5 1011 54 10000 8.23 40 12:22 11.03.2022
3298 Clear -6 1011 64 10000 7.04 51 11:56 11.03.2022
3299 Clear -4 1011 50 10000 5.14 40 10:18 11.03.2022
3300 Clear -6 1011 66 10000 8.56 54 08:57 11.03.2022
3301 Clear -5 1011 54 10000 7.72 50 08:24 11.03.2022
3302 Clear -4 1010 50 10000 12.35 40 07:46 11.03.2022
3303 Clear -4 1009 54 10000 10.29 40 05:49 11.03.2022
3304 Clear -4 1008 59 4828 13.38 50 04:22 11.03.2022
3305 Clear -4 1011 59 10000 14.4 50 23:49 10.03.2022
3306 Clear -5 1011 64 10000 12.86 50 22:31 10.03.2022
3307 Clear -7 1011 68 10000 14.4 40 21:50 10.03.2022
3308 Clear -7 1011 68 10000 14.4 40 21:23 10.03.2022
3309 Clear -7 1011 69 10000 15.95 40 19:51 10.03.2022
3310 Clear -8 1012 82 10000 13.06 57 18:56 10.03.2022
3311 Clear -7 1011 69 8047 15.43 40 17:36 10.03.2022
3312 Snow -6 1012 63 4828 13.89 50 16:37 10.03.2022
3313 Snow -6 1013 63 6437 13.89 50 15:26 10.03.2022
3314 Snow -6 1014 63 9656 11.32 50 13:30 10.03.2022
3315 Clear -7 1014 69 4828 10.8 50 12:34 10.03.2022
3316 Clear -7 1016 68 10000 8.75 50 11:22 10.03.2022
3317 Clear -7 1016 68 10000 11.32 30 09:27 10.03.2022
3318 Clear -6 1017 73 10000 9.26 20 07:43 10.03.2022
3319 Clear -6 1017 68 10000 15.43 20 04:47 10.03.2022
3320 Clear -3 1018 64 10000 17.49 30 01:50 10.03.2022
3321 Clear -3 1021 63 10000 10.29 20 23:28 09.03.2022
3322 Clear -8 1022 86 10000 4.9 20 21:54 09.03.2022
3323 Clear -4 1021 63 10000 5.66 20 21:34 09.03.2022
3324 Clear -10 1022 88 10000 5.16 16 19:55 09.03.2022
3325 Clear -6 1022 68 10000 5.66 20 18:34 09.03.2022
3326 Clear -5 1023 68 10000 12.35 20 17:27 09.03.2022
3327 Clear -6 1024 73 10000 7.72 30 16:31 09.03.2022
3328 Clear -6 1024 79 10000 11.32 40 15:31 09.03.2022
3329 Clouds -10 1025 90 10000 3.97 17 13:54 09.03.2022
3330 Clear -4 1025 68 10000 5.14 30 12:48 09.03.2022
3331 Clear -10 1026 90 10000 3.58 21 11:54 09.03.2022
3332 Clear -4 1025 68 10000 7.72 20 11:35 09.03.2022
3333 Clear -6 1026 68 10000 5.14 360 10:38 09.03.2022
3334 Clear -10 1026 85 10000 3.66 20 08:59 09.03.2022
3335 Clear -9 1026 86 10000 0 0 08:23 09.03.2022
3336 Clouds -3 1027 81 10000 0.96 352 02:59 09.03.2022
3337 Clouds -1 1027 74 10000 0 0 00:46 09.03.2022
3338 Clear -4 1027 80 10000 2.57 40 22:48 08.03.2022
3339 Clear -4 1027 80 10000 2.57 40 22:29 08.03.2022
3340 Clouds -3 1027 80 10000 2.57 60 21:23 08.03.2022
3341 Clouds -3 1027 80 10000 3.09 70 20:44 08.03.2022
3342 Clouds -4 1026 86 10000 4.63 80 19:42 08.03.2022
3343 Clouds -3 1026 80 10000 5.14 90 18:44 08.03.2022
3344 Clouds -3 1026 86 10000 6.17 80 17:37 08.03.2022
3345 Clouds -3 1027 86 10000 6.17 80 16:26 08.03.2022
3346 Clouds -3 1027 86 10000 7.2 70 14:20 08.03.2022
3347 Clouds -4 1027 80 10000 6.17 70 12:44 08.03.2022
3348 Clouds -3 1027 75 10000 5.66 80 11:45 08.03.2022
3349 Clouds -4 1027 80 10000 6.17 80 10:50 08.03.2022
3350 Clouds -4 1027 80 10000 6.17 80 10:19 08.03.2022
3351 Clouds -2 1027 65 10000 6.69 80 07:33 08.03.2022
3352 Clear -3 1027 63 10000 7.2 80 05:43 08.03.2022
3353 Clouds -5 1030 75 10000 3.42 67 23:58 07.03.2022
3354 Clear -1 1032 43 10000 7.72 70 22:23 07.03.2022
3355 Clear -2 1033 46 10000 5.66 80 21:34 07.03.2022
3356 Clear -2 1033 46 10000 4.12 70 20:49 07.03.2022
3357 Clear -2 1033 46 10000 4.12 70 20:20 07.03.2022
3358 Clear -6 1033 63 10000 4.12 20 19:34 07.03.2022
3359 Clear -3 1033 51 10000 6.17 70 18:46 07.03.2022
3360 Clear -3 1035 54 10000 6.17 70 17:52 07.03.2022
3361 Clouds -4 1034 72 10000 3.46 45 16:56 07.03.2022
3362 Clouds -5 1035 78 10000 3.31 44 15:59 07.03.2022
3363 Clear -4 1037 63 10000 5.66 80 13:52 07.03.2022
3364 Clear -4 1037 68 10000 7.2 70 12:33 07.03.2022
3365 Clear -6 1037 73 10000 6.69 70 10:39 07.03.2022
3366 Clear -7 1037 73 10000 4.12 70 09:24 07.03.2022
3367 Clouds -7 1038 93 10000 6.69 80 04:51 07.03.2022
3368 Clouds -6 1037 86 10000 5.14 70 00:23 07.03.2022
3369 Clouds -7 1036 86 10000 5.14 70 23:35 06.03.2022
3370 Clouds -8 1036 74 10000 5.14 70 22:52 06.03.2022
3371 Clouds -8 1036 74 10000 5.14 70 22:19 06.03.2022
3372 Clear -12 1035 79 10000 5.14 80 20:50 06.03.2022
3373 Clear -12 1035 79 10000 5.14 80 20:23 06.03.2022
3374 Clear -12 1034 79 10000 3.6 80 19:21 06.03.2022
3375 Clear -12 1034 73 10000 4.12 70 18:25 06.03.2022
3376 Clear -17 1033 78 10000 3.6 70 17:21 06.03.2022
3377 Clear -19 1032 78 10000 0 0 16:42 06.03.2022
3378 Clouds -19 1032 87 10000 2.23 46 15:54 06.03.2022
3379 Clear -19 1031 84 10000 0 0 14:49 06.03.2022
3380 Clear -19 1031 84 10000 0 0 14:31 06.03.2022
3381 Clear -18 1030 78 10000 0 0 13:29 06.03.2022
3382 Clear -18 1029 85 10000 1.54 20 12:35 06.03.2022
3383 Clouds -19 1029 87 10000 1.94 14 10:59 06.03.2022
3384 Clear -17 1027 85 10000 0 0 10:22 06.03.2022
3385 Clear -16 1025 85 10000 0 0 08:29 06.03.2022
3386 Clear -16 1025 85 10000 0 0 08:29 06.03.2022
3387 Clear -15 1024 78 10000 0 0 07:35 06.03.2022
3388 Clear -13 1022 78 10000 2.06 310 05:40 06.03.2022
3389 Clear -9 1018 79 10000 3.09 250 00:51 06.03.2022
3390 Clear -9 1018 79 10000 3.09 250 00:30 06.03.2022
3391 Clear -9 1017 79 10000 0 0 23:21 05.03.2022
3392 Clear -9 1016 79 10000 2.06 340 22:53 05.03.2022
3393 Clouds -9 1016 79 10000 4.12 280 21:56 05.03.2022
3394 Clouds -9 1016 79 10000 4.12 280 21:23 05.03.2022
3395 Clouds -9 1014 86 10000 4.63 260 19:44 05.03.2022
3396 Clouds -12 1014 97 2508 1.23 22 18:54 05.03.2022
3397 Snow -8 1012 86 9656 4.12 260 18:27 05.03.2022
3398 Snow -7 1010 86 9656 5.66 250 16:34 05.03.2022
3399 Snow -8 1009 93 10000 5.14 240 15:31 05.03.2022
3400 Snow -7 1009 86 10000 6.17 240 14:47 05.03.2022
3401 Snow -7 1008 93 6437 7.2 240 14:29 05.03.2022
3402 Snow -6 1007 86 4023 5.66 240 13:22 05.03.2022
3403 Snow -5 1004 86 3219 8.23 230 11:48 05.03.2022
3404 Snow -5 1003 93 2816 10.8 230 11:19 05.03.2022
3405 Snow -4 1002 86 4023 9.77 230 10:18 05.03.2022
3406 Snow -3 998 93 3219 9.26 240 08:59 05.03.2022
3407 Snow -1 995 93 2414 3.6 200 07:38 05.03.2022
3408 Clouds 0 992 86 10000 1.54 180 05:43 05.03.2022
3409 Clouds 0 989 86 10000 2.57 80 03:18 05.03.2022
3410 Snow 0 987 86 8047 8.75 80 23:37 04.03.2022
3411 Snow 0 987 86 1207 9.77 80 22:42 04.03.2022
3412 Snow 0 987 86 3219 10.29 80 21:49 04.03.2022
3413 Snow -1 987 93 805 8.75 60 20:56 04.03.2022
3414 Snow -1 988 86 402 9.26 60 20:27 04.03.2022
3415 Snow -1 988 86 402 9.26 60 19:36 04.03.2022
3416 Snow -1 989 86 4023 9.77 50 18:45 04.03.2022
3417 Snow -1 991 86 2816 9.77 40 17:39 04.03.2022
3418 Snow -1 992 86 2816 9.77 40 16:54 04.03.2022
3419 Snow -1 994 86 2012 8.23 60 15:29 04.03.2022
3420 Clouds -1 996 80 10000 8.23 50 14:33 04.03.2022
3421 Clear -2 997 80 10000 7.2 40 13:26 04.03.2022
3422 Clouds -2 999 86 10000 5.66 40 11:46 04.03.2022
3423 Clouds -2 1000 86 10000 4.63 60 10:52 04.03.2022
3424 Snow -3 1002 93 351 3.84 52 09:58 04.03.2022
3425 Clouds -3 1001 93 10000 4.12 80 08:39 04.03.2022
3426 Clouds -3 1002 93 10000 5.14 90 07:36 04.03.2022
3427 Clouds -2 1001 86 10000 4.12 80 04:31 04.03.2022
3428 Snow -2 1002 80 1609 3.6 60 00:38 04.03.2022
3429 Snow -3 1002 80 4828 4.63 40 22:28 03.03.2022
3430 Snow -3 1002 75 9656 3.09 50 21:44 03.03.2022
3431 Clouds -4 1002 80 10000 2.57 40 21:26 03.03.2022
3432 Clouds -6 1002 73 10000 3.6 50 19:55 03.03.2022
3433 Clouds -6 1003 82 5931 2.5 32 18:55 03.03.2022
3434 Clear -8 1002 79 10000 4.12 40 18:24 03.03.2022
3435 Clear -7 1002 74 10000 4.12 40 17:31 03.03.2022
3436 Clear -6 1002 79 10000 3.6 50 16:25 03.03.2022
3437 Clouds -5 1002 74 10000 4.63 60 15:24 03.03.2022
3438 Clouds -4 1003 74 10000 4.12 60 14:43 03.03.2022
3439 Clouds -4 1003 74 10000 4.12 60 14:20 03.03.2022
3440 Clouds -4 1003 74 10000 4.12 60 14:20 03.03.2022
3441 Clouds -4 1003 74 10000 4.12 60 14:20 03.03.2022
3442 Clouds -4 1003 74 10000 4.12 50 12:23 03.03.2022
3443 Clouds -4 1003 74 10000 5.14 50 10:48 03.03.2022
3444 Clouds -5 1003 74 10000 4.12 40 09:45 03.03.2022
3445 Clouds -6 1004 79 10000 5.14 40 08:19 03.03.2022
3446 Clouds -6 1004 79 10000 2.57 40 06:37 03.03.2022
3447 Clouds -7 1005 79 10000 4.12 360 03:21 03.03.2022
3448 Clouds -8 1007 79 10000 5.66 20 23:41 02.03.2022
3449 Clouds -8 1008 79 10000 3.6 70 22:53 02.03.2022
3450 Clouds -8 1008 79 10000 3.09 80 21:36 02.03.2022
3451 Clouds -14 1009 97 4635 2.47 27 20:57 02.03.2022
3452 Clouds -9 1008 86 10000 3.09 80 20:25 02.03.2022
3453 Clouds -8 1008 79 10000 2.57 90 19:37 02.03.2022
3454 Clouds -8 1008 79 10000 3.09 70 18:57 02.03.2022
3455 Clouds -8 1008 79 10000 2.57 80 18:26 02.03.2022
3456 Clouds -11 1008 85 10000 2.06 20 17:37 02.03.2022
3457 Clouds -12 1008 85 10000 0 0 16:52 02.03.2022
3458 Clear -14 1008 85 10000 0 0 15:20 02.03.2022
3459 Clouds -10 1009 85 10000 3.6 80 13:35 02.03.2022
3460 Clouds -9 1009 79 10000 3.6 60 12:45 02.03.2022
3461 Clouds -9 1009 79 10000 3.6 60 12:24 02.03.2022
3462 Clear -14 1009 78 10000 0 0 11:26 02.03.2022
3463 Clear -13 1009 78 10000 0 0 10:31 02.03.2022
3464 Clear -13 1009 78 10000 1.54 20 09:35 02.03.2022
3465 Clouds -12 1009 73 10000 0 0 08:34 02.03.2022
3466 Clear -11 1009 79 10000 0 0 07:23 02.03.2022
3467 Clear -9 1010 73 10000 0 0 04:46 02.03.2022
3468 Clouds -8 1011 67 10000 0 0 00:40 02.03.2022
3469 Clouds -8 1011 67 10000 0 0 00:40 02.03.2022
3470 Clear -10 1011 79 10000 1.54 150 23:24 01.03.2022
3471 Clear -11 1011 85 10000 0 0 22:37 01.03.2022
3472 Clear -12 1011 79 10000 1.54 260 21:44 01.03.2022
3473 Clear -14 1011 78 10000 0 0 20:40 01.03.2022
3474 Clear -14 1011 78 10000 0 0 20:19 01.03.2022
3475 Clouds -13 1012 83 6347 1.82 44 18:53 01.03.2022
3476 Clear -13 1011 78 10000 0 0 18:24 01.03.2022
3477 Clear -13 1011 78 10000 0 0 17:42 01.03.2022
3478 Clear -12 1011 79 10000 0 0 16:37 01.03.2022
3479 Clear -12 1011 73 10000 0 0 15:48 01.03.2022
3480 Clouds -12 1011 84 6537 2.02 42 14:54 01.03.2022
3481 Clear -13 1011 78 10000 0 0 14:31 01.03.2022
3482 Clear -11 1011 79 10000 1.54 10 13:26 01.03.2022
3483 Clear -12 1011 92 10000 0 0 12:37 01.03.2022
3484 Clear -11 1011 85 10000 1.54 40 11:38 01.03.2022
3485 Clouds -14 1011 100 6551 2.38 38 09:53 01.03.2022
3486 Clear -9 1010 80 10000 0 0 08:30 01.03.2022
3487 Clear -8 1010 86 10000 0 0 07:19 01.03.2022
3488 Clear -2 1009 74 10000 3.09 80 03:27 01.03.2022
3489 Clouds -2 1009 74 10000 3.6 90 00:49 01.03.2022
3490 Clouds -2 1009 74 10000 5.66 90 23:47 28.02.2022
3491 Clouds -2 1008 80 10000 5.66 90 22:43 28.02.2022
3492 Clouds -2 1008 80 10000 5.14 80 21:48 28.02.2022
3493 Clouds -9 1009 96 10000 2.15 53 20:55 28.02.2022
3494 Clouds -2 1008 80 10000 4.63 80 19:51 28.02.2022
3495 Clouds -8 1008 94 10000 2.72 62 18:57 28.02.2022
3496 Clouds -7 1008 93 10000 2.93 65 17:57 28.02.2022
3497 Clouds -2 1007 86 10000 4.63 80 17:23 28.02.2022
3498 Clouds -2 1007 86 10000 5.14 80 16:32 28.02.2022
3499 Clouds -2 1007 86 10000 6.17 80 15:19 28.02.2022
3500 Clouds -1 1007 80 10000 5.66 80 14:29 28.02.2022
3501 Clouds -1 1006 80 10000 4.12 80 13:24 28.02.2022
3502 Clouds -1 1006 80 10000 5.66 80 12:31 28.02.2022
3503 Clouds -2 1006 86 10000 5.14 80 11:21 28.02.2022
3504 Clouds -1 1006 80 10000 6.17 80 10:24 28.02.2022
3505 Snow -2 1007 90 353 2.25 88 09:59 28.02.2022
3506 Clouds -2 1005 86 10000 6.69 90 09:27 28.02.2022
3507 Clouds -2 1005 93 10000 5.66 80 08:26 28.02.2022
3508 Clouds -1 1005 86 10000 6.17 90 06:53 28.02.2022
3509 Clouds -1 1003 93 10000 5.14 100 04:31 28.02.2022
3510 Clouds -1 1003 93 10000 4.12 110 02:41 28.02.2022
3511 Clouds -1 1002 93 10000 3.6 130 23:19 27.02.2022
3512 Clouds -1 1001 93 10000 4.12 130 22:33 27.02.2022
3513 Clouds -1 1001 93 10000 4.63 130 21:47 27.02.2022
3514 Clouds -1 1000 93 10000 5.14 130 20:54 27.02.2022
3515 Clouds -1 1000 93 10000 5.14 130 20:27 27.02.2022
3516 Clouds -1 1001 97 3644 4.61 114 19:56 27.02.2022
3517 Mist -1 999 93 4828 5.14 130 19:26 27.02.2022
3518 Clouds -1 999 93 10000 5.66 130 18:39 27.02.2022
3519 Clouds -1 999 93 10000 6.17 120 17:53 27.02.2022
3520 Snow -1 998 93 10000 7.2 120 16:36 27.02.2022
3521 Snow -1 999 97 207 4.93 107 15:55 27.02.2022
3522 Clouds -1 999 97 1572 4.75 94 12:53 27.02.2022
3523 Clouds -1 997 93 10000 6.17 120 12:29 27.02.2022
3524 Clouds -1 996 93 10000 8.23 110 10:50 27.02.2022
3525 Clouds -1 998 97 1324 5.21 102 09:58 27.02.2022
3526 Clouds -1 996 93 10000 6.69 100 09:29 27.02.2022
3527 Clouds -1 995 93 10000 6.69 100 09:00 27.02.2022
3528 Mist -1 995 93 4828 7.2 110 06:43 27.02.2022
3529 Snow 0 994 86 2414 9.26 110 05:36 27.02.2022
3530 Clouds 1 994 80 10000 8.75 80 00:52 27.02.2022
3531 Clouds 0 995 89 10000 8.35 91 22:56 26.02.2022
3532 Clouds -1 994 86 10000 7.72 80 21:39 26.02.2022
3533 Clouds -1 993 86 10000 7.72 90 20:48 26.02.2022
3534 Clouds -1 993 86 10000 7.72 90 20:19 26.02.2022
3535 Clouds -1 992 86 10000 7.2 90 19:41 26.02.2022
3536 Clouds -1 992 86 10000 7.2 90 19:19 26.02.2022
3537 Clouds 1 991 76 10000 9.26 100 17:45 26.02.2022
3538 Clouds 0 991 80 10000 9.26 100 16:51 26.02.2022
3539 Clouds 1 992 87 10000 10.5 112 15:57 26.02.2022
3540 Clouds 1 990 80 10000 8.23 80 15:23 26.02.2022
3541 Clouds 1 991 87 10000 11.3 122 14:54 26.02.2022
3542 Clouds 2 989 76 10000 12.35 110 14:33 26.02.2022
3543 Clouds 2 989 76 10000 11.83 110 13:19 26.02.2022
3544 Clouds 1 988 80 10000 11.32 90 12:29 26.02.2022
3545 Clouds 2 987 70 10000 14.92 90 11:28 26.02.2022
3546 Clouds 1 986 75 10000 12.35 90 10:49 26.02.2022
3547 Clouds 2 986 79 10000 14.63 95 08:55 26.02.2022
3548 Clouds 3 985 66 10000 9.26 60 07:37 26.02.2022
3549 Clouds 3 987 70 10000 9.26 90 01:27 26.02.2022
3550 Clouds 3 989 76 10000 9.41 76 22:57 25.02.2022
3551 Clear 4 987 61 10000 9.26 50 21:46 25.02.2022
3552 Clear 4 987 61 10000 9.26 50 21:26 25.02.2022
3553 Clear 4 988 65 10000 10.29 40 20:33 25.02.2022
3554 Clear 3 990 70 10000 7.2 40 19:21 25.02.2022
3555 Clear 2 993 75 10000 7.72 30 17:30 25.02.2022
3556 Clear 2 994 75 10000 5.66 40 16:35 25.02.2022
3557 Clear 3 995 71 10000 6.69 60 15:48 25.02.2022
3558 Clear 3 995 71 10000 6.69 60 15:22 25.02.2022
3559 Clear 3 996 71 10000 8.23 70 14:42 25.02.2022
3560 Clouds 2 997 87 10000 6.78 77 13:58 25.02.2022
3561 Clear 2 997 80 10000 7.72 70 13:20 25.02.2022
3562 Clouds 2 998 80 10000 6.17 80 11:28 25.02.2022
3563 Clouds 2 998 80 10000 6.69 70 10:48 25.02.2022
3564 Clouds 2 998 80 10000 6.69 70 10:22 25.02.2022
3565 Clouds 2 997 80 10000 7.2 70 09:31 25.02.2022
3566 Clouds 2 997 81 10000 6.69 80 07:44 25.02.2022
3567 Clouds 2 997 80 10000 7.72 90 06:19 25.02.2022
3568 Clouds 2 996 81 10000 7.72 80 05:36 25.02.2022
3569 Rain 2 996 80 10000 9.26 90 00:30 25.02.2022
3570 Rain 2 996 80 10000 7.72 90 22:20 24.02.2022
3571 Rain 2 996 80 10000 7.72 90 21:42 24.02.2022
3572 Rain 2 996 80 10000 8.75 90 21:20 24.02.2022
3573 Clouds 1 996 80 10000 7.2 80 20:30 24.02.2022
3574 Clouds 1 996 80 10000 8.23 80 19:19 24.02.2022
3575 Clouds 1 996 80 10000 7.72 80 18:20 24.02.2022
3576 Clouds 1 997 86 10000 7.72 80 17:46 24.02.2022
3577 Clouds 1 998 88 10000 9.64 98 16:57 24.02.2022
3578 Rain 1 997 86 10000 8.23 80 16:25 24.02.2022
3579 Clouds 2 997 80 10000 8.23 80 15:31 24.02.2022
3580 Rain 1 998 86 10000 8.23 80 14:43 24.02.2022
3581 Rain 1 998 86 10000 9.26 90 13:45 24.02.2022
3582 Rain 1 998 86 10000 9.26 90 13:27 24.02.2022
3583 Rain 1 998 86 10000 8.75 90 10:48 24.02.2022
3584 Rain 1 998 86 10000 9.77 90 09:42 24.02.2022
3585 Rain 1 999 86 9656 9.77 90 08:43 24.02.2022
3586 Rain 1 999 86 3219 9.26 80 06:27 24.02.2022
3587 Rain 1 999 86 4023 9.26 80 05:36 24.02.2022
3588 Clouds 1 1003 75 10000 9.77 70 00:30 24.02.2022
3589 Clouds 1 1004 83 10000 8.59 81 21:56 23.02.2022
3590 Clouds 0 1005 80 10000 7.72 70 20:43 23.02.2022
3591 Clouds 0 1005 80 10000 7.72 70 20:20 23.02.2022
3592 Clouds 0 1006 80 10000 8.23 70 19:23 23.02.2022
3593 Clouds -1 1007 86 10000 8.23 70 17:56 23.02.2022
3594 Clouds -1 1008 86 10000 6.69 80 16:18 23.02.2022
3595 Clouds -1 1011 93 10000 4.12 80 13:45 23.02.2022
3596 Clouds -1 1011 93 10000 3.09 90 12:31 23.02.2022
3597 Snow -1 1011 97 410 1.69 104 10:56 23.02.2022
3598 Clouds -1 1012 93 10000 4.12 120 09:38 23.02.2022
3599 Snow -1 1011 98 140 1.85 129 08:54 23.02.2022
3600 Clouds -1 1011 93 10000 4.12 130 07:47 23.02.2022
3601 Mist -2 1008 93 2414 6.17 130 02:31 23.02.2022
3602 Snow -1 1008 93 1207 5.14 150 23:50 22.02.2022
3603 Snow -1 1008 93 6437 5.66 140 23:31 22.02.2022
3604 Snow -1 1007 93 1207 4.63 120 22:28 22.02.2022
3605 Mist -1 1007 93 4023 4.12 130 21:44 22.02.2022
3606 Snow -2 1007 93 10000 4.63 130 21:20 22.02.2022
3607 Snow -1 1006 93 4828 3.09 120 20:41 22.02.2022
3608 Mist -1 1006 93 4828 3.09 130 20:22 22.02.2022
3609 Mist -1 1006 93 2816 4.12 170 19:34 22.02.2022
3610 Mist -1 1005 93 8047 4.12 160 18:35 22.02.2022
3611 Clouds -1 1004 93 10000 5.14 170 17:34 22.02.2022
3612 Snow -1 1005 98 1119 3.5 155 16:56 22.02.2022
3613 Clouds -1 1003 93 10000 5.66 160 16:21 22.02.2022
3614 Clouds -1 1003 93 10000 6.69 160 15:30 22.02.2022
3615 Clouds -1 1002 93 10000 5.14 160 14:28 22.02.2022
3616 Mist -1 1002 93 4828 4.63 150 11:39 22.02.2022
3617 Clouds -1 1002 93 10000 5.66 160 09:45 22.02.2022
3618 Clouds 0 1002 93 10000 6.69 140 07:38 22.02.2022
3619 Clouds 0 1002 93 10000 6.69 140 07:19 22.02.2022
3620 Rain 1 1004 86 9656 9.77 150 02:51 22.02.2022
3621 Clouds 1 1005 86 10000 9.77 160 23:42 21.02.2022
3622 Mist 1 1005 86 8047 11.32 160 22:37 21.02.2022
3623 Snow 1 1005 86 4828 11.32 150 21:21 21.02.2022
3624 Snow 0 1006 98 10000 9.78 161 18:56 21.02.2022
3625 Rain 1 1005 87 10000 10.29 150 18:37 21.02.2022
3626 Rain 1 1005 87 4828 10.8 150 16:30 21.02.2022
3627 Snow 1 1004 86 1609 13.89 140 14:23 21.02.2022
3628 Snow 0 1004 93 1207 11.83 140 13:40 21.02.2022
3629 Snow -2 1004 100 1207 11.83 120 12:46 21.02.2022
3630 Snow -3 1004 93 805 14.4 100 12:21 21.02.2022
3631 Snow -3 1004 93 805 14.4 100 12:21 21.02.2022
3632 Snow -6 1007 93 805 14.4 90 10:31 21.02.2022
3633 Snow -7 1010 93 1207 11.32 90 07:51 21.02.2022
3634 Snow -10 1017 79 1207 8.23 80 00:36 21.02.2022
3635 Snow -11 1019 62 10000 7.2 80 22:32 20.02.2022
3636 Clouds -11 1019 57 10000 6.17 70 21:44 20.02.2022
3637 Clouds -11 1019 57 10000 6.17 70 21:25 20.02.2022
3638 Clouds -11 1019 57 10000 7.2 60 20:43 20.02.2022
3639 Clouds -12 1021 56 10000 4.12 70 19:51 20.02.2022
3640 Clouds -13 1020 70 10000 3.05 57 18:57 20.02.2022
3641 Clouds -13 1021 61 10000 3.6 60 18:37 20.02.2022
3642 Clouds -14 1021 74 10000 3.21 51 17:56 20.02.2022
3643 Clouds -13 1021 61 10000 5.14 40 17:24 20.02.2022
3644 Clear -16 1022 66 10000 4.63 40 15:28 20.02.2022
3645 Clouds -20 1023 76 10000 2.92 38 13:59 20.02.2022
3646 Clear -17 1023 67 10000 4.63 50 12:47 20.02.2022
3647 Clouds -22 1024 79 10000 3.3 34 11:56 20.02.2022
3648 Clear -21 1023 77 10000 2.06 20 10:21 20.02.2022
3649 Clear -22 1023 84 10000 2.06 50 09:46 20.02.2022
3650 Clear -18 1022 78 10000 3.09 30 06:30 20.02.2022
3651 Clouds -16 1021 78 10000 3.09 60 00:33 20.02.2022
3652 Clouds -16 1021 78 10000 3.09 50 23:39 19.02.2022
3653 Clear -21 1021 65 10000 0 0 22:24 19.02.2022
3654 Clear -23 1020 70 10000 0 0 21:50 19.02.2022
3655 Clear -25 1019 77 10000 2.06 360 20:41 19.02.2022
3656 Clear -25 1019 77 10000 0 0 19:35 19.02.2022
3657 Clear -25 1019 77 10000 2.06 10 18:41 19.02.2022
3658 Clouds -26 1020 78 10000 1.74 32 17:58 19.02.2022
3659 Clear -25 1018 77 10000 0 0 17:23 19.02.2022
3660 Clouds -25 1019 76 10000 1.59 20 15:59 19.02.2022
3661 Clouds -25 1018 77 10000 1.34 15 14:55 19.02.2022
3662 Clouds -25 1018 75 10000 1.36 13 13:58 19.02.2022
3663 Clear -23 1015 70 10000 1.54 150 11:53 19.02.2022
3664 Clear -23 1015 70 10000 1.54 150 11:24 19.02.2022
3665 Clouds -23 1015 75 10000 2.14 8 08:59 19.02.2022
3666 Clear -19 1012 71 10000 0 0 06:48 19.02.2022
3667 Clear -12 1010 44 10000 1.54 290 00:42 19.02.2022
3668 Clear -14 1009 47 10000 2.57 330 22:33 18.02.2022
3669 Clear -17 1008 55 10000 2.06 0 21:26 18.02.2022
3670 Clear -17 1008 55 10000 1.54 160 20:24 18.02.2022
3671 Clear -16 1008 55 10000 4.63 360 19:50 18.02.2022
3672 Clear -15 1007 51 10000 5.66 30 18:37 18.02.2022
3673 Clear -15 1007 51 10000 5.66 30 18:18 18.02.2022
3674 Clear -16 1007 55 10000 4.63 20 17:18 18.02.2022
3675 Clear -13 1007 47 10000 1.54 190 14:30 18.02.2022
3676 Clear -13 1006 47 10000 3.09 350 13:46 18.02.2022
3677 Clear -13 1006 52 10000 5.14 10 12:50 18.02.2022
3678 Clouds -20 1008 84 10000 3.61 12 11:57 18.02.2022
3679 Clear -13 1006 52 10000 3.09 210 10:42 18.02.2022
3680 Clouds -10 1006 41 10000 9.26 20 08:47 18.02.2022
3681 Clouds -10 1006 41 10000 10.29 30 06:35 18.02.2022
3682 Clouds -12 1006 48 10000 11.32 50 05:34 18.02.2022
3683 Clouds -11 1013 52 10000 9.77 40 22:20 17.02.2022
3684 Clouds -11 1013 52 10000 12.35 40 21:38 17.02.2022
3685 Clouds -11 1014 52 10000 12.86 40 20:43 17.02.2022
3686 Clouds -15 1014 78 10000 4.31 28 19:56 17.02.2022
3687 Clouds -11 1015 48 10000 13.89 30 19:26 17.02.2022
3688 Clear -13 1016 57 10000 11.32 40 18:29 17.02.2022
3689 Clear -12 1016 53 10000 12.86 40 17:42 17.02.2022
3690 Clouds -16 1016 78 10000 4.11 33 15:58 17.02.2022
3691 Clear -11 1018 44 10000 9.26 40 14:30 17.02.2022
3692 Clear -11 1018 44 10000 9.26 40 14:30 17.02.2022
3693 Clear -12 1019 48 10000 7.72 40 13:47 17.02.2022
3694 Clear -12 1020 48 10000 7.2 50 11:52 17.02.2022
3695 Clear -12 1020 52 10000 10.8 40 10:20 17.02.2022
3696 Clouds -20 1021 86 10000 4.16 24 07:56 17.02.2022
3697 Clear -10 1018 48 9656 11.32 20 23:50 16.02.2022
3698 Clear -10 1017 48 9656 12.86 20 22:36 16.02.2022
3699 Clouds -22 1018 84 10000 4.53 10 20:24 16.02.2022
3700 Clear -12 1016 56 9656 11.83 30 19:23 16.02.2022
3701 Clouds -22 1017 83 10000 4.16 12 18:34 16.02.2022
3702 Haze -12 1016 56 8047 12.35 20 17:24 16.02.2022
3703 Haze -12 1016 61 3219 13.89 30 15:23 16.02.2022
3704 Clear -13 1018 47 10000 11.83 360 13:47 16.02.2022
3705 Clear -13 1019 47 10000 7.2 20 12:27 16.02.2022
3706 Clear -13 1020 47 10000 8.23 30 11:46 16.02.2022
3707 Clear -13 1021 47 10000 7.72 40 10:35 16.02.2022
3708 Clear -14 1021 47 10000 9.26 20 09:39 16.02.2022
3709 Clear -15 1024 51 10000 3.6 30 06:44 16.02.2022
3710 Clear -18 1026 60 10000 0 0 02:48 16.02.2022
3711 Clear -19 1026 55 10000 0 0 22:34 15.02.2022
3712 Clear -20 1026 59 10000 1.54 180 21:51 15.02.2022
3713 Clear -20 1026 59 10000 1.54 180 21:31 15.02.2022
3714 Clouds -26 1026 89 10000 2.8 23 20:58 15.02.2022
3715 Clear -19 1025 55 10000 1.54 40 20:27 15.02.2022
3716 Clear -19 1024 55 10000 0 0 19:46 15.02.2022
3717 Clear -17 1023 51 10000 1.54 40 18:27 15.02.2022
3718 Clouds -25 1025 90 10000 2.61 25 17:55 15.02.2022
3719 Clear -16 1023 55 10000 2.57 60 17:37 15.02.2022
3720 Clear -15 1021 51 10000 5.14 350 15:44 15.02.2022
3721 Clear -15 1021 51 10000 7.2 360 14:31 15.02.2022
3722 Clear -16 1020 55 10000 7.2 350 13:25 15.02.2022
3723 Clouds -23 1022 87 10000 3.22 22 11:41 15.02.2022
3724 Clouds -25 1021 89 10000 3.23 24 10:30 15.02.2022
3725 Clear -16 1019 55 10000 8.23 340 08:48 15.02.2022
3726 Clear -16 1020 55 10000 7.2 10 06:47 15.02.2022
3727 Clear -17 1023 60 10000 3.09 330 00:26 15.02.2022
3728 Clouds -24 1025 87 10000 4.55 17 21:58 14.02.2022
3729 Clouds -25 1026 89 10000 3.99 23 20:55 14.02.2022
3730 Clear -21 1027 65 10000 3.6 350 19:52 14.02.2022
3731 Clear -21 1027 65 10000 3.6 350 19:30 14.02.2022
3732 Clear -22 1028 64 10000 4.12 340 18:24 14.02.2022
3733 Clear -22 1028 64 10000 4.12 340 18:24 14.02.2022
3734 Clear -25 1029 70 10000 1.54 340 17:31 14.02.2022
3735 Clear -26 1030 70 10000 0 0 16:49 14.02.2022
3736 Clear -24 1030 64 10000 2.06 20 15:42 14.02.2022
3737 Clear -25 1032 70 10000 3.6 10 13:36 14.02.2022
3738 Clear -26 1033 75 10000 2.55 30 12:59 14.02.2022
3739 Clear -27 1033 76 10000 0 0 12:32 14.02.2022
3740 Clear -25 1033 70 10000 0 0 11:39 14.02.2022
3741 Clear -24 1032 64 10000 2.57 10 10:22 14.02.2022
3742 Clouds -23 1034 70 10000 2.06 200 08:26 14.02.2022
3743 Clouds -23 1034 70 10000 1.54 150 07:26 14.02.2022
3744 Clear -23 1031 64 10000 3.09 10 23:19 13.02.2022
3745 Clear -24 1031 70 10000 0 0 22:41 13.02.2022
3746 Clear -24 1031 70 10000 0 0 22:22 13.02.2022
3747 Clear -26 1030 76 10000 0 0 21:24 13.02.2022
3748 Clear -26 1029 70 10000 0 0 20:28 13.02.2022
3749 Clear -25 1029 64 10000 0 0 19:23 13.02.2022
3750 Clear -27 1028 70 10000 0 0 18:41 13.02.2022
3751 Clear -26 1028 70 10000 0 0 17:41 13.02.2022
3752 Clear -28 1029 75 10000 2.33 17 15:53 13.02.2022
3753 Clear -26 1026 70 10000 0 0 14:52 13.02.2022
3754 Clear -25 1026 70 10000 0 0 13:42 13.02.2022
3755 Clear -24 1025 64 10000 0 0 12:49 13.02.2022
3756 Clear -24 1024 64 10000 0 0 10:50 13.02.2022
3757 Clear -24 1024 64 10000 0 0 10:27 13.02.2022
3758 Clear -25 1025 73 10000 2.75 14 08:59 13.02.2022
3759 Clear -21 1021 65 10000 0 0 05:27 13.02.2022
3760 Clear -18 1019 50 10000 1.54 320 00:34 13.02.2022
3761 Clouds -23 1020 85 10000 2.37 8 22:59 12.02.2022
3762 Clouds -17 1018 46 10000 0 0 22:33 12.02.2022
3763 Clouds -18 1018 60 10000 2.06 320 21:19 12.02.2022
3764 Clouds -17 1017 55 10000 0 0 20:25 12.02.2022
3765 Clouds -18 1016 60 10000 3.09 330 19:18 12.02.2022
3766 Clouds -17 1016 55 10000 4.63 340 18:41 12.02.2022
3767 Clouds -17 1016 55 10000 4.63 340 18:23 12.02.2022
3768 Clouds -26 1018 87 10000 2.69 19 16:55 12.02.2022
3769 Clouds -17 1015 55 10000 2.06 350 16:25 12.02.2022
3770 Clouds -17 1015 55 10000 4.63 30 15:32 12.02.2022
3771 Clouds -17 1015 55 10000 4.12 50 14:30 12.02.2022
3772 Clouds -25 1017 86 10000 2.84 10 12:55 12.02.2022
3773 Clouds -17 1015 55 10000 2.06 260 10:35 12.02.2022
3774 Clouds -17 1015 55 10000 5.14 340 09:38 12.02.2022
3775 Clouds -18 1016 55 10000 8.23 20 08:48 12.02.2022
3776 Clouds -18 1016 50 10000 3.6 360 07:50 12.02.2022
3777 Clear -18 1016 60 10000 7.2 20 05:33 12.02.2022
3778 Clear -17 1018 55 10000 9.26 20 02:20 12.02.2022
3779 Clear -18 1019 60 10000 4.63 360 01:44 12.02.2022
3780 Clear -19 1021 55 10000 6.69 350 22:27 11.02.2022
3781 Clear -21 1021 59 10000 4.12 340 21:45 11.02.2022
3782 Clear -20 1022 54 10000 5.66 10 20:38 11.02.2022
3783 Clear -20 1022 54 10000 5.14 10 19:33 11.02.2022
3784 Clear -27 1023 85 10000 3.19 28 18:58 11.02.2022
3785 Clear -21 1023 54 10000 0 0 17:41 11.02.2022
3786 Clear -21 1023 54 10000 0 0 17:22 11.02.2022
3787 Clear -27 1024 84 10000 3.79 18 15:55 11.02.2022
3788 Clear -23 1026 59 10000 2.57 20 14:38 11.02.2022
3789 Clear -23 1026 59 10000 2.57 20 14:20 11.02.2022
3790 Clear -23 1027 59 10000 4.12 350 13:50 11.02.2022
3791 Clear -23 1027 59 10000 4.12 350 13:31 11.02.2022
3792 Clear -26 1029 64 10000 0 0 11:27 11.02.2022
3793 Clear -26 1030 65 10000 0 0 09:39 11.02.2022
3794 Clear -28 1030 76 10000 3.23 18 08:39 11.02.2022
3795 Clear -28 1031 77 10000 2.87 21 08:21 11.02.2022
3796 Clear -27 1031 69 10000 0 0 06:33 11.02.2022
3797 Clouds -22 1031 71 10000 1.54 40 02:25 11.02.2022
3798 Clear -22 1031 71 10000 3.6 60 00:46 11.02.2022
3799 Clouds -27 1029 76 10000 0 0 22:45 10.02.2022
3800 Clouds -27 1029 76 10000 0 0 21:44 10.02.2022
3801 Clouds -29 1028 76 10000 2.06 20 20:54 10.02.2022
3802 Clear -30 1027 76 10000 0 0 20:29 10.02.2022
3803 Clear -28 1026 69 10000 0 0 19:24 10.02.2022
3804 Clear -29 1025 76 10000 0 0 18:43 10.02.2022
3805 Clouds -28 1023 76 10000 0 0 17:26 10.02.2022
3806 Clouds -27 1023 69 10000 1.54 20 16:47 10.02.2022
3807 Clouds -29 1021 76 10000 1.54 10 15:45 10.02.2022
3808 Clouds -29 1021 76 10000 1.54 10 15:25 10.02.2022
3809 Clouds -30 1020 76 10000 2.06 20 14:46 10.02.2022
3810 Clouds -30 1020 76 10000 2.06 20 14:23 10.02.2022
3811 Clouds -30 1019 76 10000 1.54 10 13:21 10.02.2022
3812 Clear -30 1017 76 10000 1.54 360 12:23 10.02.2022
3813 Clear -31 1015 76 10000 0 0 11:33 10.02.2022
3814 Clear -31 1014 76 10000 0 0 10:35 10.02.2022
3815 Clear -29 1012 76 10000 0 0 09:49 10.02.2022
3816 Clouds -31 1014 78 6404 2.3 355 08:53 10.02.2022
3817 Clear -27 1008 69 10000 3.09 30 06:42 10.02.2022
3818 Clouds -24 1006 70 10000 2.57 40 03:55 10.02.2022
3819 Clouds -24 1004 70 10000 3.09 30 01:43 10.02.2022
3820 Clear -23 1004 70 10000 3.6 50 00:42 10.02.2022
3821 Clear -23 1004 70 10000 3.6 50 00:24 10.02.2022
3822 Clouds -25 1006 79 2463 2.03 63 22:58 09.02.2022
3823 Clouds -23 1002 70 10000 4.12 70 22:33 09.02.2022
3824 Clouds -23 1002 70 10000 3.09 60 21:49 09.02.2022
3825 Clouds -23 1002 77 9656 4.63 70 21:28 09.02.2022
3826 Clouds -23 1001 70 10000 4.63 80 20:45 09.02.2022
3827 Clouds -23 1001 70 10000 4.63 80 20:23 09.02.2022
3828 Snow -23 1001 77 8047 5.14 80 19:44 09.02.2022
3829 Clouds -23 1000 77 9656 3.6 80 18:58 09.02.2022
3830 Snow -22 1000 77 4828 1.54 70 17:32 09.02.2022
3831 Snow -21 999 77 4828 2.57 100 16:26 09.02.2022
3832 Haze -21 999 84 9656 3.09 80 15:32 09.02.2022
3833 Snow -20 999 77 3219 2.57 90 13:57 09.02.2022
3834 Clouds -19 998 71 10000 2.06 40 12:25 09.02.2022
3835 Snow -18 998 71 6437 3.09 360 10:37 09.02.2022
3836 Snow -18 998 71 4828 3.6 20 09:57 09.02.2022
3837 Snow -18 998 78 3219 4.12 40 09:23 09.02.2022
3838 Snow -18 997 71 4828 4.63 40 08:51 09.02.2022
3839 Snow -18 997 71 4023 6.17 50 07:28 09.02.2022
3840 Snow -18 997 71 3219 7.72 50 05:30 09.02.2022
3841 Snow -19 996 78 1609 10.29 40 03:50 09.02.2022
3842 Snow -17 997 66 2012 8.75 30 00:21 09.02.2022
3843 Clouds -17 997 55 10000 9.77 20 23:29 08.02.2022
3844 Clouds -17 997 55 10000 8.23 360 22:43 08.02.2022
3845 Clouds -17 997 55 10000 8.23 360 22:20 08.02.2022
3846 Clouds -17 996 55 10000 9.26 10 21:38 08.02.2022
3847 Clouds -17 996 55 10000 9.26 10 21:19 08.02.2022
3848 Clouds -17 996 55 10000 9.77 20 20:41 08.02.2022
3849 Clouds -17 996 46 10000 10.8 20 19:41 08.02.2022
3850 Clouds -17 997 46 10000 11.32 20 18:34 08.02.2022
3851 Clouds -18 997 50 10000 9.77 10 17:36 08.02.2022
3852 Clouds -27 1000 86 10000 4.42 355 15:55 08.02.2022
3853 Clouds -19 999 46 10000 11.32 10 15:29 08.02.2022
3854 Clouds -28 1002 86 10000 4.73 355 13:59 08.02.2022
3855 Clear -21 1001 49 10000 12.35 40 12:40 08.02.2022
3856 Clear -22 1002 54 10000 12.35 30 11:20 08.02.2022
3857 Clear -29 1004 81 10000 5.71 355 09:59 08.02.2022
3858 Clear -29 1004 85 10000 5.92 356 08:56 08.02.2022
3859 Clear -23 1005 54 10000 8.75 20 07:37 08.02.2022
3860 Clear -22 1005 49 10000 8.75 20 04:40 08.02.2022
3861 Clear -22 1005 49 10000 8.75 20 04:22 08.02.2022
3862 Clear -22 1006 54 10000 6.17 20 03:36 08.02.2022
3863 Clear -22 1006 54 10000 6.17 20 03:18 08.02.2022
3864 Clear -28 1006 88 10000 5.33 4 02:59 08.02.2022
3865 Clear -22 1006 54 10000 7.72 30 02:37 08.02.2022
3866 Clear -22 1006 54 10000 7.72 30 02:19 08.02.2022
3867 Clear -28 1007 88 10000 5.11 7 01:55 08.02.2022
3868 Clear -21 1007 49 10000 10.29 30 01:37 08.02.2022
3869 Clear -21 1007 49 10000 10.29 30 01:19 08.02.2022
3870 Clear -20 1007 45 10000 9.77 30 00:44 08.02.2022
3871 Clouds -22 1007 54 10000 10.29 40 23:45 07.02.2022
3872 Clouds -22 1007 54 10000 10.29 40 23:18 07.02.2022
3873 Clouds -28 1008 90 10000 4.2 12 22:59 07.02.2022
3874 Clouds -21 1007 49 10000 9.26 30 22:19 07.02.2022
3875 Clear -21 1006 49 10000 11.32 30 21:51 07.02.2022
3876 Clear -21 1006 49 10000 11.32 30 21:28 07.02.2022
3877 Clouds -30 1007 93 10000 3.87 11 20:56 07.02.2022
3878 Clear -22 1006 49 10000 7.2 20 20:38 07.02.2022
3879 Clear -22 1006 49 10000 7.72 30 19:47 07.02.2022
3880 Clear -22 1006 49 10000 7.72 30 19:20 07.02.2022
3881 Clear -22 1006 49 10000 10.29 40 17:39 07.02.2022
3882 Clear -23 1006 49 10000 10.29 40 16:52 07.02.2022
3883 Clear -23 1006 54 10000 5.14 20 15:49 07.02.2022
3884 Clear -24 1006 53 10000 5.66 20 14:41 07.02.2022
3885 Clear -27 1007 63 10000 0 0 13:27 07.02.2022
3886 Clear -27 1006 63 10000 1.54 230 12:38 07.02.2022
3887 Clouds -33 1008 93 10000 2.89 358 11:55 07.02.2022
3888 Clear -26 1007 64 10000 1.54 30 11:26 07.02.2022
3889 Clear -26 1007 64 10000 3.09 340 10:45 07.02.2022
3890 Clear -26 1007 64 10000 3.09 340 10:26 07.02.2022
3891 Clear -25 1007 58 10000 3.09 10 09:52 07.02.2022
3892 Clear -25 1007 58 10000 3.09 10 09:18 07.02.2022
3893 Clear -23 1007 54 10000 4.12 340 08:20 07.02.2022
3894 Clear -23 1007 59 10000 7.2 350 06:35 07.02.2022
3895 Clear -23 1007 64 10000 5.66 360 05:47 07.02.2022
3896 Clear -26 1009 92 10000 3.75 356 02:56 07.02.2022
3897 Clear -18 1009 60 10000 4.12 330 00:33 07.02.2022
3898 Clear -17 1010 55 10000 2.06 270 23:41 06.02.2022
3899 Clear -17 1010 55 10000 6.17 310 22:47 06.02.2022
3900 Clear -18 1010 60 10000 5.14 330 21:51 06.02.2022
3901 Clear -18 1010 60 10000 5.14 330 21:26 06.02.2022
3902 Clear -18 1010 55 10000 2.57 350 20:52 06.02.2022
3903 Clear -18 1010 55 10000 2.57 350 20:24 06.02.2022
3904 Clear -18 1011 50 10000 3.6 40 19:30 06.02.2022
3905 Clear -18 1010 50 10000 6.17 330 18:35 06.02.2022
3906 Clear -24 1011 85 10000 4.19 355 17:54 06.02.2022
3907 Clear -24 1010 84 10000 4.43 353 16:53 06.02.2022
3908 Clear -17 1009 51 10000 7.72 350 16:32 06.02.2022
3909 Clear -17 1009 51 10000 10.29 340 15:47 06.02.2022
3910 Clear -17 1009 51 10000 10.29 340 15:26 06.02.2022
3911 Clear -17 1009 46 10000 8.75 350 14:27 06.02.2022
3912 Clear -17 1009 46 10000 8.75 360 13:24 06.02.2022
3913 Clear -17 1009 46 10000 7.72 10 12:45 06.02.2022
3914 Clear -18 1009 46 10000 4.63 360 11:19 06.02.2022
3915 Clear -27 1010 91 10000 3.21 351 09:56 06.02.2022
3916 Clear -21 1008 65 10000 1.54 0 08:47 06.02.2022
3917 Clear -20 1008 59 10000 2.57 100 07:36 06.02.2022
3918 Clear -18 1007 60 10000 1.54 0 05:29 06.02.2022
3919 Clear -18 1006 65 10000 2.57 360 02:26 06.02.2022
3920 Clear -18 1006 65 10000 0 0 01:21 06.02.2022
3921 Clear -18 1007 60 10000 1.54 310 00:24 06.02.2022
3922 Clear -21 1006 65 10000 2.06 30 22:19 05.02.2022
3923 Clear -18 1005 60 10000 1.54 360 20:52 05.02.2022
3924 Clear -18 1005 60 10000 1.54 360 20:24 05.02.2022
3925 Clear -17 1005 51 10000 5.66 330 19:45 05.02.2022
3926 Clear -17 1006 46 10000 4.12 300 18:49 05.02.2022
3927 Clear -17 1005 46 10000 5.66 330 17:37 05.02.2022
3928 Clear -19 1005 50 10000 2.06 240 16:37 05.02.2022
3929 Clear -17 1005 46 10000 5.14 330 15:33 05.02.2022
3930 Clear -17 1005 46 10000 5.14 340 14:40 05.02.2022
3931 Clear -16 1005 47 10000 7.2 20 12:46 05.02.2022
3932 Clear -14 1004 33 10000 3.6 360 11:47 05.02.2022
3933 Clear -18 1004 50 10000 0 0 10:46 05.02.2022
3934 Clear -17 1003 55 10000 3.09 350 09:51 05.02.2022
3935 Clear -17 1003 55 10000 3.09 350 09:25 05.02.2022
3936 Clear -19 1003 65 10000 0 0 07:36 05.02.2022
3937 Clouds -20 1004 72 10000 3.48 21 06:56 05.02.2022
3938 Clouds -14 1002 56 10000 3.09 50 03:22 05.02.2022
3939 Clear -14 1001 52 10000 4.63 50 01:19 05.02.2022
3940 Clear -14 1001 52 10000 6.17 60 00:39 05.02.2022
3941 Clear -14 1001 56 10000 4.63 40 23:38 04.02.2022
3942 Clear -14 1001 56 10000 4.63 40 23:20 04.02.2022
3943 Clear -14 1001 56 10000 5.14 60 21:36 04.02.2022
3944 Clear -14 1001 56 10000 5.14 60 21:18 04.02.2022
3945 Clear -14 1000 56 10000 6.17 60 20:46 04.02.2022
3946 Clear -14 1000 56 10000 5.14 50 19:30 04.02.2022
3947 Clouds -14 1001 63 10000 6.87 60 16:56 04.02.2022
3948 Clear -14 1000 56 10000 8.75 50 15:34 04.02.2022
3949 Clear -14 1000 52 10000 7.2 50 14:51 04.02.2022
3950 Clear -13 1000 47 10000 9.26 60 12:43 04.02.2022
3951 Clear -14 1000 51 10000 8.75 50 11:46 04.02.2022
3952 Clear -14 1000 51 10000 8.75 50 11:18 04.02.2022
3953 Clear -14 1000 51 10000 12.86 50 10:30 04.02.2022
3954 Clear -14 1000 56 10000 11.83 50 08:33 04.02.2022
3955 Clear -14 1000 51 10000 13.38 50 04:53 04.02.2022
3956 Clear -14 1001 52 10000 13.38 50 02:38 04.02.2022
3957 Clear -15 1003 62 8047 14.92 50 00:18 04.02.2022
3958 Clouds -17 1007 74 10000 15.13 59 22:55 03.02.2022
3959 Clear -14 1004 52 4828 14.92 50 22:22 03.02.2022
3960 Clear -15 1005 57 9656 15.43 50 21:41 03.02.2022
3961 Clear -15 1005 56 10000 14.92 50 20:22 03.02.2022
3962 Clear -15 1006 57 10000 14.92 40 19:49 03.02.2022
3963 Clear -15 1006 57 10000 14.92 40 19:20 03.02.2022
3964 Clear -14 1007 57 10000 13.38 40 18:24 03.02.2022
3965 Clear -13 1008 53 10000 13.89 50 17:26 03.02.2022
3966 Clear -14 1009 57 4023 13.89 50 15:38 03.02.2022
3967 Clear -13 1009 53 6437 16.98 50 14:18 03.02.2022
3968 Clear -13 1010 61 2816 16.46 60 12:32 03.02.2022
3969 Clouds -13 1014 69 10000 13.71 59 08:59 03.02.2022
3970 Clear -13 1013 62 4828 14.92 50 08:18 03.02.2022
3971 Clouds -13 1017 73 10000 11.04 59 00:59 03.02.2022
3972 Clear -13 1016 62 9656 14.4 50 00:22 03.02.2022
3973 Clear -12 1017 57 9656 15.95 60 22:40 02.02.2022
3974 Clouds -13 1017 72 10000 9.76 55 21:51 02.02.2022
3975 Clouds -13 1018 76 10000 9.35 61 21:29 02.02.2022
3976 Clear -12 1017 56 10000 12.86 50 20:27 02.02.2022
3977 Clear -12 1016 61 6437 13.89 50 19:48 02.02.2022
3978 Clear -11 1016 58 10000 12.35 50 18:59 02.02.2022
3979 Clear -11 1016 58 10000 12.35 50 18:25 02.02.2022
3980 Clear -11 1016 58 9656 16.46 60 17:21 02.02.2022
3981 Clear -12 1016 68 10000 7.56 52 16:58 02.02.2022
3982 Clear -10 1017 58 6437 15.95 50 15:29 02.02.2022
3983 Clear -9 1016 53 9656 14.4 60 12:31 02.02.2022
3984 Clear -9 1016 58 10000 14.92 50 11:49 02.02.2022
3985 Clear -9 1016 58 10000 14.92 50 11:30 02.02.2022
3986 Clear -8 1015 53 9656 13.89 50 08:48 02.02.2022
3987 Clear -10 1017 45 10000 8.11 51 04:57 02.02.2022
3988 Clear -7 1017 53 10000 11.83 60 22:34 01.02.2022
3989 Clear -9 1018 42 10000 9.84 50 20:55 01.02.2022
3990 Clear -6 1018 53 10000 11.83 50 19:29 01.02.2022
3991 Clear -4 1020 39 10000 6.17 40 17:34 01.02.2022
3992 Clear -6 1021 45 10000 7.2 40 16:31 01.02.2022
3993 Clear -7 1022 49 10000 7.72 40 13:27 01.02.2022
3994 Clear -8 1023 53 10000 9.77 40 12:21 01.02.2022
3995 Clouds -14 1024 59 10000 4.18 46 08:52 01.02.2022
3996 Clouds -14 1024 59 10000 4.18 46 08:52 01.02.2022
3997 Clear -7 1026 45 10000 7.2 60 02:21 01.02.2022
3998 Clear -9 1027 45 10000 5.14 50 23:38 31.01.2022
3999 Clear -9 1027 45 10000 5.66 60 22:42 31.01.2022
4000 Clear -11 1027 48 10000 5.14 60 21:35 31.01.2022
4001 Clear -12 1026 52 10000 4.12 50 20:35 31.01.2022
4002 Clear -20 1027 82 10000 3.08 51 19:58 31.01.2022
4003 Clear -12 1027 48 10000 4.12 70 18:32 31.01.2022
4004 Clear -12 1027 48 10000 4.12 70 18:32 31.01.2022
4005 Clear -19 1026 82 10000 2.99 52 17:57 31.01.2022
4006 Clear -19 1027 65 10000 1.54 0 17:24 31.01.2022
4007 Clear -23 1027 70 10000 0 0 16:23 31.01.2022
4008 Clear -20 1026 74 10000 3.22 44 14:53 31.01.2022
4009 Clear -22 1027 71 10000 0 0 13:31 31.01.2022
4010 Clear -18 1027 65 10000 0 0 12:38 31.01.2022
4011 Clear -14 1026 66 10000 0 0 11:26 31.01.2022
4012 Clear -22 1027 71 10000 0 0 10:48 31.01.2022
4013 Clear -20 1027 71 10000 0 0 09:37 31.01.2022
4014 Clear -18 1027 81 10000 2.87 36 08:56 31.01.2022
4015 Clear -20 1027 71 10000 2.06 50 08:20 31.01.2022
4016 Clear -18 1027 65 10000 0 0 07:43 31.01.2022
4017 Clear -22 1026 77 10000 0 0 05:33 31.01.2022
4018 Clear -22 1027 71 10000 0 0 00:36 31.01.2022
4019 Clear -23 1027 70 10000 0 0 22:33 30.01.2022
4020 Clear -23 1027 70 10000 2.06 20 21:46 30.01.2022
4021 Clear -23 1027 70 10000 2.06 20 21:26 30.01.2022
4022 Clear -22 1027 77 10000 2.09 34 20:54 30.01.2022
4023 Clear -25 1027 77 10000 0 0 20:31 30.01.2022
4024 Clear -23 1027 77 10000 1.65 40 19:56 30.01.2022
4025 Clear -24 1026 77 10000 0 0 18:52 30.01.2022
4026 Clear -24 1026 77 10000 0 0 18:26 30.01.2022
4027 Clear -25 1026 77 10000 0 0 17:31 30.01.2022
4028 Clear -25 1026 77 10000 0 0 17:31 30.01.2022
4029 Clear -24 1026 70 10000 0 0 16:44 30.01.2022
4030 Clear -24 1026 71 10000 0 0 16:23 30.01.2022
4031 Clear -22 1026 79 10000 1.99 27 15:55 30.01.2022
4032 Clear -25 1026 77 10000 0 0 15:37 30.01.2022
4033 Clear -25 1026 77 10000 0 0 15:19 30.01.2022
4034 Clear -23 1026 70 10000 0 0 14:44 30.01.2022
4035 Clear -24 1026 70 10000 1.54 20 12:46 30.01.2022
4036 Clear -23 1026 70 10000 0 0 11:49 30.01.2022
4037 Clear -23 1025 70 10000 0 0 10:26 30.01.2022
4038 Clear -23 1025 70 10000 0 0 09:26 30.01.2022
4039 Clear -22 1024 65 10000 1.54 360 08:32 30.01.2022
4040 Clear -20 1022 85 10000 1.61 29 02:55 30.01.2022
4041 Clear -16 1022 56 10000 1.4 22 01:54 30.01.2022
4042 Clear -23 1021 63 10000 0 0 23:49 29.01.2022
4043 Clear -18 1021 57 10000 2.32 10 22:58 29.01.2022
4044 Clear -23 1020 59 10000 0 0 21:35 29.01.2022
4045 Clear -20 1021 75 10000 2.99 15 21:00 29.01.2022
4046 Clear -25 1020 70 10000 2.57 20 20:21 29.01.2022
4047 Clear -24 1020 64 10000 0 0 19:33 29.01.2022
4048 Clear -23 1020 59 10000 0 0 18:51 29.01.2022
4049 Clear -22 1020 75 10000 2.33 10 17:56 29.01.2022
4050 Clear -24 1019 64 10000 1.54 330 17:19 29.01.2022
4051 Clear -22 1020 59 10000 0 0 15:42 29.01.2022
4052 Clear -20 1021 62 10000 3.38 11 13:58 29.01.2022
4053 Clear -26 1020 70 10000 1.54 340 13:36 29.01.2022
4054 Clear -26 1020 70 10000 1.54 340 13:18 29.01.2022
4055 Clear -24 1021 64 10000 1.54 0 11:40 29.01.2022
4056 Clear -24 1022 70 10000 1.54 0 10:34 29.01.2022
4057 Clear -25 1022 70 10000 0 0 08:36 29.01.2022
4058 Clear -23 1024 59 10000 2.06 20 03:25 29.01.2022
4059 Clear -24 1025 64 10000 0 0 00:32 29.01.2022
4060 Clear -23 1025 64 10000 0 0 23:32 28.01.2022
4061 Clear -23 1025 64 10000 0 0 23:32 28.01.2022
4062 Clear -24 1026 64 10000 0 0 22:47 28.01.2022
4063 Clear -24 1026 64 10000 0 0 22:19 28.01.2022
4064 Clear -24 1026 64 10000 1.54 40 20:41 28.01.2022
4065 Clear -23 1026 81 10000 2.98 357 19:58 28.01.2022
4066 Clear -28 1026 76 10000 0 0 19:18 28.01.2022
4067 Clear -28 1026 69 10000 2.06 0 18:35 28.01.2022
4068 Clear -28 1026 76 10000 0 0 16:37 28.01.2022
4069 Clear -22 1026 80 10000 3.07 6 14:58 28.01.2022
4070 Clear -27 1027 69 10000 0 0 13:21 28.01.2022
4071 Clear -26 1027 76 10000 0 0 11:50 28.01.2022
4072 Clear -26 1027 76 10000 0 0 10:27 28.01.2022
4073 Clear -23 1027 64 10000 2.06 10 09:47 28.01.2022
4074 Clear -24 1027 70 10000 0 0 07:42 28.01.2022
4075 Clear -23 1027 70 10000 2.06 200 06:30 28.01.2022
4076 Clear -23 1027 70 10000 0 0 03:51 28.01.2022
4077 Clear -22 1028 71 10000 0 0 02:28 28.01.2022
4078 Clear -23 1029 70 10000 0 0 01:38 28.01.2022
4079 Clear -21 1029 65 10000 0 0 00:46 28.01.2022
4080 Clear -24 1030 70 10000 1.54 0 22:39 27.01.2022
4081 Clear -21 1030 60 10000 2.06 340 21:40 27.01.2022
4082 Clear -24 1030 71 10000 2.41 0 20:59 27.01.2022
4083 Clear -24 1031 64 10000 0 0 19:45 27.01.2022
4084 Clear -24 1031 64 10000 2.06 300 18:20 27.01.2022
4085 Clear -25 1032 84 10000 2.26 17 16:59 27.01.2022
4086 Clear -29 1033 69 10000 0 0 14:23 27.01.2022
4087 Clear -31 1035 76 10000 0 0 12:49 27.01.2022
4088 Clear -31 1035 76 10000 0 0 12:49 27.01.2022
4089 Clear -31 1035 76 10000 0 0 12:18 27.01.2022
4090 Clear -29 1034 76 10000 0 0 09:48 27.01.2022
4091 Clear -29 1034 76 10000 2.06 50 08:40 27.01.2022
4092 Clear -29 1034 83 10000 0 0 07:53 27.01.2022
4093 Clear -27 1035 76 10000 0 0 03:34 27.01.2022
4094 Clear -26 1035 76 10000 0 0 00:24 27.01.2022
4095 Clear -27 1035 76 10000 0 0 22:28 26.01.2022
4096 Clear -28 1034 76 10000 0 0 21:44 26.01.2022
4097 Clear -28 1034 69 10000 0 0 20:52 26.01.2022
4098 Clear -28 1034 69 10000 0 0 20:32 26.01.2022
4099 Clear -29 1033 76 10000 0 0 19:49 26.01.2022
4100 Clear -28 1033 76 10000 0 0 18:48 26.01.2022
4101 Clear -28 1033 76 10000 0 0 18:24 26.01.2022
4102 Clear -28 1033 69 10000 1.54 360 17:33 26.01.2022
4103 Clear -27 1034 81 10000 2.38 18 16:56 26.01.2022
4104 Clear -27 1032 76 10000 0 0 16:23 26.01.2022
4105 Clear -28 1033 79 10000 2.55 20 14:54 26.01.2022
4106 Clear -27 1029 70 10000 0 0 12:22 26.01.2022
4107 Clear -27 1028 76 10000 0 0 10:52 26.01.2022
4108 Clouds -28 1029 80 10000 2.7 12 09:55 26.01.2022
4109 Clear -26 1027 76 10000 0 0 09:36 26.01.2022
4110 Clear -25 1025 77 10000 0 0 06:43 26.01.2022
4111 Mist -19 1020 78 4828 0 0 00:26 26.01.2022
4112 Clouds -21 1019 92 10000 2.06 290 23:43 25.01.2022
4113 Clouds -29 1022 100 4453 1.98 23 22:49 25.01.2022
4114 Clouds -30 1021 100 3424 1.71 14 22:19 25.01.2022
4115 Clouds -29 1021 100 2950 1.39 3 21:27 25.01.2022
4116 Clouds -29 1021 100 2950 1.39 3 20:45 25.01.2022
4117 Clouds -29 1020 100 2875 1.22 345 19:57 25.01.2022
4118 Clouds -29 1020 100 2875 1.22 345 19:32 25.01.2022
4119 Clouds -28 1018 100 3796 1.2 292 17:56 25.01.2022
4120 Clouds -28 1018 100 3796 1.2 292 17:37 25.01.2022
4121 Clouds -28 1016 100 4318 1.73 275 16:35 25.01.2022
4122 Clouds -27 1015 100 5030 2.2 271 15:39 25.01.2022
4123 Clouds -25 1014 100 5258 2.99 263 15:20 25.01.2022
4124 Clouds -25 1014 100 5258 2.99 263 14:56 25.01.2022
4125 Clouds -16 1008 85 10000 5.66 260 12:22 25.01.2022
4126 Haze -14 1004 78 9656 9.26 270 09:39 25.01.2022
4127 Clouds -14 1002 78 10000 8.75 270 08:21 25.01.2022
4128 Snow -12 1000 72 10000 7.2 290 07:27 25.01.2022
4129 Mist -12 997 85 2414 13.38 300 05:26 25.01.2022
4130 Snow -7 988 79 1609 11.32 350 00:57 25.01.2022
4131 Mist -7 986 86 4023 10.8 350 23:36 24.01.2022
4132 Snow -6 986 79 1609 9.77 350 23:18 24.01.2022
4133 Snow -6 985 86 2012 9.77 350 22:42 24.01.2022
4134 Snow -6 985 93 1207 8.75 350 22:23 24.01.2022
4135 Snow -6 985 93 2414 8.23 350 21:42 24.01.2022
4136 Snow -6 985 93 2414 8.23 350 21:24 24.01.2022
4137 Snow -6 984 93 2414 5.14 360 20:27 24.01.2022
4138 Snow -5 984 86 3219 7.2 350 19:38 24.01.2022
4139 Snow -5 984 86 4023 7.2 340 18:50 24.01.2022
4140 Snow -4 984 86 2414 6.17 350 17:39 24.01.2022
4141 Snow -4 984 86 2414 6.17 350 17:21 24.01.2022
4142 Snow -4 985 86 6437 6.17 350 16:31 24.01.2022
4143 Snow -4 985 86 6437 6.17 350 15:35 24.01.2022
4144 Snow -4 986 86 6437 4.63 350 13:59 24.01.2022
4145 Snow -4 988 80 2012 6.69 350 12:34 24.01.2022
4146 Snow -5 989 86 2012 6.17 350 11:41 24.01.2022
4147 Snow -7 991 86 2012 5.14 350 10:19 24.01.2022
4148 Snow -8 992 79 4828 8.75 340 09:45 24.01.2022
4149 Snow -8 995 68 4828 6.69 20 08:18 24.01.2022
4150 Clear -12 1003 62 10000 4.12 10 02:26 24.01.2022
4151 Clear -16 1005 78 10000 0 0 01:26 24.01.2022
4152 Clear -16 1005 78 10000 0 0 01:26 24.01.2022
4153 Clear -17 1005 85 10000 0 0 00:31 24.01.2022
4154 Clear -17 1006 85 10000 0 0 23:40 23.01.2022
4155 Clear -17 1006 85 10000 0 0 22:20 23.01.2022
4156 Clear -17 1006 85 10000 0 0 21:40 23.01.2022
4157 Clear -17 1006 85 10000 0 0 21:20 23.01.2022
4158 Clear -15 1007 73 10000 2.57 50 20:23 23.01.2022
4159 Clouds -19 1008 86 10000 2.67 48 18:56 23.01.2022
4160 Clouds -13 1006 78 10000 3.6 50 18:24 23.01.2022
4161 Clouds -12 1006 72 10000 5.14 80 17:19 23.01.2022
4162 Clouds -22 1008 99 10000 2.67 61 15:59 23.01.2022
4163 Clouds -13 1006 78 10000 5.14 70 14:52 23.01.2022
4164 Clouds -13 1006 78 10000 5.14 70 14:19 23.01.2022
4165 Clouds -15 1005 85 10000 5.14 70 12:46 23.01.2022
4166 Clouds -15 1005 85 10000 5.14 70 12:21 23.01.2022
4167 Clouds -17 1005 78 10000 0 0 11:27 23.01.2022
4168 Clouds -25 1007 82 6387 2.63 57 10:58 23.01.2022
4169 Clear -19 1004 78 10000 1.54 30 10:25 23.01.2022
4170 Clear -18 1003 85 10000 2.57 40 09:33 23.01.2022
4171 Clear -16 1002 78 10000 3.09 70 08:50 23.01.2022
4172 Clouds -25 1002 100 2899 2.32 54 04:41 23.01.2022
4173 Clouds -14 997 85 10000 0 0 01:40 23.01.2022
4174 Clouds -23 999 100 6210 1.04 94 00:56 23.01.2022
4175 Clouds -14 996 85 10000 2.57 170 00:22 23.01.2022
4176 Clouds -13 995 78 10000 3.09 200 23:18 22.01.2022
4177 Clouds -13 994 78 10000 2.57 210 22:33 22.01.2022
4178 Clouds -11 990 85 10000 5.14 200 20:47 22.01.2022
4179 Clouds -10 990 85 10000 6.17 200 19:46 22.01.2022
4180 Mist -7 988 93 3219 6.17 190 18:43 22.01.2022
4181 Snow -6 989 94 115 4.54 97 17:56 22.01.2022
4182 Mist -6 986 93 3219 5.66 120 17:35 22.01.2022
4183 Mist -6 986 93 3219 5.14 120 16:55 22.01.2022
4184 Snow -6 985 86 4828 6.69 100 15:49 22.01.2022
4185 Snow -7 987 91 167 5.61 88 14:57 22.01.2022
4186 Clouds -6 985 86 10000 8.23 90 13:36 22.01.2022
4187 Clouds -7 985 93 10000 6.17 80 12:47 22.01.2022
4188 Clouds -7 985 86 10000 6.17 80 12:24 22.01.2022
4189 Snow -7 986 86 487 4.78 83 10:55 22.01.2022
4190 Snow -6 984 86 10000 8.23 90 10:28 22.01.2022
4191 Snow -6 984 86 6437 7.2 100 09:46 22.01.2022
4192 Mist -6 983 86 4828 8.23 110 08:51 22.01.2022
4193 Snow -6 983 93 4023 7.2 100 07:28 22.01.2022
4194 Snow -3 983 74 10000 7.72 80 04:52 22.01.2022
4195 Snow -4 983 86 4828 5.66 70 01:32 22.01.2022
4196 Mist -5 984 86 8047 6.69 80 23:30 21.01.2022
4197 Mist -6 985 86 6437 6.69 80 22:19 21.01.2022
4198 Snow -6 985 86 3219 8.23 60 19:56 21.01.2022
4199 Snow -6 986 86 4828 7.72 60 18:23 21.01.2022
4200 Snow -6 986 86 2012 7.72 60 17:18 21.01.2022
4201 Snow -7 988 86 4828 7.2 60 15:27 21.01.2022
4202 Snow -8 990 86 4023 8.23 50 13:18 21.01.2022
4203 Snow -9 992 79 2012 6.69 50 12:28 21.01.2022
4204 Snow -10 992 79 4023 7.72 50 11:27 21.01.2022
4205 Snow -12 995 85 3219 9.26 40 09:46 21.01.2022
4206 Snow -13 997 72 8047 9.26 30 08:22 21.01.2022
4207 Clouds -16 1001 72 10000 7.2 30 04:37 21.01.2022
4208 Clouds -16 1006 72 10000 7.72 40 23:27 20.01.2022
4209 Snow -16 1007 72 10000 6.17 40 21:50 20.01.2022
4210 Snow -16 1007 72 10000 6.17 40 21:32 20.01.2022
4211 Snow -16 1007 78 4828 1.54 50 20:31 20.01.2022
4212 Clouds -16 1007 72 10000 4.12 50 19:19 20.01.2022
4213 Snow -14 1007 66 8047 5.14 70 18:23 20.01.2022
4214 Clouds -21 1009 98 337 2.3 24 16:53 20.01.2022
4215 Snow -16 1007 78 8047 5.14 30 15:40 20.01.2022
4216 Snow -16 1008 78 2816 6.69 20 14:40 20.01.2022
4217 Snow -16 1008 78 2816 2.57 320 13:33 20.01.2022
4218 Clouds -18 1008 60 10000 0 0 12:32 20.01.2022
4219 Clouds -22 1009 64 10000 3.6 260 11:50 20.01.2022
4220 Clouds -22 1009 64 10000 1.54 260 10:39 20.01.2022
4221 Clouds -21 1009 59 10000 2.06 250 09:36 20.01.2022
4222 Clear -24 1010 64 10000 4.12 340 07:50 20.01.2022
4223 Clear -21 1013 59 10000 0 0 00:44 20.01.2022
4224 Clear -27 1015 89 10000 3.6 1 22:59 19.01.2022
4225 Clear -21 1014 54 10000 0 0 22:21 19.01.2022
4226 Clear -24 1015 64 10000 0 0 21:23 19.01.2022
4227 Clear -24 1015 64 10000 1.54 0 20:46 19.01.2022
4228 Clear -22 1016 59 10000 6.17 320 19:42 19.01.2022
4229 Clear -21 1016 60 10000 1.54 20 18:18 19.01.2022
4230 Clear -21 1016 60 10000 5.66 340 17:44 19.01.2022
4231 Clear -23 1017 59 10000 2.06 310 16:46 19.01.2022
4232 Clear -24 1018 70 10000 1.54 320 14:42 19.01.2022
4233 Clear -26 1019 76 10000 2.57 270 12:42 19.01.2022
4234 Clear -24 1019 70 10000 0 0 11:39 19.01.2022
4235 Clear -23 1019 64 10000 1.54 100 10:20 19.01.2022
4236 Clear -23 1019 65 10000 5.66 350 09:34 19.01.2022
4237 Clear -27 1019 69 10000 0 0 06:45 19.01.2022
4238 Clear -26 1020 70 10000 1.54 10 02:38 19.01.2022
4239 Clear -29 1022 69 10000 0 0 23:19 18.01.2022
4240 Clear -29 1022 76 10000 1.54 30 22:19 18.01.2022
4241 Clear -30 1022 80 10000 2.93 17 20:58 18.01.2022
4242 Clear -29 1022 80 10000 2.48 23 19:54 18.01.2022
4243 Clear -29 1021 76 10000 0 0 19:36 18.01.2022
4244 Clear -28 1021 69 10000 0 0 18:51 18.01.2022
4245 Clear -31 1022 76 10000 2.94 15 17:58 18.01.2022
4246 Clear -28 1022 64 10000 3.6 30 16:50 18.01.2022
4247 Clear -27 1022 69 10000 0 0 15:47 18.01.2022
4248 Clear -27 1022 69 10000 0 0 15:21 18.01.2022
4249 Clear -25 1022 64 10000 1.54 20 12:47 18.01.2022
4250 Clear -26 1022 76 10000 3.6 360 10:47 18.01.2022
4251 Clear -29 1023 80 10000 2.99 17 08:59 18.01.2022
4252 Clear -24 1022 65 10000 2.06 350 07:51 18.01.2022
4253 Clear -24 1022 70 10000 2.57 30 02:34 18.01.2022
4254 Clear -24 1021 70 10000 2.57 30 23:39 17.01.2022
4255 Clear -24 1021 70 10000 1.54 10 22:26 17.01.2022
4256 Clear -23 1021 70 10000 1.54 360 21:34 17.01.2022
4257 Clear -23 1020 71 10000 0 0 20:24 17.01.2022
4258 Clouds -21 1020 71 10000 5.14 340 18:30 17.01.2022
4259 Clouds -19 1019 65 10000 7.72 350 17:44 17.01.2022
4260 Clouds -18 1020 65 10000 6.17 350 16:40 17.01.2022
4261 Clouds -19 1019 65 10000 7.2 350 15:22 17.01.2022
4262 Clouds -24 1020 91 10000 3.42 15 14:56 17.01.2022
4263 Clouds -18 1020 71 10000 6.69 350 13:26 17.01.2022
4264 Clouds -24 1021 91 10000 3.34 15 12:55 17.01.2022
4265 Clouds -16 1019 72 10000 5.66 350 11:49 17.01.2022
4266 Clouds -15 1019 72 10000 5.66 350 10:21 17.01.2022
4267 Clouds -15 1019 72 10000 3.09 360 09:34 17.01.2022
4268 Snow -13 1019 72 10000 0 0 07:24 17.01.2022
4269 Snow -13 1019 72 10000 0 0 06:56 17.01.2022
4270 Clouds -17 1020 97 5842 1.75 24 00:55 17.01.2022
4271 Clouds -14 1019 78 10000 1.54 20 22:29 16.01.2022
4272 Clouds -14 1018 78 10000 0 0 20:36 16.01.2022
4273 Clouds -14 1017 78 10000 0 0 18:52 16.01.2022
4274 Clouds -14 1017 78 10000 0 0 17:59 16.01.2022
4275 Clouds -14 1017 78 10000 0 0 17:21 16.01.2022
4276 Clouds -13 1017 78 10000 0 0 16:33 16.01.2022
4277 Snow -13 1016 78 10000 0 0 14:31 16.01.2022
4278 Clouds -13 1016 78 10000 1.54 30 13:49 16.01.2022
4279 Clouds -15 1016 85 10000 0 0 12:48 16.01.2022
4280 Clouds -16 1015 85 10000 0 0 11:42 16.01.2022
4281 Clouds -16 1015 85 10000 0 0 10:55 16.01.2022
4282 Clouds -15 1015 85 10000 0 0 10:19 16.01.2022
4283 Clouds -13 1014 78 10000 3.09 330 09:51 16.01.2022
4284 Clouds -13 1014 78 10000 3.09 330 09:22 16.01.2022
4285 Clouds -13 1014 78 10000 3.09 330 09:22 16.01.2022
4286 Snow -13 1013 78 10000 0 0 07:33 16.01.2022
4287 Snow -11 1010 79 9656 1.54 350 02:36 16.01.2022
4288 Snow -10 1009 85 1609 0 0 23:49 15.01.2022
4289 Snow -11 1008 85 10000 2.57 360 21:46 15.01.2022
4290 Snow -11 1008 85 10000 2.57 360 21:19 15.01.2022
4291 Clouds -11 1008 85 10000 1.54 360 20:40 15.01.2022
4292 Snow -11 1007 85 4828 0 0 19:29 15.01.2022
4293 Snow -11 1007 85 6437 2.06 310 18:44 15.01.2022
4294 Clouds -11 1007 85 10000 1.54 260 17:25 15.01.2022
4295 Clouds -9 1006 67 10000 2.06 240 15:50 15.01.2022
4296 Clouds -15 1008 89 10000 2.64 21 13:55 15.01.2022
4297 Clouds -11 1005 73 10000 1.54 340 11:46 15.01.2022
4298 Clouds -11 1004 73 10000 5.14 340 10:36 15.01.2022
4299 Clouds -12 1003 72 10000 1.54 240 07:48 15.01.2022
4300 Clouds -9 1001 57 10000 4.12 20 23:50 14.01.2022
4301 Clouds -9 1001 57 10000 6.69 340 21:52 14.01.2022
4302 Clouds -9 1000 53 10000 5.14 10 20:37 14.01.2022
4303 Clouds -16 1003 83 10000 3.33 18 19:58 14.01.2022
4304 Clear -10 1000 62 10000 5.66 350 18:49 14.01.2022
4305 Clouds -18 1002 87 10000 2.69 18 17:57 14.01.2022
4306 Clear -9 1000 67 10000 6.69 360 16:48 14.01.2022
4307 Clouds -8 999 62 10000 7.72 340 15:37 14.01.2022
4308 Clouds -8 999 62 10000 7.2 350 14:38 14.01.2022
4309 Clear -8 999 62 10000 7.72 350 13:35 14.01.2022
4310 Clear -7 999 63 10000 8.75 20 12:24 14.01.2022
4311 Clear -8 999 67 10000 6.69 350 10:50 14.01.2022
4312 Clouds -14 1000 88 10000 3.74 12 08:54 14.01.2022
4313 Clear -8 999 67 10000 9.77 10 08:20 14.01.2022
4314 Clouds -16 1001 90 10000 4.3 6 03:55 14.01.2022
4315 Clouds -17 1003 90 10000 3.61 18 00:59 14.01.2022
4316 Clouds -12 1003 72 10000 5.14 340 22:46 13.01.2022
4317 Clouds -12 1002 67 10000 5.66 360 21:31 13.01.2022
4318 Clouds -19 1005 92 10000 4.31 15 20:56 13.01.2022
4319 Clouds -14 1003 72 10000 4.63 360 19:40 13.01.2022
4320 Clouds -14 1003 72 10000 4.63 360 19:21 13.01.2022
4321 Snow -14 1003 72 6437 5.66 20 17:48 13.01.2022
4322 Snow -14 1003 66 9656 4.63 10 16:20 13.01.2022
4323 Clouds -16 1004 72 10000 7.2 40 15:37 13.01.2022
4324 Clouds -16 1004 72 10000 3.6 360 13:48 13.01.2022
4325 Clouds -15 1004 61 10000 4.63 30 12:37 13.01.2022
4326 Clouds -16 1004 60 10000 5.66 10 10:23 13.01.2022
4327 Clouds -22 1006 90 10000 3.68 15 08:57 13.01.2022
4328 Clouds -18 1004 65 10000 3.09 360 08:26 13.01.2022
4329 Clear -17 1004 60 10000 5.66 10 07:22 13.01.2022
4330 Clouds -25 1007 91 10000 3.55 17 05:59 13.01.2022
4331 Clear -20 1004 65 10000 3.09 30 05:19 13.01.2022
4332 Clear -26 1007 93 10000 3.59 9 01:53 13.01.2022
4333 Clear -17 1005 55 10000 0 0 00:49 13.01.2022
4334 Clear -18 1006 60 10000 6.69 350 23:46 12.01.2022
4335 Clear -26 1008 91 10000 3.65 11 22:59 12.01.2022
4336 Clear -26 1007 92 10000 3.76 11 21:57 12.01.2022
4337 Clear -26 1007 92 10000 3.76 11 21:57 12.01.2022
4338 Clear -20 1006 71 10000 0 0 21:22 12.01.2022
4339 Clear -26 1007 92 10000 3.5 10 20:56 12.01.2022
4340 Clear -19 1005 65 10000 1.54 60 19:41 12.01.2022
4341 Clear -17 1005 60 10000 2.06 280 18:30 12.01.2022
4342 Clear -17 1005 60 10000 2.06 280 18:30 12.01.2022
4343 Clear -17 1004 66 10000 6.17 360 17:20 12.01.2022
4344 Clear -16 1004 60 10000 8.23 360 16:28 12.01.2022
4345 Clear -17 1004 66 10000 8.75 360 14:48 12.01.2022
4346 Clear -25 1006 92 10000 3.32 11 12:59 12.01.2022
4347 Clouds -25 1006 93 10000 3.3 15 12:59 12.01.2022
4348 Clear -16 1003 66 10000 7.72 360 10:48 12.01.2022
4349 Clear -14 1002 61 10000 6.17 360 08:38 12.01.2022
4350 Clouds -14 1001 61 10000 6.17 10 07:49 12.01.2022
4351 Clouds -14 1001 61 10000 6.17 10 07:31 12.01.2022
4352 Clouds -9 998 53 10000 6.69 40 23:40 11.01.2022
4353 Clouds -8 997 41 10000 5.14 20 22:49 11.01.2022
4354 Clouds -8 997 41 10000 5.14 20 22:22 11.01.2022
4355 Clouds -14 999 77 10000 3.12 14 20:54 11.01.2022
4356 Clear -8 996 45 10000 11.32 40 19:50 11.01.2022
4357 Clear -9 996 48 10000 10.8 50 18:31 11.01.2022
4358 Clouds -9 996 53 10000 7.2 20 17:24 11.01.2022
4359 Clouds -13 996 61 10000 2.89 12 16:37 11.01.2022
4360 Clouds -12 996 61 10000 6.69 30 15:39 11.01.2022
4361 Clouds -17 996 66 10000 2.06 20 14:42 11.01.2022
4362 Clouds -18 998 82 10000 3.31 17 13:55 11.01.2022
4363 Clear -17 996 66 10000 5.14 320 13:35 11.01.2022
4364 Clear -21 997 71 10000 4.12 330 12:43 11.01.2022
4365 Clear -22 997 71 10000 0 0 11:43 11.01.2022
4366 Clear -21 997 65 10000 4.63 310 09:29 11.01.2022
4367 Clear -20 998 59 10000 0 0 07:18 11.01.2022
4368 Clear -19 1000 60 10000 2.06 10 00:32 11.01.2022
4369 Clear -18 1000 55 10000 3.09 40 23:43 10.01.2022
4370 Clear -18 1000 55 10000 3.09 40 23:22 10.01.2022
4371 Clear -18 1000 55 10000 4.63 50 22:19 10.01.2022
4372 Clouds -20 1001 67 10000 2.94 13 21:54 10.01.2022
4373 Clear -19 1000 55 10000 5.14 40 21:20 10.01.2022
4374 Clouds -22 1001 82 10000 3.33 16 20:57 10.01.2022
4375 Clear -18 1000 50 10000 5.14 40 20:28 10.01.2022
4376 Clear -18 1000 55 10000 6.17 40 19:44 10.01.2022
4377 Clear -18 1000 55 10000 6.17 40 19:21 10.01.2022
4378 Clear -18 1000 55 10000 6.17 40 18:48 10.01.2022
4379 Clouds -17 1000 55 10000 6.69 40 17:41 10.01.2022
4380 Clouds -17 1001 51 10000 6.17 50 16:42 10.01.2022
4381 Clear -17 1001 51 10000 8.23 40 15:49 10.01.2022
4382 Clear -17 1002 51 10000 10.29 30 14:30 10.01.2022
4383 Clear -22 1004 74 10000 3.46 18 11:58 10.01.2022
4384 Clear -14 1002 43 10000 10.29 40 11:25 10.01.2022
4385 Clear -15 1004 47 10000 7.72 40 09:50 10.01.2022
4386 Clear -14 1004 43 10000 11.32 60 07:31 10.01.2022
4387 Clear -15 1004 51 10000 8.23 70 05:49 10.01.2022
4388 Clear -15 1003 51 10000 14.92 50 01:31 10.01.2022
4389 Clear -15 1005 51 10000 13.38 50 00:25 10.01.2022
4390 Clear -16 1004 55 4023 15.95 40 23:40 09.01.2022
4391 Clear -16 1005 60 10000 19.03 30 22:38 09.01.2022
4392 Haze -16 1005 60 2816 17.49 30 21:46 09.01.2022
4393 Clear -16 1006 60 10000 14.4 30 21:24 09.01.2022
4394 Clear -16 1006 60 10000 17.49 30 20:52 09.01.2022
4395 Clear -16 1006 60 10000 17.49 30 20:34 09.01.2022
4396 Clear -16 1006 60 1207 21.09 20 19:45 09.01.2022
4397 Clear -16 1008 56 9656 13.89 40 19:23 09.01.2022
4398 Clear -16 1009 55 4828 15.43 30 18:56 09.01.2022
4399 Clear -16 1009 55 4828 15.43 30 18:35 09.01.2022
4400 Clear -16 1009 55 4828 15.43 40 17:45 09.01.2022
4401 Clear -16 1010 60 1609 19.03 30 17:21 09.01.2022
4402 Clear -16 1013 56 10000 7.94 23 15:59 09.01.2022
4403 Clear -15 1012 47 10000 13.89 50 15:36 09.01.2022
4404 Clear -16 1014 51 10000 10.8 40 14:41 09.01.2022
4405 Clear -15 1014 51 10000 14.92 40 13:51 09.01.2022
4406 Clear -15 1014 51 10000 14.92 40 13:25 09.01.2022
4407 Clear -20 1017 73 10000 5.38 11 11:56 09.01.2022
4408 Clear -16 1017 55 10000 10.29 40 11:19 09.01.2022
4409 Clear -15 1017 47 10000 10.8 50 09:51 09.01.2022
4410 Clear -20 1018 74 10000 5.49 16 08:54 09.01.2022
4411 Clear -20 1019 75 10000 5.02 18 05:54 09.01.2022
4412 Clear -14 1021 43 10000 5.14 60 01:25 09.01.2022
4413 Clear -14 1021 43 10000 12.35 40 00:37 09.01.2022
4414 Clear -15 1021 51 10000 11.32 30 23:27 08.01.2022
4415 Clear -15 1022 47 10000 9.26 20 22:35 08.01.2022
4416 Clear -16 1021 51 10000 8.23 20 21:26 08.01.2022
4417 Clear -16 1021 55 10000 9.26 30 20:43 08.01.2022
4418 Clear -16 1021 55 10000 9.26 30 20:21 08.01.2022
4419 Clear -16 1022 51 10000 0 0 18:45 08.01.2022
4420 Clear -16 1021 51 10000 9.77 40 17:23 08.01.2022
4421 Clear -23 1021 84 10000 3.44 30 15:58 08.01.2022
4422 Clear -14 1021 43 10000 7.2 40 14:50 08.01.2022
4423 Clear -12 1021 37 10000 8.23 60 13:41 08.01.2022
4424 Clear -14 1021 51 10000 8.75 40 11:30 08.01.2022
4425 Clear -13 1021 47 10000 6.69 50 10:31 08.01.2022
4426 Clear -19 1020 80 10000 3.29 27 09:54 08.01.2022
4427 Clear -11 1021 37 10000 8.23 50 09:30 08.01.2022
4428 Clear -8 1019 41 10000 11.32 40 04:25 08.01.2022
4429 Clear -15 1018 80 10000 3.38 25 00:58 08.01.2022
4430 Clear -15 1019 82 10000 2.98 28 22:54 07.01.2022
4431 Clear -8 1019 57 10000 7.2 10 21:34 07.01.2022
4432 Clear -7 1019 49 10000 5.14 30 20:23 07.01.2022
4433 Clear -7 1020 49 10000 6.17 50 19:26 07.01.2022
4434 Clear -6 1020 42 10000 2.57 0 18:45 07.01.2022
4435 Clear -13 1018 83 10000 3.26 24 17:58 07.01.2022
4436 Clear -6 1020 45 10000 5.14 60 17:22 07.01.2022
4437 Clear -15 1019 85 10000 2.39 22 14:55 07.01.2022
4438 Clear -14 1020 72 10000 0 0 13:52 07.01.2022
4439 Clear -14 1020 72 10000 0 0 12:50 07.01.2022
4440 Clear -17 1021 78 10000 0 0 10:18 07.01.2022
4441 Clouds -16 1021 85 10000 1.97 14 02:59 07.01.2022
4442 Clear -18 1022 71 10000 0 0 02:22 07.01.2022
4443 Clear -18 1023 71 10000 2.06 10 01:48 07.01.2022
4444 Clear -18 1023 71 10000 2.06 10 01:25 07.01.2022
4445 Clear -18 1023 71 10000 0 0 00:29 07.01.2022
4446 Clear -16 1023 79 10000 1.79 25 21:57 06.01.2022
4447 Clear -19 1023 78 10000 0 0 20:43 06.01.2022
4448 Clear -16 1023 77 10000 1.99 18 19:58 06.01.2022
4449 Clear -19 1023 78 10000 1.54 10 19:36 06.01.2022
4450 Clear -19 1023 78 10000 0 0 17:51 06.01.2022
4451 Clear -19 1023 78 10000 0 0 17:21 06.01.2022
4452 Clear -19 1023 71 10000 0 0 16:31 06.01.2022
4453 Clear -19 1023 71 10000 0 0 15:43 06.01.2022
4454 Clear -19 1023 71 10000 0 0 15:20 06.01.2022
4455 Clear -18 1024 71 10000 0 0 14:19 06.01.2022
4456 Clear -18 1024 71 10000 0 0 13:30 06.01.2022
4457 Clear -17 1024 71 10000 0 0 12:20 06.01.2022
4458 Clear -18 1025 71 10000 0 0 11:29 06.01.2022
4459 Clear -17 1025 71 10000 2.06 20 09:50 06.01.2022
4460 Clear -17 1026 71 10000 1.54 20 06:37 06.01.2022
4461 Clouds -10 1028 57 10000 1.54 350 00:27 06.01.2022
4462 Clear -12 1029 56 10000 0 0 23:22 05.01.2022
4463 Clear -14 1030 66 10000 0 0 22:42 05.01.2022
4464 Clear -14 1030 66 10000 0 0 22:18 05.01.2022
4465 Clear -13 1030 61 10000 0 0 21:25 05.01.2022
4466 Clear -12 1030 56 10000 2.57 10 20:30 05.01.2022
4467 Clear -12 1031 61 10000 0 0 19:29 05.01.2022
4468 Clear -8 1031 41 10000 0 0 18:21 05.01.2022
4469 Clouds -15 1031 67 10000 2.41 16 16:56 05.01.2022
4470 Clear -5 1031 36 10000 4.63 50 16:18 05.01.2022
4471 Clouds -14 1032 67 10000 2.81 23 14:56 05.01.2022
4472 Clear -9 1033 45 10000 3.6 30 13:34 05.01.2022
4473 Clear -8 1033 35 10000 5.66 50 12:20 05.01.2022
4474 Clear -8 1034 35 10000 6.17 20 08:35 05.01.2022
4475 Clear -8 1034 32 10000 1.54 0 06:46 05.01.2022
4476 Clear -9 1035 38 10000 7.72 40 01:46 05.01.2022
4477 Clear -11 1036 44 10000 5.66 360 23:43 04.01.2022
4478 Clear -11 1036 44 10000 5.66 360 23:21 04.01.2022
4479 Clear -10 1036 37 10000 4.63 320 21:41 04.01.2022
4480 Clear -10 1035 37 10000 8.75 50 20:42 04.01.2022
4481 Clear -10 1035 37 10000 11.32 50 18:39 04.01.2022
4482 Clear -10 1036 37 10000 10.29 50 17:30 04.01.2022
4483 Clear -11 1037 37 10000 3.9 16 16:33 04.01.2022
4484 Clear -12 1038 40 10000 3.6 350 15:20 04.01.2022
4485 Clear -11 1039 31 10000 2.06 0 14:37 04.01.2022
4486 Clear -17 1037 65 10000 4.24 19 13:56 04.01.2022
4487 Clear -13 1039 40 10000 4.63 50 12:22 04.01.2022
4488 Clear -14 1040 43 10000 4.63 50 10:23 04.01.2022
4489 Clear -19 1039 62 10000 2.84 22 08:57 04.01.2022
4490 Clear -19 1041 50 10000 1.54 340 06:28 04.01.2022
4491 Clear -23 1042 64 10000 0 0 00:43 04.01.2022
4492 Clear -20 1040 64 10000 2.03 34 23:56 03.01.2022
4493 Clear -21 1042 71 10000 2.57 100 22:22 03.01.2022
4494 Clear -22 1042 64 10000 3.09 110 21:40 03.01.2022
4495 Clear -26 1042 76 10000 1.54 310 20:41 03.01.2022
4496 Clear -26 1042 76 10000 0 0 19:38 03.01.2022
4497 Clear -26 1042 76 10000 0 0 18:31 03.01.2022
4498 Clear -26 1043 84 10000 1.54 130 17:23 03.01.2022
4499 Clear -22 1041 75 10000 1.84 27 16:53 03.01.2022
4500 Clear -27 1044 69 10000 0 0 14:32 03.01.2022
4501 Clear -25 1043 75 10000 1.28 338 12:53 03.01.2022
4502 Clear -27 1044 76 10000 0 0 12:22 03.01.2022
4503 Clear -24 1044 70 10000 0 0 11:22 03.01.2022
4504 Clear -27 1045 76 10000 1.54 360 09:29 03.01.2022
4505 Clear -26 1044 89 10000 1.52 13 07:55 03.01.2022
4506 Clear -25 1045 77 10000 0 0 04:23 03.01.2022
4507 Clear -24 1046 64 10000 0 0 23:32 02.01.2022
4508 Clouds -25 1044 95 10000 1.01 360 22:56 02.01.2022
4509 Clear -26 1045 76 10000 0 0 22:20 02.01.2022
4510 Clear -24 1045 70 10000 0 0 20:52 02.01.2022
4511 Clear -24 1045 70 10000 0 0 20:30 02.01.2022
4512 Clear -25 1044 70 10000 2.57 30 19:32 02.01.2022
4513 Clouds -25 1044 96 10000 0.7 19 18:56 02.01.2022
4514 Clear -26 1045 76 10000 0 0 18:23 02.01.2022
4515 Clear -26 1045 70 10000 0 0 17:42 02.01.2022
4516 Clear -26 1045 70 10000 0 0 17:21 02.01.2022
4517 Clear -24 1044 70 10000 1.54 350 16:28 02.01.2022
4518 Clear -24 1044 70 10000 0 0 15:18 02.01.2022
4519 Clear -25 1044 77 10000 2.57 40 13:38 02.01.2022
4520 Clear -25 1044 77 10000 1.54 270 12:32 02.01.2022
4521 Clouds -24 1043 77 10000 1.44 89 11:55 02.01.2022
4522 Clear -24 1042 70 10000 1.54 260 10:55 02.01.2022
4523 Clouds -25 1043 79 10000 1.25 357 09:58 02.01.2022
4524 Clear -23 1041 70 10000 1.54 350 07:35 02.01.2022
4525 Clear -27 1039 80 10000 2.51 22 02:56 02.01.2022
4526 Clear -19 1036 66 10000 1.54 90 23:50 01.01.2022
4527 Clear -19 1036 66 10000 1.54 90 23:27 01.01.2022
4528 Clear -19 1035 66 10000 5.14 360 22:25 01.01.2022
4529 Clear -23 1035 80 10000 3.31 356 21:54 01.01.2022
4530 Clear -23 1034 70 10000 0 0 21:36 01.01.2022
4531 Clear -21 1033 65 10000 1.54 30 20:27 01.01.2022
4532 Clear -19 1033 65 10000 4.63 340 19:36 01.01.2022
4533 Clear -18 1031 60 10000 6.69 340 18:52 01.01.2022
4534 Clear -18 1031 65 10000 6.69 10 17:41 01.01.2022
4535 Clear -16 1030 55 10000 2.06 0 16:35 01.01.2022
4536 Clear -18 1029 60 10000 3.09 260 15:42 01.01.2022
4537 Clear -17 1029 55 10000 4.63 290 14:39 01.01.2022
4538 Clear -18 1027 55 10000 5.14 320 13:42 01.01.2022
4539 Clear -21 1026 60 10000 0 0 12:25 01.01.2022
4540 Clear -19 1025 56 10000 6.69 330 11:26 01.01.2022
4541 Clear -25 1026 79 10000 2.94 341 10:58 01.01.2022
4542 Clear -19 1023 56 10000 5.66 340 09:48 01.01.2022
4543 Clear -22 1023 65 10000 1.54 0 08:39 01.01.2022
4544 Clear -28 1023 78 10000 2.74 345 07:57 01.01.2022
4545 Clear -22 1022 65 10000 1.54 0 07:38 01.01.2022
4546 Clear -21 1021 60 10000 4.12 350 06:44 01.01.2022
4547 Clear -22 1020 60 10000 0 0 04:40 01.01.2022
4548 Clear -22 1019 64 10000 2.06 290 03:52 01.01.2022
4549 Clear -21 1018 65 10000 6.17 330 00:23 01.01.2022
4550 Clear -20 1016 59 10000 2.06 340 22:30 31.12.2021
4551 Clear -19 1016 60 10000 4.12 320 21:47 31.12.2021
4552 Haze -19 1014 60 9656 12.86 30 19:48 31.12.2021
4553 Haze -19 1014 60 9656 12.86 30 19:28 31.12.2021
4554 Clear -21 1013 65 10000 9.77 30 18:18 31.12.2021
4555 Clear -20 1013 59 10000 0 0 17:28 31.12.2021
4556 Clear -20 1012 54 10000 7.2 10 16:52 31.12.2021
4557 Clear -20 1012 54 10000 7.2 10 16:18 31.12.2021
4558 Clear -19 1013 55 10000 10.8 360 15:50 31.12.2021
4559 Clear -19 1013 55 10000 10.8 360 15:27 31.12.2021
4560 Clear -18 1013 50 10000 12.35 40 14:41 31.12.2021
4561 Clear -27 1013 92 10000 3.71 17 13:55 31.12.2021
4562 Clouds -27 1013 94 10000 3.5 20 12:54 31.12.2021
4563 Clear -18 1012 55 10000 7.2 10 12:26 31.12.2021
4564 Clear -18 1011 60 10000 9.26 10 11:42 31.12.2021
4565 Clouds -26 1012 92 10000 3.7 17 10:56 31.12.2021
4566 Clear -17 1012 51 10000 3.09 360 10:28 31.12.2021
4567 Clear -20 1012 59 10000 0 0 09:35 31.12.2021
4568 Clear -21 1013 65 10000 3.09 10 08:54 31.12.2021
4569 Clear -21 1013 65 10000 3.09 10 08:23 31.12.2021
4570 Clear -22 1014 71 10000 2.06 350 06:24 31.12.2021
4571 Clear -21 1020 65 10000 0 0 23:19 30.12.2021
4572 Clear -21 1020 65 10000 0 0 22:32 30.12.2021
4573 Clear -20 1020 59 10000 3.09 360 21:40 30.12.2021
4574 Clear -20 1020 59 10000 3.09 360 21:20 30.12.2021
4575 Clear -22 1021 71 10000 0 0 20:43 30.12.2021
4576 Clear -22 1021 71 10000 0 0 20:23 30.12.2021
4577 Clear -24 1022 77 10000 0 0 19:36 30.12.2021
4578 Clear -24 1023 77 10000 0 0 18:29 30.12.2021
4579 Clear -24 1023 77 10000 0 0 17:38 30.12.2021
4580 Clear -24 1023 71 10000 0 0 15:55 30.12.2021
4581 Clear -24 1023 71 10000 0 0 15:36 30.12.2021
4582 Clear -24 1023 71 10000 0 0 14:37 30.12.2021
4583 Clear -23 1024 70 10000 0 0 13:32 30.12.2021
4584 Clouds -28 1025 82 10000 2.17 26 11:59 30.12.2021
4585 Clear -23 1023 71 10000 2.57 40 10:44 30.12.2021
4586 Clouds -27 1024 82 10000 1.39 21 09:54 30.12.2021
4587 Clear -22 1021 77 10000 1.54 60 07:42 30.12.2021
4588 Clear -22 1021 71 10000 2.06 120 06:38 30.12.2021
4589 Clouds -30 1022 97 10000 1.75 2 03:41 30.12.2021
4590 Clouds -20 1020 71 10000 11.32 280 02:38 30.12.2021
4591 Clouds -20 1020 71 10000 8.23 300 23:41 29.12.2021
4592 Clouds -20 1020 77 10000 7.2 300 22:59 29.12.2021
4593 Clouds -20 1020 77 10000 7.2 300 22:18 29.12.2021
4594 Clouds -19 1018 78 10000 9.77 290 21:27 29.12.2021
4595 Clouds -18 1018 71 10000 9.26 290 20:34 29.12.2021
4596 Clouds -18 1017 78 10000 7.72 300 19:44 29.12.2021
4597 Clouds -18 1016 78 10000 6.69 290 18:47 29.12.2021
4598 Clouds -22 1015 98 10000 4.98 279 17:54 29.12.2021
4599 Haze -17 1015 78 8047 6.69 300 17:27 29.12.2021
4600 Clouds -17 1013 78 10000 14.92 270 16:24 29.12.2021
4601 Haze -17 1012 85 9656 12.86 270 15:45 29.12.2021
4602 Clouds -16 1010 78 4023 14.92 280 14:19 29.12.2021
4603 Clouds -11 1005 73 10000 13.38 270 12:37 29.12.2021
4604 Snow -11 1004 79 8047 13.38 260 11:35 29.12.2021
4605 Snow -9 1001 80 10000 8.75 270 09:58 29.12.2021
4606 Snow -10 997 85 402 16.98 250 07:52 29.12.2021
4607 Snow -7 992 86 402 22.64 240 06:39 29.12.2021
4608 Fog -6 991 86 402 21.61 230 06:18 29.12.2021
4609 Snow -3 991 68 6437 22.12 240 05:36 29.12.2021
4610 Rain 1 989 86 8047 11.83 220 02:46 29.12.2021
4611 Rain 1 990 87 3219 9.26 110 00:23 29.12.2021
4612 Rain 0 992 93 3219 11.32 110 23:34 28.12.2021
4613 Snow 0 993 93 3219 12.86 110 22:42 28.12.2021
4614 Snow -1 994 93 3219 11.83 100 22:24 28.12.2021
4615 Snow -2 995 93 1609 13.38 90 21:37 28.12.2021
4616 Snow -3 1000 93 1207 11.32 80 20:40 28.12.2021
4617 Snow -4 1002 93 1207 11.83 80 19:25 28.12.2021
4618 Snow -4 1004 93 805 10.8 80 18:39 28.12.2021
4619 Snow -4 1005 93 2012 9.77 80 17:59 28.12.2021
4620 Snow -4 1008 86 10000 5.66 70 16:34 28.12.2021
4621 Snow -4 1008 86 10000 5.66 70 16:34 28.12.2021
4622 Clouds -4 1009 86 10000 5.14 70 15:50 28.12.2021
4623 Clouds -4 1009 86 10000 6.17 70 15:21 28.12.2021
4624 Clouds -5 1010 86 10000 6.69 70 14:48 28.12.2021
4625 Clouds -5 1011 86 10000 5.66 70 14:21 28.12.2021
4626 Clouds -6 1011 93 10000 4.63 70 13:42 28.12.2021
4627 Snow -6 1011 93 10000 4.63 70 13:24 28.12.2021
4628 Snow -6 1012 93 10000 3.6 80 12:49 28.12.2021
4629 Clouds -6 1011 93 10000 4.12 80 11:46 28.12.2021
4630 Snow -6 1008 86 10000 6.17 70 08:35 28.12.2021
4631 Snow -6 1008 86 3219 6.69 80 06:58 28.12.2021
4632 Snow -7 1013 68 3219 5.14 80 00:34 28.12.2021
4633 Snow -7 1014 54 10000 3.6 70 23:24 27.12.2021
4634 Clouds -9 1016 63 10000 5.14 40 21:42 27.12.2021
4635 Clouds -9 1016 63 10000 5.14 40 21:24 27.12.2021
4636 Clouds -11 1016 67 10000 5.14 60 20:24 27.12.2021
4637 Clouds -12 1018 68 10000 5.14 100 19:42 27.12.2021
4638 Clouds -13 1018 72 10000 4.63 70 18:52 27.12.2021
4639 Clear -12 1018 67 10000 2.57 70 17:49 27.12.2021
4640 Clouds -17 1017 85 10000 3.13 55 16:57 27.12.2021
4641 Clouds -18 1018 88 10000 3.32 47 15:53 27.12.2021
4642 Clouds -11 1018 79 10000 0 0 14:34 27.12.2021
4643 Clouds -11 1017 79 10000 0 0 13:40 27.12.2021
4644 Clouds -11 1016 85 10000 0 0 12:47 27.12.2021
4645 Clouds -10 1014 62 10000 2.57 290 10:32 27.12.2021
4646 Clouds -18 1014 88 10000 2.43 356 09:57 27.12.2021
4647 Clouds -18 1012 88 10000 3.02 13 08:39 27.12.2021
4648 Clouds -21 1012 93 10000 3.16 347 07:32 27.12.2021
4649 Clouds -4 997 74 10000 9.26 290 02:24 27.12.2021
4650 Clouds -8 995 94 10000 3 278 23:58 26.12.2021
4651 Clouds -8 995 94 10000 3 278 23:58 26.12.2021
4652 Clouds -5 994 86 10000 6.69 250 23:40 26.12.2021
4653 Clouds -3 993 86 10000 6.69 240 22:36 26.12.2021
4654 Snow -2 992 93 10000 5.66 240 21:29 26.12.2021
4655 Rain 1 992 93 4023 5.14 230 19:49 26.12.2021
4656 Rain 1 992 93 8047 4.63 220 18:25 26.12.2021
4657 Rain 1 993 93 3219 5.14 210 17:30 26.12.2021
4658 Rain 1 993 93 2816 6.17 210 14:32 26.12.2021
4659 Mist 1 993 93 2012 6.69 210 13:43 26.12.2021
4660 Mist 1 993 93 3219 7.2 210 13:20 26.12.2021
4661 Mist 1 993 93 4023 5.66 180 12:33 26.12.2021
4662 Rain 0 997 93 4828 8.23 100 10:48 26.12.2021
4663 Mist 0 998 93 4023 5.14 80 09:29 26.12.2021
4664 Mist 0 999 93 4828 5.66 100 08:44 26.12.2021
4665 Mist 0 1002 93 1207 5.14 110 07:59 26.12.2021
4666 Fog 0 1006 93 805 2.06 200 01:36 26.12.2021
4667 Snow 0 1005 93 1207 2.06 180 23:58 25.12.2021
4668 Snow 0 1005 93 1207 2.06 180 23:28 25.12.2021
4669 Snow 0 1005 93 2012 2.06 140 22:29 25.12.2021
4670 Snow 0 1005 93 3219 1.54 130 21:25 25.12.2021
4671 Snow -1 1004 93 3219 5.66 80 19:28 25.12.2021
4672 Snow -1 1005 93 3219 6.17 80 18:57 25.12.2021
4673 Snow -1 1004 93 3219 7.72 80 18:25 25.12.2021
4674 Mist -1 1005 93 4828 8.23 80 16:46 25.12.2021
4675 Mist -1 1006 86 4023 7.2 80 15:26 25.12.2021
4676 Mist -2 1007 86 3219 6.17 80 13:47 25.12.2021
4677 Mist -3 1007 93 6437 6.69 70 12:19 25.12.2021
4678 Mist -3 1008 93 4828 7.2 70 10:36 25.12.2021
4679 Mist -3 1008 86 4023 8.23 80 09:48 25.12.2021
4680 Mist -4 1009 81 6437 8.23 80 07:21 25.12.2021
4681 Snow -8 1015 79 1207 9.77 80 01:34 25.12.2021
4682 Snow -10 1016 85 805 10.29 80 00:18 25.12.2021
4683 Snow -12 1021 85 1609 7.72 80 21:51 24.12.2021
4684 Clouds -13 1024 66 10000 8.23 90 19:27 24.12.2021
4685 Clouds -13 1024 61 10000 7.72 80 18:41 24.12.2021
4686 Clouds -14 1027 72 10000 6.69 80 16:44 24.12.2021
4687 Clouds -14 1028 72 10000 7.2 90 15:50 24.12.2021
4688 Clouds -14 1028 73 10000 7.2 90 15:20 24.12.2021
4689 Clouds -15 1029 78 10000 7.72 80 14:34 24.12.2021
4690 Clouds -14 1029 86 10000 3.89 80 13:54 24.12.2021
4691 Clouds -15 1030 78 10000 6.69 70 13:32 24.12.2021
4692 Clouds -15 1030 73 10000 7.2 80 12:40 24.12.2021
4693 Clouds -16 1031 73 10000 5.14 70 11:43 24.12.2021
4694 Clouds -16 1031 73 10000 5.14 70 11:24 24.12.2021
4695 Clouds -16 1030 73 10000 5.66 90 10:35 24.12.2021
4696 Clouds -19 1030 86 10000 2.36 79 08:58 24.12.2021
4697 Clouds -20 1031 85 10000 2.38 68 07:58 24.12.2021
4698 Clear -19 1030 72 10000 0 0 07:31 24.12.2021
4699 Clear -22 1027 84 10000 0 0 00:47 24.12.2021
4700 Clear -22 1026 77 10000 0 0 23:50 23.12.2021
4701 Clear -24 1025 82 10000 2.2 1 22:53 23.12.2021
4702 Clear -23 1024 77 10000 0 0 22:24 23.12.2021
4703 Clear -23 1023 77 10000 0 0 21:47 23.12.2021
4704 Clear -21 1021 77 10000 0 0 20:31 23.12.2021
4705 Clear -21 1021 77 10000 0 0 20:31 23.12.2021
4706 Clear -19 1021 72 10000 3.09 330 19:30 23.12.2021
4707 Clear -21 1020 84 10000 0 0 18:27 23.12.2021
4708 Clear -20 1018 77 10000 0 0 17:46 23.12.2021
4709 Clear -18 1017 78 10000 0 0 16:27 23.12.2021
4710 Clouds -22 1018 85 10000 2.32 6 15:54 23.12.2021
4711 Clear -20 1016 77 10000 0 0 15:30 23.12.2021
4712 Clear -18 1015 72 10000 2.57 100 14:42 23.12.2021
4713 Clear -18 1014 85 10000 0 0 13:49 23.12.2021
4714 Clouds -19 1014 86 10000 2.41 13 11:59 23.12.2021
4715 Clouds -13 1009 72 10000 4.12 290 10:36 23.12.2021
4716 Clear -14 1007 78 10000 4.12 290 09:34 23.12.2021
4717 Clear -12 1006 85 10000 2.57 310 08:41 23.12.2021
4718 Clouds -11 1003 85 10000 4.12 270 06:20 23.12.2021
4719 Snow -8 1000 86 2012 4.63 70 03:22 23.12.2021
4720 Snow -9 1004 80 805 11.83 60 22:54 22.12.2021
4721 Snow -10 1004 79 1207 11.32 70 22:22 22.12.2021
4722 Snow -11 1006 85 1609 10.29 70 21:48 22.12.2021
4723 Snow -11 1006 85 1609 10.29 70 21:25 22.12.2021
4724 Snow -9 1009 57 6437 9.26 80 20:41 22.12.2021
4725 Snow -13 1010 85 10000 4.36 68 19:57 22.12.2021
4726 Snow -11 1012 67 1855 3.97 55 18:57 22.12.2021
4727 Snow -11 1017 58 10000 4.12 50 17:39 22.12.2021
4728 Snow -12 1019 67 10000 4.12 50 16:34 22.12.2021
4729 Clouds -12 1021 61 10000 4.12 60 15:24 22.12.2021
4730 Clouds -13 1023 70 10000 3.02 53 12:59 22.12.2021
4731 Clouds -12 1024 57 10000 3.09 80 12:19 22.12.2021
4732 Clouds -13 1027 67 10000 2.47 54 09:53 22.12.2021
4733 Clear -12 1027 57 10000 7.2 40 09:31 22.12.2021
4734 Clear -12 1027 61 10000 3.09 60 07:22 22.12.2021
4735 Clear -13 1028 72 10000 5.66 90 05:40 22.12.2021
4736 Clear -13 1028 72 10000 5.66 90 05:21 22.12.2021
4737 Clear -12 1028 61 10000 2.57 300 04:43 22.12.2021
4738 Clear -12 1028 61 10000 2.57 300 04:19 22.12.2021
4739 Clear -12 1028 61 10000 3.09 260 03:32 22.12.2021
4740 Clouds -18 1029 100 7103 1.59 326 23:58 21.12.2021
4741 Clouds -9 1028 79 10000 4.12 290 22:49 21.12.2021
4742 Clouds -9 1028 79 10000 4.12 290 22:27 21.12.2021
4743 Clouds -18 1029 100 1987 1.55 302 21:43 21.12.2021
4744 Clouds -18 1029 100 1290 1.67 299 20:53 21.12.2021
4745 Clouds -18 1028 100 1749 1.53 271 20:20 21.12.2021
4746 Clouds -18 1028 100 1749 1.53 271 19:41 21.12.2021
4747 Clouds -19 1028 100 525 0.53 306 18:38 21.12.2021
4748 Clouds -21 1028 100 7636 1.18 332 18:00 21.12.2021
4749 Clouds -21 1028 100 7636 1.18 332 17:40 21.12.2021
4750 Clouds -21 1028 99 10000 1.85 312 15:47 21.12.2021
4751 Clouds -22 1028 99 10000 2.33 311 15:19 21.12.2021
4752 Clouds -22 1028 100 10000 2.27 301 13:47 21.12.2021
4753 Clouds -21 1027 100 10000 2.39 290 13:29 21.12.2021
4754 Clouds -12 1026 79 10000 0 0 10:55 21.12.2021
4755 Clear -22 1026 95 10000 1.76 281 09:59 21.12.2021
4756 Clear -12 1024 72 10000 5.14 260 09:18 21.12.2021
4757 Clear -21 1023 91 10000 1.65 302 07:54 21.12.2021
4758 Clear -11 1022 79 10000 3.6 270 07:25 21.12.2021
4759 Clouds -18 1020 95 10000 3.08 293 04:56 21.12.2021
4760 Clouds -8 1016 79 10000 7.72 290 02:39 21.12.2021
4761 Clouds -13 1015 89 10000 3.53 270 23:58 20.12.2021
4762 Clouds -6 1013 79 10000 6.17 290 23:24 20.12.2021
4763 Clouds -4 1013 86 10000 5.14 280 22:28 20.12.2021
4764 Clouds -2 1012 74 10000 1.54 250 21:43 20.12.2021
4765 Clouds -2 1012 74 10000 1.54 250 21:23 20.12.2021
4766 Clouds -2 1012 80 10000 3.09 310 20:42 20.12.2021
4767 Snow -2 1011 86 10000 5.14 270 19:48 20.12.2021
4768 Snow -2 1011 86 10000 5.14 270 19:29 20.12.2021
4769 Snow -2 1011 93 6437 7.72 290 18:49 20.12.2021
4770 Snow -1 1010 93 10000 5.66 280 17:52 20.12.2021
4771 Snow 0 1010 93 10000 5.66 260 16:56 20.12.2021
4772 Rain 1 1009 86 10000 7.72 220 16:36 20.12.2021
4773 Mist 1 1009 86 9656 7.2 210 15:47 20.12.2021
4774 Rain 1 1008 86 10000 7.72 210 14:41 20.12.2021
4775 Snow 1 1007 86 8047 8.75 220 12:51 20.12.2021
4776 Clouds 1 1006 86 10000 11.32 220 11:18 20.12.2021
4777 Clouds 1 1004 86 10000 10.8 210 09:47 20.12.2021
4778 Clouds 1 1004 86 10000 11.32 210 08:57 20.12.2021
4779 Clouds 1 1003 86 10000 11.83 220 08:38 20.12.2021
4780 Clouds 1 1002 93 10000 11.32 220 07:49 20.12.2021
4781 Mist 1 1001 93 9656 11.32 210 06:47 20.12.2021
4782 Rain 2 1000 87 10000 11.83 190 03:41 20.12.2021
4783 Rain 1 1003 100 3219 10.29 170 23:51 19.12.2021
4784 Snow 1 1004 100 4828 8.75 170 22:45 19.12.2021
4785 Mist 1 1005 100 4023 7.72 170 21:49 19.12.2021
4786 Mist 1 1005 100 4023 7.72 170 21:26 19.12.2021
4787 Rain 1 1004 100 6437 8.23 190 20:30 19.12.2021
4788 Rain 1 1004 100 8047 8.75 200 19:46 19.12.2021
4789 Rain 1 1004 100 6437 8.23 190 18:57 19.12.2021
4790 Mist 1 1005 100 2414 7.2 200 18:24 19.12.2021
4791 Mist 1 1004 100 4828 8.23 200 17:46 19.12.2021
4792 Mist 1 1004 100 4023 9.26 200 16:55 19.12.2021
4793 Mist 1 1004 100 4023 9.26 200 16:24 19.12.2021
4794 Snow 1 1004 93 2816 7.72 190 15:26 19.12.2021
4795 Rain 1 1004 93 8047 6.17 160 14:50 19.12.2021
4796 Snow 1 1004 87 4828 6.17 150 13:46 19.12.2021
4797 Mist 1 1005 87 2414 6.69 140 13:21 19.12.2021
4798 Snow -1 1005 93 2012 6.69 110 12:33 19.12.2021
4799 Snow -1 1005 93 2012 6.69 110 12:33 19.12.2021
4800 Snow -1 1006 93 1609 7.72 100 11:40 19.12.2021
4801 Snow -2 1006 93 1207 9.77 90 10:53 19.12.2021
4802 Snow -2 1006 93 2012 8.75 90 10:23 19.12.2021
4803 Mist -2 1006 93 2012 8.75 90 10:23 19.12.2021
4804 Snow -4 1007 86 2012 10.29 90 09:26 19.12.2021
4805 Snow -6 1009 86 1609 10.8 80 07:47 19.12.2021
4806 Snow -8 1013 93 4023 5.66 80 04:44 19.12.2021
4807 Mist -9 1014 86 9656 2.57 150 00:55 19.12.2021
4808 Fog -8 1014 93 805 2.57 210 23:52 18.12.2021
4809 Clouds -8 1013 93 10000 2.57 220 22:31 18.12.2021
4810 Clouds -7 1012 86 10000 4.63 230 21:54 18.12.2021
4811 Clouds -7 1012 86 10000 4.63 230 21:34 18.12.2021
4812 Clouds -6 1010 93 10000 0 0 20:44 18.12.2021
4813 Clouds -16 1011 100 2349 0.25 246 19:51 18.12.2021
4814 Clouds -16 1011 100 6245 1.07 304 19:19 18.12.2021
4815 Mist -5 1009 93 8047 1.54 210 18:19 18.12.2021
4816 Mist -5 1007 93 8047 0 0 17:47 18.12.2021
4817 Clouds -5 1006 93 10000 3.09 250 16:25 18.12.2021
4818 Mist -5 1005 93 2414 4.12 250 15:26 18.12.2021
4819 Mist -4 1004 86 9656 4.63 250 14:32 18.12.2021
4820 Mist -3 1002 93 8047 0 0 13:18 18.12.2021
4821 Fog -3 1001 100 805 0 0 11:21 18.12.2021
4822 Clouds -3 998 93 10000 2.57 140 09:37 18.12.2021
4823 Clouds -3 997 93 10000 0 0 08:43 18.12.2021
4824 Clouds -3 997 93 10000 0 0 08:19 18.12.2021
4825 Snow -1 992 93 1207 4.63 150 02:20 18.12.2021
4826 Snow -3 993 93 1207 8.75 90 00:27 18.12.2021
4827 Snow -3 994 93 1207 10.29 90 23:37 17.12.2021
4828 Snow -3 996 86 2012 8.75 80 21:56 17.12.2021
4829 Snow -3 998 86 2414 6.17 80 20:51 17.12.2021
4830 Mist -3 998 86 3219 6.69 90 20:31 17.12.2021
4831 Snow -4 1000 93 2012 4.63 110 19:18 17.12.2021
4832 Clouds -4 1001 86 10000 4.63 120 18:38 17.12.2021
4833 Mist -5 1001 93 8047 3.09 90 17:26 17.12.2021
4834 Mist -5 1002 86 4828 1.54 80 16:44 17.12.2021
4835 Mist -5 1002 93 4023 0 0 16:21 17.12.2021
4836 Snow -6 1002 93 10000 3.09 220 15:20 17.12.2021
4837 Mist -5 1002 93 8047 5.14 210 14:38 17.12.2021
4838 Mist -4 1001 100 2816 4.63 220 12:46 17.12.2021
4839 Snow -2 1000 86 4828 5.66 180 11:27 17.12.2021
4840 Mist -2 999 86 8047 5.66 200 09:59 17.12.2021
4841 Snow -6 1001 96 96 2.77 205 08:58 17.12.2021
4842 Snow -2 998 93 10000 6.17 200 08:29 17.12.2021
4843 Snow -6 997 93 1609 7.2 80 05:41 17.12.2021
4844 Snow -7 997 86 2414 8.75 80 02:53 17.12.2021
4845 Snow -8 997 86 402 11.83 90 23:23 16.12.2021
4846 Snow -8 997 80 2012 11.32 80 22:24 16.12.2021
4847 Snow -8 997 80 2012 11.32 80 22:24 16.12.2021
4848 Snow -8 997 80 2012 11.32 80 22:24 16.12.2021
4849 Snow -9 998 86 1609 10.29 90 21:50 16.12.2021
4850 Snow -9 998 86 1609 10.29 90 21:25 16.12.2021
4851 Snow -9 997 86 1609 9.77 80 20:28 16.12.2021
4852 Snow -9 997 86 1609 9.77 80 19:42 16.12.2021
4853 Snow -9 998 80 1609 8.75 80 18:38 16.12.2021
4854 Snow -9 998 80 1609 8.23 80 17:55 16.12.2021
4855 Snow -9 998 80 1609 8.23 80 17:28 16.12.2021
4856 Snow -10 998 85 3219 8.75 70 16:21 16.12.2021
4857 Snow -11 998 85 2414 8.75 80 14:50 16.12.2021
4858 Snow -11 998 85 3219 9.26 80 12:57 16.12.2021
4859 Snow -12 998 85 1207 10.29 90 11:20 16.12.2021
4860 Snow -12 998 85 1207 12.35 90 10:48 16.12.2021
4861 Snow -12 998 85 1207 12.35 90 10:20 16.12.2021
4862 Snow -13 999 85 1207 13.89 90 07:31 16.12.2021
4863 Snow -12 999 85 805 14.4 90 06:19 16.12.2021
4864 Snow -12 1003 85 402 14.92 100 00:54 16.12.2021
4865 Snow -12 1004 85 805 14.4 100 23:22 15.12.2021
4866 Snow -12 1005 79 1207 15.95 90 22:41 15.12.2021
4867 Snow -12 1005 73 1609 18.01 90 21:52 15.12.2021
4868 Snow -12 1005 72 2414 14.92 90 21:26 15.12.2021
4869 Snow -13 1006 78 3219 15.95 90 20:18 15.12.2021
4870 Snow -13 1007 72 4828 14.92 90 19:45 15.12.2021
4871 Clouds -13 1008 72 6437 13.38 100 18:37 15.12.2021
4872 Haze -13 1009 66 6437 13.89 90 17:51 15.12.2021
4873 Haze -13 1009 66 6437 13.89 90 17:51 15.12.2021
4874 Haze -13 1009 66 6437 13.89 90 17:32 15.12.2021
4875 Clouds -14 1010 61 10000 10.29 90 16:27 15.12.2021
4876 Clouds -15 1011 66 10000 9.77 80 15:46 15.12.2021
4877 Clouds -15 1011 66 10000 9.77 80 15:27 15.12.2021
4878 Snow -15 1012 72 8047 8.23 80 14:18 15.12.2021
4879 Snow -15 1015 61 10000 10.29 90 12:32 15.12.2021
4880 Clouds -15 1015 56 10000 9.26 90 10:25 15.12.2021
4881 Clouds -15 1016 63 10000 4.46 74 08:55 15.12.2021
4882 Clouds -18 1018 74 10000 3.4 77 06:54 15.12.2021
4883 Clear -20 1020 60 10000 3.6 40 01:20 15.12.2021
4884 Clear -26 1020 70 10000 0 0 23:42 14.12.2021
4885 Clear -26 1020 70 10000 0 0 22:48 14.12.2021
4886 Clear -26 1020 70 10000 0 0 22:18 14.12.2021
4887 Clear -25 1020 70 10000 0 0 20:28 14.12.2021
4888 Clear -27 1020 69 10000 2.06 20 19:40 14.12.2021
4889 Clouds -25 1021 77 10000 1.93 36 18:53 14.12.2021
4890 Clear -23 1020 60 10000 0 0 18:22 14.12.2021
4891 Clear -27 1020 69 10000 1.54 20 17:28 14.12.2021
4892 Clear -27 1020 76 10000 0 0 16:38 14.12.2021
4893 Clear -27 1019 69 10000 0 0 15:26 14.12.2021
4894 Clear -27 1018 69 10000 2.57 20 13:31 14.12.2021
4895 Clear -27 1018 69 10000 2.57 20 13:31 14.12.2021
4896 Clouds -25 1018 75 10000 2.08 31 11:58 14.12.2021
4897 Clear -25 1017 70 10000 2.06 10 11:23 14.12.2021
4898 Clouds -27 1017 76 10000 2.63 16 09:57 14.12.2021
4899 Clear -23 1017 65 10000 0 0 09:35 14.12.2021
4900 Clear -23 1016 65 10000 2.57 10 08:25 14.12.2021
4901 Clear -23 1017 64 10000 3.09 360 07:43 14.12.2021
4902 Clear -19 1017 51 10000 5.14 30 02:27 14.12.2021
4903 Clouds -26 1019 90 10000 2.62 32 22:55 13.12.2021
4904 Clear -21 1020 54 10000 3.6 50 21:52 13.12.2021
4905 Clear -21 1020 54 10000 3.6 50 21:18 13.12.2021
4906 Clear -22 1021 59 10000 4.12 50 20:38 13.12.2021
4907 Clear -22 1021 59 10000 3.6 30 19:52 13.12.2021
4908 Clouds -26 1022 90 10000 3.31 44 17:56 13.12.2021
4909 Clear -22 1025 59 10000 4.12 80 17:26 13.12.2021
4910 Clear -22 1026 59 10000 5.14 40 15:51 13.12.2021
4911 Clear -22 1026 59 10000 5.14 40 15:25 13.12.2021
4912 Clear -22 1028 49 10000 5.14 60 13:39 13.12.2021
4913 Clear -24 1030 53 10000 2.57 20 12:46 13.12.2021
4914 Clear -24 1030 53 10000 2.57 20 12:46 13.12.2021
4915 Clouds -29 1030 91 10000 1.72 59 11:56 13.12.2021
4916 Clear -27 1030 63 10000 0 0 11:35 13.12.2021
4917 Clear -27 1031 64 10000 1.54 40 10:44 13.12.2021
4918 Clear -27 1032 64 10000 0 0 09:29 13.12.2021
4919 Clear -27 1032 69 10000 2.06 350 07:48 13.12.2021
4920 Clear -25 1033 65 10000 1.54 0 05:35 13.12.2021
4921 Clear -27 1033 69 10000 2.57 350 03:26 13.12.2021
4922 Clear -23 1034 59 10000 5.66 350 22:23 12.12.2021
4923 Clear -22 1034 59 10000 6.69 350 21:40 12.12.2021
4924 Clear -28 1033 75 10000 2.63 347 19:57 12.12.2021
4925 Clear -23 1033 59 10000 4.63 310 18:36 12.12.2021
4926 Clear -23 1033 59 10000 4.63 310 18:36 12.12.2021
4927 Clear -22 1032 59 10000 4.12 340 17:31 12.12.2021
4928 Clear -31 1032 95 10000 2.53 334 16:27 12.12.2021
4929 Clear -22 1031 59 10000 1.54 0 15:45 12.12.2021
4930 Clear -22 1031 59 10000 1.54 0 15:25 12.12.2021
4931 Clear -23 1030 64 10000 0 0 14:34 12.12.2021
4932 Clear -22 1029 59 10000 5.66 310 13:26 12.12.2021
4933 Clear -22 1029 59 10000 4.63 320 12:30 12.12.2021
4934 Clear -22 1028 59 10000 5.66 290 11:44 12.12.2021
4935 Clear -22 1028 59 10000 5.66 290 11:20 12.12.2021
4936 Clear -23 1028 64 10000 5.14 340 10:22 12.12.2021
4937 Clear -32 1029 98 10000 2.69 338 09:38 12.12.2021
4938 Clouds -32 1027 99 10000 2.77 333 07:57 12.12.2021
4939 Clouds -32 1026 99 10000 2.7 332 05:57 12.12.2021
4940 Clouds -22 1022 71 10000 7.72 330 04:56 12.12.2021
4941 Clear -22 1022 64 10000 5.66 310 03:31 12.12.2021
4942 Clouds -22 1019 71 10000 5.66 300 23:44 11.12.2021
4943 Clouds -22 1019 71 10000 7.72 300 22:22 11.12.2021
4944 Mist -22 1018 77 4828 7.2 300 21:52 11.12.2021
4945 Mist -22 1018 84 4828 8.75 290 20:51 11.12.2021
4946 Clouds -22 1016 77 10000 8.75 310 19:27 11.12.2021
4947 Clouds -21 1016 71 10000 4.63 300 18:52 11.12.2021
4948 Clouds -21 1016 71 10000 6.17 310 18:25 11.12.2021
4949 Clear -21 1016 71 10000 3.09 310 17:21 11.12.2021
4950 Clouds -28 1016 90 10000 3.33 319 15:55 11.12.2021
4951 Clear -21 1014 71 10000 7.2 280 15:28 11.12.2021
4952 Clouds -25 1014 85 10000 4.83 310 12:57 11.12.2021
4953 Clouds -21 1011 71 10000 6.17 310 11:26 11.12.2021
4954 Clear -22 1010 71 10000 6.17 290 09:46 11.12.2021
4955 Clear -21 1009 65 10000 4.63 300 08:28 11.12.2021
4956 Clouds -20 1005 65 10000 5.66 290 02:29 11.12.2021
4957 Clouds -29 1006 93 10000 3.36 320 00:36 11.12.2021
4958 Clear -18 1002 60 10000 5.14 320 23:23 10.12.2021
4959 Clouds -27 1002 93 10000 2.9 317 21:57 10.12.2021
4960 Clear -18 1000 65 10000 5.14 320 21:31 10.12.2021
4961 Clouds -26 999 91 10000 3.3 319 19:22 10.12.2021
4962 Clouds -26 998 95 10000 3.14 318 18:21 10.12.2021
4963 Haze -16 996 78 9656 9.26 360 16:56 10.12.2021
4964 Clouds -16 995 72 4023 13.89 360 16:29 10.12.2021
4965 Clear -16 994 72 6437 12.35 340 15:41 10.12.2021
4966 Clear -16 994 72 6437 12.35 340 15:21 10.12.2021
4967 Clouds -16 993 66 4828 9.77 340 13:52 10.12.2021
4968 Clouds -16 992 72 2816 13.38 360 13:26 10.12.2021
4969 Clear -16 992 66 10000 6.17 330 12:45 10.12.2021
4970 Clear -15 991 61 10000 4.12 360 11:30 10.12.2021
4971 Clear -17 991 71 10000 3.6 360 10:38 10.12.2021
4972 Clear -16 990 72 10000 8.75 350 09:19 10.12.2021
4973 Clouds -21 989 88 10000 4.1 350 06:59 10.12.2021
4974 Clouds -13 986 66 10000 6.69 360 02:50 10.12.2021
4975 Clouds -20 987 88 10000 4.5 4 00:55 10.12.2021
4976 Clouds -11 986 67 10000 5.14 350 23:37 09.12.2021
4977 Clouds -11 986 67 10000 6.17 360 22:40 09.12.2021
4978 Clouds -11 986 67 10000 6.17 360 22:19 09.12.2021
4979 Clouds -12 986 72 10000 5.14 350 21:20 09.12.2021
4980 Clouds -13 987 72 10000 2.57 360 20:29 09.12.2021
4981 Clouds -12 987 72 10000 3.6 40 19:22 09.12.2021
4982 Clouds -12 987 72 10000 5.14 20 18:50 09.12.2021
4983 Clouds -16 988 93 10000 3.03 30 17:57 09.12.2021
4984 Clouds -12 988 79 10000 3.6 40 17:27 09.12.2021
4985 Clouds -16 989 95 2190 3.07 39 16:57 09.12.2021
4986 Snow -12 988 79 9656 2.57 60 15:59 09.12.2021
4987 Snow -11 990 79 4828 4.12 70 14:51 09.12.2021
4988 Snow -15 991 88 341 2.15 61 13:50 09.12.2021
4989 Snow -12 991 85 4023 3.6 70 12:47 09.12.2021
4990 Snow -12 991 79 8047 4.12 80 11:25 09.12.2021
4991 Snow -12 992 73 9656 3.09 80 09:45 09.12.2021
4992 Clouds -17 992 78 10000 0 0 06:51 09.12.2021
4993 Clear -20 991 77 10000 3.09 20 03:49 09.12.2021
4994 Clear -14 992 67 10000 4.63 350 23:50 08.12.2021
4995 Clear -14 992 67 10000 4.63 350 23:31 08.12.2021
4996 Clouds -18 993 85 10000 3.27 29 22:53 08.12.2021
4997 Clear -14 992 67 10000 2.06 10 21:49 08.12.2021
4998 Clear -14 992 67 10000 2.06 10 21:30 08.12.2021
4999 Clear -16 992 78 10000 4.63 350 20:30 08.12.2021
5000 Clear -15 992 78 10000 4.12 340 19:39 08.12.2021
5001 Clear -14 992 73 10000 3.6 360 18:54 08.12.2021
5002 Clear -14 992 73 10000 3.6 360 18:21 08.12.2021
5003 Clouds -11 993 73 10000 4.63 20 16:44 08.12.2021
5004 Clouds -12 994 79 10000 3.6 30 15:40 08.12.2021
5005 Clouds -12 994 79 10000 3.6 30 15:21 08.12.2021
5006 Clouds -13 995 78 10000 3.09 20 13:21 08.12.2021
5007 Clouds -16 998 78 10000 2.57 10 10:42 08.12.2021
5008 Clouds -19 999 78 10000 3.09 40 09:32 08.12.2021
5009 Clear -22 1000 84 10000 0 0 07:37 08.12.2021
5010 Clear -19 1000 78 10000 0 0 05:22 08.12.2021
5011 Clouds -17 1000 71 10000 5.66 280 00:21 08.12.2021
5012 Clouds -16 1000 78 10000 5.66 280 22:48 07.12.2021
5013 Clouds -14 999 78 10000 7.72 280 21:24 07.12.2021
5014 Mist -13 998 78 10000 4.63 310 20:25 07.12.2021
5015 Clouds -23 999 97 10000 2.89 338 18:57 07.12.2021
5016 Clouds -23 998 98 10000 2.79 329 18:20 07.12.2021
5017 Clouds -22 997 98 10000 2.85 323 17:23 07.12.2021
5018 Clouds -22 997 98 10000 2.85 323 16:41 07.12.2021
5019 Clouds -22 995 98 10000 2.98 325 15:59 07.12.2021
5020 Clouds -10 992 73 10000 6.69 300 14:37 07.12.2021
5021 Clouds -9 991 67 10000 6.69 290 13:29 07.12.2021
5022 Clouds -10 991 79 10000 5.14 290 12:22 07.12.2021
5023 Clouds -8 988 79 10000 3.09 280 10:48 07.12.2021
5024 Clouds -8 988 79 10000 4.63 280 09:20 07.12.2021
5025 Clouds -18 989 100 6440 2.03 326 06:40 07.12.2021
5026 Snow -6 985 86 4828 3.09 290 05:50 07.12.2021
5027 Snow -5 983 86 4828 6.69 240 02:35 07.12.2021
5028 Snow -4 981 86 1207 8.23 230 23:21 06.12.2021
5029 Snow -4 981 86 1207 6.69 220 22:40 06.12.2021
5030 Snow -4 981 86 2414 7.72 220 21:59 06.12.2021
5031 Snow -3 980 86 1609 6.17 220 21:27 06.12.2021
5032 Snow -3 980 80 6437 6.69 220 20:32 06.12.2021
5033 Snow -3 980 80 6437 6.69 220 20:32 06.12.2021
5034 Snow -3 979 93 10000 6.69 220 19:24 06.12.2021
5035 Snow -3 978 86 10000 7.2 230 18:34 06.12.2021
5036 Snow -3 981 96 122 6.14 212 17:53 06.12.2021
5037 Snow -6 981 95 122 6.14 212 17:33 06.12.2021
5038 Snow -3 980 96 176 7.15 202 15:51 06.12.2021
5039 Snow -4 979 95 440 7.6 202 14:38 06.12.2021
5040 Snow -4 978 95 231 8.63 200 13:23 06.12.2021
5041 Snow -4 978 95 231 8.63 200 12:37 06.12.2021
5042 Snow -3 976 96 186 9.07 202 09:56 06.12.2021
5043 Clouds -2 974 97 7599 9.7 195 07:38 06.12.2021
5044 Snow -1 970 93 805 13.89 160 02:20 06.12.2021
5045 Snow -1 972 100 1207 11.32 170 22:25 05.12.2021
5046 Snow -1 972 93 4828 12.35 150 21:25 05.12.2021
5047 Snow -1 973 93 4023 12.86 150 20:43 05.12.2021
5048 Snow -2 973 93 1207 12.86 140 20:18 05.12.2021
5049 Mist -2 975 93 1609 14.4 130 19:23 05.12.2021
5050 Snow -2 977 93 1609 13.89 130 18:28 05.12.2021
5051 Mist -2 978 93 1609 14.4 120 17:49 05.12.2021
5052 Snow -3 979 93 1207 14.4 120 17:18 05.12.2021
5053 Fog -4 981 86 805 16.98 120 16:28 05.12.2021
5054 Snow -4 982 86 402 18.01 120 15:59 05.12.2021
5055 Snow -5 985 93 402 19.03 120 14:48 05.12.2021
5056 Snow -5 985 93 402 19.03 120 14:29 05.12.2021
5057 Snow -4 988 86 402 18.52 120 13:33 05.12.2021
5058 Snow -7 990 93 402 15.43 110 12:43 05.12.2021
5059 Snow -7 992 86 402 18.52 100 12:25 05.12.2021
5060 Snow -7 994 86 402 16.98 100 11:43 05.12.2021
5061 Snow -8 999 86 402 15.43 110 10:25 05.12.2021
5062 Mist -8 1002 80 2414 13.38 100 09:41 05.12.2021
5063 Snow -11 1012 85 1609 9.26 80 05:30 05.12.2021
5064 Mist -11 1017 85 4828 3.09 80 01:24 05.12.2021
5065 Mist -14 1018 85 6437 0 0 22:45 04.12.2021
5066 Mist -16 1017 85 9656 0 0 21:38 04.12.2021
5067 Mist -11 1017 85 10000 2.57 70 20:47 04.12.2021
5068 Mist -11 1017 85 10000 0 0 19:54 04.12.2021
5069 Mist -11 1017 85 10000 0 0 19:30 04.12.2021
5070 Clouds -20 1017 100 6682 2.12 58 17:53 04.12.2021
5071 Clouds -10 1015 79 10000 4.63 60 17:35 04.12.2021
5072 Haze -11 1014 85 8047 6.17 60 16:47 04.12.2021
5073 Haze -11 1014 85 8047 6.17 60 16:28 04.12.2021
5074 Snow -12 1012 85 402 9.77 80 13:30 04.12.2021
5075 Snow -13 1012 85 1609 10.29 80 11:41 04.12.2021
5076 Snow -13 1012 85 1207 10.29 80 11:19 04.12.2021
5077 Snow -13 1011 78 1609 11.32 80 09:57 04.12.2021
5078 Snow -13 1011 85 805 10.29 80 08:42 04.12.2021
5079 Snow -14 1010 85 805 10.29 80 05:30 04.12.2021
5080 Fog -13 1011 78 805 9.26 80 04:40 04.12.2021
5081 Snow -14 1011 85 402 12.35 100 23:49 03.12.2021
5082 Snow -14 1011 85 805 12.86 100 22:56 03.12.2021
5083 Snow -14 1012 78 805 13.38 90 22:00 03.12.2021
5084 Snow -14 1012 78 1207 14.4 90 21:25 03.12.2021
5085 Snow -14 1013 78 1207 14.4 90 20:43 03.12.2021
5086 Snow -15 1014 85 1207 12.35 90 19:36 03.12.2021
5087 Mist -16 1016 85 2012 12.35 90 18:26 03.12.2021
5088 Snow -16 1017 85 1609 11.32 100 17:44 03.12.2021
5089 Clouds -17 1021 67 10000 12.35 90 14:20 03.12.2021
5090 Clouds -18 1024 71 10000 10.29 90 12:52 03.12.2021
5091 Clouds -18 1025 71 10000 10.8 90 11:24 03.12.2021
5092 Clouds -18 1026 79 8623 6.4 80 09:57 03.12.2021
5093 Clouds -18 1028 72 10000 7.2 90 08:24 03.12.2021
5094 Clouds -19 1028 78 10000 5.66 90 07:38 03.12.2021
5095 Clouds -20 1031 77 10000 5.14 70 02:24 03.12.2021
5096 Clear -19 1032 71 10000 4.63 80 00:47 03.12.2021
5097 Clear -21 1033 71 10000 4.12 80 23:46 02.12.2021
5098 Clear -23 1031 77 10000 0 0 21:43 02.12.2021
5099 Clear -23 1031 77 10000 0 0 21:20 02.12.2021
5100 Clear -25 1031 77 10000 0 0 20:38 02.12.2021
5101 Clear -26 1031 76 10000 0 0 19:31 02.12.2021
5102 Clear -28 1030 69 10000 1.54 360 17:43 02.12.2021
5103 Clear -30 1028 76 10000 2.06 30 15:42 02.12.2021
5104 Clear -30 1028 76 10000 2.06 30 15:20 02.12.2021
5105 Clear -27 1027 69 10000 0 0 14:43 02.12.2021
5106 Clear -28 1026 69 10000 2.06 10 12:52 02.12.2021
5107 Clear -28 1026 69 10000 2.06 10 12:18 02.12.2021
5108 Clear -23 1024 65 10000 3.6 320 10:36 02.12.2021
5109 Clear -28 1025 99 10000 2 355 08:55 02.12.2021
5110 Clear -29 1021 76 10000 2.28 358 04:54 02.12.2021
5111 Clear -30 1017 78 10000 2.19 357 00:53 02.12.2021
5112 Clear -28 1014 64 10000 0 0 23:28 01.12.2021
5113 Clear -30 1013 69 10000 1.54 350 22:24 01.12.2021
5114 Clear -32 1014 74 10000 1.77 347 20:53 01.12.2021
5115 Clear -30 1013 78 10000 2.03 356 19:58 01.12.2021
5116 Clear -27 1011 64 10000 0 0 19:28 01.12.2021
5117 Clear -28 1009 69 10000 0 0 17:50 01.12.2021
5118 Clear -28 1008 69 10000 1.54 350 16:50 01.12.2021
5119 Clear -30 1009 78 10000 1.85 356 14:54 01.12.2021
5120 Clear -26 1006 65 10000 0 0 13:46 01.12.2021
5121 Clear -27 1006 69 10000 0 0 12:51 01.12.2021
5122 Clear -27 1006 69 10000 0 0 12:51 01.12.2021
5123 Clear -27 1005 69 10000 1.54 310 10:43 01.12.2021
5124 Clear -26 1004 70 10000 0 0 09:25 01.12.2021
5125 Clear -29 1004 69 10000 0 0 08:30 01.12.2021
5126 Clear -26 1004 70 10000 2.57 320 07:37 01.12.2021
5127 Clear -26 1004 70 10000 2.57 320 07:19 01.12.2021
5128 Clear -26 1003 65 10000 1.54 10 03:47 01.12.2021
5129 Clear -27 1004 74 10000 2.62 355 01:59 01.12.2021
5130 Clear -25 1004 71 10000 2.43 351 23:55 30.11.2021
5131 Clear -24 1003 59 10000 0 0 23:26 30.11.2021
5132 Clear -24 1003 54 10000 3.09 340 21:40 30.11.2021
5133 Clear -22 1002 55 10000 5.66 330 20:46 30.11.2021
5134 Clear -22 1002 55 10000 5.66 330 20:19 30.11.2021
5135 Clear -28 1003 69 10000 1.54 20 19:38 30.11.2021
5136 Clear -26 1003 64 10000 2.06 250 18:38 30.11.2021
5137 Clear -25 1003 64 10000 2.57 330 16:50 30.11.2021
5138 Clear -24 1003 53 10000 2.06 290 15:44 30.11.2021
5139 Clear -26 1003 64 10000 2.06 280 14:23 30.11.2021
5140 Clear -26 1003 64 10000 0 0 13:28 30.11.2021
5141 Clear -24 1003 59 10000 1.54 320 12:52 30.11.2021
5142 Clear -21 1004 50 10000 0 0 11:50 30.11.2021
5143 Clear -21 1004 50 10000 0 0 11:25 30.11.2021
5144 Clear -21 1004 55 10000 1.54 0 10:34 30.11.2021
5145 Clouds -25 1005 82 10000 3.73 357 08:53 30.11.2021
5146 Clear -23 1004 59 10000 7.2 350 08:31 30.11.2021
5147 Clear -22 1005 59 10000 6.17 10 07:48 30.11.2021
5148 Clouds -26 1006 82 10000 3.65 4 04:59 30.11.2021
5149 Clear -21 1007 54 10000 2.06 300 01:45 30.11.2021
5150 Clear -22 1007 54 10000 2.06 0 00:33 30.11.2021
5151 Clear -21 1008 54 10000 3.6 310 23:25 29.11.2021
5152 Clouds -25 1009 81 10000 3.07 11 22:58 29.11.2021
5153 Clear -24 1008 54 10000 1.54 20 22:34 29.11.2021
5154 Clear -28 1009 69 10000 2.06 300 21:44 29.11.2021
5155 Clear -28 1009 69 10000 2.06 300 21:18 29.11.2021
5156 Clear -24 1009 54 10000 1.54 0 20:41 29.11.2021
5157 Clear -27 1009 64 10000 2.06 280 19:56 29.11.2021
5158 Clear -27 1009 64 10000 2.06 280 19:37 29.11.2021
5159 Clear -28 1010 64 10000 0 0 18:52 29.11.2021
5160 Clouds -28 1011 89 10000 2.77 17 18:26 29.11.2021
5161 Clouds -28 1011 89 10000 2.7 17 17:21 29.11.2021
5162 Clouds -28 1011 89 10000 2.7 17 16:32 29.11.2021
5163 Clouds -28 1011 90 10000 2.71 17 15:52 29.11.2021
5164 Clouds -28 1012 92 10000 2.44 24 14:43 29.11.2021
5165 Clouds -28 1012 92 10000 2.36 27 13:47 29.11.2021
5166 Clear -29 1013 93 10000 2.26 28 12:44 29.11.2021
5167 Clear -29 1013 93 10000 2.29 27 11:43 29.11.2021
5168 Clear -29 1013 93 10000 2.13 27 10:59 29.11.2021
5169 Clear -29 1013 93 10000 2.36 21 09:56 29.11.2021
5170 Clear -29 1013 69 10000 0 0 06:43 29.11.2021
5171 Clouds -29 1014 95 10000 2.14 19 04:53 29.11.2021
5172 Clear -27 1014 69 10000 2.06 20 00:44 29.11.2021
5173 Clear -29 1014 69 10000 1.54 350 23:45 28.11.2021
5174 Clear -29 1014 69 10000 1.54 350 23:25 28.11.2021
5175 Clouds -29 1015 99 10000 1.96 32 21:53 28.11.2021
5176 Clear -30 1014 76 10000 1.54 360 21:27 28.11.2021
5177 Clear -27 1014 69 10000 2.57 20 20:35 28.11.2021
5178 Clear -28 1014 69 10000 3.09 360 19:29 28.11.2021
5179 Clear -29 1014 76 10000 0 0 18:38 28.11.2021
5180 Clouds -29 1016 99 10000 2.19 26 17:56 28.11.2021
5181 Clear -29 1014 69 10000 2.57 50 17:32 28.11.2021
5182 Clear -28 1014 69 10000 0 0 16:44 28.11.2021
5183 Clear -28 1014 69 10000 0 0 16:22 28.11.2021
5184 Clear -29 1014 69 10000 0 0 15:43 28.11.2021
5185 Clear -29 1014 76 10000 0 0 14:50 28.11.2021
5186 Clear -29 1014 76 10000 0 0 13:49 28.11.2021
5187 Clouds -29 1016 99 10000 1.83 32 12:54 28.11.2021
5188 Clear -29 1014 69 10000 2.06 40 11:21 28.11.2021
5189 Clear -27 1015 76 10000 0 0 10:22 28.11.2021
5190 Clear -26 1015 70 10000 2.06 130 09:40 28.11.2021
5191 Clear -28 1015 69 10000 2.06 0 08:20 28.11.2021
5192 Clear -23 1018 64 10000 4.63 320 00:40 28.11.2021
5193 Clear -24 1019 58 10000 3.09 360 21:45 27.11.2021
5194 Clear -24 1019 58 10000 0 0 19:50 27.11.2021
5195 Clear -24 1019 58 10000 0 0 19:50 27.11.2021
5196 Clear -27 1019 63 10000 1.54 20 18:20 27.11.2021
5197 Clouds -27 1021 92 10000 2.7 19 15:59 27.11.2021
5198 Clear -28 1019 69 10000 0 0 14:35 27.11.2021
5199 Clear -27 1019 69 10000 1.54 340 13:20 27.11.2021
5200 Clouds -27 1021 89 10000 3.04 17 10:57 27.11.2021
5201 Clouds -23 1019 59 10000 3.09 30 09:54 27.11.2021
5202 Clouds -23 1019 59 10000 3.09 350 08:51 27.11.2021
5203 Clouds -21 1018 59 10000 1.54 10 06:35 27.11.2021
5204 Clouds -19 1017 55 10000 3.6 340 03:52 27.11.2021
5205 Snow -18 1016 65 10000 2.06 350 00:19 27.11.2021
5206 Clouds -22 1016 64 10000 0 0 22:41 26.11.2021
5207 Clouds -22 1016 64 10000 0 0 22:20 26.11.2021
5208 Clear -28 1015 76 10000 2.06 10 21:23 26.11.2021
5209 Clear -27 1015 69 10000 2.06 10 20:40 26.11.2021
5210 Clouds -26 1016 99 10000 2.2 26 19:55 26.11.2021
5211 Clear -27 1014 69 10000 1.54 30 18:45 26.11.2021
5212 Clear -24 1014 64 10000 2.57 30 17:27 26.11.2021
5213 Clear -26 1013 70 10000 2.06 10 16:50 26.11.2021
5214 Clear -27 1013 76 10000 1.54 30 15:21 26.11.2021
5215 Clear -24 1012 65 10000 2.57 10 13:35 26.11.2021
5216 Clear -23 1011 65 10000 2.06 40 10:45 26.11.2021
5217 Clouds -26 1012 81 7974 1.84 27 09:53 26.11.2021
5218 Clouds -25 1012 80 8224 1.79 30 08:53 26.11.2021
5219 Clear -22 1009 65 10000 3.09 60 08:20 26.11.2021
5220 Clear -24 1009 70 10000 0 0 06:37 26.11.2021
5221 Clear -24 1009 70 10000 0 0 06:37 26.11.2021
5222 Clear -24 1009 70 10000 0 0 06:19 26.11.2021
5223 Clear -23 1007 70 10000 0 0 03:41 26.11.2021
5224 Clear -22 1006 71 10000 2.57 20 00:47 26.11.2021
5225 Clear -22 1006 65 10000 2.57 350 22:36 25.11.2021
5226 Clouds -26 1008 81 10000 2.21 1 20:53 25.11.2021
5227 Clear -24 1005 70 10000 1.54 40 19:35 25.11.2021
5228 Clear -23 1005 64 10000 0 0 18:38 25.11.2021
5229 Clear -22 1005 64 10000 0 0 17:28 25.11.2021
5230 Clouds -24 1007 99 10000 2.17 5 16:56 25.11.2021
5231 Clear -24 1006 70 10000 2.57 360 16:28 25.11.2021
5232 Clear -22 1006 64 10000 2.06 360 14:52 25.11.2021
5233 Clear -23 1006 65 10000 1.54 350 13:21 25.11.2021
5234 Clear -23 1006 65 10000 2.57 10 12:19 25.11.2021
5235 Clear -23 1006 70 10000 1.54 320 11:40 25.11.2021
5236 Clear -19 1006 55 10000 0 0 08:42 25.11.2021
5237 Clear -20 1007 71 10000 3.6 20 03:42 25.11.2021
5238 Clear -18 1007 60 10000 2.06 10 02:44 25.11.2021
5239 Clear -19 1009 65 10000 4.12 300 22:44 24.11.2021
5240 Clear -19 1009 65 10000 4.12 300 22:21 24.11.2021
5241 Clear -21 1010 65 10000 0 0 21:27 24.11.2021
5242 Clear -18 1011 55 10000 2.57 280 20:42 24.11.2021
5243 Clear -18 1011 55 10000 2.57 280 20:18 24.11.2021
5244 Clear -17 1012 55 10000 4.63 30 18:30 24.11.2021
5245 Clear -16 1012 55 10000 3.6 300 16:53 24.11.2021
5246 Clear -16 1013 55 10000 1.54 310 15:22 24.11.2021
5247 Clear -17 1013 60 10000 2.06 360 14:42 24.11.2021
5248 Clear -17 1013 60 10000 2.06 360 14:19 24.11.2021
5249 Clear -16 1014 60 10000 3.6 290 11:50 24.11.2021
5250 Clear -16 1014 60 10000 3.6 290 11:20 24.11.2021
5251 Clear -15 1014 61 10000 3.6 70 10:39 24.11.2021
5252 Clear -16 1015 66 10000 0 0 09:40 24.11.2021
5253 Clear -15 1015 66 10000 5.66 340 07:46 24.11.2021
5254 Clear -16 1016 66 10000 4.12 350 06:51 24.11.2021
5255 Clear -13 1017 61 10000 7.2 40 03:50 24.11.2021
5256 Clear -16 1019 55 10000 0 0 23:44 23.11.2021
5257 Clear -16 1019 55 10000 2.57 10 22:39 23.11.2021
5258 Clear -19 1020 90 10000 3.57 357 21:54 23.11.2021
5259 Clear -14 1019 47 10000 3.6 50 21:35 23.11.2021
5260 Clear -14 1020 47 10000 0 0 19:37 23.11.2021
5261 Clear -14 1020 47 10000 0 0 18:39 23.11.2021
5262 Clear -21 1021 83 10000 3.37 6 17:57 23.11.2021
5263 Clear -14 1020 51 10000 6.17 10 16:55 23.11.2021
5264 Clear -21 1021 86 10000 3.06 4 15:59 23.11.2021
5265 Clear -14 1020 51 10000 8.23 10 15:19 23.11.2021
5266 Clear -14 1021 51 10000 7.72 10 13:46 23.11.2021
5267 Clear -14 1021 51 10000 8.23 350 11:40 23.11.2021
5268 Clear -22 1023 91 10000 2.47 26 09:59 23.11.2021
5269 Clear -14 1021 51 10000 7.72 360 08:44 23.11.2021
5270 Clear -13 1021 52 10000 8.23 10 05:57 23.11.2021
5271 Clear -16 1021 60 10000 4.12 350 03:45 23.11.2021
5272 Clear -14 1022 51 10000 3.6 350 00:54 23.11.2021
5273 Clear -16 1022 55 10000 5.14 330 23:20 22.11.2021
5274 Clear -14 1022 47 10000 5.14 350 22:33 22.11.2021
5275 Clear -12 1022 40 10000 5.14 360 21:48 22.11.2021
5276 Clear -12 1022 40 10000 5.14 360 21:29 22.11.2021
5277 Clear -15 1022 56 10000 3.09 10 20:50 22.11.2021
5278 Clear -15 1021 57 10000 6.69 340 19:47 22.11.2021
5279 Clear -15 1021 57 10000 6.69 340 19:18 22.11.2021
5280 Clear -16 1021 60 10000 6.17 350 18:37 22.11.2021
5281 Clouds -15 1021 61 10000 3.09 330 17:18 22.11.2021
5282 Clouds -14 1021 56 10000 3.6 320 15:43 22.11.2021
5283 Clouds -22 1021 89 10000 3.78 15 13:58 22.11.2021
5284 Clear -17 1020 61 10000 3.09 10 11:50 22.11.2021
5285 Clear -17 1020 66 10000 5.66 360 10:39 22.11.2021
5286 Clear -17 1020 66 10000 4.12 360 09:26 22.11.2021
5287 Clear -17 1020 60 10000 4.63 350 08:39 22.11.2021
5288 Clear -17 1019 66 10000 5.14 350 04:33 22.11.2021
5289 Clear -18 1019 71 10000 2.06 20 23:26 21.11.2021
5290 Clear -22 1019 77 10000 0 0 22:48 21.11.2021
5291 Clear -21 1019 77 10000 1.54 310 21:51 21.11.2021
5292 Clear -22 1019 84 10000 2.06 10 20:42 21.11.2021
5293 Clear -22 1019 84 10000 2.06 10 20:42 21.11.2021
5294 Clear -21 1019 77 10000 2.06 20 19:46 21.11.2021
5295 Clear -22 1019 84 10000 0 0 18:24 21.11.2021
5296 Clear -20 1019 77 10000 0 0 17:38 21.11.2021
5297 Clear -20 1019 77 10000 2.06 40 15:49 21.11.2021
5298 Clear -20 1019 77 10000 1.54 30 14:45 21.11.2021
5299 Clear -18 1019 71 10000 0 0 13:46 21.11.2021
5300 Clear -17 1020 71 10000 2.06 310 12:35 21.11.2021
5301 Clear -14 1019 62 10000 1.54 310 11:42 21.11.2021
5302 Clear -14 1019 62 10000 1.54 310 11:23 21.11.2021
5303 Clouds -14 1019 67 10000 1.54 30 10:18 21.11.2021
5304 Clouds -12 1019 61 10000 4.12 330 08:42 21.11.2021
5305 Clouds -12 1019 61 10000 4.12 330 08:23 21.11.2021
5306 Clouds -14 1019 66 10000 3.09 320 07:47 21.11.2021
5307 Clouds -18 1019 83 10000 3.13 10 05:53 21.11.2021
5308 Clear -17 1020 67 10000 2.06 10 05:25 21.11.2021
5309 Clear -15 1020 62 10000 2.06 20 03:19 21.11.2021
5310 Clear -12 1020 57 10000 4.12 10 02:51 21.11.2021
5311 Clear -16 1021 69 10000 3.2 15 00:59 21.11.2021
5312 Clear -16 1022 56 10000 0 0 23:47 20.11.2021
5313 Clear -18 1022 61 10000 0 0 21:46 20.11.2021
5314 Clear -18 1022 61 10000 0 0 21:27 20.11.2021
5315 Clear -17 1023 56 10000 0 0 18:46 20.11.2021
5316 Clear -17 1023 56 10000 0 0 18:26 20.11.2021
5317 Clear -18 1023 60 10000 1.54 20 17:57 20.11.2021
5318 Clear -19 1023 78 10000 3 16 16:57 20.11.2021
5319 Clear -16 1024 60 10000 1.54 310 14:47 20.11.2021
5320 Clear -16 1024 60 10000 1.54 310 14:25 20.11.2021
5321 Clear -17 1025 60 10000 0 0 12:23 20.11.2021
5322 Clear -14 1026 47 10000 2.57 10 10:52 20.11.2021
5323 Clear -17 1026 51 10000 2.06 330 09:51 20.11.2021
5324 Clear -18 1026 55 10000 0 0 07:47 20.11.2021
5325 Clear -19 1026 65 10000 1.54 30 05:28 20.11.2021
5326 Clear -19 1027 65 10000 1.54 40 04:50 20.11.2021
5327 Clear -14 1027 48 10000 2.57 360 03:24 20.11.2021
5328 Clear -14 1028 56 10000 1.54 320 00:41 20.11.2021
5329 Clear -13 1028 48 10000 4.63 330 23:43 19.11.2021
5330 Clear -15 1028 56 10000 0 0 22:39 19.11.2021
5331 Clear -18 1028 70 10000 2.46 22 20:59 19.11.2021
5332 Clear -18 1028 65 10000 1.54 280 20:37 19.11.2021
5333 Clear -18 1028 75 10000 2.55 25 19:56 19.11.2021
5334 Clear -18 1028 75 10000 2.52 24 18:55 19.11.2021
5335 Clear -17 1029 66 10000 1.54 350 18:24 19.11.2021
5336 Clear -16 1029 61 10000 1.54 260 17:37 19.11.2021
5337 Clear -18 1028 73 10000 2.5 30 15:58 19.11.2021
5338 Clear -19 1029 81 10000 2.44 27 13:56 19.11.2021
5339 Clear -21 1030 71 10000 0 0 10:30 19.11.2021
5340 Clear -18 1030 65 10000 0 0 09:48 19.11.2021
5341 Clear -21 1030 66 10000 0 0 08:26 19.11.2021
5342 Clear -20 1030 74 10000 2.33 18 04:54 19.11.2021
5343 Clear -17 1030 52 10000 1.54 280 02:43 19.11.2021
5344 Clear -22 1030 59 10000 0 0 23:52 18.11.2021
5345 Clear -23 1031 64 10000 1.54 310 22:35 18.11.2021
5346 Clear -23 1031 75 10000 2.53 13 20:56 18.11.2021
5347 Clear -22 1030 60 10000 0 0 20:32 18.11.2021
5348 Clear -24 1031 75 10000 2.61 8 19:58 18.11.2021
5349 Clear -23 1030 64 10000 2.06 360 19:35 18.11.2021
5350 Clear -23 1031 65 10000 2.06 350 18:35 18.11.2021
5351 Clear -24 1031 65 10000 0 0 17:51 18.11.2021
5352 Clear -24 1031 64 10000 3.09 360 16:45 18.11.2021
5353 Clear -26 1031 70 10000 0 0 15:52 18.11.2021
5354 Clear -22 1031 60 10000 3.09 360 14:19 18.11.2021
5355 Clear -25 1032 77 10000 2.58 33 12:53 18.11.2021
5356 Clear -23 1031 65 10000 0 0 11:44 18.11.2021
5357 Clear -23 1031 64 10000 0 0 11:25 18.11.2021
5358 Clear -21 1031 60 10000 3.6 360 10:21 18.11.2021
5359 Clear -21 1031 54 10000 0 0 08:26 18.11.2021
5360 Clear -21 1031 60 10000 0 0 06:39 18.11.2021
5361 Clear -21 1031 60 10000 2.57 80 05:43 18.11.2021
5362 Clear -21 1031 59 10000 0 0 01:25 18.11.2021
5363 Clear -19 1031 51 10000 0 0 23:30 17.11.2021
5364 Clear -18 1031 50 10000 3.09 60 22:39 17.11.2021
5365 Clear -18 1031 51 10000 3.09 60 22:18 17.11.2021
5366 Clear -17 1031 51 10000 2.57 40 21:35 17.11.2021
5367 Clear -22 1030 59 10000 2.06 80 19:42 17.11.2021
5368 Clear -22 1030 64 10000 2.57 0 17:35 17.11.2021
5369 Clear -20 1031 88 10000 3.33 25 15:55 17.11.2021
5370 Clear -17 1030 56 10000 5.14 130 13:18 17.11.2021
5371 Clear -19 1030 60 10000 3.6 30 12:36 17.11.2021
5372 Clear -17 1030 69 10000 3.38 20 10:54 17.11.2021
5373 Clear -15 1028 62 10000 5.66 70 09:38 17.11.2021
5374 Clear -17 1027 66 10000 3.6 90 07:46 17.11.2021
5375 Clear -17 1027 66 10000 3.6 90 07:23 17.11.2021
5376 Clear -14 1026 67 10000 2.57 330 02:48 17.11.2021
5377 Clear -12 1027 61 10000 2.57 300 00:34 17.11.2021
5378 Clear -17 1026 72 10000 0 0 22:30 16.11.2021
5379 Clear -15 1025 73 10000 0 0 20:19 16.11.2021
5380 Clear -16 1025 78 10000 3.6 340 19:39 16.11.2021
5381 Clear -16 1025 73 10000 2.06 340 18:49 16.11.2021
5382 Clear -16 1025 73 10000 2.06 340 18:28 16.11.2021
5383 Clear -16 1025 66 10000 1.54 360 17:18 16.11.2021
5384 Clear -15 1024 66 10000 1.54 340 16:20 16.11.2021
5385 Clear -19 1024 71 10000 0 0 15:43 16.11.2021
5386 Clear -19 1023 78 10000 2.57 40 13:46 16.11.2021
5387 Clear -19 1022 78 10000 1.54 30 10:27 16.11.2021
5388 Clear -21 1022 84 10000 0 0 09:42 16.11.2021
5389 Clouds -19 1022 83 10000 3.13 19 07:53 16.11.2021
5390 Clear -19 1022 71 10000 1.54 20 07:28 16.11.2021
5391 Clouds -13 1021 87 10000 2.21 26 23:53 15.11.2021
5392 Clear -14 1020 62 10000 2.57 10 22:41 15.11.2021
5393 Clear -14 1020 62 10000 2.57 10 22:20 15.11.2021
5394 Clear -14 1020 66 10000 2.57 10 21:32 15.11.2021
5395 Clouds -16 1020 93 10000 2.48 25 20:59 15.11.2021
5396 Clear -19 1020 84 10000 1.54 30 19:26 15.11.2021
5397 Clear -19 1020 78 10000 0 0 17:35 15.11.2021
5398 Clouds -16 1020 96 10000 2.56 29 15:55 15.11.2021
5399 Clear -18 1019 78 10000 0 0 15:36 15.11.2021
5400 Clear -16 1019 78 10000 0 0 14:39 15.11.2021
5401 Clear -13 1019 73 10000 0 0 12:39 15.11.2021
5402 Clouds -12 1019 79 10000 3.6 360 10:33 15.11.2021
5403 Clouds -6 1019 68 10000 1.54 10 09:23 15.11.2021
5404 Clouds -6 1019 73 10000 5.14 40 07:23 15.11.2021
5405 Clouds -7 1019 86 10000 0 0 02:34 15.11.2021
5406 Clouds -10 1019 85 10000 0 0 22:47 14.11.2021
5407 Clouds -10 1019 85 10000 0 0 22:27 14.11.2021
5408 Clouds -7 1018 93 10000 2.06 320 19:36 14.11.2021
5409 Clouds -7 1018 93 10000 2.06 320 19:18 14.11.2021
5410 Clouds -10 1019 90 380 1.65 37 18:54 14.11.2021
5411 Clouds -5 1018 86 10000 0 0 18:36 14.11.2021
5412 Clouds -5 1018 86 10000 0 0 18:18 14.11.2021
5413 Clouds -5 1018 86 10000 0 0 17:54 14.11.2021
5414 Clouds -5 1018 86 10000 0 0 17:36 14.11.2021
5415 Clouds -5 1018 86 10000 0 0 17:18 14.11.2021
5416 Clouds -6 1018 86 10000 1.54 70 16:43 14.11.2021
5417 Clouds -6 1018 93 10000 0 0 16:19 14.11.2021
5418 Clouds -5 1018 86 10000 0 0 15:21 14.11.2021
5419 Clouds -7 1017 93 10000 0 0 14:45 14.11.2021
5420 Clouds -7 1017 93 10000 0 0 14:22 14.11.2021
5421 Clouds -5 1017 93 10000 0 0 13:52 14.11.2021
5422 Snow -3 1017 93 10000 0 0 13:28 14.11.2021
5423 Snow -3 1018 93 4023 1.54 110 12:23 14.11.2021
5424 Mist -4 1018 86 2816 3.09 120 11:34 14.11.2021
5425 Snow -5 1018 86 2816 3.6 100 10:40 14.11.2021
5426 Snow -6 1018 86 10000 2.06 70 09:42 14.11.2021
5427 Snow -6 1018 86 10000 1.54 70 08:52 14.11.2021
5428 Snow -6 1018 86 4828 0 0 06:51 14.11.2021
5429 Snow -7 1019 80 4828 0 0 23:27 13.11.2021
5430 Snow -8 1019 80 8047 1.54 40 22:21 13.11.2021
5431 Snow -9 1019 86 9656 2.06 50 21:49 13.11.2021
5432 Clouds -13 1019 90 368 2.21 64 20:59 13.11.2021
5433 Snow -10 1018 79 6437 0 0 19:33 13.11.2021
5434 Clouds -11 1018 79 10000 0 0 18:32 13.11.2021
5435 Clouds -12 1018 85 10000 0 0 17:41 13.11.2021
5436 Clouds -13 1018 78 10000 0 0 16:29 13.11.2021
5437 Clouds -17 1018 71 10000 0 0 14:45 13.11.2021
5438 Clouds -17 1018 71 10000 0 0 14:18 13.11.2021
5439 Clear -18 1017 71 10000 2.57 10 12:45 13.11.2021
5440 Clouds -15 1018 93 10000 2.21 25 11:57 13.11.2021
5441 Clear -18 1017 78 10000 0 0 11:24 13.11.2021
5442 Clear -18 1017 85 10000 1.54 300 10:39 13.11.2021
5443 Clear -17 1016 78 10000 2.06 30 09:50 13.11.2021
5444 Clear -17 1016 78 10000 2.06 30 09:31 13.11.2021
5445 Clouds -14 1017 93 10000 2.64 12 08:54 13.11.2021
5446 Clear -17 1016 78 10000 1.54 20 08:18 13.11.2021
5447 Clear -14 1015 78 10000 0 0 04:43 13.11.2021
5448 Clear -14 1015 78 10000 0 0 04:23 13.11.2021
5449 Clear -11 1014 79 10000 0 0 00:19 13.11.2021
5450 Clear -16 1015 78 10000 0 0 22:43 12.11.2021
5451 Clear -17 1015 71 10000 1.54 320 21:29 12.11.2021
5452 Clear -21 1014 84 10000 1.54 0 19:43 12.11.2021
5453 Clear -21 1014 84 10000 1.54 0 19:23 12.11.2021
5454 Clear -19 1015 84 10000 0 0 18:20 12.11.2021
5455 Clear -19 1015 84 10000 0 0 16:19 12.11.2021
5456 Clear -15 1015 94 10000 2.75 0 14:53 12.11.2021
5457 Clear -18 1015 78 10000 3.09 20 11:31 12.11.2021
5458 Clear -17 1015 71 10000 0 0 10:48 12.11.2021
5459 Clear -16 1015 78 10000 0 0 09:27 12.11.2021
5460 Clear -14 1015 73 10000 0 0 08:35 12.11.2021
5461 Clouds -9 1014 67 10000 3.6 350 02:22 12.11.2021
5462 Clouds -8 1015 62 10000 2.57 50 23:31 11.11.2021
5463 Clouds -9 1015 67 10000 1.54 340 22:28 11.11.2021
5464 Clouds -11 1015 73 10000 2.57 30 21:26 11.11.2021
5465 Clouds -12 1015 72 10000 0 0 20:26 11.11.2021
5466 Clouds -18 1015 96 10000 2.21 25 18:55 11.11.2021
5467 Clouds -11 1014 67 10000 1.54 30 17:42 11.11.2021
5468 Clouds -11 1014 67 10000 1.54 360 16:38 11.11.2021
5469 Clouds -12 1014 67 10000 3.09 360 14:44 11.11.2021
5470 Clouds -12 1014 67 10000 3.09 360 14:26 11.11.2021
5471 Clouds -12 1014 61 10000 3.6 350 13:36 11.11.2021
5472 Clouds -13 1014 66 10000 3.6 340 12:48 11.11.2021
5473 Clouds -12 1014 62 10000 4.12 350 10:34 11.11.2021
5474 Clouds -16 1014 67 10000 4.12 350 09:33 11.11.2021
5475 Clear -14 1014 61 10000 4.12 350 07:36 11.11.2021
5476 Clear -13 1013 62 10000 2.57 10 02:35 11.11.2021
5477 Clouds -17 1012 78 10000 2.06 360 22:49 10.11.2021
5478 Clear -16 1013 89 10000 2.44 34 21:58 10.11.2021
5479 Clouds -17 1012 78 10000 1.54 10 21:18 10.11.2021
5480 Clouds -17 1012 85 10000 0 0 20:36 10.11.2021
5481 Clouds -17 1012 85 10000 0 0 19:46 10.11.2021
5482 Clouds -17 1012 85 10000 0 0 17:40 10.11.2021
5483 Clouds -15 1012 73 10000 1.54 360 16:25 10.11.2021
5484 Clouds -14 1012 73 10000 2.57 30 14:40 10.11.2021
5485 Clouds -18 1012 71 10000 1.54 360 13:40 10.11.2021
5486 Clear -20 1012 77 10000 1.54 10 12:40 10.11.2021
5487 Clear -17 1012 71 10000 0 0 10:20 10.11.2021
5488 Clear -16 1012 72 10000 2.57 20 08:45 10.11.2021
5489 Clear -16 1012 78 10000 3.09 360 07:25 10.11.2021
5490 Clouds -16 1011 78 10000 3.09 50 06:25 10.11.2021
5491 Clouds -15 1011 78 10000 0 0 05:44 10.11.2021
5492 Clouds -12 1011 93 10000 3.13 32 22:54 09.11.2021
5493 Clouds -7 1011 68 10000 1.54 0 21:47 09.11.2021
5494 Clouds -10 1011 73 10000 4.12 360 20:26 09.11.2021
5495 Clouds -16 1011 85 10000 0 0 19:20 09.11.2021
5496 Clear -16 1011 85 10000 1.54 350 17:30 09.11.2021
5497 Clear -17 1012 78 10000 2.06 30 15:45 09.11.2021
5498 Clear -16 1013 85 10000 0 0 14:24 09.11.2021
5499 Clear -16 1013 78 10000 0 0 12:50 09.11.2021
5500 Clear -12 1014 73 10000 0 0 11:38 09.11.2021
5501 Clear -12 1014 73 10000 0 0 11:38 09.11.2021
5502 Clear -11 1014 68 10000 2.06 310 10:44 09.11.2021
5503 Clear -10 1014 74 10000 2.06 340 09:24 09.11.2021
5504 Clear -8 1015 73 10000 2.57 30 08:19 09.11.2021
5505 Clouds -7 1015 73 10000 4.63 340 05:45 09.11.2021
5506 Clouds -7 1016 68 10000 2.57 330 02:19 09.11.2021
5507 Clouds -8 1017 73 10000 4.12 360 01:39 09.11.2021
5508 Clouds -11 1017 68 10000 2.06 350 23:36 08.11.2021
5509 Clouds -11 1018 74 10000 4.12 360 22:49 08.11.2021
5510 Clear -17 1018 85 10000 0 0 21:46 08.11.2021
5511 Clear -17 1018 85 10000 0 0 21:46 08.11.2021
5512 Clear -18 1018 85 10000 0 0 20:47 08.11.2021
5513 Clear -18 1018 78 10000 0 0 19:48 08.11.2021
5514 Clouds -13 1019 88 10000 2.9 11 17:55 08.11.2021
5515 Clear -13 1020 88 10000 3.03 16 15:59 08.11.2021
5516 Clouds -17 1020 87 10000 2.88 21 14:57 08.11.2021
5517 Clear -16 1019 85 10000 2.06 20 14:37 08.11.2021
5518 Clear -14 1019 78 10000 0 0 13:24 08.11.2021
5519 Clouds -14 1020 90 10000 2.87 21 11:56 08.11.2021
5520 Snow -6 1019 68 10000 4.12 40 10:50 08.11.2021
5521 Clouds -6 1019 79 10000 5.14 60 09:37 08.11.2021
5522 Clouds -6 1019 79 10000 5.14 60 09:37 08.11.2021
5523 Snow -6 1019 79 6437 4.63 50 08:52 08.11.2021
5524 Snow -6 1019 79 4828 5.66 50 07:28 08.11.2021
5525 Snow -6 1018 79 3219 4.12 60 03:42 08.11.2021
5526 Snow -6 1018 73 4828 4.12 50 03:22 08.11.2021
5527 Clouds -7 1018 69 10000 4.63 70 23:43 07.11.2021
5528 Snow -7 1018 74 6437 2.06 40 21:46 07.11.2021
5529 Clouds -8 1018 74 10000 1.54 50 20:52 07.11.2021
5530 Clouds -10 1018 79 10000 1.54 30 19:25 07.11.2021
5531 Clouds -14 1018 78 10000 1.54 20 17:49 07.11.2021
5532 Clear -17 1018 85 10000 1.54 350 16:49 07.11.2021
5533 Clear -16 1017 85 10000 1.54 30 15:47 07.11.2021
5534 Clear -17 1018 85 10000 0 0 14:28 07.11.2021
5535 Clouds -14 1018 96 10000 2.26 39 12:58 07.11.2021
5536 Clear -15 1017 85 10000 0 0 11:42 07.11.2021
5537 Clouds -13 1016 78 10000 0 0 09:26 07.11.2021
5538 Clouds -11 1015 79 10000 0 0 06:46 07.11.2021
5539 Clouds -6 1013 68 10000 0 0 02:34 07.11.2021
5540 Clouds -7 1012 73 10000 3.09 350 23:22 06.11.2021
5541 Clouds -8 1012 73 10000 3.09 290 22:42 06.11.2021
5542 Clouds -8 1011 73 10000 3.09 290 21:32 06.11.2021
5543 Clouds -7 1010 73 10000 1.54 310 20:50 06.11.2021
5544 Clouds -9 1010 89 10000 3.26 316 18:56 06.11.2021
5545 Clear -9 1007 79 10000 5.14 280 16:44 06.11.2021
5546 Clouds -6 1006 73 10000 4.63 300 14:37 06.11.2021
5547 Clouds -5 1005 68 10000 5.66 300 13:38 06.11.2021
5548 Clouds -5 1005 68 10000 5.66 300 13:38 06.11.2021
5549 Clouds -4 1004 74 10000 8.75 310 11:25 06.11.2021
5550 Clouds -4 1002 80 10000 6.69 320 09:23 06.11.2021
5551 Clouds -6 1001 85 10000 6.5 305 04:57 06.11.2021
5552 Clouds -2 998 75 10000 7.72 300 01:27 06.11.2021
5553 Clouds -4 998 80 10000 4.12 300 23:34 05.11.2021
5554 Clouds -7 998 86 10000 0 0 22:33 05.11.2021
5555 Clouds -6 997 86 10000 4.12 330 20:51 05.11.2021
5556 Clouds -6 997 86 10000 4.12 330 20:19 05.11.2021
5557 Clouds -4 997 86 10000 5.14 290 19:37 05.11.2021
5558 Clear -4 997 74 10000 4.12 300 18:39 05.11.2021
5559 Clear -7 998 86 10000 3.09 310 17:26 05.11.2021
5560 Clear -12 997 79 10000 0 0 15:20 05.11.2021
5561 Clear -12 998 85 10000 2.57 360 13:35 05.11.2021
5562 Clouds -12 998 85 10000 1.54 280 10:37 05.11.2021
5563 Clouds -11 998 85 10000 0 0 08:39 05.11.2021
5564 Clouds -9 998 79 10000 1.54 310 07:21 05.11.2021
5565 Snow -6 998 86 10000 0 0 04:43 05.11.2021
5566 Clouds -4 998 80 10000 0 0 02:24 05.11.2021
5567 Clouds -4 998 80 10000 0 0 00:40 05.11.2021
5568 Clouds -7 998 91 10000 1.71 32 22:59 04.11.2021
5569 Clouds -6 997 80 10000 1.54 310 22:18 04.11.2021
5570 Clouds -6 997 80 10000 0 0 21:31 04.11.2021
5571 Clouds -8 997 80 10000 0 0 20:40 04.11.2021
5572 Clouds -8 997 80 10000 0 0 20:20 04.11.2021
5573 Clouds -8 997 80 10000 0 0 19:40 04.11.2021
5574 Clouds -10 996 85 10000 0 0 18:44 04.11.2021
5575 Clouds -11 996 79 10000 0 0 17:37 04.11.2021
5576 Clouds -11 996 85 10000 0 0 16:41 04.11.2021
5577 Clouds -9 996 79 10000 0 0 14:28 04.11.2021
5578 Clouds -9 995 86 10000 1.54 10 11:44 04.11.2021
5579 Clouds -12 994 85 10000 0 0 09:31 04.11.2021
5580 Clear -13 994 85 10000 2.06 40 08:30 04.11.2021
5581 Mist -13 994 85 4828 1.54 10 07:34 04.11.2021
5582 Clear -7 993 86 10000 2.06 20 23:59 03.11.2021
5583 Clouds -4 993 80 10000 2.06 40 22:50 03.11.2021
5584 Clouds -3 992 80 10000 3.09 30 21:48 03.11.2021
5585 Clouds -3 992 80 10000 3.09 30 21:28 03.11.2021
5586 Clouds -3 992 80 10000 2.57 50 20:35 03.11.2021
5587 Clouds -3 992 80 10000 2.57 50 19:47 03.11.2021
5588 Clouds -9 994 89 10000 2.84 34 18:55 03.11.2021
5589 Clouds -2 992 75 10000 3.09 60 18:19 03.11.2021
5590 Clouds -2 992 74 10000 2.57 60 17:34 03.11.2021
5591 Clouds -2 992 74 10000 3.09 60 16:25 03.11.2021
5592 Clouds -2 992 74 10000 3.6 60 15:42 03.11.2021
5593 Clouds -3 993 74 10000 5.14 70 13:49 03.11.2021
5594 Clouds -3 992 74 10000 7.2 70 11:54 03.11.2021
5595 Clouds -3 992 74 10000 7.2 70 11:25 03.11.2021
5596 Clouds -3 993 68 10000 6.17 90 10:41 03.11.2021
5597 Clouds -2 993 70 10000 6.17 80 09:30 03.11.2021
5598 Snow -2 993 86 10000 5.66 90 08:22 03.11.2021
5599 Snow -1 994 86 10000 6.69 90 07:39 03.11.2021
5600 Snow -1 994 93 4828 8.23 100 04:26 03.11.2021
5601 Snow 0 995 93 1609 7.72 140 02:27 03.11.2021
5602 Snow 0 996 86 10000 7.72 130 23:47 02.11.2021
5603 Snow 0 996 86 10000 9.26 130 22:35 02.11.2021
5604 Clouds -1 996 93 10000 8.75 120 21:25 02.11.2021
5605 Clouds 0 996 81 10000 11.32 130 20:32 02.11.2021
5606 Clouds 0 996 81 10000 11.83 140 19:47 02.11.2021
5607 Snow 0 996 81 9656 12.35 140 18:59 02.11.2021
5608 Mist 0 996 86 9656 11.32 130 17:59 02.11.2021
5609 Mist 0 996 86 9656 11.32 130 17:32 02.11.2021
5610 Rain 1 996 81 8047 12.35 140 16:30 02.11.2021
5611 Snow 0 996 86 4023 14.92 130 15:30 02.11.2021
5612 Mist 0 996 86 2414 12.35 130 14:22 02.11.2021
5613 Snow -1 997 93 2816 10.29 120 13:27 02.11.2021
5614 Snow -1 997 93 1207 10.8 140 12:39 02.11.2021
5615 Mist 0 997 93 1207 13.38 140 11:33 02.11.2021
5616 Snow 0 998 86 2816 12.35 130 10:51 02.11.2021
5617 Snow 0 998 86 2816 12.35 130 10:26 02.11.2021
5618 Snow 0 998 81 9656 11.83 120 08:43 02.11.2021
5619 Snow -1 998 86 1609 13.89 120 06:50 02.11.2021
5620 Mist -2 1000 86 1609 11.83 100 03:34 02.11.2021
5621 Snow -2 1001 86 1609 9.26 90 02:18 02.11.2021
5622 Snow -4 1003 74 10000 8.23 70 22:44 01.11.2021
5623 Snow -4 1004 68 10000 5.14 60 20:52 01.11.2021
5624 Snow -4 1004 68 10000 5.14 60 20:33 01.11.2021
5625 Clouds -4 1004 63 10000 5.66 70 19:52 01.11.2021
5626 Clouds -7 1005 85 1907 4.13 62 18:58 01.11.2021
5627 Snow -6 1004 69 10000 4.12 70 18:21 01.11.2021
5628 Clear -7 1004 74 10000 4.63 40 17:19 01.11.2021
5629 Clouds -7 1004 74 10000 3.6 50 16:43 01.11.2021
5630 Clouds -9 1004 74 10000 2.57 40 15:47 01.11.2021
5631 Clouds -9 1004 74 10000 2.57 40 15:20 01.11.2021
5632 Clear -11 1004 79 10000 0 0 14:42 01.11.2021
5633 Clear -11 1004 79 10000 0 0 14:20 01.11.2021
5634 Clear -11 1003 85 10000 0 0 13:19 01.11.2021
5635 Clear -10 1003 79 10000 0 0 12:24 01.11.2021
5636 Clear -9 1002 79 10000 0 0 10:23 01.11.2021
5637 Clouds -9 1003 92 10000 2.67 20 08:53 01.11.2021
5638 Clear -12 1001 85 10000 1.54 330 07:48 01.11.2021
5639 Clouds -13 1001 87 8597 3.02 339 05:56 01.11.2021
5640 Clear -7 998 79 10000 0 0 03:42 01.11.2021
5641 Clear -4 996 68 10000 2.57 290 00:23 01.11.2021
5642 Clear -8 995 79 10000 0 0 21:37 31.10.2021
5643 Clear -8 994 73 10000 0 0 20:26 31.10.2021
5644 Clouds -14 995 89 10000 2.4 332 18:54 31.10.2021
5645 Clear -9 994 79 10000 2.06 310 18:32 31.10.2021
5646 Clear -5 993 64 10000 4.12 330 16:49 31.10.2021
5647 Clear -6 993 69 10000 3.6 330 15:29 31.10.2021
5648 Clear -7 994 69 10000 0 0 13:27 31.10.2021
5649 Clear -7 994 69 10000 2.57 360 12:37 31.10.2021
5650 Clouds -11 996 90 10000 2.85 346 10:53 31.10.2021
5651 Clouds -9 996 74 10000 1.54 0 09:54 31.10.2021
5652 Clear -8 997 68 10000 0 0 08:48 31.10.2021
5653 Clouds -12 1000 87 10000 3.33 359 04:55 31.10.2021
5654 Clear -8 1004 58 10000 0 0 00:48 31.10.2021
5655 Clear -14 1005 78 10000 0 0 22:31 30.10.2021
5656 Clear -14 1006 72 10000 2.57 360 21:33 30.10.2021
5657 Clear -13 1006 78 10000 0 0 20:19 30.10.2021
5658 Clear -12 1007 72 10000 3.09 20 18:21 30.10.2021
5659 Clouds -15 1009 88 10000 2.89 7 15:58 30.10.2021
5660 Clear -10 1008 79 10000 4.63 320 14:25 30.10.2021
5661 Clouds -7 1009 69 10000 1.54 330 13:39 30.10.2021
5662 Clouds -7 1009 69 10000 1.54 330 13:20 30.10.2021
5663 Clouds -7 1009 74 10000 1.54 330 11:50 30.10.2021
5664 Clouds -7 1009 74 10000 1.54 330 11:26 30.10.2021
5665 Clouds -11 1011 96 8039 2.49 8 09:53 30.10.2021
5666 Clouds -11 1010 85 10000 1.54 20 08:31 30.10.2021
5667 Clouds -7 1009 86 10000 4.12 310 05:49 30.10.2021
5668 Clouds -7 1009 86 10000 4.12 310 05:19 30.10.2021
5669 Snow -2 1007 70 10000 6.69 240 23:47 29.10.2021
5670 Snow -3 1008 59 10000 8.75 200 22:35 29.10.2021
5671 Clouds -3 1008 59 10000 5.14 210 21:20 29.10.2021
5672 Clouds -3 1008 54 10000 7.72 220 20:34 29.10.2021
5673 Snow -3 1008 64 10000 6.17 200 19:38 29.10.2021
5674 Snow -3 1008 60 10000 5.66 200 18:23 29.10.2021
5675 Snow -4 1008 63 10000 7.72 230 16:34 29.10.2021
5676 Clouds -3 1008 69 10000 5.14 260 14:29 29.10.2021
5677 Snow -3 1007 86 1609 8.23 260 10:52 29.10.2021
5678 Snow -2 1006 80 2816 9.26 150 10:33 29.10.2021
5679 Clouds -1 1007 59 10000 7.2 170 07:23 29.10.2021
5680 Clouds -5 1008 64 10000 3.09 30 00:35 29.10.2021
5681 Clear -10 1007 79 10000 3.6 30 22:40 28.10.2021
5682 Clear -11 1007 85 10000 2.06 360 21:32 28.10.2021
5683 Clouds -8 1007 74 10000 0 0 20:20 28.10.2021
5684 Clouds -11 1008 90 10000 2.53 27 18:57 28.10.2021
5685 Clouds -11 1007 89 10000 2.73 24 17:57 28.10.2021
5686 Clouds -12 1007 89 10000 2.83 21 16:57 28.10.2021
5687 Clouds -7 1006 86 10000 0 0 15:20 28.10.2021
5688 Clouds -7 1006 79 10000 0 0 13:35 28.10.2021
5689 Clouds -11 1006 88 10000 2.25 355 12:53 28.10.2021
5690 Clouds -7 1005 74 10000 2.57 310 12:34 28.10.2021
5691 Clouds -10 1005 79 10000 1.54 10 10:48 28.10.2021
5692 Clouds -9 1004 73 10000 1.54 340 09:38 28.10.2021
5693 Clouds -11 1004 85 10000 0 0 08:37 28.10.2021
5694 Clear -9 1004 74 10000 0 0 07:47 28.10.2021
5695 Clear -5 1003 64 10000 0 0 04:36 28.10.2021
5696 Mist -6 1002 68 10000 0 0 23:26 27.10.2021
5697 Clouds -8 1002 74 10000 0 0 22:30 27.10.2021
5698 Clouds -7 1001 69 10000 2.57 340 21:32 27.10.2021
5699 Clouds -7 1001 69 10000 4.12 330 20:49 27.10.2021
5700 Clouds -6 1001 69 10000 4.63 350 19:52 27.10.2021
5701 Clouds -10 1002 88 10000 2.81 29 18:58 27.10.2021
5702 Clouds -6 1001 68 10000 3.6 340 18:38 27.10.2021
5703 Clouds -5 1000 63 10000 1.54 10 16:26 27.10.2021
5704 Clouds -5 1000 63 10000 1.54 340 15:30 27.10.2021
5705 Clouds -5 1000 63 10000 1.54 340 15:30 27.10.2021
5706 Clouds -5 1000 68 10000 0 0 14:38 27.10.2021
5707 Clouds -6 1000 79 10000 0 0 11:20 27.10.2021
5708 Clouds -8 1001 90 10000 2.38 39 10:57 27.10.2021
5709 Clouds -5 1000 80 10000 1.54 50 09:43 27.10.2021
5710 Clouds -6 1000 79 10000 2.06 30 07:52 27.10.2021
5711 Clouds -5 1000 74 10000 0 0 06:38 27.10.2021
5712 Snow -4 999 74 6437 3.6 320 01:31 27.10.2021
5713 Clouds -4 1000 76 10000 1.19 331 00:56 27.10.2021
5714 Snow -4 999 74 10000 2.57 320 23:57 26.10.2021
5715 Snow -4 999 74 10000 2.06 310 23:18 26.10.2021
5716 Clouds -4 999 74 10000 0 0 22:29 26.10.2021
5717 Snow -4 999 80 2816 2.06 270 21:52 26.10.2021
5718 Snow -4 998 74 10000 2.06 290 20:26 26.10.2021
5719 Snow -4 998 74 10000 3.09 320 19:26 26.10.2021
5720 Clouds -4 998 74 10000 4.12 310 18:32 26.10.2021
5721 Clouds -4 997 74 10000 3.6 310 15:54 26.10.2021
5722 Clouds -4 997 75 10000 4.12 320 14:18 26.10.2021
5723 Clouds -6 996 79 10000 3.6 300 11:33 26.10.2021
5724 Snow -4 996 74 10000 4.63 310 09:29 26.10.2021
5725 Snow -4 996 75 10000 4.12 290 07:24 26.10.2021
5726 Clouds -3 994 74 10000 6.17 290 00:50 26.10.2021
5727 Clouds -3 994 80 10000 5.66 290 23:49 25.10.2021
5728 Clouds -4 994 74 10000 4.12 300 22:38 25.10.2021
5729 Clouds -4 994 83 10000 2.58 299 21:55 25.10.2021
5730 Clouds -4 993 74 10000 4.63 280 21:25 25.10.2021
5731 Clouds -4 993 80 10000 5.66 280 19:45 25.10.2021
5732 Clouds -4 993 80 10000 5.66 280 19:24 25.10.2021
5733 Snow -4 993 80 10000 6.69 280 18:50 25.10.2021
5734 Clouds -3 993 75 10000 5.14 290 17:43 25.10.2021
5735 Clouds -3 993 80 10000 4.12 290 15:38 25.10.2021
5736 Clouds -3 993 75 10000 4.63 300 13:54 25.10.2021
5737 Clouds -2 994 75 10000 8.23 280 11:58 25.10.2021
5738 Clouds -2 993 86 10000 6.17 280 09:58 25.10.2021
5739 Snow -1 993 86 10000 5.14 290 07:41 25.10.2021
5740 Clouds -1 994 91 10000 6.47 286 05:55 25.10.2021
5741 Clouds 1 994 80 10000 3.09 280 00:53 25.10.2021
5742 Clouds 1 994 80 10000 3.09 280 00:35 25.10.2021
5743 Clouds 0 994 86 10000 2.57 270 23:45 24.10.2021
5744 Snow -1 994 86 10000 1.54 270 22:40 24.10.2021
5745 Snow -1 994 86 10000 1.54 270 22:20 24.10.2021
5746 Snow -2 994 86 10000 2.06 280 21:37 24.10.2021
5747 Snow -3 994 93 10000 0 0 20:42 24.10.2021
5748 Clouds -3 994 86 10000 0 0 19:49 24.10.2021
5749 Clouds -3 995 86 10000 1.54 360 18:30 24.10.2021
5750 Clouds -3 995 86 10000 0 0 17:48 24.10.2021
5751 Clouds -3 996 94 10000 0.72 8 15:57 24.10.2021
5752 Clouds -3 995 80 10000 1.54 350 15:20 24.10.2021
5753 Clouds -4 995 80 10000 2.06 320 13:23 24.10.2021
5754 Clear -4 995 80 10000 0 0 12:26 24.10.2021
5755 Clear -5 994 86 10000 0 0 11:36 24.10.2021
5756 Clear -5 994 86 10000 0 0 10:40 24.10.2021
5757 Clear -4 993 86 10000 0 0 08:43 24.10.2021
5758 Clouds 0 992 80 10000 1.43 348 02:58 24.10.2021
5759 Clear -1 990 80 10000 2.06 40 23:52 23.10.2021
5760 Clouds -2 990 83 10000 1.79 355 22:54 23.10.2021
5761 Clouds -3 990 86 10000 2.14 4 20:59 23.10.2021
5762 Clouds -1 987 74 10000 3.6 350 19:36 23.10.2021
5763 Clouds 0 987 69 10000 3.6 320 18:43 23.10.2021
5764 Clouds 0 987 69 10000 1.54 10 17:44 23.10.2021
5765 Clouds -1 988 81 10000 2.47 349 16:53 23.10.2021
5766 Clouds 1 987 61 10000 3.6 340 15:20 23.10.2021
5767 Clear -1 986 80 10000 2.06 330 13:18 23.10.2021
5768 Clouds 4 985 57 10000 6.69 20 00:42 23.10.2021
5769 Clouds 3 986 60 10000 6.69 10 23:35 22.10.2021
5770 Clouds 2 986 64 10000 6.69 360 21:27 22.10.2021
5771 Clear 0 986 65 10000 8.23 30 19:24 22.10.2021
5772 Clear 0 987 70 10000 6.17 20 18:21 22.10.2021
5773 Clouds 0 987 70 10000 8.23 30 16:27 22.10.2021
5774 Clouds 0 987 69 10000 8.23 30 14:35 22.10.2021
5775 Clear -1 988 74 10000 6.69 20 12:41 22.10.2021
5776 Clear -1 988 74 10000 6.69 20 12:41 22.10.2021
5777 Clouds -1 989 74 10000 5.66 30 10:52 22.10.2021
5778 Clouds -1 989 82 10000 4.01 27 09:57 22.10.2021
5779 Clouds 0 990 74 10000 5.66 40 09:32 22.10.2021
5780 Clouds 0 990 74 10000 5.66 40 09:32 22.10.2021
5781 Clouds -1 990 80 10000 3.6 60 07:29 22.10.2021
5782 Clouds -1 990 80 10000 4.63 50 06:20 22.10.2021
5783 Rain 1 991 80 10000 3.6 70 00:37 22.10.2021
5784 Clouds 1 991 80 10000 3.6 60 23:48 21.10.2021
5785 Clouds 1 992 76 10000 3.6 60 22:40 21.10.2021
5786 Clouds 1 992 70 10000 3.6 70 21:23 21.10.2021
5787 Clouds 1 992 70 10000 2.57 60 20:21 21.10.2021
5788 Clouds 1 992 70 10000 0 0 19:31 21.10.2021
5789 Clouds 0 993 93 10000 1.58 105 18:59 21.10.2021
5790 Clouds 1 992 61 10000 3.09 180 18:27 21.10.2021
5791 Clouds 1 992 70 10000 2.57 140 17:47 21.10.2021
5792 Clouds 1 992 70 10000 2.57 140 17:47 21.10.2021
5793 Clouds 1 992 81 10000 3.09 0 16:40 21.10.2021
5794 Clouds 1 992 80 10000 6.17 230 15:22 21.10.2021
5795 Clouds 1 992 76 10000 5.14 210 14:50 21.10.2021
5796 Rain 1 992 81 10000 5.66 210 13:39 21.10.2021
5797 Clouds 1 992 86 10000 5.66 230 11:47 21.10.2021
5798 Rain 2 990 93 10000 3.6 140 09:26 21.10.2021
5799 Rain 2 990 93 9656 6.17 150 07:33 21.10.2021
5800 Rain 2 990 87 10000 5.66 140 05:33 21.10.2021
5801 Mist 1 988 93 4828 3.6 90 00:32 21.10.2021
5802 Snow 1 987 86 4828 3.6 80 22:23 20.10.2021
5803 Snow 1 987 86 6437 5.14 70 21:47 20.10.2021
5804 Snow 1 987 86 4828 4.12 70 20:58 20.10.2021
5805 Snow 1 987 86 4023 4.63 80 20:37 20.10.2021
5806 Rain 1 986 93 10000 4.12 80 20:00 20.10.2021
5807 Rain 1 986 93 10000 4.12 80 19:18 20.10.2021
5808 Rain 1 986 93 10000 4.12 90 18:29 20.10.2021
5809 Rain 1 986 93 10000 4.12 90 18:29 20.10.2021
5810 Rain 1 985 93 4828 4.63 70 16:27 20.10.2021
5811 Rain 1 984 93 10000 5.14 80 13:46 20.10.2021
5812 Clouds 2 983 81 10000 4.12 80 09:52 20.10.2021
5813 Rain 1 981 86 10000 4.12 110 05:29 20.10.2021
5814 Snow 1 981 93 4828 7.72 100 01:27 20.10.2021
5815 Snow 1 981 86 2816 8.23 100 00:32 20.10.2021
5816 Rain 1 982 86 1609 7.72 100 22:28 19.10.2021
5817 Snow 1 982 86 4023 8.23 100 21:33 19.10.2021
5818 Snow 1 982 86 2012 8.75 100 20:26 19.10.2021
5819 Snow 1 982 86 2816 9.26 100 19:56 19.10.2021
5820 Snow 1 982 86 2816 9.26 100 19:29 19.10.2021
5821 Snow 0 983 93 3219 10.8 90 18:31 19.10.2021
5822 Snow -1 984 93 1609 9.26 90 17:20 19.10.2021
5823 Snow -1 986 86 2414 8.75 90 15:26 19.10.2021
5824 Snow -1 987 86 4023 8.75 100 14:31 19.10.2021
5825 Snow 0 988 74 6437 7.2 100 13:49 19.10.2021
5826 Clouds -2 991 88 10000 9.52 117 11:58 19.10.2021
5827 Clouds 1 991 70 10000 9.26 130 11:23 19.10.2021
5828 Clouds 0 992 75 10000 6.17 100 09:42 19.10.2021
5829 Clouds -2 993 75 10000 6.69 70 08:56 19.10.2021
5830 Clouds -3 1004 69 10000 6.17 70 00:36 19.10.2021
5831 Clouds -3 1005 69 10000 4.63 70 23:56 18.10.2021
5832 Clouds -3 1005 64 10000 4.63 70 23:22 18.10.2021
5833 Clouds -7 1007 89 10000 2.99 78 22:55 18.10.2021
5834 Clouds -4 1007 64 10000 4.63 70 22:18 18.10.2021
5835 Clear -6 1007 73 10000 2.06 40 20:46 18.10.2021
5836 Clear -6 1007 73 10000 2.06 40 20:21 18.10.2021
5837 Clear -8 1008 73 10000 2.06 10 19:31 18.10.2021
5838 Clouds -5 1009 74 10000 2.09 70 18:58 18.10.2021
5839 Clouds -5 1009 74 10000 2.09 70 18:58 18.10.2021
5840 Clear -9 1010 79 10000 2.06 350 16:33 18.10.2021
5841 Clear -8 1010 73 10000 4.12 350 14:42 18.10.2021
5842 Clouds -5 1011 74 10000 2.56 357 11:53 18.10.2021
5843 Clear -7 1010 73 10000 0 0 09:47 18.10.2021
5844 Clear -5 1009 68 10000 3.6 10 07:31 18.10.2021
5845 Clouds -2 1007 70 10000 4.9 3 23:54 17.10.2021
5846 Clear -2 1005 60 10000 4.63 10 22:30 17.10.2021
5847 Clear -4 1004 68 10000 5.14 10 21:44 17.10.2021
5848 Clear -4 1004 68 10000 5.14 10 20:56 17.10.2021
5849 Clouds -4 1004 79 10000 5.37 10 19:59 17.10.2021
5850 Clear -4 1003 68 10000 6.69 20 19:38 17.10.2021
5851 Clouds -5 1003 81 10000 5.44 13 18:28 17.10.2021
5852 Clear -3 1001 64 10000 9.77 30 16:40 17.10.2021
5853 Clear -4 1000 68 10000 8.75 30 14:40 17.10.2021
5854 Clear -4 1000 68 10000 8.75 30 14:20 17.10.2021
5855 Clear -4 1000 74 10000 8.23 40 13:33 17.10.2021
5856 Clear -3 1001 68 10000 8.75 40 11:31 17.10.2021
5857 Clear -3 1001 68 10000 8.23 40 10:19 17.10.2021
5858 Clear -3 1001 68 10000 7.2 40 08:47 17.10.2021
5859 Snow -1 1004 80 10000 7.2 70 03:21 17.10.2021
5860 Snow -1 1006 80 4828 6.17 80 00:31 17.10.2021
5861 Clouds -2 1007 86 10000 7.2 80 23:22 16.10.2021
5862 Snow -3 1008 80 4023 5.66 70 20:55 16.10.2021
5863 Clouds -3 1008 80 10000 4.63 60 20:29 16.10.2021
5864 Clouds -3 1009 74 10000 5.14 70 19:41 16.10.2021
5865 Clouds -3 1009 74 10000 5.14 70 19:20 16.10.2021
5866 Haze -3 1009 80 9656 5.14 80 18:45 16.10.2021
5867 Haze -3 1009 80 9656 5.14 80 18:24 16.10.2021
5868 Clouds -2 1010 69 10000 2.06 30 17:35 16.10.2021
5869 Clouds -2 1010 69 10000 2.57 60 16:28 16.10.2021
5870 Clouds -2 1012 70 10000 1.54 20 13:26 16.10.2021
5871 Clouds -3 1012 74 10000 2.57 360 11:25 16.10.2021
5872 Clouds -2 1011 69 10000 2.06 360 09:38 16.10.2021
5873 Clouds 1 1010 60 10000 4.12 290 04:47 16.10.2021
5874 Clear 1 1008 55 10000 5.14 320 01:24 16.10.2021
5875 Clouds 1 1008 61 10000 6.69 330 23:27 15.10.2021
5876 Clouds -1 1008 69 10000 5.14 320 22:22 15.10.2021
5877 Clouds -1 1007 69 10000 3.09 300 21:45 15.10.2021
5878 Clouds -1 1007 69 10000 3.09 300 21:19 15.10.2021
5879 Clouds -3 1007 74 10000 2.57 350 20:41 15.10.2021
5880 Clouds -1 1006 69 10000 4.12 300 19:20 15.10.2021
5881 Clouds -3 1006 80 10000 4.12 290 18:25 15.10.2021
5882 Clouds -1 1005 75 10000 5.14 310 16:19 15.10.2021
5883 Clear -4 1005 74 10000 2.06 280 14:37 15.10.2021
5884 Clear -4 1004 80 10000 0 0 12:27 15.10.2021
5885 Clear -3 1004 74 10000 3.09 310 11:20 15.10.2021
5886 Clear -3 1003 74 10000 0 0 10:34 15.10.2021
5887 Clouds -2 1002 74 10000 4.12 340 08:36 15.10.2021
5888 Clouds 2 1001 69 10000 0 0 05:31 15.10.2021
5889 Clouds 1 1000 80 10000 0 0 00:30 15.10.2021
5890 Clouds 1 999 80 10000 0 0 23:45 14.10.2021
5891 Clouds -1 999 86 10000 0 0 22:44 14.10.2021
5892 Clouds -1 999 86 10000 0 0 21:41 14.10.2021
5893 Clouds -2 998 86 10000 0 0 20:22 14.10.2021
5894 Clouds -2 998 86 10000 0 0 19:52 14.10.2021
5895 Clear -2 998 86 10000 1.54 350 18:50 14.10.2021
5896 Clear -2 997 93 10000 0 0 17:25 14.10.2021
5897 Clouds 1 997 76 10000 0 0 16:46 14.10.2021
5898 Clouds 1 997 81 10000 0 0 15:24 14.10.2021
5899 Clouds 0 997 81 10000 0 0 14:40 14.10.2021
5900 Clouds -1 996 86 10000 2.06 10 13:35 14.10.2021
5901 Clouds 1 996 81 10000 2.06 60 11:40 14.10.2021
5902 Clouds 1 996 81 10000 2.06 10 09:50 14.10.2021
5903 Clouds 1 996 90 10000 1.04 25 06:46 14.10.2021
5904 Clouds 3 995 80 10000 0.51 55 00:52 14.10.2021
5905 Clouds 1 994 81 10000 0 0 22:51 13.10.2021
5906 Clouds 0 994 86 10000 1.54 90 21:41 13.10.2021
5907 Clouds 0 994 86 10000 0 0 20:46 13.10.2021
5908 Clouds 0 994 86 10000 0 0 19:47 13.10.2021
5909 Clouds 0 994 86 10000 0 0 18:49 13.10.2021
5910 Clouds 0 994 86 10000 0 0 18:49 13.10.2021
5911 Clouds 0 994 86 10000 0 0 17:36 13.10.2021
5912 Clouds 0 993 86 10000 0 0 15:23 13.10.2021
5913 Clouds -1 993 86 10000 0 0 14:44 13.10.2021
5914 Clouds -2 994 95 10000 2.44 20 12:54 13.10.2021
5915 Clouds -2 994 95 10000 2.61 21 11:55 13.10.2021
5916 Clouds -1 992 86 10000 2.57 20 10:21 13.10.2021
5917 Clouds 0 993 89 10000 1.55 6 07:56 13.10.2021
5918 Clouds 3 991 75 10000 2.57 110 05:41 13.10.2021
5919 Clouds 4 991 75 10000 4.63 100 02:24 13.10.2021
5920 Clouds 3 991 76 10000 4.12 70 23:54 12.10.2021
5921 Clouds 2 991 80 10000 4.63 80 23:28 12.10.2021
5922 Clouds 2 991 80 10000 3.6 60 22:42 12.10.2021
5923 Clouds 2 991 87 10000 3.6 70 20:55 12.10.2021
5924 Clouds 2 991 81 10000 5.66 70 20:32 12.10.2021
5925 Clouds 2 991 81 10000 4.63 70 19:50 12.10.2021
5926 Clouds 1 991 86 10000 3.09 50 18:26 12.10.2021
5927 Clouds 1 991 86 10000 3.09 60 17:35 12.10.2021
5928 Clouds 1 991 86 10000 3.6 50 16:35 12.10.2021
5929 Clouds 1 992 86 10000 4.12 50 15:43 12.10.2021
5930 Clouds 1 992 86 10000 3.6 40 14:25 12.10.2021
5931 Clouds 1 993 86 10000 2.06 30 13:41 12.10.2021
5932 Clouds 1 994 86 10000 2.06 360 11:36 12.10.2021
5933 Clouds 1 995 86 10000 2.57 360 09:41 12.10.2021
5934 Rain 1 995 86 6437 2.06 10 08:42 12.10.2021
5935 Snow 1 996 81 2816 2.57 30 06:49 12.10.2021
5936 Clouds 2 996 80 10000 2.57 50 05:29 12.10.2021
5937 Clouds 2 997 75 10000 3.6 50 04:29 12.10.2021
5938 Clouds 3 998 60 10000 3.6 40 00:18 12.10.2021
5939 Clouds 3 998 60 10000 3.6 40 00:18 12.10.2021
5940 Clouds 3 998 60 10000 3.6 40 00:18 12.10.2021
5941 Clouds 3 998 57 10000 4.12 40 23:37 11.10.2021
5942 Clouds 3 999 56 10000 4.12 10 22:55 11.10.2021
5943 Clouds 2 999 64 10000 5.14 20 21:41 11.10.2021
5944 Clouds 2 999 65 10000 5.14 10 20:32 11.10.2021
5945 Clouds 1 999 69 10000 5.14 20 19:36 11.10.2021
5946 Clouds 1 999 70 10000 4.63 30 18:24 11.10.2021
5947 Clouds 1 1000 70 10000 7.2 30 16:48 11.10.2021
5948 Clouds 1 1000 70 10000 7.2 30 16:28 11.10.2021
5949 Clouds 1 1000 70 10000 6.17 30 15:45 11.10.2021
5950 Clouds -1 1001 85 10000 5.28 42 14:54 11.10.2021
5951 Clear 0 1001 74 10000 5.66 30 14:22 11.10.2021
5952 Clouds 0 1001 80 10000 3.6 40 13:36 11.10.2021
5953 Clouds 1 1002 76 10000 5.66 40 11:25 11.10.2021
5954 Clear 1 1003 76 10000 4.12 40 09:47 11.10.2021
5955 Clouds 1 1003 75 10000 3.6 40 08:41 11.10.2021
5956 Clear 3 1006 65 10000 3.09 150 03:47 11.10.2021
5957 Clear 3 1008 65 10000 0 0 01:34 11.10.2021
5958 Clouds 2 1008 69 10000 0 0 00:43 11.10.2021
5959 Clouds 2 1008 69 10000 2.06 330 23:52 10.10.2021
5960 Clouds 1 1009 80 10000 0 0 21:51 10.10.2021
5961 Clouds -1 1009 86 10000 0 0 21:28 10.10.2021
5962 Clouds -2 1008 93 10000 3.09 310 20:41 10.10.2021
5963 Clouds -2 1008 93 10000 3.09 310 20:20 10.10.2021
5964 Clouds -3 1008 93 10000 2.57 350 19:51 10.10.2021
5965 Clouds -3 1008 93 10000 2.57 350 19:31 10.10.2021
5966 Clouds -2 1008 86 10000 0 0 18:24 10.10.2021
5967 Clouds -1 1008 86 10000 3.09 310 15:57 10.10.2021
5968 Clouds -1 1008 86 10000 3.09 310 15:38 10.10.2021
5969 Clouds 1 1006 81 10000 3.6 280 13:42 10.10.2021
5970 Clouds 1 1006 80 10000 3.6 280 12:44 10.10.2021
5971 Clouds 1 1006 80 10000 3.6 280 12:23 10.10.2021
5972 Clear -2 1004 86 10000 3.09 280 10:33 10.10.2021
5973 Clear -1 1004 86 10000 2.06 290 09:27 10.10.2021
5974 Clear 1 1003 80 10000 3.6 260 08:52 10.10.2021
5975 Clear 3 1002 75 10000 3.6 280 06:36 10.10.2021
5976 Clear 5 999 65 10000 3.6 220 02:23 10.10.2021
5977 Clouds 6 999 62 10000 0.41 251 00:54 10.10.2021
5978 Clear 2 997 75 10000 1.54 20 23:52 09.10.2021
5979 Clear 2 997 75 10000 1.54 20 23:52 09.10.2021
5980 Clear 2 996 69 10000 0 0 22:26 09.10.2021
5981 Clouds 1 995 75 10000 2.06 270 21:30 09.10.2021
5982 Clouds 1 995 75 10000 2.06 270 21:30 09.10.2021
5983 Clouds 2 994 69 10000 2.57 280 20:43 09.10.2021
5984 Clouds 3 993 66 10000 2.06 340 19:41 09.10.2021
5985 Clouds 3 991 70 10000 2.57 330 18:51 09.10.2021
5986 Clouds 3 991 70 10000 2.57 330 18:27 09.10.2021
5987 Clouds 3 990 70 10000 2.57 330 16:26 09.10.2021
5988 Clouds 3 988 70 10000 5.14 340 14:48 09.10.2021
5989 Clouds 3 987 75 10000 2.06 320 13:40 09.10.2021
5990 Clouds 3 986 76 10000 3.6 330 12:35 09.10.2021
5991 Clouds 3 985 75 10000 3.6 340 11:26 09.10.2021
5992 Clouds 4 985 71 10000 4.12 360 10:22 09.10.2021
5993 Clouds 4 984 71 10000 6.17 10 09:29 09.10.2021
5994 Clouds 4 983 71 10000 6.17 20 08:28 09.10.2021
5995 Clouds 4 982 81 10000 3.09 40 06:47 09.10.2021
5996 Clouds 5 982 76 10000 7.2 50 05:27 09.10.2021
5997 Clouds 5 981 75 10000 7.2 30 02:48 09.10.2021
5998 Clouds 4 980 81 10000 7.2 40 00:45 09.10.2021
5999 Rain 4 980 81 10000 8.23 40 23:35 08.10.2021
6000 Rain 3 980 87 10000 9.77 30 22:49 08.10.2021
6001 Rain 3 980 87 10000 9.26 30 21:47 08.10.2021
6002 Rain 3 980 87 10000 9.26 40 20:31 08.10.2021
6003 Rain 3 981 81 10000 9.26 40 18:50 08.10.2021
6004 Clouds 4 981 71 10000 9.26 50 17:26 08.10.2021
6005 Clouds 3 981 81 10000 8.75 40 16:45 08.10.2021
6006 Clouds 3 981 81 10000 8.75 40 16:22 08.10.2021
6007 Clouds 3 984 76 10000 8.23 40 13:49 08.10.2021
6008 Clouds 3 986 81 10000 5.14 50 11:57 08.10.2021
6009 Clouds 2 988 93 10000 5.14 70 10:50 08.10.2021
6010 Clouds 2 988 93 10000 5.14 70 10:25 08.10.2021
6011 Clouds 3 993 87 10000 3.09 70 06:51 08.10.2021
6012 Clear 3 999 81 10000 0 0 23:29 07.10.2021
6013 Clouds 2 1000 91 10000 2.28 42 22:56 07.10.2021
6014 Clear 0 999 80 10000 1.54 60 21:33 07.10.2021
6015 Clear -2 999 93 10000 0 0 20:43 07.10.2021
6016 Clear -1 999 86 10000 1.54 260 19:39 07.10.2021
6017 Clouds 3 1000 90 10000 2.05 306 18:59 07.10.2021
6018 Clouds 3 1000 90 10000 2.05 306 18:59 07.10.2021
6019 Clouds 1 998 86 10000 3.6 300 17:38 07.10.2021
6020 Clear 0 997 93 10000 2.06 250 16:42 07.10.2021
6021 Clouds 3 997 91 10000 3.33 300 14:57 07.10.2021
6022 Clear 2 995 87 10000 6.69 270 13:44 07.10.2021
6023 Clear 2 995 87 10000 6.69 270 13:20 07.10.2021
6024 Clouds 3 993 87 10000 4.12 280 11:48 07.10.2021
6025 Clouds 2 992 93 10000 1.54 300 10:48 07.10.2021
6026 Clouds 2 992 93 10000 1.54 300 10:48 07.10.2021
6027 Clear 3 991 87 10000 3.6 290 09:51 07.10.2021
6028 Clouds 2 992 96 480 1.94 300 08:55 07.10.2021
6029 Rain 4 990 87 10000 3.6 310 08:25 07.10.2021
6030 Rain 4 990 93 10000 3.09 300 07:40 07.10.2021
6031 Rain 6 989 82 10000 2.06 210 06:47 07.10.2021
6032 Rain 6 986 76 10000 4.63 20 00:59 07.10.2021
6033 Rain 4 985 87 10000 6.17 50 23:30 06.10.2021
6034 Rain 4 985 87 10000 6.17 50 22:41 06.10.2021
6035 Rain 5 986 87 10000 7.2 60 21:41 06.10.2021
6036 Mist 5 986 93 2816 5.14 70 20:34 06.10.2021
6037 Rain 5 986 93 10000 5.66 70 19:26 06.10.2021
6038 Rain 5 989 98 3191 6.16 89 17:56 06.10.2021
6039 Clouds 6 989 87 10000 4.63 90 16:40 06.10.2021
6040 Clouds 6 990 87 10000 4.63 100 15:18 06.10.2021
6041 Clouds 6 991 87 10000 5.14 120 13:31 06.10.2021
6042 Clouds 6 992 87 10000 4.63 120 12:53 06.10.2021
6043 Rain 6 993 87 10000 4.12 130 12:29 06.10.2021
6044 Rain 6 993 87 10000 5.66 140 11:39 06.10.2021
6045 Clouds 7 994 82 10000 5.66 130 09:45 06.10.2021
6046 Clouds 7 994 82 10000 5.66 130 09:26 06.10.2021
6047 Clouds 7 995 82 10000 5.66 130 08:39 06.10.2021
6048 Rain 7 996 87 10000 5.66 160 06:19 06.10.2021
6049 Rain 7 996 93 4023 6.69 170 04:24 06.10.2021
6050 Mist 7 996 93 4023 6.69 160 00:25 06.10.2021
6051 Mist 7 996 93 6437 4.63 160 23:52 05.10.2021
6052 Mist 7 996 93 6437 4.63 160 23:52 05.10.2021
6053 Mist 7 996 93 6437 4.63 160 23:32 05.10.2021
6054 Rain 6 996 100 2816 6.17 160 22:38 05.10.2021
6055 Rain 6 996 93 4828 7.2 160 21:57 05.10.2021
6056 Rain 6 996 93 4828 7.2 160 21:32 05.10.2021
6057 Rain 6 996 93 4828 7.72 160 20:38 05.10.2021
6058 Rain 6 996 93 4828 7.72 160 20:18 05.10.2021
6059 Rain 6 995 93 10000 7.2 160 19:25 05.10.2021
6060 Mist 6 995 93 8047 8.23 160 18:21 05.10.2021
6061 Rain 6 996 87 10000 9.77 150 15:39 05.10.2021
6062 Rain 6 996 87 6437 9.26 150 14:29 05.10.2021
6063 Rain 5 997 93 9656 8.23 140 13:27 05.10.2021
6064 Rain 5 997 93 4828 9.77 120 12:35 05.10.2021
6065 Rain 4 998 93 3219 8.75 100 11:41 05.10.2021
6066 Rain 4 999 87 10000 11.83 120 10:38 05.10.2021
6067 Mist 4 1000 87 4023 9.77 110 08:38 05.10.2021
6068 Mist 3 1006 87 8047 12.35 130 01:47 05.10.2021
6069 Rain 2 1008 87 6437 9.26 90 23:39 04.10.2021
6070 Snow 1 1010 86 2012 8.23 100 21:42 04.10.2021
6071 Snow 1 1012 86 4828 9.26 110 18:54 04.10.2021
6072 Rain 2 1014 76 10000 7.72 120 17:44 04.10.2021
6073 Clouds 0 1015 92 9983 7.71 126 15:59 04.10.2021
6074 Clouds 2 1016 80 10000 9.26 130 15:29 04.10.2021
6075 Snow 2 1017 76 9656 5.66 120 14:34 04.10.2021
6076 Clouds 2 1017 65 10000 4.12 100 13:47 04.10.2021
6077 Clouds 2 1018 65 10000 5.14 120 12:51 04.10.2021
6078 Clouds 1 1019 70 10000 3.6 130 11:34 04.10.2021
6079 Clouds 1 1020 65 10000 4.63 150 10:47 04.10.2021
6080 Clouds 1 1020 61 10000 0 0 09:47 04.10.2021
6081 Clouds 1 1020 61 10000 1.85 123 08:30 04.10.2021
6082 Clouds 1 1021 61 10000 2.06 320 06:51 04.10.2021
6083 Clear 1 1022 60 10000 4.12 320 23:41 03.10.2021
6084 Clear -1 1022 75 10000 1.54 310 22:32 03.10.2021
6085 Clear -2 1021 74 10000 3.09 330 21:35 03.10.2021
6086 Clear -6 1021 86 10000 0 0 20:50 03.10.2021
6087 Clear -6 1021 86 10000 2.57 330 19:50 03.10.2021
6088 Clear -4 1020 74 10000 2.06 280 18:30 03.10.2021
6089 Clear -4 1020 80 10000 2.57 310 17:40 03.10.2021
6090 Clear -3 1020 74 10000 3.09 340 15:30 03.10.2021
6091 Clear -4 1020 80 10000 3.6 320 14:39 03.10.2021
6092 Clear -4 1019 80 10000 3.09 330 13:40 03.10.2021
6093 Clear -4 1019 80 10000 3.09 330 13:20 03.10.2021
6094 Clear -4 1019 80 10000 0 0 11:48 03.10.2021
6095 Clear -2 1018 74 10000 4.12 310 10:33 03.10.2021
6096 Clear -1 1017 80 10000 2.57 290 07:39 03.10.2021
6097 Clouds 2 1014 60 10000 7.72 310 00:26 03.10.2021
6098 Clouds 1 1013 69 10000 5.14 310 22:23 02.10.2021
6099 Clouds -2 1012 74 10000 3.6 310 20:50 02.10.2021
6100 Clouds -1 1012 81 10000 7.51 317 18:59 02.10.2021
6101 Clouds -3 1011 80 10000 4.12 280 18:31 02.10.2021
6102 Clouds -2 1011 74 10000 4.12 310 17:38 02.10.2021
6103 Clear -3 1010 80 10000 2.57 300 16:46 02.10.2021
6104 Clear -2 1009 80 10000 3.09 310 14:42 02.10.2021
6105 Clear -1 998 65 10000 7.72 30 15:41 30.09.2021
6106 Clear -1 997 69 10000 7.2 20 14:42 30.09.2021
6107 Clear 1 997 64 10000 6.69 50 12:22 30.09.2021
6108 Clear 1 997 65 10000 7.2 50 11:29 30.09.2021
6109 Clear 1 997 69 10000 6.17 60 10:36 30.09.2021
6110 Clouds 1 997 80 10000 7.83 67 08:54 30.09.2021
6111 Clear 2 997 69 10000 7.2 70 08:22 30.09.2021
6112 Clouds 4 998 66 10000 6.69 90 05:50 30.09.2021
6113 Clouds 4 999 81 10000 6.69 80 02:33 30.09.2021
6114 Clouds 3 1000 75 10000 6.17 80 00:37 30.09.2021
6115 Clouds 2 1001 75 10000 5.66 90 22:59 29.09.2021
6116 Clouds 1 1002 82 10000 3.1 80 21:54 29.09.2021
6117 Clouds -1 1002 75 10000 2.57 50 20:41 29.09.2021
6118 Clouds -1 1002 75 10000 2.57 50 20:20 29.09.2021
6119 Clouds 0 1002 64 10000 4.12 70 19:26 29.09.2021
6120 Clouds -2 1003 80 10000 1.54 320 18:18 29.09.2021
6121 Clouds -1 1004 78 10000 2.36 55 16:56 29.09.2021
6122 Clouds -2 1004 80 10000 2.06 10 16:28 29.09.2021
6123 Clouds -2 1004 74 10000 2.06 360 15:35 29.09.2021
6124 Clouds -2 1004 80 10000 1.54 360 14:38 29.09.2021
6125 Clouds -2 1004 74 10000 0 0 13:33 29.09.2021
6126 Clear -3 1004 80 10000 0 0 12:39 29.09.2021
6127 Clear -3 1004 86 10000 1.54 360 11:23 29.09.2021
6128 Clear -1 1004 75 10000 2.57 40 10:32 29.09.2021
6129 Clouds -1 1004 74 10000 2.06 50 09:43 29.09.2021
6130 Clouds 0 1005 79 10000 2.22 76 07:55 29.09.2021
6131 Clouds 2 1004 56 10000 3.09 40 06:49 29.09.2021
6132 Clouds 2 1005 52 10000 0 0 00:28 29.09.2021
6133 Clouds 1 1005 56 10000 0 0 22:52 28.09.2021
6134 Clouds 1 1005 56 10000 0 0 22:22 28.09.2021
6135 Clouds 1 1005 61 10000 1.54 60 21:23 28.09.2021
6136 Clouds -2 1005 89 10000 1.31 56 19:53 28.09.2021
6137 Clouds -1 1005 75 10000 1.54 350 19:32 28.09.2021
6138 Clouds -1 1005 70 10000 0 0 18:42 28.09.2021
6139 Clouds -4 1005 92 10000 1.39 33 16:58 28.09.2021
6140 Clouds -1 1005 81 10000 2.06 350 15:21 28.09.2021
6141 Clouds -1 1005 74 10000 1.54 10 13:28 28.09.2021
6142 Clouds -2 1004 74 10000 2.57 340 12:26 28.09.2021
6143 Clouds -1 1004 74 10000 2.06 360 11:52 28.09.2021
6144 Clouds -1 1004 74 10000 2.06 360 11:34 28.09.2021
6145 Clouds -1 1004 80 10000 2.57 360 10:30 28.09.2021
6146 Clouds -1 1004 80 10000 3.09 360 09:33 28.09.2021
6147 Clouds 0 1004 75 10000 1.54 360 08:44 28.09.2021
6148 Clouds 0 1004 74 10000 1.54 360 08:25 28.09.2021
6149 Clear 2 1004 65 10000 2.06 60 06:46 28.09.2021
6150 Clear 4 1004 57 10000 2.06 0 04:39 28.09.2021
6151 Clear 3 1004 61 10000 3.09 20 00:51 28.09.2021
6152 Clouds 2 1005 80 10000 1.45 78 23:54 27.09.2021
6153 Clear 2 1005 70 10000 1.54 360 23:28 27.09.2021
6154 Clear 2 1005 76 10000 0 0 22:44 27.09.2021
6155 Clear -1 1005 80 10000 2.06 10 21:41 27.09.2021
6156 Clear -2 1005 86 10000 0 0 20:38 27.09.2021
6157 Clear -4 1005 86 10000 0 0 19:41 27.09.2021
6158 Clear -4 1005 86 10000 0 0 19:22 27.09.2021
6159 Clear -4 1005 86 10000 0 0 18:24 27.09.2021
6160 Clear -3 1006 93 10000 0 0 17:22 27.09.2021
6161 Clear -2 1006 86 10000 0 0 16:39 27.09.2021
6162 Clouds -2 1006 93 10000 2.06 340 15:40 27.09.2021
6163 Clouds -1 1007 86 10000 2.57 360 14:32 27.09.2021
6164 Clouds -2 1008 95 334 0.71 54 12:59 27.09.2021
6165 Clouds 1 1008 93 10000 1.54 320 10:52 27.09.2021
6166 Clouds 2 1008 87 10000 3.09 320 09:50 27.09.2021
6167 Mist 2 1008 93 8047 7.2 230 08:32 27.09.2021
6168 Clouds 3 1010 70 10000 1.54 300 05:21 27.09.2021
6169 Clouds 2 1011 69 10000 5.14 290 01:48 27.09.2021
6170 Clouds 2 1010 75 10000 5.66 300 22:28 26.09.2021
6171 Clouds 2 1010 75 10000 4.12 300 21:45 26.09.2021
6172 Clouds 2 1010 80 10000 5.66 290 20:52 26.09.2021
6173 Clouds 2 1010 80 10000 5.66 290 20:20 26.09.2021
6174 Clouds 2 1010 80 10000 5.66 290 20:20 26.09.2021
6175 Clouds 2 1009 81 10000 6.69 280 19:37 26.09.2021
6176 Rain 2 1009 81 10000 6.17 290 18:45 26.09.2021
6177 Rain 3 1008 87 10000 5.66 300 17:50 26.09.2021
6178 Rain 3 1008 87 10000 5.66 300 17:21 26.09.2021
6179 Rain 5 1009 82 10000 6.69 190 16:30 26.09.2021
6180 Rain 6 1009 76 10000 8.23 170 15:57 26.09.2021
6181 Rain 6 1009 76 10000 6.69 160 14:45 26.09.2021
6182 Rain 6 1010 76 10000 5.66 180 13:45 26.09.2021
6183 Rain 6 1010 71 10000 5.14 180 12:33 26.09.2021
6184 Clouds 2 1011 94 10000 3.27 188 11:59 26.09.2021
6185 Clouds 6 1010 71 10000 5.14 190 11:37 26.09.2021
6186 Clear 6 1010 76 10000 5.14 180 10:23 26.09.2021
6187 Clouds 2 1011 93 10000 3.28 194 08:56 26.09.2021
6188 Clouds 7 1010 71 10000 5.14 210 06:32 26.09.2021
6189 Clouds 7 1009 76 10000 6.69 200 00:21 26.09.2021
6190 Rain 7 1009 71 10000 6.69 200 23:24 25.09.2021
6191 Rain 7 1009 71 10000 5.66 210 22:38 25.09.2021
6192 Rain 6 1010 92 10000 5.33 198 21:55 25.09.2021
6193 Rain 7 1009 71 10000 4.63 200 21:31 25.09.2021
6194 Clouds 6 1008 76 10000 4.63 200 20:45 25.09.2021
6195 Clouds 6 1008 82 10000 6.69 190 18:47 25.09.2021
6196 Rain 6 1008 82 10000 6.17 180 17:47 25.09.2021
6197 Rain 6 1008 76 10000 6.17 170 15:48 25.09.2021
6198 Rain 5 1008 95 10000 4.3 180 13:57 25.09.2021
6199 Rain 7 1007 77 10000 6.17 170 13:30 25.09.2021
6200 Rain 7 1007 77 10000 6.69 170 12:25 25.09.2021
6201 Rain 6 1007 82 10000 5.14 160 10:34 25.09.2021
6202 Rain 6 1007 82 10000 6.17 160 09:26 25.09.2021
6203 Rain 3 1008 96 10000 2.21 175 07:55 25.09.2021
6204 Rain 6 1007 76 10000 4.63 160 05:46 25.09.2021
6205 Rain 3 1008 71 10000 4.12 80 23:50 24.09.2021
6206 Clouds 1 1007 70 10000 3.6 80 21:42 24.09.2021
6207 Clouds 1 1007 70 10000 3.6 80 20:33 24.09.2021
6208 Clouds 0 1007 65 10000 3.6 80 19:47 24.09.2021
6209 Clouds -1 1007 70 10000 3.6 80 18:32 24.09.2021
6210 Clouds -3 1009 90 10000 1.65 71 17:54 24.09.2021
6211 Clouds 0 1007 65 10000 1.54 80 17:35 24.09.2021
6212 Clouds -4 1008 90 10000 1.46 72 16:55 24.09.2021
6213 Clouds -4 1009 89 10000 1.33 29 13:57 24.09.2021
6214 Clouds -1 1008 75 10000 0 0 12:45 24.09.2021
6215 Clouds -1 1008 75 10000 0 0 12:27 24.09.2021
6216 Clouds -4 1009 91 10000 1.83 38 11:59 24.09.2021
6217 Clouds 0 1008 74 10000 0 0 10:25 24.09.2021
6218 Clouds -1 1008 74 10000 2.57 50 08:29 24.09.2021
6219 Clear 2 1009 65 10000 0 0 07:32 24.09.2021
6220 Clear 3 1009 57 10000 2.06 280 06:44 24.09.2021
6221 Clear 3 1010 64 10000 1.29 347 04:53 24.09.2021
6222 Clear 3 1013 61 10000 1.82 327 23:57 23.09.2021
6223 Clear 1 1013 56 10000 3.09 320 22:20 23.09.2021
6224 Clear -1 1013 64 10000 2.57 330 21:47 23.09.2021
6225 Clear -4 1014 74 10000 3.09 330 20:33 23.09.2021
6226 Clear -6 1014 79 10000 2.57 10 19:28 23.09.2021
6227 Clear -4 1015 74 10000 1.54 350 17:45 23.09.2021
6228 Clouds -3 1015 74 10000 4.12 350 15:21 23.09.2021
6229 Clear -2 1016 79 10000 3.11 10 14:59 23.09.2021
6230 Clouds -2 1016 70 10000 3.6 360 13:45 23.09.2021
6231 Clouds -2 1016 70 10000 3.6 360 13:19 23.09.2021
6232 Clouds -1 1016 70 10000 3.09 340 12:48 23.09.2021
6233 Clouds -1 1016 70 10000 3.09 340 12:22 23.09.2021
6234 Clouds -1 1016 69 10000 3.6 350 11:23 23.09.2021
6235 Clouds 1 1016 69 10000 5.14 40 10:20 23.09.2021
6236 Clouds 1 1017 69 10000 4.63 360 09:49 23.09.2021
6237 Clouds 2 1016 60 10000 2.57 10 07:44 23.09.2021
6238 Clouds 4 1017 52 10000 1.54 270 01:43 23.09.2021
6239 Clouds 2 1018 72 10000 3.3 355 22:58 22.09.2021
6240 Clear 3 1018 57 10000 2.57 20 22:24 22.09.2021
6241 Clouds 1 1018 70 10000 2.06 20 21:51 22.09.2021
6242 Clouds 1 1018 70 10000 2.06 20 21:32 22.09.2021
6243 Clouds -2 1018 86 10000 1.54 270 20:39 22.09.2021
6244 Clouds -1 1017 81 10000 3.09 330 19:28 22.09.2021
6245 Clouds -1 1017 86 10000 1.54 280 18:36 22.09.2021
6246 Clouds -3 1018 92 10000 2.74 331 17:43 22.09.2021
6247 Clouds -2 1017 91 10000 2.9 335 16:37 22.09.2021
6248 Clouds -3 1017 92 10000 3.19 331 14:55 22.09.2021
6249 Clear -1 1017 80 10000 3.09 360 13:25 22.09.2021
6250 Clouds 1 1016 76 10000 0 0 11:41 22.09.2021
6251 Clouds -1 1016 81 10000 3.09 330 10:44 22.09.2021
6252 Clear -1 1015 75 10000 3.6 340 09:21 22.09.2021
6253 Clouds -1 1015 69 10000 3.6 360 08:22 22.09.2021
6254 Clouds 1 1015 71 10000 2.89 359 06:57 22.09.2021
6255 Clouds 4 1014 48 10000 4.63 10 05:51 22.09.2021
6256 Clouds 4 1014 48 10000 4.63 10 05:31 22.09.2021
6257 Clouds 4 1015 56 10000 0 0 03:44 22.09.2021
6258 Clouds 3 1016 53 10000 4.12 50 00:21 22.09.2021
6259 Clouds 1 1016 61 10000 3.6 40 22:49 21.09.2021
6260 Clouds 0 1017 74 10000 3.09 30 21:31 21.09.2021
6261 Clouds -1 1018 75 10000 2.18 38 20:24 21.09.2021
6262 Clouds -2 1018 78 10000 2.2 37 19:20 21.09.2021
6263 Clouds -2 1018 77 10000 1.98 11 17:20 21.09.2021
6264 Clear -4 1018 80 10000 0 0 16:34 21.09.2021
6265 Clear -4 1018 74 10000 1.54 350 15:35 21.09.2021
6266 Clouds -1 1019 76 10000 2.08 346 14:56 21.09.2021
6267 Clouds -1 1019 75 10000 2.17 330 13:56 21.09.2021
6268 Clear -4 1018 80 10000 2.57 350 13:36 21.09.2021
6269 Clouds -1 1018 69 10000 4.12 300 11:44 21.09.2021
6270 Clear -1 1019 76 10000 2.71 320 09:55 21.09.2021
6271 Clouds -1 1018 76 10000 4.11 314 07:59 21.09.2021
6272 Clear 2 1017 60 10000 5.14 310 06:38 21.09.2021
6273 Clouds 4 1018 52 10000 6.4 315 23:58 20.09.2021
6274 Clouds 3 1017 65 10000 7.2 300 22:18 20.09.2021
6275 Clouds 2 1017 69 10000 5.14 310 21:36 20.09.2021
6276 Clear 0 1016 80 10000 5.14 330 20:30 20.09.2021
6277 Clear -1 1016 80 10000 0 0 19:29 20.09.2021
6278 Clear -2 1015 86 10000 1.54 230 17:40 20.09.2021
6279 Clear -2 1015 86 10000 2.57 280 16:43 20.09.2021
6280 Clear -1 1014 80 10000 0 0 15:49 20.09.2021
6281 Clear -1 1014 80 10000 0 0 15:49 20.09.2021
6282 Clear -1 1014 80 10000 0 0 15:23 20.09.2021
6283 Clear -1 1014 86 10000 2.06 320 13:45 20.09.2021
6284 Clear 0 1013 80 10000 3.09 320 12:35 20.09.2021
6285 Clear 0 1013 80 10000 3.09 320 12:35 20.09.2021
6286 Clear -1 1012 86 10000 3.6 350 11:23 20.09.2021
6287 Clouds 0 1013 82 10000 4.57 312 09:59 20.09.2021
6288 Clear 1 1011 75 10000 6.17 300 09:36 20.09.2021
6289 Clear 1 1011 75 10000 6.17 300 09:18 20.09.2021
6290 Clouds 4 1010 57 10000 8.23 320 06:55 20.09.2021
6291 Clouds 4 1007 52 10000 5.14 360 23:45 19.09.2021
6292 Clouds 3 1006 70 10000 3.6 10 22:26 19.09.2021
6293 Clouds 3 1006 70 10000 3.6 10 22:26 19.09.2021
6294 Clouds 2 1005 80 10000 2.06 320 21:40 19.09.2021
6295 Clouds 2 1004 80 10000 3.09 360 20:34 19.09.2021
6296 Rain 2 1003 87 10000 5.66 360 19:31 19.09.2021
6297 Rain 3 1003 93 10000 3.6 10 18:29 19.09.2021
6298 Rain 4 1002 87 10000 5.14 350 17:23 19.09.2021
6299 Rain 6 1004 92 96 4.59 14 15:55 19.09.2021
6300 Rain 7 1003 81 10000 2.57 290 15:30 19.09.2021
6301 Rain 7 1003 81 10000 3.09 310 14:48 19.09.2021
6302 Clouds 6 1004 87 10000 2.57 300 13:29 19.09.2021
6303 Clouds 6 1004 87 10000 2.06 320 12:51 19.09.2021
6304 Clouds 7 1004 77 10000 0 0 11:28 19.09.2021
6305 Clouds 6 1004 91 10000 1.8 326 10:53 19.09.2021
6306 Clouds 7 1004 81 10000 3.09 290 09:49 19.09.2021
6307 Clouds 8 1004 72 10000 3.09 270 08:35 19.09.2021
6308 Clouds 8 1004 76 10000 6.69 250 06:42 19.09.2021
6309 Clouds 8 1005 78 10000 6.99 257 23:53 18.09.2021
6310 Clouds 8 1005 71 10000 6.17 250 22:31 18.09.2021
6311 Clouds 7 1005 85 10000 5.95 252 20:56 18.09.2021
6312 Clouds 7 1005 76 10000 7.72 250 20:36 18.09.2021
6313 Clouds 7 1005 71 10000 7.72 250 19:40 18.09.2021
6314 Clouds 7 1005 71 10000 7.72 250 19:20 18.09.2021
6315 Clouds 7 1006 71 10000 7.2 250 18:32 18.09.2021
6316 Clouds 7 1006 71 10000 6.69 250 17:45 18.09.2021
6317 Clouds 7 1006 71 10000 5.66 250 16:24 18.09.2021
6318 Clouds 3 1007 76 10000 2.06 360 13:49 18.09.2021
6319 Clouds 4 1008 71 10000 2.06 290 13:29 18.09.2021
6320 Clouds 3 1008 82 10000 0 0 12:49 18.09.2021
6321 Clouds 3 1008 76 10000 0 0 11:42 18.09.2021
6322 Clouds 2 1008 80 10000 2.06 320 10:33 18.09.2021
6323 Clouds 3 1008 81 10000 2.06 50 09:48 18.09.2021
6324 Clouds 3 1008 81 10000 2.06 50 09:19 18.09.2021
6325 Clouds 4 1008 81 10000 4.12 320 06:54 18.09.2021
6326 Clouds 7 1009 75 10000 6.17 290 00:42 18.09.2021
6327 Clouds 6 1009 74 10000 5.15 296 23:52 17.09.2021
6328 Clouds 5 1010 75 10000 4.47 309 22:40 17.09.2021
6329 Clouds 5 1009 79 10000 3.45 310 22:20 17.09.2021
6330 Clouds 3 1008 71 10000 2.06 300 21:24 17.09.2021
6331 Clear -1 1008 86 10000 1.54 10 19:26 17.09.2021
6332 Clear 1 1008 81 10000 2.57 310 17:29 17.09.2021
6333 Clear 1 1008 81 10000 2.06 340 16:27 17.09.2021
6334 Clear 2 1007 75 10000 0 0 14:23 17.09.2021
6335 Clear 3 1006 71 10000 6.17 360 11:30 17.09.2021
6336 Clouds 1 1007 86 10000 3.64 357 08:55 17.09.2021
6337 Clouds 6 1005 62 10000 5.66 10 07:33 17.09.2021
6338 Clouds 10 1005 60 10000 4.06 14 03:54 17.09.2021
6339 Clouds 7 1004 70 10000 2.06 340 23:36 16.09.2021
6340 Clouds 7 1003 71 10000 1.54 350 22:33 16.09.2021
6341 Clouds 6 1003 76 10000 2.57 340 21:52 16.09.2021
6342 Clouds 6 1003 76 10000 2.57 340 21:27 16.09.2021
6343 Clouds 6 1003 76 10000 3.09 340 20:19 16.09.2021
6344 Rain 6 1002 76 10000 3.6 340 18:24 16.09.2021
6345 Rain 6 1002 82 10000 2.57 350 17:54 16.09.2021
6346 Clouds 6 1003 91 10000 4.32 8 14:59 16.09.2021
6347 Clouds 5 1002 81 10000 3.6 360 14:33 16.09.2021
6348 Clouds 6 1002 81 10000 3.6 350 12:52 16.09.2021
6349 Clouds 6 1002 81 10000 3.6 350 12:33 16.09.2021
6350 Clouds 7 1002 82 10000 4.12 350 11:43 16.09.2021
6351 Clouds 7 1002 82 10000 4.12 350 11:43 16.09.2021
6352 Clouds 7 1001 82 10000 1.54 340 10:34 16.09.2021
6353 Clouds 5 1002 91 10000 4.47 9 09:59 16.09.2021
6354 Clouds 8 1001 87 10000 1.54 360 08:43 16.09.2021
6355 Rain 8 1001 87 10000 2.06 320 07:36 16.09.2021
6356 Rain 8 1002 92 10000 1.8 321 06:54 16.09.2021
6357 Rain 8 1002 90 10000 1.91 285 05:57 16.09.2021
6358 Rain 10 1002 89 10000 0.41 68 01:56 16.09.2021
6359 Rain 9 1002 87 10000 1.54 240 00:37 16.09.2021
6360 Clouds 8 1002 93 10000 1.54 240 22:47 15.09.2021
6361 Clouds 8 1002 93 10000 1.54 240 22:47 15.09.2021
6362 Rain 8 1002 93 4828 0 0 21:48 15.09.2021
6363 Clouds 8 1001 87 10000 0 0 21:29 15.09.2021
6364 Clouds 7 1001 87 10000 0 0 20:22 15.09.2021
6365 Clouds 7 1001 87 10000 0 0 19:28 15.09.2021
6366 Clouds 6 1001 87 10000 0 0 18:23 15.09.2021
6367 Clouds 6 1001 93 10000 0 0 17:23 15.09.2021
6368 Clouds 4 1002 98 10000 1.07 22 15:59 15.09.2021
6369 Clouds 6 1002 93 10000 2.57 300 14:45 15.09.2021
6370 Clouds 7 1003 94 10000 0.59 32 13:55 15.09.2021
6371 Clouds 6 1001 93 10000 0 0 13:37 15.09.2021
6372 Clouds 6 1001 93 10000 0 0 13:18 15.09.2021
6373 Clouds 7 1001 87 10000 2.06 30 11:52 15.09.2021
6374 Clouds 8 1001 87 10000 0 0 11:32 15.09.2021
6375 Clouds 5 1002 95 10000 1.78 94 10:55 15.09.2021
6376 Clouds 8 1001 93 10000 2.57 70 09:30 15.09.2021
6377 Clouds 9 1000 87 10000 1.54 80 08:26 15.09.2021
6378 Rain 10 1000 81 10000 4.12 160 05:37 15.09.2021
6379 Clouds 12 1000 74 10000 2.87 123 23:54 14.09.2021
6380 Clouds 10 1000 82 10000 1.17 43 21:55 14.09.2021
6381 Clouds 7 1000 91 10000 1.68 39 20:55 14.09.2021
6382 Clouds 4 998 87 10000 0 0 19:42 14.09.2021
6383 Clear 4 997 87 10000 3.6 30 17:45 14.09.2021
6384 Clear 4 997 87 10000 3.6 30 17:27 14.09.2021
6385 Clear 6 996 81 10000 2.06 10 15:39 14.09.2021
6386 Clear 7 996 82 10000 4.12 60 14:31 14.09.2021
6387 Clear 8 995 81 10000 3.6 60 12:46 14.09.2021
6388 Clear 8 994 81 10000 4.63 40 10:55 14.09.2021
6389 Clouds 8 993 87 10000 4.12 50 09:51 14.09.2021
6390 Clear 7 993 87 10000 2.06 20 08:48 14.09.2021
6391 Rain 10 992 87 10000 2.06 50 06:47 14.09.2021
6392 Rain 11 991 77 10000 5.14 30 00:41 14.09.2021
6393 Clouds 11 992 84 10000 3.98 50 22:53 13.09.2021
6394 Clouds 12 991 59 10000 6.17 30 22:24 13.09.2021
6395 Clouds 12 991 63 10000 5.66 20 21:53 13.09.2021
6396 Clouds 11 991 67 10000 4.12 10 20:51 13.09.2021
6397 Clouds 10 991 71 10000 6.69 30 19:26 13.09.2021
6398 Clouds 10 991 72 10000 6.69 30 18:43 13.09.2021
6399 Clouds 10 993 84 10000 4.82 10 16:58 13.09.2021
6400 Rain 11 992 67 10000 5.66 10 15:39 13.09.2021
6401 Clouds 11 993 63 10000 7.2 20 13:32 13.09.2021
6402 Clouds 8 996 87 10000 4.42 13 10:58 13.09.2021
6403 Clouds 11 995 67 10000 8.23 50 09:41 13.09.2021
6404 Clouds 11 996 67 10000 5.14 40 07:28 13.09.2021
6405 Rain 11 1000 82 10000 8.75 90 23:44 12.09.2021
6406 Rain 11 1000 87 10000 7.2 110 22:26 12.09.2021
6407 Rain 11 1000 87 10000 5.66 110 21:37 12.09.2021
6408 Rain 10 1000 93 10000 6.69 110 20:34 12.09.2021
6409 Rain 10 1001 97 10000 7.16 111 19:54 12.09.2021
6410 Rain 10 1000 93 10000 5.14 120 19:28 12.09.2021
6411 Rain 11 1000 87 10000 7.2 130 18:29 12.09.2021
6412 Rain 11 1000 87 10000 8.23 140 16:33 12.09.2021
6413 Rain 11 1000 87 4828 7.72 140 14:59 12.09.2021
6414 Rain 11 1000 87 9656 7.2 140 13:51 12.09.2021
6415 Rain 9 999 87 10000 5.66 80 11:47 12.09.2021
6416 Rain 8 1000 87 10000 3.6 70 09:41 12.09.2021
6417 Rain 8 1000 81 10000 4.12 70 08:38 12.09.2021
6418 Clouds 9 1000 66 10000 3.6 230 02:39 12.09.2021
6419 Clouds 9 1000 67 10000 1.54 0 23:52 11.09.2021
6420 Clear 7 999 81 10000 2.06 360 22:25 11.09.2021
6421 Clouds 6 999 87 10000 3.6 350 21:36 11.09.2021
6422 Rain 6 999 87 10000 3.09 50 19:32 11.09.2021
6423 Rain 4 1000 87 10000 2.06 20 17:52 11.09.2021
6424 Rain 6 1000 82 10000 3.09 60 15:52 11.09.2021
6425 Clouds 8 1000 72 10000 4.12 150 13:52 11.09.2021
6426 Clouds 8 1000 71 10000 4.12 150 13:19 11.09.2021
6427 Rain 8 1000 72 10000 4.63 170 11:34 11.09.2021
6428 Rain 8 1000 72 10000 5.66 210 09:40 11.09.2021
6429 Clouds 8 999 72 10000 8.23 210 07:45 11.09.2021
6430 Rain 8 999 72 10000 9.26 210 06:52 11.09.2021
6431 Rain 8 996 93 10000 6.17 220 00:49 11.09.2021
6432 Rain 10 995 93 10000 4.12 150 22:25 10.09.2021
6433 Rain 10 995 87 6437 4.12 130 21:54 10.09.2021
6434 Rain 9 995 93 10000 5.66 70 20:25 10.09.2021
6435 Rain 9 996 93 10000 5.14 70 18:28 10.09.2021
6436 Rain 9 997 93 10000 5.14 70 16:57 10.09.2021
6437 Rain 10 998 82 10000 4.63 70 14:52 10.09.2021
6438 Clear 9 1000 82 10000 3.6 60 12:43 10.09.2021
6439 Clouds 9 1001 87 10000 2.57 60 09:27 10.09.2021
6440 Clouds 11 1001 82 10000 4.12 100 07:50 10.09.2021
6441 Clear 12 1002 76 10000 5.14 120 03:43 10.09.2021
6442 Clouds 11 1003 82 10000 5.66 100 22:33 09.09.2021
6443 Clouds 11 1003 76 10000 5.14 90 21:46 09.09.2021
6444 Clouds 10 1003 81 10000 3.6 90 20:47 09.09.2021
6445 Clouds 10 1003 81 10000 3.6 90 20:21 09.09.2021
6446 Clouds 9 1003 87 10000 1.54 60 18:34 09.09.2021
6447 Clouds 9 1003 93 10000 3.6 70 16:41 09.09.2021
6448 Clouds 9 1004 93 10000 4.12 80 15:51 09.09.2021
6449 Rain 10 1004 93 10000 3.6 80 12:53 09.09.2021
6450 Rain 9 1004 93 10000 3.6 70 11:47 09.09.2021
6451 Mist 9 1004 93 4828 3.6 80 10:25 09.09.2021
6452 Clouds 10 1004 97 10000 3.66 77 08:55 09.09.2021
6453 Rain 11 1004 87 10000 3.6 120 06:39 09.09.2021
6454 Rain 11 1004 87 10000 4.63 120 02:56 09.09.2021
6455 Rain 9 1004 87 10000 0 0 22:45 08.09.2021
6456 Mist 8 1004 93 9656 0 0 21:35 08.09.2021
6457 Clouds 8 1004 87 10000 1.54 360 20:19 08.09.2021
6458 Clouds 7 1004 87 10000 2.06 320 19:23 08.09.2021
6459 Clouds 6 1004 93 10000 2.57 330 18:29 08.09.2021
6460 Clouds 5 1005 97 10000 1.27 99 17:56 08.09.2021
6461 Clouds 6 1004 87 10000 0 0 16:34 08.09.2021
6462 Rain 7 1004 87 10000 2.06 20 14:30 08.09.2021
6463 Rain 7 1004 87 10000 2.06 20 14:30 08.09.2021
6464 Rain 7 1004 87 10000 2.06 20 14:30 08.09.2021
6465 Rain 7 1004 87 10000 2.06 20 14:30 08.09.2021
6466 Rain 7 1004 87 10000 2.06 20 14:30 08.09.2021
6467 Clouds 7 1004 93 10000 1.54 340 12:54 08.09.2021
6468 Clouds 8 1004 87 10000 2.57 310 12:27 08.09.2021
6469 Clouds 8 1003 87 10000 3.09 260 11:38 08.09.2021
6470 Clouds 9 1003 87 10000 6.17 230 10:42 08.09.2021
6471 Clouds 9 1003 87 10000 6.17 230 10:24 08.09.2021
6472 Mist 9 1002 93 9656 6.17 220 08:54 08.09.2021
6473 Rain 10 1001 93 4828 7.72 200 07:38 08.09.2021
6474 Mist 11 1001 87 9656 9.77 180 05:34 08.09.2021
6475 Mist 10 1002 87 9656 7.2 180 22:50 07.09.2021
6476 Rain 10 1002 96 10000 6.61 186 21:59 07.09.2021
6477 Mist 10 1001 87 8047 7.2 200 20:23 07.09.2021
6478 Mist 9 1001 93 8047 9.26 200 18:45 07.09.2021
6479 Mist 9 1001 93 8047 9.26 200 18:18 07.09.2021
6480 Mist 9 1001 93 8047 9.26 200 18:18 07.09.2021
6481 Mist 9 1001 100 8047 8.75 200 16:42 07.09.2021
6482 Mist 9 1001 100 3219 8.75 210 15:40 07.09.2021
6483 Mist 9 1001 100 8047 7.72 210 14:44 07.09.2021
6484 Rain 8 1001 93 10000 2.57 100 12:44 07.09.2021
6485 Rain 8 1001 87 9656 0 0 11:51 07.09.2021
6486 Mist 8 1001 87 9656 1.54 150 10:41 07.09.2021
6487 Clouds 8 1000 87 10000 4.12 250 08:39 07.09.2021
6488 Clouds 9 1000 87 10000 4.63 230 07:44 07.09.2021
6489 Rain 9 999 93 6437 7.2 220 05:41 07.09.2021
6490 Rain 9 998 93 6437 9.26 210 02:38 07.09.2021
6491 Rain 9 999 93 10000 5.66 190 00:52 07.09.2021
6492 Rain 7 999 93 4828 5.66 100 23:35 06.09.2021
6493 Rain 7 1001 93 10000 4.12 80 22:57 06.09.2021
6494 Rain 7 1001 93 10000 4.12 80 22:39 06.09.2021
6495 Mist 7 1002 87 9656 3.6 120 21:29 06.09.2021
6496 Rain 7 1003 77 10000 2.57 200 19:32 06.09.2021
6497 Rain 7 1003 82 10000 3.09 210 18:53 06.09.2021
6498 Rain 7 1004 77 10000 3.09 230 18:24 06.09.2021
6499 Clouds 7 1004 82 10000 0 0 17:36 06.09.2021
6500 Clouds 6 1004 87 10000 3.6 90 15:55 06.09.2021
6501 Clouds 6 1005 87 10000 0 0 14:25 06.09.2021
6502 Clouds 6 1005 87 10000 1.54 40 12:48 06.09.2021
6503 Rain 6 1006 87 10000 2.57 40 10:59 06.09.2021
6504 Clouds 6 1007 90 10000 1.79 44 09:59 06.09.2021
6505 Rain 7 1006 87 10000 1.54 50 07:21 06.09.2021
6506 Clouds 9 1005 71 10000 0 0 23:40 05.09.2021
6507 Clouds 9 1005 72 10000 0 0 23:18 05.09.2021
6508 Clouds 7 1004 87 10000 2.06 260 22:30 05.09.2021
6509 Clouds 7 1004 87 10000 2.06 260 22:30 05.09.2021
6510 Rain 7 1004 82 10000 0 0 21:49 05.09.2021
6511 Rain 6 1004 87 10000 0 0 20:50 05.09.2021
6512 Rain 6 1004 87 10000 0 0 20:50 05.09.2021
6513 Rain 6 1003 87 10000 0 0 18:56 05.09.2021
6514 Rain 6 1003 82 10000 1.54 70 17:34 05.09.2021
6515 Rain 6 1003 81 10000 0 0 15:31 05.09.2021
6516 Rain 5 1003 81 10000 1.54 280 14:23 05.09.2021
6517 Clouds 5 1003 75 10000 4.63 310 12:30 05.09.2021
6518 Clouds 4 1003 81 10000 3.6 290 10:55 05.09.2021
6519 Clouds 4 1003 81 10000 3.6 290 10:33 05.09.2021
6520 Clouds 6 1003 75 10000 4.63 300 09:22 05.09.2021
6521 Clouds 6 1003 75 10000 4.63 300 08:21 05.09.2021
6522 Clouds 11 1002 50 10000 4.12 340 02:36 05.09.2021
6523 Clouds 10 1002 54 10000 1.54 0 00:30 05.09.2021
6524 Clouds 10 1002 54 10000 1.54 0 00:30 05.09.2021
6525 Clouds 9 1002 57 10000 1.54 280 23:42 04.09.2021
6526 Clear 9 1002 58 10000 2.06 0 22:36 04.09.2021
6527 Clouds 8 1003 72 10000 3.33 341 21:58 04.09.2021
6528 Clouds 2 1003 93 10000 3 344 19:53 04.09.2021
6529 Clear 4 1001 81 10000 3.6 340 19:27 04.09.2021
6530 Clouds 6 1001 76 10000 4.63 310 16:26 04.09.2021
6531 Clouds 8 1000 77 10000 3.6 310 13:30 04.09.2021
6532 Clouds 8 999 87 10000 3.09 360 11:20 04.09.2021
6533 Clouds 10 999 77 10000 5.66 350 09:25 04.09.2021
6534 Rain 13 998 76 10000 3.6 360 06:55 04.09.2021
6535 Clouds 14 997 77 10000 2.06 210 00:27 04.09.2021
6536 Clouds 14 998 77 10000 2.06 250 23:32 03.09.2021
6537 Clouds 14 997 82 10000 2.06 290 22:39 03.09.2021
6538 Clouds 13 997 82 10000 0 0 21:35 03.09.2021
6539 Clouds 12 997 82 10000 1.54 200 20:43 03.09.2021
6540 Clouds 11 998 96 10000 2.04 3 19:56 03.09.2021
6541 Clouds 12 997 83 10000 0 0 19:20 03.09.2021
6542 Clouds 8 998 97 10000 2.32 8 17:56 03.09.2021
6543 Clear 11 998 87 10000 0 0 16:38 03.09.2021
6544 Clouds 9 999 95 10000 2.56 14 14:59 03.09.2021
6545 Clear 13 998 82 10000 0 0 12:26 03.09.2021
6546 Clear 13 998 88 10000 0 0 10:32 03.09.2021
6547 Clear 13 998 88 10000 0 0 10:32 03.09.2021
6548 Clear 14 998 82 10000 0 0 09:18 03.09.2021
6549 Clear 16 998 72 10000 1.54 260 07:47 03.09.2021
6550 Clouds 17 998 63 10000 5.14 270 05:24 03.09.2021
6551 Clear 17 1001 60 10000 2.57 320 23:21 02.09.2021
6552 Clear 14 1001 73 10000 1.54 10 21:38 02.09.2021
6553 Clouds 10 1003 95 10000 2.42 20 19:56 02.09.2021
6554 Clear 12 1002 77 10000 3.6 350 17:33 02.09.2021
6555 Clouds 8 1004 93 10000 3.45 12 15:54 02.09.2021
6556 Clouds 10 1005 93 10000 3.36 12 13:59 02.09.2021
6557 Clouds 10 1005 93 10000 3.26 16 12:55 02.09.2021
6558 Clouds 13 1004 77 10000 3.6 360 11:35 02.09.2021
6559 Clouds 13 1005 82 10000 4.63 20 09:44 02.09.2021
6560 Clouds 13 1007 89 10000 2.81 21 07:57 02.09.2021
6561 Rain 14 1005 77 10000 4.12 40 07:18 02.09.2021
6562 Clouds 16 1008 72 10000 2.12 18 02:57 02.09.2021
6563 Clouds 14 1007 72 10000 3.6 220 02:33 02.09.2021
6564 Clouds 16 1007 63 10000 2.06 80 01:29 02.09.2021
6565 Clouds 14 1008 68 10000 1.54 40 23:40 01.09.2021
6566 Clouds 13 1008 76 10000 2.57 330 22:41 01.09.2021
6567 Clouds 12 1008 77 10000 2.57 340 21:40 01.09.2021
6568 Clouds 11 1008 82 10000 4.12 340 20:39 01.09.2021
6569 Clouds 10 1009 94 10000 2.16 28 18:53 01.09.2021
6570 Clouds 11 1008 83 10000 3.09 340 17:40 01.09.2021
6571 Clouds 11 1009 77 10000 3.6 340 16:47 01.09.2021
6572 Clouds 10 1009 87 10000 2.57 350 15:47 01.09.2021
6573 Clouds 11 1009 82 10000 2.06 360 12:23 01.09.2021
6574 Clouds 11 1009 82 10000 2.57 340 11:44 01.09.2021
6575 Clouds 11 1010 87 10000 2.57 350 08:48 01.09.2021
6576 Clouds 11 1010 87 10000 3.09 340 07:52 01.09.2021
6577 Clouds 11 1011 82 10000 1.54 280 05:23 01.09.2021
6578 Clouds 11 1012 82 10000 2.57 90 22:41 31.08.2021
6579 Clouds 10 1012 87 10000 2.06 70 21:27 31.08.2021
6580 Rain 9 1012 93 9656 0 0 19:46 31.08.2021
6581 Rain 8 1013 93 10000 2.57 70 18:30 31.08.2021
6582 Rain 8 1013 93 10000 2.57 80 17:38 31.08.2021
6583 Rain 8 1013 93 10000 2.57 80 17:38 31.08.2021
6584 Rain 8 1013 93 10000 2.57 80 17:20 31.08.2021
6585 Rain 9 1013 87 10000 2.06 90 16:24 31.08.2021
6586 Clouds 9 1014 87 10000 1.54 80 13:20 31.08.2021
6587 Clouds 9 1014 87 10000 2.57 170 11:28 31.08.2021
6588 Clouds 9 1014 87 10000 2.57 150 10:52 31.08.2021
6589 Clouds 9 1014 87 10000 2.57 160 09:44 31.08.2021
6590 Mist 9 1014 93 8047 3.09 200 08:38 31.08.2021
6591 Mist 9 1014 93 6437 2.57 190 07:35 31.08.2021
6592 Rain 9 1015 93 10000 3.6 210 03:40 31.08.2021
6593 Rain 9 1016 93 2414 2.57 240 23:35 30.08.2021
6594 Rain 9 1015 93 2414 3.09 240 21:45 30.08.2021
6595 Rain 9 1015 93 2414 3.09 240 21:27 30.08.2021
6596 Rain 9 1015 93 1609 3.6 220 20:20 30.08.2021
6597 Rain 9 1015 93 1609 2.57 240 19:29 30.08.2021
6598 Rain 9 1015 93 10000 2.57 230 18:34 30.08.2021
6599 Mist 9 1015 93 9656 5.66 220 17:45 30.08.2021
6600 Clouds 9 1015 93 10000 5.14 230 16:22 30.08.2021
6601 Clouds 9 1015 93 10000 4.12 250 15:38 30.08.2021
6602 Rain 9 1015 93 9656 6.17 230 13:35 30.08.2021
6603 Rain 9 1015 93 10000 7.2 230 12:24 30.08.2021
6604 Rain 9 1015 93 9656 7.2 220 09:30 30.08.2021
6605 Rain 9 1014 93 4023 7.2 210 22:28 29.08.2021
6606 Clouds 9 1014 93 10000 7.2 220 21:32 29.08.2021
6607 Mist 9 1014 93 8047 6.17 220 19:59 29.08.2021
6608 Mist 9 1013 93 4828 6.17 210 19:19 29.08.2021
6609 Rain 9 1013 93 10000 5.66 220 17:47 29.08.2021
6610 Mist 9 1013 93 6437 4.12 230 15:48 29.08.2021
6611 Mist 9 1013 93 6437 4.12 230 15:48 29.08.2021
6612 Rain 9 1013 93 3219 4.63 230 14:19 29.08.2021
6613 Mist 9 1013 93 4023 4.63 220 13:43 29.08.2021
6614 Clouds 9 1012 93 10000 4.12 230 12:32 29.08.2021
6615 Rain 9 1012 93 10000 4.63 220 11:48 29.08.2021
6616 Mist 9 1012 93 8047 3.6 240 10:52 29.08.2021
6617 Mist 9 1012 93 8047 3.6 240 10:33 29.08.2021
6618 Clouds 9 1012 97 5506 2.51 246 09:54 29.08.2021
6619 Mist 9 1010 100 1207 4.63 230 06:55 29.08.2021
6620 Mist 9 1008 93 9656 6.69 250 00:21 29.08.2021
6621 Mist 9 1008 93 3219 8.75 210 21:50 28.08.2021
6622 Rain 9 1008 93 4023 10.8 200 19:54 28.08.2021
6623 Rain 9 1009 93 3219 11.32 200 18:28 28.08.2021
6624 Rain 9 1009 87 3219 10.29 200 17:48 28.08.2021
6625 Rain 9 1010 87 8047 9.26 200 16:58 28.08.2021
6626 Rain 9 1011 81 10000 10.29 200 15:33 28.08.2021
6627 Clouds 9 1012 81 10000 7.72 210 14:19 28.08.2021
6628 Clouds 9 1012 81 10000 8.23 210 13:43 28.08.2021
6629 Rain 9 1013 81 10000 9.77 200 12:41 28.08.2021
6630 Rain 8 1013 87 10000 9.26 200 11:51 28.08.2021
6631 Rain 8 1014 87 10000 7.72 200 10:29 28.08.2021
6632 Rain 8 1014 82 9656 7.72 210 08:39 28.08.2021
6633 Rain 7 1015 81 10000 8.23 210 06:24 28.08.2021
6634 Clouds 8 1016 66 10000 6.17 280 22:28 27.08.2021
6635 Clouds 7 1016 77 10000 3.68 285 20:56 27.08.2021
6636 Clear 6 1016 70 10000 0 0 20:19 27.08.2021
6637 Clear 1 1016 91 10000 2.72 307 18:57 27.08.2021
6638 Clouds 3 1015 76 10000 2.06 110 18:37 27.08.2021
6639 Clear -2 1015 92 10000 2.85 304 16:55 27.08.2021
6640 Clear 2 1013 76 10000 0 0 15:22 27.08.2021
6641 Clear 3 1013 76 10000 4.63 300 14:41 27.08.2021
6642 Clear 3 1012 76 10000 2.57 280 12:30 27.08.2021
6643 Clear 3 1011 81 10000 5.14 300 11:25 27.08.2021
6644 Clear 4 1011 71 10000 6.69 320 10:43 27.08.2021
6645 Clouds 5 1010 66 10000 6.17 320 09:30 27.08.2021
6646 Clear 6 1009 62 10000 5.66 290 08:41 27.08.2021
6647 Clear 9 1006 50 10000 7.72 340 05:54 27.08.2021
6648 Clouds 9 1004 54 10000 6.69 310 02:48 27.08.2021
6649 Clouds 9 1002 62 10000 7.72 310 00:32 27.08.2021
6650 Clouds 9 1001 71 10000 7.2 300 22:29 26.08.2021
6651 Clouds 9 1002 78 10000 7.49 326 21:57 26.08.2021
6652 Clouds 7 999 76 10000 4.12 300 20:18 26.08.2021
6653 Clouds 7 997 87 10000 2.57 340 18:49 26.08.2021
6654 Clouds 7 997 93 10000 3.6 300 17:44 26.08.2021
6655 Rain 8 997 93 10000 7.2 250 16:32 26.08.2021
6656 Rain 8 997 95 10000 4.7 260 15:54 26.08.2021
6657 Rain 8 999 93 8047 11.32 220 13:33 26.08.2021
6658 Rain 8 999 87 6437 12.35 210 12:49 26.08.2021
6659 Rain 8 1000 87 10000 11.32 210 11:56 26.08.2021
6660 Rain 7 1002 81 10000 8.23 220 09:43 26.08.2021
6661 Rain 7 1002 81 10000 10.29 220 08:33 26.08.2021
6662 Clouds 8 1005 67 10000 5.14 250 01:30 26.08.2021
6663 Clouds 7 1005 65 10000 5.66 300 22:48 25.08.2021
6664 Clouds 7 1005 65 10000 5.66 300 22:29 25.08.2021
6665 Clouds 6 1005 65 10000 5.66 310 21:25 25.08.2021
6666 Clouds 4 1005 75 10000 2.06 320 20:43 25.08.2021
6667 Clouds 4 1005 76 10000 2.06 320 20:25 25.08.2021
6668 Clear 2 1005 80 10000 3.6 300 18:32 25.08.2021
6669 Clear 1 1005 86 10000 4.12 330 17:19 25.08.2021
6670 Clear 3 1005 76 10000 3.6 360 15:42 25.08.2021
6671 Clouds 3 1005 81 10000 3.09 320 14:47 25.08.2021
6672 Clouds 3 1006 88 10000 2.63 349 13:59 25.08.2021
6673 Clouds 5 1007 87 10000 2.35 338 12:53 25.08.2021
6674 Clouds 7 1005 71 10000 5.14 360 11:25 25.08.2021
6675 Clouds 7 1005 71 10000 5.14 360 11:25 25.08.2021
6676 Clouds 7 1005 71 10000 3.6 360 10:26 25.08.2021
6677 Clouds 7 1005 71 10000 7.2 360 09:43 25.08.2021
6678 Clouds 8 1005 67 10000 5.14 360 08:40 25.08.2021
6679 Clouds 9 1005 67 10000 4.63 10 07:43 25.08.2021
6680 Rain 9 1005 81 10000 5.14 350 01:26 25.08.2021
6681 Rain 11 1005 77 10000 3.6 340 23:40 24.08.2021
6682 Clouds 11 1004 76 10000 1.54 0 21:48 24.08.2021
6683 Clouds 11 1004 76 10000 2.06 360 20:38 24.08.2021
6684 Clouds 10 1004 81 10000 1.54 360 19:44 24.08.2021
6685 Clouds 8 1004 93 10000 2.96 9 17:57 24.08.2021
6686 Clouds 11 1003 77 10000 0